Wetterdaten: Mittwoch, 22.03.2017
Datum Zeit Temp. A. Temp. A. max Feuchte A. Luftdruck Regen Wind Richtung Richtung Sonnenschein ET UV Solar Taupunkt Windchill Windböen
22.03.2017 00:00 6,8 °C 6,8 °C 89 % 1010,5 hPa 0,0 mm 2,3 km/h (1 Bft) N-NW 329 ° 0 min 0,000 mm 0,0 UV-I 0 W/m² 5,1 °C 6,8 °C 3,2 km/h (1 Bft)
22.03.2017 00:01 6,8 °C 6,8 °C 89 % 1010,5 hPa 0,0 mm 2,7 km/h (1 Bft) N-NW 329 ° 0 min 0,000 mm 0,0 UV-I 0 W/m² 5,1 °C 6,8 °C 3,2 km/h (1 Bft)
22.03.2017 00:02 6,7 °C 6,8 °C 89 % 1010,5 hPa 0,0 mm 5,3 km/h (1 Bft) W-NW 302 ° 0 min 0,000 mm 0,0 UV-I 0 W/m² 5,0 °C 5,9 °C 6,4 km/h (2 Bft)
22.03.2017 00:03 6,7 °C 6,8 °C 90 % 1010,5 hPa 0,0 mm 3,3 km/h (1 Bft) W-NW 302 ° 0 min 0,000 mm 0,0 UV-I 0 W/m² 5,2 °C 6,7 °C 4,8 km/h (1 Bft)
22.03.2017 00:04 6,7 °C 6,7 °C 90 % 1010,6 hPa 0,0 mm 2,5 km/h (1 Bft) W-NW 302 ° 0 min 0,000 mm 0,0 UV-I 0 W/m² 5,2 °C 6,7 °C 4,8 km/h (1 Bft)
22.03.2017 00:05 6,6 °C 6,7 °C 90 % 1010,6 hPa 0,0 mm 1,9 km/h (1 Bft) W-NW 302 ° 0 min 0,000 mm 0,0 UV-I 0 W/m² 5,1 °C 6,6 °C 3,2 km/h (1 Bft)
22.03.2017 00:06 6,6 °C 6,6 °C 90 % 1010,5 hPa 0,0 mm 4,5 km/h (1 Bft) W-NW 298 ° 0 min 0,000 mm 0,0 UV-I 0 W/m² 5,1 °C 6,6 °C 6,4 km/h (2 Bft)
22.03.2017 00:07 6,6 °C 6,6 °C 90 % 1010,5 hPa 0,0 mm 3,1 km/h (1 Bft) NW 306 ° 0 min 0,000 mm 0,0 UV-I 0 W/m² 5,1 °C 6,6 °C 6,4 km/h (2 Bft)
22.03.2017 00:08 6,5 °C 6,6 °C 90 % 1010,6 hPa 0,0 mm 3,7 km/h (1 Bft) NW 308 ° 0 min 0,000 mm 0,0 UV-I 0 W/m² 5,0 °C 6,5 °C 4,8 km/h (1 Bft)
22.03.2017 00:09 6,4 °C 6,5 °C 90 % 1010,6 hPa 0,0 mm 4,3 km/h (1 Bft) NW 306 ° 0 min 0,000 mm 0,0 UV-I 0 W/m² 4,9 °C 6,4 °C 6,4 km/h (2 Bft)
22.03.2017 00:10 6,4 °C 6,4 °C 90 % 1010,5 hPa 0,0 mm 3,4 km/h (1 Bft) NW 308 ° 0 min 0,000 mm 0,0 UV-I 0 W/m² 4,9 °C 6,4 °C 6,4 km/h (2 Bft)
22.03.2017 00:11 6,4 °C 6,4 °C 90 % 1010,5 hPa 0,0 mm 3,0 km/h (1 Bft) NW 311 ° 0 min 0,000 mm 0,0 UV-I 0 W/m² 4,9 °C 6,4 °C 4,8 km/h (1 Bft)
22.03.2017 00:12 6,4 °C 6,4 °C 90 % 1010,5 hPa 0,0 mm 1,9 km/h (1 Bft) NW 311 ° 0 min 0,000 mm 0,0 UV-I 0 W/m² 4,9 °C 6,4 °C 3,2 km/h (1 Bft)
22.03.2017 00:13 6,4 °C 6,4 °C 90 % 1010,5 hPa 0,0 mm 3,7 km/h (1 Bft) NW 313 ° 0 min 0,000 mm 0,0 UV-I 0 W/m² 4,9 °C 6,4 °C 4,8 km/h (1 Bft)
22.03.2017 00:14 6,3 °C 6,4 °C 90 % 1010,5 hPa 0,0 mm 2,7 km/h (1 Bft) NW 313 ° 0 min 0,000 mm 0,0 UV-I 0 W/m² 4,8 °C 6,3 °C 3,2 km/h (1 Bft)
22.03.2017 00:15 6,3 °C 6,4 °C 90 % 1010,5 hPa 0,0 mm 2,6 km/h (1 Bft) NW 313 ° 0 min 0,000 mm 0,0 UV-I 0 W/m² 4,8 °C 6,3 °C 4,8 km/h (1 Bft)
22.03.2017 00:16 6,3 °C 6,4 °C 90 % 1010,5 hPa 0,2 mm 3,5 km/h (1 Bft) NW 313 ° 0 min 0,000 mm 0,0 UV-I 0 W/m² 4,8 °C 6,3 °C 4,8 km/h (1 Bft)
22.03.2017 00:17 6,3 °C 6,3 °C 91 % 1010,4 hPa 0,0 mm 3,8 km/h (1 Bft) NW 313 ° 0 min 0,000 mm 0,0 UV-I 0 W/m² 4,9 °C 6,3 °C 4,8 km/h (1 Bft)
22.03.2017 00:18 6,3 °C 6,3 °C 91 % 1010,4 hPa 0,0 mm 3,4 km/h (1 Bft) NW 325 ° 0 min 0,000 mm 0,0 UV-I 0 W/m² 4,9 °C 6,3 °C 4,8 km/h (1 Bft)
22.03.2017 00:19 6,3 °C 6,3 °C 91 % 1010,5 hPa 0,0 mm 2,8 km/h (1 Bft) NW 325 ° 0 min 0,000 mm 0,0 UV-I 0 W/m² 4,9 °C 6,3 °C 4,8 km/h (1 Bft)
22.03.2017 00:20 6,3 °C 6,3 °C 91 % 1010,5 hPa 0,0 mm 2,9 km/h (1 Bft) NW 325 ° 0 min 0,000 mm 0,0 UV-I 0 W/m² 4,9 °C 6,3 °C 4,8 km/h (1 Bft)
22.03.2017 00:21 6,2 °C 6,3 °C 91 % 1010,5 hPa 0,0 mm 1,2 km/h (1 Bft) NW 325 ° 0 min 0,000 mm 0,0 UV-I 0 W/m² 4,8 °C 6,2 °C 3,2 km/h (1 Bft)
22.03.2017 00:22 6,2 °C 6,2 °C 91 % 1010,5 hPa 0,0 mm 3,0 km/h (1 Bft) N 355 ° 0 min 0,000 mm 0,0 UV-I 0 W/m² 4,8 °C 6,2 °C 4,8 km/h (1 Bft)
22.03.2017 00:23 6,2 °C 6,2 °C 91 % 1010,5 hPa 0,0 mm 3,3 km/h (1 Bft) N 355 ° 0 min 0,000 mm 0,0 UV-I 0 W/m² 4,8 °C 6,2 °C 4,8 km/h (1 Bft)
22.03.2017 00:24 6,2 °C 6,2 °C 91 % 1010,5 hPa 0,0 mm 2,1 km/h (1 Bft) N 355 ° 0 min 0,000 mm 0,0 UV-I 0 W/m² 4,8 °C 6,2 °C 4,8 km/h (1 Bft)
22.03.2017 00:25 6,2 °C 6,2 °C 91 % 1010,5 hPa 0,0 mm 2,5 km/h (1 Bft) N 355 ° 0 min 0,000 mm 0,0 UV-I 0 W/m² 4,8 °C 6,2 °C 3,2 km/h (1 Bft)
22.03.2017 00:26 6,2 °C 6,2 °C 91 % 1010,5 hPa 0,0 mm 0,8 km/h (0 Bft) N 355 ° 0 min 0,000 mm 0,0 UV-I 0 W/m² 4,8 °C 6,2 °C 3,2 km/h (1 Bft)
22.03.2017 00:27 6,2 °C 6,2 °C 91 % 1010,5 hPa 0,0 mm 3,0 km/h (1 Bft) NW 324 ° 0 min 0,000 mm 0,0 UV-I 0 W/m² 4,8 °C 6,2 °C 4,8 km/h (1 Bft)
22.03.2017 00:28 6,2 °C 6,2 °C 91 % 1010,5 hPa 0,0 mm 1,7 km/h (1 Bft) NW 324 ° 0 min 0,000 mm 0,0 UV-I 0 W/m² 4,8 °C 6,2 °C 3,2 km/h (1 Bft)
22.03.2017 00:29 6,1 °C 6,2 °C 91 % 1010,5 hPa 0,0 mm 1,7 km/h (1 Bft) NW 324 ° 0 min 0,000 mm 0,0 UV-I 0 W/m² 4,7 °C 6,1 °C 3,2 km/h (1 Bft)
22.03.2017 00:30 6,2 °C 6,2 °C 91 % 1010,4 hPa 0,0 mm 0,3 km/h (0 Bft) NW 324 ° 0 min 0,000 mm 0,0 UV-I 0 W/m² 4,8 °C 6,2 °C 1,6 km/h (1 Bft)
22.03.2017 00:31 6,1 °C 6,2 °C 91 % 1010,4 hPa 0,0 mm 0,3 km/h (0 Bft) NW 324 ° 0 min 0,000 mm 0,0 UV-I 0 W/m² 4,7 °C 6,1 °C 1,6 km/h (1 Bft)
22.03.2017 00:32 6,1 °C 6,1 °C 91 % 1010,4 hPa 0,0 mm 0,1 km/h (0 Bft) NW 324 ° 0 min 0,000 mm 0,0 UV-I 0 W/m² 4,7 °C 6,1 °C 1,6 km/h (1 Bft)
22.03.2017 00:33 6,1 °C 6,1 °C 91 % 1010,4 hPa 0,2 mm 1,3 km/h (1 Bft) NW 324 ° 0 min 0,000 mm 0,0 UV-I 0 W/m² 4,7 °C 6,1 °C 3,2 km/h (1 Bft)
22.03.2017 00:34 6,1 °C 6,1 °C 91 % 1010,4 hPa 0,0 mm 0,2 km/h (0 Bft) NW 324 ° 0 min 0,000 mm 0,0 UV-I 0 W/m² 4,7 °C 6,1 °C 1,6 km/h (1 Bft)
22.03.2017 00:35 6,1 °C 6,1 °C 92 % 1010,4 hPa 0,0 mm 0,0 km/h (0 Bft) NW 324 ° 0 min 0,000 mm 0,0 UV-I 0 W/m² 4,9 °C 6,1 °C 0,0 km/h (0 Bft)
22.03.2017 00:36 6,1 °C 6,1 °C 91 % 1010,4 hPa 0,0 mm 0,5 km/h (0 Bft) NW 324 ° 0 min 0,000 mm 0,0 UV-I 0 W/m² 4,7 °C 6,1 °C 1,6 km/h (1 Bft)
22.03.2017 00:37 6,1 °C 6,1 °C 91 % 1010,4 hPa 0,0 mm 1,0 km/h (0 Bft) NW 324 ° 0 min 0,000 mm 0,0 UV-I 0 W/m² 4,7 °C 6,1 °C 1,6 km/h (1 Bft)
22.03.2017 00:38 6,1 °C 6,1 °C 91 % 1010,3 hPa 0,0 mm 0,2 km/h (0 Bft) NW 324 ° 0 min 0,000 mm 0,0 UV-I 0 W/m² 4,7 °C 6,1 °C 1,6 km/h (1 Bft)
22.03.2017 00:39 6,1 °C 6,1 °C 92 % 1010,4 hPa 0,0 mm 0,0 km/h (0 Bft) NW 324 ° 0 min 0,000 mm 0,0 UV-I 0 W/m² 4,9 °C 6,1 °C 0,0 km/h (0 Bft)
22.03.2017 00:40 6,0 °C 6,1 °C 92 % 1010,4 hPa 0,0 mm 0,0 km/h (0 Bft) NW 324 ° 0 min 0,000 mm 0,0 UV-I 0 W/m² 4,8 °C 6,0 °C 0,0 km/h (0 Bft)
22.03.2017 00:41 6,1 °C 6,1 °C 92 % 1010,4 hPa 0,0 mm 0,0 km/h (0 Bft) NW 324 ° 0 min 0,000 mm 0,0 UV-I 0 W/m² 4,9 °C 6,1 °C 0,0 km/h (0 Bft)
22.03.2017 00:42 6,0 °C 6,1 °C 92 % 1010,4 hPa 0,0 mm 0,7 km/h (0 Bft) NW 324 ° 0 min 0,000 mm 0,0 UV-I 0 W/m² 4,8 °C 6,0 °C 1,6 km/h (1 Bft)
22.03.2017 00:43 6,0 °C 6,1 °C 92 % 1010,4 hPa 0,0 mm 1,5 km/h (1 Bft) NW 324 ° 0 min 0,000 mm 0,0 UV-I 0 W/m² 4,8 °C 6,0 °C 1,6 km/h (1 Bft)
22.03.2017 00:44 6,0 °C 6,0 °C 92 % 1010,4 hPa 0,0 mm 1,1 km/h (1 Bft) NW 324 ° 0 min 0,000 mm 0,0 UV-I 0 W/m² 4,8 °C 6,0 °C 1,6 km/h (1 Bft)
22.03.2017 00:45 6,0 °C 6,1 °C 92 % 1010,4 hPa 0,0 mm 0,8 km/h (0 Bft) NW 324 ° 0 min 0,000 mm 0,0 UV-I 0 W/m² 4,8 °C 6,0 °C 1,6 km/h (1 Bft)
22.03.2017 00:46 6,0 °C 6,0 °C 92 % 1010,4 hPa 0,0 mm 1,2 km/h (1 Bft) NW 324 ° 0 min 0,000 mm 0,0 UV-I 0 W/m² 4,8 °C 6,0 °C 3,2 km/h (1 Bft)
22.03.2017 00:47 6,0 °C 6,0 °C 92 % 1010,4 hPa 0,0 mm 1,4 km/h (1 Bft) NW 324 ° 0 min 0,000 mm 0,0 UV-I 0 W/m² 4,8 °C 6,0 °C 1,6 km/h (1 Bft)
22.03.2017 00:48 6,0 °C 6,1 °C 92 % 1010,4 hPa 0,0 mm 1,0 km/h (0 Bft) NW 324 ° 0 min 0,000 mm 0,0 UV-I 0 W/m² 4,8 °C 6,0 °C 1,6 km/h (1 Bft)
22.03.2017 00:49 6,0 °C 6,0 °C 92 % 1010,4 hPa 0,0 mm 0,9 km/h (0 Bft) NW 324 ° 0 min 0,000 mm 0,0 UV-I 0 W/m² 4,8 °C 6,0 °C 1,6 km/h (1 Bft)
22.03.2017 00:50 5,9 °C 6,1 °C 92 % 1010,4 hPa 0,0 mm 0,9 km/h (0 Bft) NW 324 ° 0 min 0,000 mm 0,0 UV-I 0 W/m² 4,7 °C 5,9 °C 1,6 km/h (1 Bft)
22.03.2017 00:51 5,9 °C 6,0 °C 92 % 1010,4 hPa 0,0 mm 0,5 km/h (0 Bft) NW 324 ° 0 min 0,000 mm 0,0 UV-I 0 W/m² 4,7 °C 5,9 °C 1,6 km/h (1 Bft)
22.03.2017 00:52 5,9 °C 5,9 °C 92 % 1010,4 hPa 0,0 mm 0,0 km/h (0 Bft) NW 324 ° 0 min 0,000 mm 0,0 UV-I 0 W/m² 4,7 °C 5,9 °C 0,0 km/h (0 Bft)
22.03.2017 00:53 5,9 °C 5,9 °C 92 % 1010,5 hPa 0,0 mm 0,0 km/h (0 Bft) NW 324 ° 0 min 0,000 mm 0,0 UV-I 0 W/m² 4,7 °C 5,9 °C 0,0 km/h (0 Bft)
22.03.2017 00:54 5,9 °C 5,9 °C 92 % 1010,4 hPa 0,0 mm 0,2 km/h (0 Bft) NW 324 ° 0 min 0,000 mm 0,0 UV-I 0 W/m² 4,7 °C 5,9 °C 1,6 km/h (1 Bft)
22.03.2017 00:55 5,9 °C 5,9 °C 92 % 1010,4 hPa 0,0 mm 0,0 km/h (0 Bft) NW 324 ° 0 min 0,000 mm 0,0 UV-I 0 W/m² 4,7 °C 5,9 °C 0,0 km/h (0 Bft)
22.03.2017 00:56 5,9 °C 5,9 °C 92 % 1010,4 hPa 0,0 mm 0,0 km/h (0 Bft) NW 324 ° 0 min 0,000 mm 0,0 UV-I 0 W/m² 4,7 °C 5,9 °C 0,0 km/h (0 Bft)
22.03.2017 00:57 5,9 °C 5,9 °C 92 % 1010,4 hPa 0,0 mm 0,0 km/h (0 Bft) NW 324 ° 0 min 0,000 mm 0,0 UV-I 0 W/m² 4,7 °C 5,9 °C 0,0 km/h (0 Bft)
22.03.2017 00:58 5,8 °C 5,9 °C 92 % 1010,4 hPa 0,0 mm 0,0 km/h (0 Bft) NW 324 ° 0 min 0,000 mm 0,0 UV-I 0 W/m² 4,6 °C 5,8 °C 0,0 km/h (0 Bft)
22.03.2017 00:59 5,9 °C 5,9 °C 92 % 1010,4 hPa 0,0 mm 0,0 km/h (0 Bft) NW 324 ° 0 min 0,000 mm 0,0 UV-I 0 W/m² 4,7 °C 5,9 °C 0,0 km/h (0 Bft)
22.03.2017 01:00 5,8 °C 5,9 °C 92 % 1010,3 hPa 0,0 mm 0,0 km/h (0 Bft) NW 324 ° 0 min 0,000 mm 0,0 UV-I 0 W/m² 4,6 °C 5,8 °C 0,0 km/h (0 Bft)
22.03.2017 01:01 5,9 °C 5,9 °C 92 % 1010,3 hPa 0,0 mm 0,0 km/h (0 Bft) NW 324 ° 0 min 0,000 mm 0,0 UV-I 0 W/m² 4,7 °C 5,9 °C 0,0 km/h (0 Bft)
22.03.2017 01:02 5,9 °C 5,9 °C 92 % 1010,3 hPa 0,0 mm 0,0 km/h (0 Bft) NW 324 ° 0 min 0,000 mm 0,0 UV-I 0 W/m² 4,7 °C 5,9 °C 0,0 km/h (0 Bft)
22.03.2017 01:03 5,8 °C 5,9 °C 92 % 1010,3 hPa 0,0 mm 0,1 km/h (0 Bft) NW 324 ° 0 min 0,000 mm 0,0 UV-I 0 W/m² 4,6 °C 5,8 °C 1,6 km/h (1 Bft)
22.03.2017 01:04 5,9 °C 5,9 °C 92 % 1010,4 hPa 0,0 mm 0,0 km/h (0 Bft) NW 324 ° 0 min 0,000 mm 0,0 UV-I 0 W/m² 4,7 °C 5,9 °C 0,0 km/h (0 Bft)
22.03.2017 01:05 5,9 °C 5,9 °C 92 % 1010,3 hPa 0,0 mm 1,5 km/h (1 Bft) NW 324 ° 0 min 0,000 mm 0,0 UV-I 0 W/m² 4,7 °C 5,9 °C 3,2 km/h (1 Bft)
22.03.2017 01:06 5,9 °C 5,9 °C 92 % 1010,3 hPa 0,0 mm 1,8 km/h (1 Bft) NW 324 ° 0 min 0,000 mm 0,0 UV-I 0 W/m² 4,7 °C 5,9 °C 3,2 km/h (1 Bft)
22.03.2017 01:07 5,8 °C 5,9 °C 93 % 1010,3 hPa 0,0 mm 1,6 km/h (1 Bft) NW 324 ° 0 min 0,000 mm 0,0 UV-I 0 W/m² 4,8 °C 5,8 °C 3,2 km/h (1 Bft)
22.03.2017 01:08 5,8 °C 5,9 °C 93 % 1010,2 hPa 0,0 mm 1,6 km/h (1 Bft) NW 324 ° 0 min 0,000 mm 0,0 UV-I 0 W/m² 4,8 °C 5,8 °C 3,2 km/h (1 Bft)
22.03.2017 01:09 5,8 °C 5,9 °C 93 % 1010,2 hPa 0,0 mm 2,9 km/h (1 Bft) N-NO 12 ° 0 min 0,000 mm 0,0 UV-I 0 W/m² 4,8 °C 5,8 °C 4,8 km/h (1 Bft)
22.03.2017 01:10 5,9 °C 5,9 °C 93 % 1010,3 hPa 0,0 mm 1,7 km/h (1 Bft) N-NO 12 ° 0 min 0,000 mm 0,0 UV-I 0 W/m² 4,9 °C 5,9 °C 3,2 km/h (1 Bft)
22.03.2017 01:11 5,9 °C 5,9 °C 93 % 1010,3 hPa 0,0 mm 1,3 km/h (1 Bft) N-NO 12 ° 0 min 0,000 mm 0,0 UV-I 0 W/m² 4,9 °C 5,9 °C 3,2 km/h (1 Bft)
22.03.2017 01:12 5,8 °C 5,9 °C 93 % 1010,2 hPa 0,0 mm 0,9 km/h (0 Bft) N-NO 12 ° 0 min 0,000 mm 0,0 UV-I 0 W/m² 4,8 °C 5,8 °C 1,6 km/h (1 Bft)
22.03.2017 01:13 5,9 °C 5,9 °C 93 % 1010,2 hPa 0,0 mm 0,1 km/h (0 Bft) N-NO 12 ° 0 min 0,000 mm 0,0 UV-I 0 W/m² 4,9 °C 5,9 °C 1,6 km/h (1 Bft)
22.03.2017 01:14 5,8 °C 5,9 °C 93 % 1010,2 hPa 0,0 mm 0,7 km/h (0 Bft) N-NO 12 ° 0 min 0,000 mm 0,0 UV-I 0 W/m² 4,8 °C 5,8 °C 1,6 km/h (1 Bft)
22.03.2017 01:15 5,8 °C 5,9 °C 93 % 1010,2 hPa 0,0 mm 1,9 km/h (1 Bft) O-NO 72 ° 0 min 0,000 mm 0,0 UV-I 0 W/m² 4,8 °C 5,8 °C 4,8 km/h (1 Bft)
22.03.2017 01:16 5,9 °C 5,9 °C 93 % 1010,2 hPa 0,0 mm 2,5 km/h (1 Bft) O-NO 71 ° 0 min 0,000 mm 0,0 UV-I 0 W/m² 4,9 °C 5,9 °C 4,8 km/h (1 Bft)
22.03.2017 01:17 5,8 °C 5,9 °C 93 % 1010,3 hPa 0,0 mm 1,1 km/h (1 Bft) O-NO 71 ° 0 min 0,000 mm 0,0 UV-I 0 W/m² 4,8 °C 5,8 °C 3,2 km/h (1 Bft)
22.03.2017 01:18 5,9 °C 5,9 °C 93 % 1010,2 hPa 0,0 mm 1,1 km/h (1 Bft) O-NO 71 ° 0 min 0,000 mm 0,0 UV-I 0 W/m² 4,9 °C 5,9 °C 1,6 km/h (1 Bft)
22.03.2017 01:19 5,9 °C 5,9 °C 93 % 1010,3 hPa 0,0 mm 0,3 km/h (0 Bft) O-NO 71 ° 0 min 0,000 mm 0,0 UV-I 0 W/m² 4,9 °C 5,9 °C 1,6 km/h (1 Bft)
22.03.2017 01:20 5,9 °C 5,9 °C 93 % 1010,4 hPa 0,0 mm 1,8 km/h (1 Bft) O-NO 71 ° 0 min 0,000 mm 0,0 UV-I 0 W/m² 4,9 °C 5,9 °C 3,2 km/h (1 Bft)
22.03.2017 01:21 5,9 °C 5,9 °C 93 % 1010,4 hPa 0,0 mm 0,3 km/h (0 Bft) O-NO 71 ° 0 min 0,000 mm 0,0 UV-I 0 W/m² 4,9 °C 5,9 °C 1,6 km/h (1 Bft)
22.03.2017 01:22 5,9 °C 5,9 °C 93 % 1010,4 hPa 0,2 mm 2,5 km/h (1 Bft) O-NO 73 ° 0 min 0,000 mm 0,0 UV-I 0 W/m² 4,9 °C 5,9 °C 4,8 km/h (1 Bft)
22.03.2017 01:23 5,9 °C 5,9 °C 92 % 1010,4 hPa 0,0 mm 0,9 km/h (0 Bft) O-NO 73 ° 0 min 0,000 mm 0,0 UV-I 0 W/m² 4,7 °C 5,9 °C 1,6 km/h (1 Bft)
22.03.2017 01:24 5,9 °C 5,9 °C 92 % 1010,4 hPa 0,0 mm 2,3 km/h (1 Bft) O-NO 73 ° 0 min 0,000 mm 0,0 UV-I 0 W/m² 4,7 °C 5,9 °C 4,8 km/h (1 Bft)
22.03.2017 01:25 5,9 °C 5,9 °C 92 % 1010,3 hPa 0,0 mm 2,4 km/h (1 Bft) O-NO 73 ° 0 min 0,000 mm 0,0 UV-I 0 W/m² 4,7 °C 5,9 °C 3,2 km/h (1 Bft)
22.03.2017 01:26 5,9 °C 5,9 °C 92 % 1010,3 hPa 0,0 mm 1,5 km/h (1 Bft) O-NO 73 ° 0 min 0,000 mm 0,0 UV-I 0 W/m² 4,7 °C 5,9 °C 3,2 km/h (1 Bft)
22.03.2017 01:27 5,9 °C 5,9 °C 92 % 1010,3 hPa 0,0 mm 0,4 km/h (0 Bft) O-NO 73 ° 0 min 0,000 mm 0,0 UV-I 0 W/m² 4,7 °C 5,9 °C 1,6 km/h (1 Bft)
22.03.2017 01:28 5,9 °C 5,9 °C 92 % 1010,3 hPa 0,0 mm 0,1 km/h (0 Bft) O-NO 73 ° 0 min 0,000 mm 0,0 UV-I 0 W/m² 4,7 °C 5,9 °C 1,6 km/h (1 Bft)
22.03.2017 01:29 5,9 °C 5,9 °C 92 % 1010,3 hPa 0,0 mm 0,0 km/h (0 Bft) O-NO 73 ° 0 min 0,000 mm 0,0 UV-I 0 W/m² 4,7 °C 5,9 °C 0,0 km/h (0 Bft)
22.03.2017 01:30 5,8 °C 5,9 °C 92 % 1010,3 hPa 0,0 mm 1,2 km/h (1 Bft) O-NO 73 ° 0 min 0,000 mm 0,0 UV-I 0 W/m² 4,6 °C 5,8 °C 3,2 km/h (1 Bft)
22.03.2017 01:31 5,8 °C 5,9 °C 92 % 1010,3 hPa 0,0 mm 0,7 km/h (0 Bft) O-NO 73 ° 0 min 0,000 mm 0,0 UV-I 0 W/m² 4,6 °C 5,8 °C 1,6 km/h (1 Bft)
22.03.2017 01:32 5,8 °C 5,9 °C 92 % 1010,3 hPa 0,0 mm 2,7 km/h (1 Bft) O-NO 73 ° 0 min 0,000 mm 0,0 UV-I 0 W/m² 4,6 °C 5,8 °C 4,8 km/h (1 Bft)
22.03.2017 01:33 5,8 °C 5,9 °C 92 % 1010,3 hPa 0,0 mm 3,5 km/h (1 Bft) O-NO 72 ° 0 min 0,000 mm 0,0 UV-I 0 W/m² 4,6 °C 5,8 °C 4,8 km/h (1 Bft)
22.03.2017 01:34 5,8 °C 5,8 °C 92 % 1010,2 hPa 0,0 mm 2,3 km/h (1 Bft) O-NO 72 ° 0 min 0,000 mm 0,0 UV-I 0 W/m² 4,6 °C 5,8 °C 3,2 km/h (1 Bft)
22.03.2017 01:35 5,8 °C 5,8 °C 92 % 1010,3 hPa 0,0 mm 2,7 km/h (1 Bft) O-NO 72 ° 0 min 0,000 mm 0,0 UV-I 0 W/m² 4,6 °C 5,8 °C 4,8 km/h (1 Bft)
22.03.2017 01:36 5,8 °C 5,8 °C 92 % 1010,3 hPa 0,0 mm 2,5 km/h (1 Bft) O-NO 72 ° 0 min 0,000 mm 0,0 UV-I 0 W/m² 4,6 °C 5,8 °C 3,2 km/h (1 Bft)
22.03.2017 01:37 5,8 °C 5,8 °C 92 % 1010,3 hPa 0,0 mm 2,0 km/h (1 Bft) O-NO 72 ° 0 min 0,000 mm 0,0 UV-I 0 W/m² 4,6 °C 5,8 °C 3,2 km/h (1 Bft)
22.03.2017 01:38 5,8 °C 5,8 °C 92 % 1010,2 hPa 0,0 mm 0,7 km/h (0 Bft) O-NO 72 ° 0 min 0,000 mm 0,0 UV-I 0 W/m² 4,6 °C 5,8 °C 1,6 km/h (1 Bft)
22.03.2017 01:39 5,8 °C 5,8 °C 92 % 1010,2 hPa 0,0 mm 0,0 km/h (0 Bft) O-NO 72 ° 0 min 0,000 mm 0,0 UV-I 0 W/m² 4,6 °C 5,8 °C 0,0 km/h (0 Bft)
22.03.2017 01:40 5,8 °C 5,8 °C 93 % 1010,2 hPa 0,0 mm 2,4 km/h (1 Bft) O-NO 72 ° 0 min 0,000 mm 0,0 UV-I 0 W/m² 4,8 °C 5,8 °C 4,8 km/h (1 Bft)
22.03.2017 01:41 5,8 °C 5,8 °C 93 % 1010,2 hPa 0,0 mm 2,0 km/h (1 Bft) O-NO 72 ° 0 min 0,000 mm 0,0 UV-I 0 W/m² 4,8 °C 5,8 °C 3,2 km/h (1 Bft)
22.03.2017 01:42 5,8 °C 5,8 °C 93 % 1010,2 hPa 0,0 mm 2,4 km/h (1 Bft) O 80 ° 0 min 0,000 mm 0,0 UV-I 0 W/m² 4,8 °C 5,8 °C 4,8 km/h (1 Bft)
22.03.2017 01:43 5,7 °C 5,8 °C 93 % 1010,2 hPa 0,0 mm 1,8 km/h (1 Bft) O 80 ° 0 min 0,000 mm 0,0 UV-I 0 W/m² 4,7 °C 5,7 °C 3,2 km/h (1 Bft)
22.03.2017 01:44 5,7 °C 5,8 °C 93 % 1010,1 hPa 0,0 mm 0,8 km/h (0 Bft) O 80 ° 0 min 0,000 mm 0,0 UV-I 0 W/m² 4,7 °C 5,7 °C 1,6 km/h (1 Bft)
22.03.2017 01:45 5,7 °C 5,7 °C 93 % 1010,1 hPa 0,0 mm 1,5 km/h (1 Bft) O 80 ° 0 min 0,000 mm 0,0 UV-I 0 W/m² 4,7 °C 5,7 °C 1,6 km/h (1 Bft)
22.03.2017 01:46 5,7 °C 5,7 °C 93 % 1010,0 hPa 0,0 mm 1,8 km/h (1 Bft) O 80 ° 0 min 0,000 mm 0,0 UV-I 0 W/m² 4,7 °C 5,7 °C 3,2 km/h (1 Bft)
22.03.2017 01:47 5,7 °C 5,7 °C 93 % 1010,0 hPa 0,0 mm 1,4 km/h (1 Bft) O 80 ° 0 min 0,000 mm 0,0 UV-I 0 W/m² 4,7 °C 5,7 °C 3,2 km/h (1 Bft)
22.03.2017 01:48 5,7 °C 5,7 °C 93 % 1010,0 hPa 0,0 mm 2,7 km/h (1 Bft) O 80 ° 0 min 0,000 mm 0,0 UV-I 0 W/m² 4,7 °C 5,7 °C 4,8 km/h (1 Bft)
22.03.2017 01:49 5,7 °C 5,7 °C 93 % 1010,0 hPa 0,0 mm 3,2 km/h (1 Bft) O-SO 102 ° 0 min 0,000 mm 0,0 UV-I 0 W/m² 4,7 °C 5,7 °C 4,8 km/h (1 Bft)
22.03.2017 01:50 5,6 °C 5,7 °C 93 % 1010,0 hPa 0,0 mm 2,4 km/h (1 Bft) O-SO 102 ° 0 min 0,000 mm 0,0 UV-I 0 W/m² 4,6 °C 5,6 °C 4,8 km/h (1 Bft)
22.03.2017 01:51 5,7 °C 5,7 °C 93 % 1010,0 hPa 0,0 mm 1,2 km/h (1 Bft) O-SO 102 ° 0 min 0,000 mm 0,0 UV-I 0 W/m² 4,7 °C 5,7 °C 3,2 km/h (1 Bft)
22.03.2017 01:52 5,6 °C 5,7 °C 93 % 1010,0 hPa 0,0 mm 0,4 km/h (0 Bft) O-SO 102 ° 0 min 0,000 mm 0,0 UV-I 0 W/m² 4,6 °C 5,6 °C 1,6 km/h (1 Bft)
22.03.2017 01:53 5,6 °C 5,6 °C 93 % 1010,0 hPa 0,0 mm 1,6 km/h (1 Bft) O-NO 76 ° 0 min 0,000 mm 0,0 UV-I 0 W/m² 4,6 °C 5,6 °C 3,2 km/h (1 Bft)
22.03.2017 01:54 5,6 °C 5,6 °C 93 % 1010,0 hPa 0,0 mm 3,2 km/h (1 Bft) O-NO 76 ° 0 min 0,000 mm 0,0 UV-I 0 W/m² 4,6 °C 5,6 °C 4,8 km/h (1 Bft)
22.03.2017 01:55 5,6 °C 5,6 °C 93 % 1010,0 hPa 0,0 mm 3,2 km/h (1 Bft) O-NO 72 ° 0 min 0,000 mm 0,0 UV-I 0 W/m² 4,6 °C 5,6 °C 6,4 km/h (2 Bft)
22.03.2017 01:56 5,6 °C 5,6 °C 93 % 1010,0 hPa 0,0 mm 3,7 km/h (1 Bft) O 87 ° 0 min 0,000 mm 0,0 UV-I 0 W/m² 4,6 °C 5,6 °C 4,8 km/h (1 Bft)
22.03.2017 01:57 5,6 °C 5,6 °C 93 % 1010,0 hPa 0,0 mm 4,8 km/h (1 Bft) NO 48 ° 0 min 0,000 mm 0,0 UV-I 0 W/m² 4,6 °C 4,8 °C 8,0 km/h (2 Bft)
22.03.2017 01:58 5,6 °C 5,6 °C 93 % 1010,0 hPa 0,0 mm 3,2 km/h (1 Bft) O-NO 57 ° 0 min 0,000 mm 0,0 UV-I 0 W/m² 4,6 °C 5,6 °C 6,4 km/h (2 Bft)
22.03.2017 01:59 5,6 °C 5,6 °C 93 % 1010,0 hPa 0,0 mm 4,3 km/h (1 Bft) O-NO 67 ° 0 min 0,000 mm 0,0 UV-I 0 W/m² 4,6 °C 5,6 °C 9,7 km/h (2 Bft)
22.03.2017 02:00 5,6 °C 5,6 °C 93 % 1010,0 hPa 0,0 mm 5,2 km/h (1 Bft) O-NO 78 ° 0 min 0,000 mm 0,0 UV-I 0 W/m² 4,6 °C 4,7 °C 6,4 km/h (2 Bft)
22.03.2017 02:01 5,6 °C 5,6 °C 93 % 1010,0 hPa 0,0 mm 3,7 km/h (1 Bft) O-NO 77 ° 0 min 0,000 mm 0,0 UV-I 0 W/m² 4,6 °C 5,6 °C 6,4 km/h (2 Bft)
22.03.2017 02:02 5,6 °C 5,6 °C 93 % 1010,0 hPa 0,0 mm 2,7 km/h (1 Bft) NO 51 ° 0 min 0,000 mm 0,0 UV-I 0 W/m² 4,6 °C 5,6 °C 4,8 km/h (1 Bft)
22.03.2017 02:03 5,6 °C 5,6 °C 93 % 1010,0 hPa 0,0 mm 3,3 km/h (1 Bft) NO 51 ° 0 min 0,000 mm 0,0 UV-I 0 W/m² 4,6 °C 5,6 °C 4,8 km/h (1 Bft)
22.03.2017 02:04 5,6 °C 5,6 °C 93 % 1010,0 hPa 0,0 mm 3,7 km/h (1 Bft) NO 51 ° 0 min 0,000 mm 0,0 UV-I 0 W/m² 4,6 °C 5,6 °C 4,8 km/h (1 Bft)
22.03.2017 02:05 5,6 °C 5,6 °C 93 % 1010,1 hPa 0,0 mm 4,9 km/h (1 Bft) O-NO 74 ° 0 min 0,000 mm 0,0 UV-I 0 W/m² 4,6 °C 4,8 °C 6,4 km/h (2 Bft)
22.03.2017 02:06 5,6 °C 5,6 °C 93 % 1010,0 hPa 0,0 mm 2,5 km/h (1 Bft) O-NO 74 ° 0 min 0,000 mm 0,0 UV-I 0 W/m² 4,6 °C 5,6 °C 3,2 km/h (1 Bft)
22.03.2017 02:07 5,6 °C 5,6 °C 93 % 1010,0 hPa 0,0 mm 2,1 km/h (1 Bft) O-NO 74 ° 0 min 0,000 mm 0,0 UV-I 0 W/m² 4,6 °C 5,6 °C 3,2 km/h (1 Bft)
22.03.2017 02:08 5,6 °C 5,6 °C 93 % 1010,0 hPa 0,0 mm 3,5 km/h (1 Bft) O-NO 74 ° 0 min 0,000 mm 0,0 UV-I 0 W/m² 4,6 °C 5,6 °C 4,8 km/h (1 Bft)
22.03.2017 02:09 5,6 °C 5,6 °C 93 % 1010,0 hPa 0,0 mm 4,0 km/h (1 Bft) O-NO 72 ° 0 min 0,000 mm 0,0 UV-I 0 W/m² 4,6 °C 5,6 °C 4,8 km/h (1 Bft)
22.03.2017 02:10 5,6 °C 5,6 °C 93 % 1010,0 hPa 0,0 mm 1,7 km/h (1 Bft) O-NO 72 ° 0 min 0,000 mm 0,0 UV-I 0 W/m² 4,6 °C 5,6 °C 3,2 km/h (1 Bft)
22.03.2017 02:11 5,6 °C 5,6 °C 93 % 1010,0 hPa 0,0 mm 2,5 km/h (1 Bft) O-NO 72 ° 0 min 0,000 mm 0,0 UV-I 0 W/m² 4,6 °C 5,6 °C 3,2 km/h (1 Bft)
22.03.2017 02:12 5,6 °C 5,6 °C 93 % 1010,0 hPa 0,0 mm 5,1 km/h (1 Bft) O-NO 78 ° 0 min 0,000 mm 0,0 UV-I 0 W/m² 4,6 °C 4,7 °C 8,0 km/h (2 Bft)
22.03.2017 02:13 5,6 °C 5,6 °C 93 % 1010,0 hPa 0,0 mm 4,1 km/h (1 Bft) O-NO 70 ° 0 min 0,000 mm 0,0 UV-I 0 W/m² 4,6 °C 5,6 °C 6,4 km/h (2 Bft)
22.03.2017 02:14 5,5 °C 5,6 °C 93 % 1010,0 hPa 0,0 mm 6,2 km/h (2 Bft) O-NO 76 ° 0 min 0,000 mm 0,0 UV-I 0 W/m² 4,5 °C 4,2 °C 8,0 km/h (2 Bft)
22.03.2017 02:15 5,5 °C 5,6 °C 93 % 1010,0 hPa 0,0 mm 6,6 km/h (2 Bft) O-NO 62 ° 0 min 0,000 mm 0,0 UV-I 0 W/m² 4,5 °C 4,1 °C 9,7 km/h (2 Bft)
22.03.2017 02:16 5,4 °C 5,5 °C 93 % 1010,0 hPa 0,0 mm 6,8 km/h (2 Bft) O-NO 67 ° 0 min 0,000 mm 0,0 UV-I 0 W/m² 4,4 °C 3,9 °C 8,0 km/h (2 Bft)
22.03.2017 02:17 5,4 °C 5,5 °C 93 % 1010,0 hPa 0,0 mm 5,3 km/h (1 Bft) O-NO 68 ° 0 min 0,000 mm 0,0 UV-I 0 W/m² 4,4 °C 4,4 °C 8,0 km/h (2 Bft)
22.03.2017 02:18 5,4 °C 5,4 °C 93 % 1010,0 hPa 0,0 mm 3,6 km/h (1 Bft) O-NO 74 ° 0 min 0,000 mm 0,0 UV-I 0 W/m² 4,4 °C 5,4 °C 6,4 km/h (2 Bft)
22.03.2017 02:19 5,4 °C 5,4 °C 93 % 1010,0 hPa 0,0 mm 4,8 km/h (1 Bft) O-NO 74 ° 0 min 0,000 mm 0,0 UV-I 0 W/m² 4,4 °C 4,6 °C 6,4 km/h (2 Bft)
22.03.2017 02:20 5,4 °C 5,4 °C 93 % 1010,0 hPa 0,0 mm 4,5 km/h (1 Bft) O-NO 68 ° 0 min 0,000 mm 0,0 UV-I 0 W/m² 4,4 °C 5,4 °C 6,4 km/h (2 Bft)
22.03.2017 02:21 5,4 °C 5,4 °C 93 % 1010,0 hPa 0,0 mm 5,1 km/h (1 Bft) O-NO 73 ° 0 min 0,000 mm 0,0 UV-I 0 W/m² 4,4 °C 4,5 °C 6,4 km/h (2 Bft)
22.03.2017 02:22 5,4 °C 5,4 °C 93 % 1010,0 hPa 0,0 mm 3,3 km/h (1 Bft) O-NO 72 ° 0 min 0,000 mm 0,0 UV-I 0 W/m² 4,4 °C 5,4 °C 4,8 km/h (1 Bft)
22.03.2017 02:23 5,4 °C 5,4 °C 93 % 1010,0 hPa 0,0 mm 3,5 km/h (1 Bft) O-NO 59 ° 0 min 0,000 mm 0,0 UV-I 0 W/m² 4,4 °C 5,4 °C 6,4 km/h (2 Bft)
22.03.2017 02:24 5,4 °C 5,4 °C 93 % 1010,0 hPa 0,0 mm 4,3 km/h (1 Bft) NO 49 ° 0 min 0,000 mm 0,0 UV-I 0 W/m² 4,4 °C 5,4 °C 6,4 km/h (2 Bft)
22.03.2017 02:25 5,3 °C 5,4 °C 93 % 1010,0 hPa 0,0 mm 4,0 km/h (1 Bft) O 80 ° 0 min 0,000 mm 0,0 UV-I 0 W/m² 4,3 °C 5,3 °C 6,4 km/h (2 Bft)
22.03.2017 02:26 5,3 °C 5,4 °C 93 % 1010,0 hPa 0,0 mm 2,4 km/h (1 Bft) O-NO 69 ° 0 min 0,000 mm 0,0 UV-I 0 W/m² 4,3 °C 5,3 °C 4,8 km/h (1 Bft)
22.03.2017 02:27 5,3 °C 5,3 °C 94 % 1010,0 hPa 0,0 mm 3,0 km/h (1 Bft) O-NO 69 ° 0 min 0,000 mm 0,0 UV-I 0 W/m² 4,4 °C 5,3 °C 4,8 km/h (1 Bft)
22.03.2017 02:28 5,3 °C 5,3 °C 94 % 1010,1 hPa 0,0 mm 2,7 km/h (1 Bft) O-NO 76 ° 0 min 0,000 mm 0,0 UV-I 0 W/m² 4,4 °C 5,3 °C 4,8 km/h (1 Bft)
22.03.2017 02:29 5,3 °C 5,3 °C 94 % 1010,1 hPa 0,0 mm 4,3 km/h (1 Bft) O-NO 61 ° 0 min 0,000 mm 0,0 UV-I 0 W/m² 4,4 °C 5,3 °C 6,4 km/h (2 Bft)
22.03.2017 02:30 5,3 °C 5,3 °C 94 % 1010,0 hPa 0,0 mm 5,5 km/h (1 Bft) NO 48 ° 0 min 0,000 mm 0,0 UV-I 0 W/m² 4,4 °C 4,2 °C 6,4 km/h (2 Bft)
22.03.2017 02:31 5,3 °C 5,3 °C 94 % 1010,1 hPa 0,0 mm 3,4 km/h (1 Bft) NO 48 ° 0 min 0,000 mm 0,0 UV-I 0 W/m² 4,4 °C 5,3 °C 4,8 km/h (1 Bft)
22.03.2017 02:32 5,3 °C 5,3 °C 94 % 1010,0 hPa 0,0 mm 4,2 km/h (1 Bft) NO 49 ° 0 min 0,000 mm 0,0 UV-I 0 W/m² 4,4 °C 5,3 °C 6,4 km/h (2 Bft)
22.03.2017 02:33 5,3 °C 5,3 °C 94 % 1010,1 hPa 0,0 mm 1,7 km/h (1 Bft) NO 49 ° 0 min 0,000 mm 0,0 UV-I 0 W/m² 4,4 °C 5,3 °C 3,2 km/h (1 Bft)
22.03.2017 02:34 5,2 °C 5,3 °C 94 % 1010,1 hPa 0,0 mm 2,1 km/h (1 Bft) O-NO 72 ° 0 min 0,000 mm 0,0 UV-I 0 W/m² 4,3 °C 5,2 °C 4,8 km/h (1 Bft)
22.03.2017 02:35 5,2 °C 5,3 °C 94 % 1010,1 hPa 0,0 mm 4,5 km/h (1 Bft) NO 36 ° 0 min 0,000 mm 0,0 UV-I 0 W/m² 4,3 °C 5,2 °C 6,4 km/h (2 Bft)
22.03.2017 02:36 5,2 °C 5,3 °C 94 % 1010,1 hPa 0,0 mm 3,8 km/h (1 Bft) NO 39 ° 0 min 0,000 mm 0,0 UV-I 0 W/m² 4,3 °C 5,2 °C 4,8 km/h (1 Bft)
22.03.2017 02:37 5,2 °C 5,2 °C 94 % 1010,1 hPa 0,0 mm 3,9 km/h (1 Bft) NO 46 ° 0 min 0,000 mm 0,0 UV-I 0 W/m² 4,3 °C 5,2 °C 6,4 km/h (2 Bft)
22.03.2017 02:38 5,2 °C 5,2 °C 94 % 1010,1 hPa 0,0 mm 4,6 km/h (1 Bft) O-NO 59 ° 0 min 0,000 mm 0,0 UV-I 0 W/m² 4,3 °C 4,5 °C 6,4 km/h (2 Bft)
22.03.2017 02:39 5,2 °C 5,2 °C 94 % 1010,0 hPa 0,0 mm 4,8 km/h (1 Bft) O-NO 60 ° 0 min 0,000 mm 0,0 UV-I 0 W/m² 4,3 °C 4,4 °C 6,4 km/h (2 Bft)
22.03.2017 02:40 5,2 °C 5,2 °C 94 % 1010,0 hPa 0,0 mm 3,6 km/h (1 Bft) O-NO 60 ° 0 min 0,000 mm 0,0 UV-I 0 W/m² 4,3 °C 5,2 °C 4,8 km/h (1 Bft)
22.03.2017 02:41 5,2 °C 5,2 °C 94 % 1010,0 hPa 0,0 mm 6,1 km/h (2 Bft) NO 55 ° 0 min 0,000 mm 0,0 UV-I 0 W/m² 4,3 °C 3,9 °C 9,7 km/h (2 Bft)
22.03.2017 02:42 5,2 °C 5,2 °C 94 % 1010,0 hPa 0,0 mm 4,2 km/h (1 Bft) O-NO 61 ° 0 min 0,000 mm 0,0 UV-I 0 W/m² 4,3 °C 5,2 °C 6,4 km/h (2 Bft)
22.03.2017 02:43 5,2 °C 5,2 °C 94 % 1010,0 hPa 0,0 mm 3,0 km/h (1 Bft) O-NO 61 ° 0 min 0,000 mm 0,0 UV-I 0 W/m² 4,3 °C 5,2 °C 4,8 km/h (1 Bft)
22.03.2017 02:44 5,2 °C 5,2 °C 94 % 1009,9 hPa 0,0 mm 5,0 km/h (1 Bft) N 5 ° 0 min 0,000 mm 0,0 UV-I 0 W/m² 4,3 °C 4,3 °C 8,0 km/h (2 Bft)
22.03.2017 02:45 5,2 °C 5,2 °C 94 % 1009,9 hPa 0,0 mm 6,4 km/h (2 Bft) N 5 ° 0 min 0,000 mm 0,0 UV-I 0 W/m² 4,3 °C 3,8 °C 8,0 km/h (2 Bft)
22.03.2017 02:46 5,1 °C 5,2 °C 94 % 1009,8 hPa 0,0 mm 4,8 km/h (1 Bft) N-NO 29 ° 0 min 0,000 mm 0,0 UV-I 0 W/m² 4,2 °C 4,3 °C 6,4 km/h (2 Bft)
22.03.2017 02:47 5,1 °C 5,1 °C 94 % 1009,9 hPa 0,0 mm 4,3 km/h (1 Bft) N 360 ° 0 min 0,000 mm 0,0 UV-I 0 W/m² 4,2 °C 5,1 °C 8,0 km/h (2 Bft)
22.03.2017 02:48 5,1 °C 5,1 °C 94 % 1009,8 hPa 0,0 mm 4,8 km/h (1 Bft) N 360 ° 0 min 0,000 mm 0,0 UV-I 0 W/m² 4,2 °C 4,3 °C 6,4 km/h (2 Bft)
22.03.2017 02:49 5,1 °C 5,1 °C 94 % 1009,8 hPa 0,0 mm 3,9 km/h (1 Bft) NO 40 ° 0 min 0,000 mm 0,0 UV-I 0 W/m² 4,2 °C 5,1 °C 4,8 km/h (1 Bft)
22.03.2017 02:50 5,1 °C 5,1 °C 94 % 1009,8 hPa 0,0 mm 4,6 km/h (1 Bft) N 5 ° 0 min 0,000 mm 0,0 UV-I 0 W/m² 4,2 °C 4,4 °C 6,4 km/h (2 Bft)
22.03.2017 02:51 5,1 °C 5,1 °C 94 % 1009,8 hPa 0,0 mm 5,1 km/h (1 Bft) N 355 ° 0 min 0,000 mm 0,0 UV-I 0 W/m² 4,2 °C 4,2 °C 6,4 km/h (2 Bft)
22.03.2017 02:52 5,1 °C 5,1 °C 94 % 1009,8 hPa 0,0 mm 5,6 km/h (1 Bft) N-NO 15 ° 0 min 0,000 mm 0,0 UV-I 0 W/m² 4,2 °C 4,0 °C 8,0 km/h (2 Bft)
22.03.2017 02:53 5,1 °C 5,1 °C 94 % 1009,8 hPa 0,0 mm 4,4 km/h (1 Bft) N 355 ° 0 min 0,000 mm 0,0 UV-I 0 W/m² 4,2 °C 5,1 °C 6,4 km/h (2 Bft)
22.03.2017 02:54 5,0 °C 5,1 °C 94 % 1009,8 hPa 0,0 mm 7,0 km/h (2 Bft) NO 44 ° 0 min 0,000 mm 0,0 UV-I 0 W/m² 4,1 °C 3,4 °C 12,9 km/h (3 Bft)
22.03.2017 02:55 4,9 °C 5,0 °C 94 % 1009,8 hPa 0,0 mm 3,4 km/h (1 Bft) N-NO 12 ° 0 min 0,000 mm 0,0 UV-I 0 W/m² 4,0 °C 4,9 °C 4,8 km/h (1 Bft)
22.03.2017 02:56 4,9 °C 5,0 °C 94 % 1009,8 hPa 0,0 mm 3,2 km/h (1 Bft) N 5 ° 0 min 0,000 mm 0,0 UV-I 0 W/m² 4,0 °C 4,9 °C 8,0 km/h (2 Bft)
22.03.2017 02:57 4,9 °C 4,9 °C 94 % 1009,8 hPa 0,0 mm 5,4 km/h (1 Bft) N-NO 13 ° 0 min 0,000 mm 0,0 UV-I 0 W/m² 4,0 °C 3,8 °C 8,0 km/h (2 Bft)
22.03.2017 02:58 4,9 °C 4,9 °C 94 % 1009,8 hPa 0,0 mm 5,1 km/h (1 Bft) N 355 ° 0 min 0,000 mm 0,0 UV-I 0 W/m² 4,0 °C 3,9 °C 6,4 km/h (2 Bft)
22.03.2017 02:59 4,9 °C 4,9 °C 94 % 1009,8 hPa 0,0 mm 3,2 km/h (1 Bft) N 355 ° 0 min 0,000 mm 0,0 UV-I 0 W/m² 4,0 °C 4,9 °C 4,8 km/h (1 Bft)
22.03.2017 03:00 4,9 °C 4,9 °C 94 % 1009,8 hPa 0,0 mm 3,7 km/h (1 Bft) N 355 ° 0 min 0,000 mm 0,0 UV-I 0 W/m² 4,0 °C 4,9 °C 4,8 km/h (1 Bft)
22.03.2017 03:01 4,8 °C 4,9 °C 94 % 1009,9 hPa 0,0 mm 2,3 km/h (1 Bft) O-NO 59 ° 0 min 0,000 mm 0,0 UV-I 0 W/m² 3,9 °C 4,8 °C 4,8 km/h (1 Bft)
22.03.2017 03:02 4,8 °C 4,8 °C 94 % 1009,8 hPa 0,2 mm 3,5 km/h (1 Bft) O-NO 65 ° 0 min 0,000 mm 0,0 UV-I 0 W/m² 3,9 °C 4,8 °C 6,4 km/h (2 Bft)
22.03.2017 03:03 4,8 °C 4,8 °C 94 % 1009,9 hPa 0,0 mm 1,8 km/h (1 Bft) O-NO 65 ° 0 min 0,000 mm 0,0 UV-I 0 W/m² 3,9 °C 4,8 °C 3,2 km/h (1 Bft)
22.03.2017 03:04 4,8 °C 4,8 °C 94 % 1009,9 hPa 0,0 mm 3,1 km/h (1 Bft) O-NO 65 ° 0 min 0,000 mm 0,0 UV-I 0 W/m² 3,9 °C 4,8 °C 4,8 km/h (1 Bft)
22.03.2017 03:05 4,8 °C 4,8 °C 94 % 1009,9 hPa 0,0 mm 2,1 km/h (1 Bft) NO 34 ° 0 min 0,000 mm 0,0 UV-I 0 W/m² 3,9 °C 4,8 °C 3,2 km/h (1 Bft)
22.03.2017 03:06 4,8 °C 4,8 °C 94 % 1009,9 hPa 0,0 mm 4,5 km/h (1 Bft) N-NO 22 ° 0 min 0,000 mm 0,0 UV-I 0 W/m² 3,9 °C 4,8 °C 6,4 km/h (2 Bft)
22.03.2017 03:07 4,8 °C 4,8 °C 94 % 1009,9 hPa 0,0 mm 4,8 km/h (1 Bft) N 360 ° 0 min 0,000 mm 0,0 UV-I 0 W/m² 3,9 °C 3,9 °C 6,4 km/h (2 Bft)
22.03.2017 03:08 4,8 °C 4,8 °C 94 % 1009,9 hPa 0,0 mm 3,6 km/h (1 Bft) N 9 ° 0 min 0,000 mm 0,0 UV-I 0 W/m² 3,9 °C 4,8 °C 6,4 km/h (2 Bft)
22.03.2017 03:09 4,8 °C 4,8 °C 94 % 1009,9 hPa 0,0 mm 4,4 km/h (1 Bft) N 9 ° 0 min 0,000 mm 0,0 UV-I 0 W/m² 3,9 °C 4,8 °C 4,8 km/h (1 Bft)
22.03.2017 03:10 4,8 °C 4,8 °C 94 % 1009,9 hPa 0,0 mm 1,8 km/h (1 Bft) N 9 ° 0 min 0,000 mm 0,0 UV-I 0 W/m² 3,9 °C 4,8 °C 4,8 km/h (1 Bft)
22.03.2017 03:11 4,8 °C 4,8 °C 94 % 1009,9 hPa 0,0 mm 0,9 km/h (0 Bft) N 9 ° 0 min 0,000 mm 0,0 UV-I 0 W/m² 3,9 °C 4,8 °C 1,6 km/h (1 Bft)
22.03.2017 03:12 4,8 °C 4,8 °C 94 % 1009,9 hPa 0,0 mm 1,5 km/h (1 Bft) N 9 ° 0 min 0,000 mm 0,0 UV-I 0 W/m² 3,9 °C 4,8 °C 3,2 km/h (1 Bft)
22.03.2017 03:13 4,7 °C 4,8 °C 94 % 1009,9 hPa 0,0 mm 1,4 km/h (1 Bft) N 9 ° 0 min 0,000 mm 0,0 UV-I 0 W/m² 3,8 °C 4,7 °C 3,2 km/h (1 Bft)
22.03.2017 03:14 4,7 °C 4,7 °C 94 % 1009,9 hPa 0,0 mm 1,4 km/h (1 Bft) N 9 ° 0 min 0,000 mm 0,0 UV-I 0 W/m² 3,8 °C 4,7 °C 3,2 km/h (1 Bft)
22.03.2017 03:15 4,7 °C 4,7 °C 94 % 1010,0 hPa 0,0 mm 2,0 km/h (1 Bft) N 9 ° 0 min 0,000 mm 0,0 UV-I 0 W/m² 3,8 °C 4,7 °C 3,2 km/h (1 Bft)
22.03.2017 03:16 4,7 °C 4,7 °C 94 % 1009,9 hPa 0,0 mm 2,9 km/h (1 Bft) NO 52 ° 0 min 0,000 mm 0,0 UV-I 0 W/m² 3,8 °C 4,7 °C 4,8 km/h (1 Bft)
22.03.2017 03:17 4,7 °C 4,7 °C 94 % 1009,9 hPa 0,0 mm 1,4 km/h (1 Bft) NO 52 ° 0 min 0,000 mm 0,0 UV-I 0 W/m² 3,8 °C 4,7 °C 3,2 km/h (1 Bft)
22.03.2017 03:18 4,7 °C 4,7 °C 94 % 1009,9 hPa 0,0 mm 1,9 km/h (1 Bft) NO 52 ° 0 min 0,000 mm 0,0 UV-I 0 W/m² 3,8 °C 4,7 °C 3,2 km/h (1 Bft)
22.03.2017 03:19 4,7 °C 4,7 °C 94 % 1009,8 hPa 0,0 mm 4,0 km/h (1 Bft) N 5 ° 0 min 0,000 mm 0,0 UV-I 0 W/m² 3,8 °C 4,7 °C 6,4 km/h (2 Bft)
22.03.2017 03:20 4,7 °C 4,7 °C 94 % 1009,8 hPa 0,0 mm 2,9 km/h (1 Bft) N 9 ° 0 min 0,000 mm 0,0 UV-I 0 W/m² 3,8 °C 4,7 °C 4,8 km/h (1 Bft)
22.03.2017 03:21 4,7 °C 4,7 °C 94 % 1009,8 hPa 0,0 mm 1,5 km/h (1 Bft) O-NO 65 ° 0 min 0,000 mm 0,0 UV-I 0 W/m² 3,8 °C 4,7 °C 4,8 km/h (1 Bft)
22.03.2017 03:22 4,7 °C 4,7 °C 94 % 1009,8 hPa 0,0 mm 5,2 km/h (1 Bft) NO 47 ° 0 min 0,000 mm 0,0 UV-I 0 W/m² 3,8 °C 3,7 °C 8,0 km/h (2 Bft)
22.03.2017 03:23 4,7 °C 4,7 °C 94 % 1009,8 hPa 0,2 mm 5,2 km/h (1 Bft) N-NO 23 ° 0 min 0,000 mm 0,0 UV-I 0 W/m² 3,8 °C 3,7 °C 6,4 km/h (2 Bft)
22.03.2017 03:24 4,7 °C 4,7 °C 94 % 1009,8 hPa 0,0 mm 6,0 km/h (2 Bft) N-NO 16 ° 0 min 0,000 mm 0,0 UV-I 0 W/m² 3,8 °C 3,4 °C 8,0 km/h (2 Bft)
22.03.2017 03:25 4,6 °C 4,7 °C 94 % 1009,8 hPa 0,0 mm 5,8 km/h (2 Bft) O-NO 65 ° 0 min 0,000 mm 0,0 UV-I 0 W/m² 3,7 °C 3,3 °C 8,0 km/h (2 Bft)
22.03.2017 03:26 4,6 °C 4,6 °C 94 % 1009,8 hPa 0,0 mm 3,3 km/h (1 Bft) O-NO 64 ° 0 min 0,000 mm 0,0 UV-I 0 W/m² 3,7 °C 4,6 °C 4,8 km/h (1 Bft)
22.03.2017 03:27 4,6 °C 4,6 °C 94 % 1009,8 hPa 0,0 mm 2,3 km/h (1 Bft) O-NO 64 ° 0 min 0,000 mm 0,0 UV-I 0 W/m² 3,7 °C 4,6 °C 3,2 km/h (1 Bft)
22.03.2017 03:28 4,6 °C 4,6 °C 94 % 1009,8 hPa 0,0 mm 2,8 km/h (1 Bft) O-NO 57 ° 0 min 0,000 mm 0,0 UV-I 0 W/m² 3,7 °C 4,6 °C 4,8 km/h (1 Bft)
22.03.2017 03:29 4,6 °C 4,6 °C 94 % 1009,7 hPa 0,0 mm 4,0 km/h (1 Bft) O-NO 72 ° 0 min 0,000 mm 0,0 UV-I 0 W/m² 3,7 °C 4,6 °C 4,8 km/h (1 Bft)
22.03.2017 03:30 4,6 °C 4,6 °C 94 % 1009,7 hPa 0,0 mm 2,9 km/h (1 Bft) N 360 ° 0 min 0,000 mm 0,0 UV-I 0 W/m² 3,7 °C 4,6 °C 4,8 km/h (1 Bft)
22.03.2017 03:31 4,6 °C 4,6 °C 94 % 1009,7 hPa 0,0 mm 2,9 km/h (1 Bft) N 360 ° 0 min 0,000 mm 0,0 UV-I 0 W/m² 3,7 °C 4,6 °C 6,4 km/h (2 Bft)
22.03.2017 03:32 4,6 °C 4,6 °C 94 % 1009,8 hPa 0,0 mm 1,3 km/h (1 Bft) N 360 ° 0 min 0,000 mm 0,0 UV-I 0 W/m² 3,7 °C 4,6 °C 3,2 km/h (1 Bft)
22.03.2017 03:33 4,6 °C 4,6 °C 94 % 1009,8 hPa 0,0 mm 0,5 km/h (0 Bft) N 360 ° 0 min 0,000 mm 0,0 UV-I 0 W/m² 3,7 °C 4,6 °C 1,6 km/h (1 Bft)
22.03.2017 03:34 4,6 °C 4,6 °C 94 % 1009,8 hPa 0,0 mm 1,9 km/h (1 Bft) N 360 ° 0 min 0,000 mm 0,0 UV-I 0 W/m² 3,7 °C 4,6 °C 3,2 km/h (1 Bft)
22.03.2017 03:35 4,6 °C 4,6 °C 94 % 1009,8 hPa 0,0 mm 1,6 km/h (1 Bft) NO 53 ° 0 min 0,000 mm 0,0 UV-I 0 W/m² 3,7 °C 4,6 °C 3,2 km/h (1 Bft)
22.03.2017 03:36 4,6 °C 4,6 °C 94 % 1009,8 hPa 0,2 mm 2,3 km/h (1 Bft) NO 53 ° 0 min 0,000 mm 0,0 UV-I 0 W/m² 3,7 °C 4,6 °C 3,2 km/h (1 Bft)
22.03.2017 03:37 4,6 °C 4,6 °C 94 % 1009,8 hPa 0,0 mm 0,9 km/h (0 Bft) NO 53 ° 0 min 0,000 mm 0,0 UV-I 0 W/m² 3,7 °C 4,6 °C 1,6 km/h (1 Bft)
22.03.2017 03:38 4,6 °C 4,6 °C 94 % 1009,8 hPa 0,0 mm 2,5 km/h (1 Bft) NO 52 ° 0 min 0,000 mm 0,0 UV-I 0 W/m² 3,7 °C 4,6 °C 3,2 km/h (1 Bft)
22.03.2017 03:39 4,5 °C 4,6 °C 94 % 1009,8 hPa 0,0 mm 5,6 km/h (1 Bft) NO 55 ° 0 min 0,000 mm 0,0 UV-I 0 W/m² 3,6 °C 3,3 °C 9,7 km/h (2 Bft)
22.03.2017 03:40 4,5 °C 4,6 °C 94 % 1009,7 hPa 0,0 mm 6,4 km/h (2 Bft) NO 40 ° 0 min 0,000 mm 0,0 UV-I 0 W/m² 3,6 °C 3,0 °C 9,7 km/h (2 Bft)
22.03.2017 03:41 4,5 °C 4,6 °C 94 % 1009,7 hPa 0,0 mm 5,2 km/h (1 Bft) NO 51 ° 0 min 0,000 mm 0,0 UV-I 0 W/m² 3,6 °C 3,4 °C 6,4 km/h (2 Bft)
22.03.2017 03:42 4,5 °C 4,6 °C 94 % 1009,8 hPa 0,0 mm 2,6 km/h (1 Bft) NO 51 ° 0 min 0,000 mm 0,0 UV-I 0 W/m² 3,6 °C 4,5 °C 4,8 km/h (1 Bft)
22.03.2017 03:43 4,5 °C 4,5 °C 94 % 1009,8 hPa 0,0 mm 6,4 km/h (2 Bft) O-NO 63 ° 0 min 0,000 mm 0,0 UV-I 0 W/m² 3,6 °C 3,0 °C 11,3 km/h (2 Bft)
22.03.2017 03:44 4,5 °C 4,5 °C 94 % 1009,8 hPa 0,0 mm 4,6 km/h (1 Bft) O-NO 57 ° 0 min 0,000 mm 0,0 UV-I 0 W/m² 3,6 °C 3,7 °C 6,4 km/h (2 Bft)
22.03.2017 03:45 4,5 °C 4,5 °C 94 % 1009,8 hPa 0,0 mm 5,6 km/h (1 Bft) O-NO 68 ° 0 min 0,000 mm 0,0 UV-I 0 W/m² 3,6 °C 3,3 °C 6,4 km/h (2 Bft)
22.03.2017 03:46 4,5 °C 4,5 °C 94 % 1009,8 hPa 0,0 mm 5,1 km/h (1 Bft) O 79 ° 0 min 0,000 mm 0,0 UV-I 0 W/m² 3,6 °C 3,5 °C 6,4 km/h (2 Bft)
22.03.2017 03:47 4,5 °C 4,5 °C 94 % 1009,8 hPa 0,0 mm 4,4 km/h (1 Bft) O 82 ° 0 min 0,000 mm 0,0 UV-I 0 W/m² 3,6 °C 4,5 °C 6,4 km/h (2 Bft)
22.03.2017 03:48 4,5 °C 4,5 °C 94 % 1009,8 hPa 0,0 mm 3,3 km/h (1 Bft) O 82 ° 0 min 0,000 mm 0,0 UV-I 0 W/m² 3,6 °C 4,5 °C 4,8 km/h (1 Bft)
22.03.2017 03:49 4,5 °C 4,5 °C 94 % 1009,8 hPa 0,0 mm 1,1 km/h (1 Bft) O 82 ° 0 min 0,000 mm 0,0 UV-I 0 W/m² 3,6 °C 4,5 °C 3,2 km/h (1 Bft)
22.03.2017 03:50 4,4 °C 4,5 °C 94 % 1009,8 hPa 0,0 mm 1,3 km/h (1 Bft) O 82 ° 0 min 0,000 mm 0,0 UV-I 0 W/m² 3,5 °C 4,4 °C 1,6 km/h (1 Bft)
22.03.2017 03:51 4,5 °C 4,5 °C 94 % 1009,9 hPa 0,0 mm 0,8 km/h (0 Bft) O 82 ° 0 min 0,000 mm 0,0 UV-I 0 W/m² 3,6 °C 4,5 °C 1,6 km/h (1 Bft)
22.03.2017 03:52 4,5 °C 4,5 °C 94 % 1009,9 hPa 0,0 mm 2,5 km/h (1 Bft) O 82 ° 0 min 0,000 mm 0,0 UV-I 0 W/m² 3,6 °C 4,5 °C 3,2 km/h (1 Bft)
22.03.2017 03:53 4,5 °C 4,5 °C 94 % 1009,9 hPa 0,0 mm 2,3 km/h (1 Bft) O 82 ° 0 min 0,000 mm 0,0 UV-I 0 W/m² 3,6 °C 4,5 °C 3,2 km/h (1 Bft)
22.03.2017 03:54 4,5 °C 4,5 °C 94 % 1009,9 hPa 0,0 mm 0,5 km/h (0 Bft) O 82 ° 0 min 0,000 mm 0,0 UV-I 0 W/m² 3,6 °C 4,5 °C 1,6 km/h (1 Bft)
22.03.2017 03:55 4,5 °C 4,5 °C 94 % 1009,9 hPa 0,0 mm 2,5 km/h (1 Bft) O 82 ° 0 min 0,000 mm 0,0 UV-I 0 W/m² 3,6 °C 4,5 °C 3,2 km/h (1 Bft)
22.03.2017 03:56 4,5 °C 4,5 °C 94 % 1009,9 hPa 0,0 mm 1,9 km/h (1 Bft) O 82 ° 0 min 0,000 mm 0,0 UV-I 0 W/m² 3,6 °C 4,5 °C 3,2 km/h (1 Bft)
22.03.2017 03:57 4,5 °C 4,5 °C 94 % 1009,9 hPa 0,0 mm 2,0 km/h (1 Bft) O 82 ° 0 min 0,000 mm 0,0 UV-I 0 W/m² 3,6 °C 4,5 °C 3,2 km/h (1 Bft)
22.03.2017 03:58 4,5 °C 4,5 °C 94 % 1009,9 hPa 0,0 mm 2,9 km/h (1 Bft) O 82 ° 0 min 0,000 mm 0,0 UV-I 0 W/m² 3,6 °C 4,5 °C 3,2 km/h (1 Bft)
22.03.2017 03:59 4,5 °C 4,5 °C 94 % 1009,9 hPa 0,0 mm 3,2 km/h (1 Bft) O 82 ° 0 min 0,000 mm 0,0 UV-I 0 W/m² 3,6 °C 4,5 °C 4,8 km/h (1 Bft)
22.03.2017 04:00 4,5 °C 4,5 °C 94 % 1009,9 hPa 0,0 mm 1,8 km/h (1 Bft) O 82 ° 0 min 0,000 mm 0,0 UV-I 0 W/m² 3,6 °C 4,5 °C 3,2 km/h (1 Bft)
22.03.2017 04:01 4,5 °C 4,5 °C 94 % 1009,9 hPa 0,0 mm 3,1 km/h (1 Bft) O 82 ° 0 min 0,000 mm 0,0 UV-I 0 W/m² 3,6 °C 4,5 °C 3,2 km/h (1 Bft)
22.03.2017 04:02 4,5 °C 4,5 °C 94 % 1009,9 hPa 0,0 mm 2,7 km/h (1 Bft) O 82 ° 0 min 0,000 mm 0,0 UV-I 0 W/m² 3,6 °C 4,5 °C 3,2 km/h (1 Bft)
22.03.2017 04:03 4,5 °C 4,5 °C 94 % 1009,9 hPa 0,0 mm 2,1 km/h (1 Bft) O 82 ° 0 min 0,000 mm 0,0 UV-I 0 W/m² 3,6 °C 4,5 °C 3,2 km/h (1 Bft)
22.03.2017 04:04 4,5 °C 4,5 °C 95 % 1009,9 hPa 0,0 mm 0,6 km/h (0 Bft) O 82 ° 0 min 0,000 mm 0,0 UV-I 0 W/m² 3,8 °C 4,5 °C 1,6 km/h (1 Bft)
22.03.2017 04:05 4,5 °C 4,5 °C 95 % 1009,9 hPa 0,0 mm 0,4 km/h (0 Bft) O 82 ° 0 min 0,000 mm 0,0 UV-I 0 W/m² 3,8 °C 4,5 °C 1,6 km/h (1 Bft)
22.03.2017 04:06 4,5 °C 4,5 °C 95 % 1009,9 hPa 0,0 mm 2,1 km/h (1 Bft) O 82 ° 0 min 0,000 mm 0,0 UV-I 0 W/m² 3,8 °C 4,5 °C 3,2 km/h (1 Bft)
22.03.2017 04:07 4,6 °C 4,6 °C 95 % 1009,9 hPa 0,2 mm 1,3 km/h (1 Bft) O 82 ° 0 min 0,000 mm 0,0 UV-I 0 W/m² 3,9 °C 4,6 °C 3,2 km/h (1 Bft)
22.03.2017 04:08 4,5 °C 4,6 °C 95 % 1009,9 hPa 0,0 mm 3,7 km/h (1 Bft) O 88 ° 0 min 0,000 mm 0,0 UV-I 0 W/m² 3,8 °C 4,5 °C 4,8 km/h (1 Bft)
22.03.2017 04:09 4,5 °C 4,6 °C 95 % 1009,9 hPa 0,0 mm 2,5 km/h (1 Bft) O-NO 76 ° 0 min 0,000 mm 0,0 UV-I 0 W/m² 3,8 °C 4,5 °C 4,8 km/h (1 Bft)
22.03.2017 04:10 4,5 °C 4,5 °C 95 % 1009,9 hPa 0,0 mm 3,0 km/h (1 Bft) O-NO 74 ° 0 min 0,000 mm 0,0 UV-I 0 W/m² 3,8 °C 4,5 °C 4,8 km/h (1 Bft)
22.03.2017 04:11 4,5 °C 4,5 °C 95 % 1009,9 hPa 0,0 mm 3,1 km/h (1 Bft) O-NO 74 ° 0 min 0,000 mm 0,0 UV-I 0 W/m² 3,8 °C 4,5 °C 3,2 km/h (1 Bft)
22.03.2017 04:12 4,5 °C 4,5 °C 95 % 1009,9 hPa 0,0 mm 2,5 km/h (1 Bft) O-NO 74 ° 0 min 0,000 mm 0,0 UV-I 0 W/m² 3,8 °C 4,5 °C 3,2 km/h (1 Bft)
22.03.2017 04:13 4,5 °C 4,5 °C 95 % 1009,9 hPa 0,0 mm 3,1 km/h (1 Bft) O-NO 78 ° 0 min 0,000 mm 0,0 UV-I 0 W/m² 3,8 °C 4,5 °C 4,8 km/h (1 Bft)
22.03.2017 04:14 4,4 °C 4,5 °C 95 % 1009,9 hPa 0,0 mm 1,3 km/h (1 Bft) O-NO 78 ° 0 min 0,000 mm 0,0 UV-I 0 W/m² 3,7 °C 4,4 °C 3,2 km/h (1 Bft)
22.03.2017 04:15 4,4 °C 4,5 °C 94 % 1010,0 hPa 0,0 mm 2,1 km/h (1 Bft) O-NO 78 ° 0 min 0,000 mm 0,0 UV-I 0 W/m² 3,5 °C 4,4 °C 3,2 km/h (1 Bft)
22.03.2017 04:16 4,4 °C 4,5 °C 95 % 1010,0 hPa 0,0 mm 1,6 km/h (1 Bft) O-NO 78 ° 0 min 0,000 mm 0,0 UV-I 0 W/m² 3,7 °C 4,4 °C 3,2 km/h (1 Bft)
22.03.2017 04:17 4,4 °C 4,5 °C 95 % 1010,0 hPa 0,0 mm 2,2 km/h (1 Bft) O-NO 78 ° 0 min 0,000 mm 0,0 UV-I 0 W/m² 3,7 °C 4,4 °C 3,2 km/h (1 Bft)
22.03.2017 04:18 4,5 °C 4,5 °C 95 % 1010,0 hPa 0,0 mm 1,5 km/h (1 Bft) O-NO 78 ° 0 min 0,000 mm 0,0 UV-I 0 W/m² 3,8 °C 4,5 °C 3,2 km/h (1 Bft)
22.03.2017 04:19 4,5 °C 4,5 °C 95 % 1010,0 hPa 0,0 mm 1,7 km/h (1 Bft) O-NO 78 ° 0 min 0,000 mm 0,0 UV-I 0 W/m² 3,8 °C 4,5 °C 3,2 km/h (1 Bft)
22.03.2017 04:20 4,5 °C 4,6 °C 95 % 1010,0 hPa 0,0 mm 1,5 km/h (1 Bft) O-NO 78 ° 0 min 0,000 mm 0,0 UV-I 0 W/m² 3,8 °C 4,5 °C 3,2 km/h (1 Bft)
22.03.2017 04:21 4,5 °C 4,6 °C 95 % 1010,0 hPa 0,0 mm 1,1 km/h (1 Bft) O-NO 78 ° 0 min 0,000 mm 0,0 UV-I 0 W/m² 3,8 °C 4,5 °C 1,6 km/h (1 Bft)
22.03.2017 04:22 4,5 °C 4,5 °C 95 % 1010,0 hPa 0,0 mm 2,5 km/h (1 Bft) O-NO 78 ° 0 min 0,000 mm 0,0 UV-I 0 W/m² 3,8 °C 4,5 °C 4,8 km/h (1 Bft)
22.03.2017 04:23 4,5 °C 4,5 °C 95 % 1010,0 hPa 0,0 mm 2,4 km/h (1 Bft) O-NO 78 ° 0 min 0,000 mm 0,0 UV-I 0 W/m² 3,8 °C 4,5 °C 3,2 km/h (1 Bft)
22.03.2017 04:24 4,5 °C 4,5 °C 95 % 1010,0 hPa 0,0 mm 1,9 km/h (1 Bft) O-NO 78 ° 0 min 0,000 mm 0,0 UV-I 0 W/m² 3,8 °C 4,5 °C 3,2 km/h (1 Bft)
22.03.2017 04:25 4,5 °C 4,5 °C 95 % 1010,1 hPa 0,2 mm 0,8 km/h (0 Bft) O-NO 78 ° 0 min 0,000 mm 0,0 UV-I 0 W/m² 3,8 °C 4,5 °C 1,6 km/h (1 Bft)
22.03.2017 04:26 4,5 °C 4,5 °C 95 % 1010,0 hPa 0,0 mm 1,2 km/h (1 Bft) O-NO 78 ° 0 min 0,000 mm 0,0 UV-I 0 W/m² 3,8 °C 4,5 °C 3,2 km/h (1 Bft)
22.03.2017 04:27 4,5 °C 4,5 °C 95 % 1010,0 hPa 0,0 mm 1,9 km/h (1 Bft) O-NO 78 ° 0 min 0,000 mm 0,0 UV-I 0 W/m² 3,8 °C 4,5 °C 3,2 km/h (1 Bft)
22.03.2017 04:28 4,5 °C 4,5 °C 95 % 1010,1 hPa 0,0 mm 1,7 km/h (1 Bft) O-NO 78 ° 0 min 0,000 mm 0,0 UV-I 0 W/m² 3,8 °C 4,5 °C 3,2 km/h (1 Bft)
22.03.2017 04:29 4,5 °C 4,5 °C 95 % 1010,0 hPa 0,0 mm 0,6 km/h (0 Bft) O-NO 78 ° 0 min 0,000 mm 0,0 UV-I 0 W/m² 3,8 °C 4,5 °C 1,6 km/h (1 Bft)
22.03.2017 04:30 4,5 °C 4,5 °C 95 % 1010,0 hPa 0,0 mm 0,1 km/h (0 Bft) O-NO 78 ° 0 min 0,000 mm 0,0 UV-I 0 W/m² 3,8 °C 4,5 °C 1,6 km/h (1 Bft)
22.03.2017 04:31 4,5 °C 4,5 °C 95 % 1010,0 hPa 0,0 mm 0,4 km/h (0 Bft) O-NO 78 ° 0 min 0,000 mm 0,0 UV-I 0 W/m² 3,8 °C 4,5 °C 1,6 km/h (1 Bft)
22.03.2017 04:32 4,5 °C 4,5 °C 95 % 1010,0 hPa 0,0 mm 2,1 km/h (1 Bft) O-NO 78 ° 0 min 0,000 mm 0,0 UV-I 0 W/m² 3,8 °C 4,5 °C 3,2 km/h (1 Bft)
22.03.2017 04:33 4,5 °C 4,5 °C 95 % 1010,0 hPa 0,0 mm 2,4 km/h (1 Bft) O-NO 78 ° 0 min 0,000 mm 0,0 UV-I 0 W/m² 3,8 °C 4,5 °C 3,2 km/h (1 Bft)
22.03.2017 04:34 4,5 °C 4,5 °C 95 % 1010,1 hPa 0,0 mm 1,3 km/h (1 Bft) O-NO 78 ° 0 min 0,000 mm 0,0 UV-I 0 W/m² 3,8 °C 4,5 °C 1,6 km/h (1 Bft)
22.03.2017 04:35 4,5 °C 4,5 °C 95 % 1010,0 hPa 0,0 mm 0,1 km/h (0 Bft) O-NO 78 ° 0 min 0,000 mm 0,0 UV-I 0 W/m² 3,8 °C 4,5 °C 1,6 km/h (1 Bft)
22.03.2017 04:36 4,5 °C 4,5 °C 95 % 1010,1 hPa 0,2 mm 0,0 km/h (0 Bft) O-NO 78 ° 0 min 0,000 mm 0,0 UV-I 0 W/m² 3,8 °C 4,5 °C 0,0 km/h (0 Bft)
22.03.2017 04:37 4,5 °C 4,5 °C 95 % 1010,0 hPa 0,0 mm 0,1 km/h (0 Bft) O-NO 78 ° 0 min 0,000 mm 0,0 UV-I 0 W/m² 3,8 °C 4,5 °C 1,6 km/h (1 Bft)
22.03.2017 04:38 4,5 °C 4,5 °C 95 % 1010,0 hPa 0,0 mm 0,0 km/h (0 Bft) O-NO 78 ° 0 min 0,000 mm 0,0 UV-I 0 W/m² 3,8 °C 4,5 °C 0,0 km/h (0 Bft)
22.03.2017 04:39 4,5 °C 4,5 °C 95 % 1010,0 hPa 0,0 mm 0,0 km/h (0 Bft) O-NO 78 ° 0 min 0,000 mm 0,0 UV-I 0 W/m² 3,8 °C 4,5 °C 0,0 km/h (0 Bft)
22.03.2017 04:40 4,5 °C 4,5 °C 95 % 1010,0 hPa 0,0 mm 0,0 km/h (0 Bft) O-NO 78 ° 0 min 0,000 mm 0,0 UV-I 0 W/m² 3,8 °C 4,5 °C 0,0 km/h (0 Bft)
22.03.2017 04:41 4,5 °C 4,5 °C 95 % 1010,0 hPa 0,0 mm 0,0 km/h (0 Bft) O-NO 78 ° 0 min 0,000 mm 0,0 UV-I 0 W/m² 3,8 °C 4,5 °C 0,0 km/h (0 Bft)
22.03.2017 04:42 4,6 °C 4,6 °C 95 % 1010,0 hPa 0,0 mm 0,0 km/h (0 Bft) O-NO 78 ° 0 min 0,000 mm 0,0 UV-I 0 W/m² 3,9 °C 4,6 °C 0,0 km/h (0 Bft)
22.03.2017 04:43 4,6 °C 4,6 °C 95 % 1010,0 hPa 0,0 mm 0,1 km/h (0 Bft) O-NO 78 ° 0 min 0,000 mm 0,0 UV-I 0 W/m² 3,9 °C 4,6 °C 1,6 km/h (1 Bft)
22.03.2017 04:44 4,5 °C 4,6 °C 95 % 1010,0 hPa 0,0 mm 0,2 km/h (0 Bft) O-NO 78 ° 0 min 0,000 mm 0,0 UV-I 0 W/m² 3,8 °C 4,5 °C 1,6 km/h (1 Bft)
22.03.2017 04:45 4,5 °C 4,6 °C 95 % 1010,0 hPa 0,0 mm 0,4 km/h (0 Bft) O-NO 78 ° 0 min 0,000 mm 0,0 UV-I 0 W/m² 3,8 °C 4,5 °C 1,6 km/h (1 Bft)
22.03.2017 04:46 4,5 °C 4,5 °C 95 % 1010,1 hPa 0,0 mm 0,7 km/h (0 Bft) O-NO 78 ° 0 min 0,000 mm 0,0 UV-I 0 W/m² 3,8 °C 4,5 °C 1,6 km/h (1 Bft)
22.03.2017 04:47 4,5 °C 4,6 °C 95 % 1010,0 hPa 0,2 mm 2,0 km/h (1 Bft) O-NO 78 ° 0 min 0,000 mm 0,0 UV-I 0 W/m² 3,8 °C 4,5 °C 3,2 km/h (1 Bft)
22.03.2017 04:48 4,5 °C 4,5 °C 95 % 1010,1 hPa 0,0 mm 1,8 km/h (1 Bft) O-NO 78 ° 0 min 0,000 mm 0,0 UV-I 0 W/m² 3,8 °C 4,5 °C 3,2 km/h (1 Bft)
22.03.2017 04:49 4,5 °C 4,5 °C 95 % 1010,1 hPa 0,0 mm 1,5 km/h (1 Bft) O-NO 78 ° 0 min 0,000 mm 0,0 UV-I 0 W/m² 3,8 °C 4,5 °C 3,2 km/h (1 Bft)
22.03.2017 04:50 4,5 °C 4,5 °C 95 % 1010,1 hPa 0,0 mm 1,6 km/h (1 Bft) O-NO 78 ° 0 min 0,000 mm 0,0 UV-I 0 W/m² 3,8 °C 4,5 °C 3,2 km/h (1 Bft)
22.03.2017 04:51 4,4 °C 4,5 °C 95 % 1010,1 hPa 0,0 mm 1,7 km/h (1 Bft) O-NO 78 ° 0 min 0,000 mm 0,0 UV-I 0 W/m² 3,7 °C 4,4 °C 3,2 km/h (1 Bft)
22.03.2017 04:52 4,4 °C 4,4 °C 94 % 1010,1 hPa 0,0 mm 0,9 km/h (0 Bft) O-NO 78 ° 0 min 0,000 mm 0,0 UV-I 0 W/m² 3,5 °C 4,4 °C 1,6 km/h (1 Bft)
22.03.2017 04:53 4,4 °C 4,4 °C 94 % 1010,1 hPa 0,0 mm 1,3 km/h (1 Bft) O-NO 78 ° 0 min 0,000 mm 0,0 UV-I 0 W/m² 3,5 °C 4,4 °C 1,6 km/h (1 Bft)
22.03.2017 04:54 4,4 °C 4,4 °C 94 % 1010,1 hPa 0,0 mm 0,9 km/h (0 Bft) O-NO 78 ° 0 min 0,000 mm 0,0 UV-I 0 W/m² 3,5 °C 4,4 °C 3,2 km/h (1 Bft)
22.03.2017 04:55 4,4 °C 4,4 °C 94 % 1010,1 hPa 0,0 mm 1,2 km/h (1 Bft) O-NO 78 ° 0 min 0,000 mm 0,0 UV-I 0 W/m² 3,5 °C 4,4 °C 1,6 km/h (1 Bft)
22.03.2017 04:56 4,4 °C 4,4 °C 94 % 1010,1 hPa 0,0 mm 1,3 km/h (1 Bft) O-NO 78 ° 0 min 0,000 mm 0,0 UV-I 0 W/m² 3,5 °C 4,4 °C 1,6 km/h (1 Bft)
22.03.2017 04:57 4,4 °C 4,4 °C 94 % 1010,1 hPa 0,0 mm 1,4 km/h (1 Bft) O-NO 78 ° 0 min 0,000 mm 0,0 UV-I 0 W/m² 3,5 °C 4,4 °C 3,2 km/h (1 Bft)
22.03.2017 04:58 4,4 °C 4,4 °C 95 % 1010,1 hPa 0,2 mm 0,7 km/h (0 Bft) O-NO 78 ° 0 min 0,000 mm 0,0 UV-I 0 W/m² 3,7 °C 4,4 °C 1,6 km/h (1 Bft)
22.03.2017 04:59 4,4 °C 4,4 °C 95 % 1010,1 hPa 0,0 mm 0,3 km/h (0 Bft) O-NO 78 ° 0 min 0,000 mm 0,0 UV-I 0 W/m² 3,7 °C 4,4 °C 1,6 km/h (1 Bft)
22.03.2017 05:00 4,4 °C 4,4 °C 95 % 1010,1 hPa 0,0 mm 2,0 km/h (1 Bft) O-NO 78 ° 0 min 0,000 mm 0,0 UV-I 0 W/m² 3,7 °C 4,4 °C 3,2 km/h (1 Bft)
22.03.2017 05:01 4,4 °C 4,4 °C 94 % 1010,1 hPa 0,0 mm 2,1 km/h (1 Bft) O-NO 78 ° 0 min 0,000 mm 0,0 UV-I 0 W/m² 3,5 °C 4,4 °C 3,2 km/h (1 Bft)
22.03.2017 05:02 4,3 °C 4,4 °C 94 % 1010,1 hPa 0,0 mm 2,1 km/h (1 Bft) O-NO 74 ° 0 min 0,000 mm 0,0 UV-I 0 W/m² 3,4 °C 4,3 °C 3,2 km/h (1 Bft)
22.03.2017 05:03 4,3 °C 4,3 °C 94 % 1010,2 hPa 0,2 mm 1,4 km/h (1 Bft) O-NO 74 ° 0 min 0,000 mm 0,0 UV-I 0 W/m² 3,4 °C 4,3 °C 1,6 km/h (1 Bft)
22.03.2017 05:04 4,3 °C 4,4 °C 94 % 1010,2 hPa 0,0 mm 1,0 km/h (0 Bft) O-NO 74 ° 0 min 0,000 mm 0,0 UV-I 0 W/m² 3,4 °C 4,3 °C 1,6 km/h (1 Bft)
22.03.2017 05:05 4,3 °C 4,3 °C 95 % 1010,2 hPa 0,0 mm 1,7 km/h (1 Bft) NO 40 ° 0 min 0,000 mm 0,0 UV-I 0 W/m² 3,6 °C 4,3 °C 3,2 km/h (1 Bft)
22.03.2017 05:06 4,3 °C 4,3 °C 95 % 1010,2 hPa 0,0 mm 2,3 km/h (1 Bft) NO 40 ° 0 min 0,000 mm 0,0 UV-I 0 W/m² 3,6 °C 4,3 °C 3,2 km/h (1 Bft)
22.03.2017 05:07 4,3 °C 4,3 °C 95 % 1010,2 hPa 0,0 mm 1,9 km/h (1 Bft) NO 40 ° 0 min 0,000 mm 0,0 UV-I 0 W/m² 3,6 °C 4,3 °C 3,2 km/h (1 Bft)
22.03.2017 05:08 4,3 °C 4,3 °C 95 % 1010,2 hPa 0,0 mm 2,0 km/h (1 Bft) NW 316 ° 0 min 0,000 mm 0,0 UV-I 0 W/m² 3,6 °C 4,3 °C 3,2 km/h (1 Bft)
22.03.2017 05:09 4,3 °C 4,3 °C 95 % 1010,2 hPa 0,2 mm 2,4 km/h (1 Bft) NW 316 ° 0 min 0,000 mm 0,0 UV-I 0 W/m² 3,6 °C 4,3 °C 3,2 km/h (1 Bft)
22.03.2017 05:10 4,3 °C 4,3 °C 95 % 1010,2 hPa 0,0 mm 1,6 km/h (1 Bft) NW 316 ° 0 min 0,000 mm 0,0 UV-I 0 W/m² 3,6 °C 4,3 °C 3,2 km/h (1 Bft)
22.03.2017 05:11 4,3 °C 4,3 °C 95 % 1010,2 hPa 0,0 mm 0,3 km/h (0 Bft) NW 316 ° 0 min 0,000 mm 0,0 UV-I 0 W/m² 3,6 °C 4,3 °C 1,6 km/h (1 Bft)
22.03.2017 05:12 4,3 °C 4,3 °C 95 % 1010,2 hPa 0,0 mm 1,1 km/h (1 Bft) NW 316 ° 0 min 0,000 mm 0,0 UV-I 0 W/m² 3,6 °C 4,3 °C 1,6 km/h (1 Bft)
22.03.2017 05:13 4,3 °C 4,3 °C 95 % 1010,2 hPa 0,0 mm 1,2 km/h (1 Bft) NW 316 ° 0 min 0,000 mm 0,0 UV-I 0 W/m² 3,6 °C 4,3 °C 3,2 km/h (1 Bft)
22.03.2017 05:14 4,3 °C 4,3 °C 95 % 1010,2 hPa 0,0 mm 1,5 km/h (1 Bft) NW 316 ° 0 min 0,000 mm 0,0 UV-I 0 W/m² 3,6 °C 4,3 °C 3,2 km/h (1 Bft)
22.03.2017 05:15 4,3 °C 4,3 °C 95 % 1010,2 hPa 0,2 mm 1,6 km/h (1 Bft) NW 316 ° 0 min 0,000 mm 0,0 UV-I 0 W/m² 3,6 °C 4,3 °C 3,2 km/h (1 Bft)
22.03.2017 05:16 4,3 °C 4,3 °C 95 % 1010,2 hPa 0,0 mm 0,4 km/h (0 Bft) NW 316 ° 0 min 0,000 mm 0,0 UV-I 0 W/m² 3,6 °C 4,3 °C 1,6 km/h (1 Bft)
22.03.2017 05:17 4,3 °C 4,3 °C 95 % 1010,2 hPa 0,0 mm 0,7 km/h (0 Bft) NW 316 ° 0 min 0,000 mm 0,0 UV-I 0 W/m² 3,6 °C 4,3 °C 1,6 km/h (1 Bft)
22.03.2017 05:18 4,3 °C 4,3 °C 95 % 1010,2 hPa 0,0 mm 1,6 km/h (1 Bft) NW 316 ° 0 min 0,000 mm 0,0 UV-I 0 W/m² 3,6 °C 4,3 °C 3,2 km/h (1 Bft)
22.03.2017 05:19 4,3 °C 4,3 °C 95 % 1010,2 hPa 0,0 mm 1,9 km/h (1 Bft) NW 316 ° 0 min 0,000 mm 0,0 UV-I 0 W/m² 3,6 °C 4,3 °C 3,2 km/h (1 Bft)
22.03.2017 05:20 4,3 °C 4,3 °C 95 % 1010,2 hPa 0,0 mm 1,7 km/h (1 Bft) NW 316 ° 0 min 0,000 mm 0,0 UV-I 0 W/m² 3,6 °C 4,3 °C 3,2 km/h (1 Bft)
22.03.2017 05:21 4,3 °C 4,3 °C 95 % 1010,2 hPa 0,2 mm 0,3 km/h (0 Bft) NW 316 ° 0 min 0,000 mm 0,0 UV-I 0 W/m² 3,6 °C 4,3 °C 1,6 km/h (1 Bft)
22.03.2017 05:22 4,3 °C 4,3 °C 95 % 1010,2 hPa 0,0 mm 1,5 km/h (1 Bft) NW 316 ° 0 min 0,000 mm 0,0 UV-I 0 W/m² 3,6 °C 4,3 °C 3,2 km/h (1 Bft)
22.03.2017 05:23 4,3 °C 4,3 °C 95 % 1010,2 hPa 0,0 mm 1,4 km/h (1 Bft) NW 316 ° 0 min 0,000 mm 0,0 UV-I 0 W/m² 3,6 °C 4,3 °C 3,2 km/h (1 Bft)
22.03.2017 05:24 4,3 °C 4,3 °C 95 % 1010,2 hPa 0,0 mm 2,0 km/h (1 Bft) NW 316 ° 0 min 0,000 mm 0,0 UV-I 0 W/m² 3,6 °C 4,3 °C 3,2 km/h (1 Bft)
22.03.2017 05:25 4,3 °C 4,3 °C 95 % 1010,3 hPa 0,0 mm 1,4 km/h (1 Bft) NW 316 ° 0 min 0,000 mm 0,0 UV-I 0 W/m² 3,6 °C 4,3 °C 3,2 km/h (1 Bft)
22.03.2017 05:26 4,3 °C 4,3 °C 95 % 1010,3 hPa 0,0 mm 1,3 km/h (1 Bft) NW 316 ° 0 min 0,000 mm 0,0 UV-I 0 W/m² 3,6 °C 4,3 °C 1,6 km/h (1 Bft)
22.03.2017 05:27 4,3 °C 4,3 °C 95 % 1010,3 hPa 0,2 mm 1,8 km/h (1 Bft) NW 316 ° 0 min 0,000 mm 0,0 UV-I 0 W/m² 3,6 °C 4,3 °C 3,2 km/h (1 Bft)
22.03.2017 05:28 4,3 °C 4,3 °C 95 % 1010,2 hPa 0,0 mm 1,3 km/h (1 Bft) NW 316 ° 0 min 0,000 mm 0,0 UV-I 0 W/m² 3,6 °C 4,3 °C 3,2 km/h (1 Bft)
22.03.2017 05:29 4,3 °C 4,3 °C 95 % 1010,2 hPa 0,0 mm 2,7 km/h (1 Bft) NW 317 ° 0 min 0,000 mm 0,0 UV-I 0 W/m² 3,6 °C 4,3 °C 3,2 km/h (1 Bft)
22.03.2017 05:30 4,3 °C 4,3 °C 95 % 1010,3 hPa 0,0 mm 2,8 km/h (1 Bft) NW 317 ° 0 min 0,000 mm 0,0 UV-I 0 W/m² 3,6 °C 4,3 °C 3,2 km/h (1 Bft)
22.03.2017 05:31 4,2 °C 4,3 °C 95 % 1010,3 hPa 0,0 mm 1,8 km/h (1 Bft) NW 317 ° 0 min 0,000 mm 0,0 UV-I 0 W/m² 3,5 °C 4,2 °C 3,2 km/h (1 Bft)
22.03.2017 05:32 4,3 °C 4,3 °C 95 % 1010,3 hPa 0,2 mm 1,9 km/h (1 Bft) NW 317 ° 0 min 0,000 mm 0,0 UV-I 0 W/m² 3,6 °C 4,3 °C 3,2 km/h (1 Bft)
22.03.2017 05:33 4,3 °C 4,3 °C 95 % 1010,3 hPa 0,0 mm 0,7 km/h (0 Bft) NW 317 ° 0 min 0,000 mm 0,0 UV-I 0 W/m² 3,6 °C 4,3 °C 1,6 km/h (1 Bft)
22.03.2017 05:34 4,2 °C 4,3 °C 95 % 1010,3 hPa 0,0 mm 0,7 km/h (0 Bft) NW 317 ° 0 min 0,000 mm 0,0 UV-I 0 W/m² 3,5 °C 4,2 °C 1,6 km/h (1 Bft)
22.03.2017 05:35 4,2 °C 4,2 °C 95 % 1010,3 hPa 0,0 mm 0,6 km/h (0 Bft) NW 317 ° 0 min 0,000 mm 0,0 UV-I 0 W/m² 3,5 °C 4,2 °C 1,6 km/h (1 Bft)
22.03.2017 05:36 4,3 °C 4,3 °C 95 % 1010,3 hPa 0,0 mm 1,5 km/h (1 Bft) NW 317 ° 0 min 0,000 mm 0,0 UV-I 0 W/m² 3,6 °C 4,3 °C 3,2 km/h (1 Bft)
22.03.2017 05:37 4,2 °C 4,3 °C 95 % 1010,3 hPa 0,2 mm 0,9 km/h (0 Bft) NW 317 ° 0 min 0,000 mm 0,0 UV-I 0 W/m² 3,5 °C 4,2 °C 1,6 km/h (1 Bft)
22.03.2017 05:38 4,2 °C 4,2 °C 95 % 1010,3 hPa 0,0 mm 1,0 km/h (0 Bft) NW 317 ° 0 min 0,000 mm 0,0 UV-I 0 W/m² 3,5 °C 4,2 °C 1,6 km/h (1 Bft)
22.03.2017 05:39 4,2 °C 4,2 °C 95 % 1010,3 hPa 0,0 mm 1,7 km/h (1 Bft) NW 317 ° 0 min 0,000 mm 0,0 UV-I 0 W/m² 3,5 °C 4,2 °C 3,2 km/h (1 Bft)
22.03.2017 05:40 4,2 °C 4,2 °C 95 % 1010,3 hPa 0,0 mm 1,7 km/h (1 Bft) NW 317 ° 0 min 0,000 mm 0,0 UV-I 0 W/m² 3,5 °C 4,2 °C 3,2 km/h (1 Bft)
22.03.2017 05:41 4,3 °C 4,3 °C 95 % 1010,3 hPa 0,0 mm 2,8 km/h (1 Bft) NW 317 ° 0 min 0,000 mm 0,0 UV-I 0 W/m² 3,6 °C 4,3 °C 4,8 km/h (1 Bft)
22.03.2017 05:42 4,2 °C 4,3 °C 95 % 1010,2 hPa 0,2 mm 2,7 km/h (1 Bft) N-NO 12 ° 0 min 0,000 mm 0,0 UV-I 0 W/m² 3,5 °C 4,2 °C 4,8 km/h (1 Bft)
22.03.2017 05:43 4,2 °C 4,3 °C 95 % 1010,2 hPa 0,0 mm 1,5 km/h (1 Bft) N-NO 12 ° 0 min 0,000 mm 0,0 UV-I 0 W/m² 3,5 °C 4,2 °C 4,8 km/h (1 Bft)
22.03.2017 05:44 4,3 °C 4,3 °C 95 % 1010,3 hPa 0,0 mm 0,7 km/h (0 Bft) N-NO 12 ° 0 min 0,000 mm 0,0 UV-I 0 W/m² 3,6 °C 4,3 °C 1,6 km/h (1 Bft)
22.03.2017 05:45 4,2 °C 4,3 °C 95 % 1010,2 hPa 0,0 mm 1,2 km/h (1 Bft) N-NO 12 ° 0 min 0,000 mm 0,0 UV-I 0 W/m² 3,5 °C 4,2 °C 3,2 km/h (1 Bft)
22.03.2017 05:46 4,2 °C 4,2 °C 95 % 1010,2 hPa 0,2 mm 0,5 km/h (0 Bft) N-NO 12 ° 0 min 0,000 mm 0,0 UV-I 0 W/m² 3,5 °C 4,2 °C 1,6 km/h (1 Bft)
22.03.2017 05:47 4,2 °C 4,2 °C 95 % 1010,2 hPa 0,0 mm 0,9 km/h (0 Bft) N-NO 12 ° 0 min 0,000 mm 0,0 UV-I 0 W/m² 3,5 °C 4,2 °C 1,6 km/h (1 Bft)
22.03.2017 05:48 4,2 °C 4,2 °C 95 % 1010,2 hPa 0,0 mm 2,3 km/h (1 Bft) N-NO 12 ° 0 min 0,000 mm 0,0 UV-I 0 W/m² 3,5 °C 4,2 °C 3,2 km/h (1 Bft)
22.03.2017 05:49 4,2 °C 4,2 °C 95 % 1010,2 hPa 0,0 mm 2,3 km/h (1 Bft) N-NO 12 ° 0 min 0,000 mm 0,0 UV-I 0 W/m² 3,5 °C 4,2 °C 3,2 km/h (1 Bft)
22.03.2017 05:50 4,2 °C 4,2 °C 95 % 1010,3 hPa 0,0 mm 0,5 km/h (0 Bft) N-NO 12 ° 0 min 0,000 mm 0,0 UV-I 0 W/m² 3,5 °C 4,2 °C 1,6 km/h (1 Bft)
22.03.2017 05:51 4,2 °C 4,2 °C 95 % 1010,2 hPa 0,2 mm 0,2 km/h (0 Bft) N-NO 12 ° 0 min 0,000 mm 0,0 UV-I 0 W/m² 3,5 °C 4,2 °C 1,6 km/h (1 Bft)
22.03.2017 05:52 4,2 °C 4,2 °C 95 % 1010,2 hPa 0,0 mm 0,7 km/h (0 Bft) N-NO 12 ° 0 min 0,000 mm 0,0 UV-I 0 W/m² 3,5 °C 4,2 °C 1,6 km/h (1 Bft)
22.03.2017 05:53 4,2 °C 4,2 °C 95 % 1010,2 hPa 0,0 mm 0,3 km/h (0 Bft) N-NO 12 ° 0 min 0,000 mm 0,0 UV-I 0 W/m² 3,5 °C 4,2 °C 1,6 km/h (1 Bft)
22.03.2017 05:54 4,2 °C 4,2 °C 95 % 1010,2 hPa 0,0 mm 1,5 km/h (1 Bft) N-NO 12 ° 0 min 0,000 mm 0,0 UV-I 0 W/m² 3,5 °C 4,2 °C 3,2 km/h (1 Bft)
22.03.2017 05:55 4,2 °C 4,2 °C 95 % 1010,2 hPa 0,0 mm 0,9 km/h (0 Bft) N-NO 12 ° 0 min 0,000 mm 0,0 UV-I 0 W/m² 3,5 °C 4,2 °C 1,6 km/h (1 Bft)
22.03.2017 05:56 4,2 °C 4,2 °C 95 % 1010,2 hPa 0,2 mm 1,4 km/h (1 Bft) N-NO 12 ° 0 min 0,000 mm 0,0 UV-I 0 W/m² 3,5 °C 4,2 °C 3,2 km/h (1 Bft)
22.03.2017 05:57 4,2 °C 4,2 °C 95 % 1010,2 hPa 0,0 mm 2,5 km/h (1 Bft) N-NO 12 ° 0 min 0,000 mm 0,0 UV-I 0 W/m² 3,5 °C 4,2 °C 3,2 km/h (1 Bft)
22.03.2017 05:58 4,2 °C 4,2 °C 95 % 1010,2 hPa 0,0 mm 2,1 km/h (1 Bft) N-NO 30 ° 0 min 0,000 mm 0,0 UV-I 0 W/m² 3,5 °C 4,2 °C 3,2 km/h (1 Bft)
22.03.2017 05:59 4,2 °C 4,2 °C 95 % 1010,2 hPa 0,0 mm 1,8 km/h (1 Bft) N-NO 30 ° 0 min 0,000 mm 0,0 UV-I 0 W/m² 3,5 °C 4,2 °C 3,2 km/h (1 Bft)
22.03.2017 06:00 4,2 °C 4,2 °C 95 % 1010,2 hPa 0,0 mm 0,9 km/h (0 Bft) N-NO 30 ° 0 min 0,000 mm 0,0 UV-I 0 W/m² 3,5 °C 4,2 °C 1,6 km/h (1 Bft)
22.03.2017 06:01 4,2 °C 4,2 °C 95 % 1010,2 hPa 0,0 mm 1,2 km/h (1 Bft) N-NO 30 ° 0 min 0,000 mm 0,0 UV-I 0 W/m² 3,5 °C 4,2 °C 3,2 km/h (1 Bft)
22.03.2017 06:02 4,2 °C 4,2 °C 95 % 1010,2 hPa 0,0 mm 1,1 km/h (1 Bft) N-NO 33 ° 0 min 0,000 mm 0,0 UV-I 0 W/m² 3,5 °C 4,2 °C 3,2 km/h (1 Bft)
22.03.2017 06:03 4,2 °C 4,2 °C 95 % 1010,2 hPa 0,0 mm 1,6 km/h (1 Bft) NO 34 ° 0 min 0,000 mm 0,0 UV-I 0 W/m² 3,5 °C 4,2 °C 3,2 km/h (1 Bft)
22.03.2017 06:04 4,1 °C 4,2 °C 95 % 1010,2 hPa 0,0 mm 2,5 km/h (1 Bft) NO 34 ° 0 min 0,000 mm 0,0 UV-I 0 W/m² 3,4 °C 4,1 °C 3,2 km/h (1 Bft)
22.03.2017 06:05 4,1 °C 4,2 °C 95 % 1010,1 hPa 0,0 mm 2,5 km/h (1 Bft) NO 55 ° 0 min 0,000 mm 0,0 UV-I 0 W/m² 3,4 °C 4,1 °C 4,8 km/h (1 Bft)
22.03.2017 06:06 4,2 °C 4,2 °C 95 % 1010,0 hPa 0,2 mm 2,7 km/h (1 Bft) NO 55 ° 0 min 0,000 mm 0,0 UV-I 0 W/m² 3,5 °C 4,2 °C 3,2 km/h (1 Bft)
22.03.2017 06:07 4,2 °C 4,2 °C 95 % 1010,1 hPa 0,0 mm 3,8 km/h (1 Bft) O-NO 74 ° 0 min 0,000 mm 0,0 UV-I 0 W/m² 3,5 °C 4,2 °C 6,4 km/h (2 Bft)
22.03.2017 06:08 4,2 °C 4,2 °C 95 % 1010,0 hPa 0,0 mm 3,0 km/h (1 Bft) O-NO 74 ° 0 min 0,000 mm 0,0 UV-I 0 W/m² 3,5 °C 4,2 °C 4,8 km/h (1 Bft)
22.03.2017 06:09 4,1 °C 4,2 °C 95 % 1010,0 hPa 0,0 mm 3,0 km/h (1 Bft) O-NO 74 ° 0 min 0,000 mm 0,0 UV-I 0 W/m² 3,4 °C 4,1 °C 4,8 km/h (1 Bft)
22.03.2017 06:10 4,2 °C 4,2 °C 95 % 1010,0 hPa 0,0 mm 3,1 km/h (1 Bft) O-NO 74 ° 0 min 0,000 mm 0,0 UV-I 0 W/m² 3,5 °C 4,2 °C 4,8 km/h (1 Bft)
22.03.2017 06:11 4,2 °C 4,2 °C 95 % 1010,0 hPa 0,0 mm 3,0 km/h (1 Bft) O-NO 74 ° 0 min 0,000 mm 0,0 UV-I 0 W/m² 3,5 °C 4,2 °C 4,8 km/h (1 Bft)
22.03.2017 06:12 4,1 °C 4,2 °C 95 % 1010,1 hPa 0,0 mm 1,8 km/h (1 Bft) O-NO 74 ° 0 min 0,000 mm 0,0 UV-I 0 W/m² 3,4 °C 4,1 °C 4,8 km/h (1 Bft)
22.03.2017 06:13 4,1 °C 4,2 °C 95 % 1010,1 hPa 0,0 mm 1,1 km/h (1 Bft) O-NO 74 ° 0 min 0,000 mm 0,0 UV-I 0 W/m² 3,4 °C 4,1 °C 3,2 km/h (1 Bft)
22.03.2017 06:14 4,1 °C 4,1 °C 95 % 1010,0 hPa 0,0 mm 0,6 km/h (0 Bft) O-NO 74 ° 0 min 0,000 mm 0,0 UV-I 0 W/m² 3,4 °C 4,1 °C 1,6 km/h (1 Bft)
22.03.2017 06:15 4,1 °C 4,1 °C 95 % 1010,1 hPa 0,0 mm 2,2 km/h (1 Bft) O-NO 74 ° 0 min 0,000 mm 0,0 UV-I 0 W/m² 3,4 °C 4,1 °C 3,2 km/h (1 Bft)
22.03.2017 06:16 4,1 °C 4,1 °C 95 % 1010,1 hPa 0,0 mm 3,1 km/h (1 Bft) O-NO 74 ° 0 min 0,000 mm 0,0 UV-I 0 W/m² 3,4 °C 4,1 °C 4,8 km/h (1 Bft)
22.03.2017 06:17 4,1 °C 4,1 °C 95 % 1010,0 hPa 0,0 mm 2,2 km/h (1 Bft) O-NO 74 ° 0 min 0,000 mm 0,0 UV-I 0 W/m² 3,4 °C 4,1 °C 4,8 km/h (1 Bft)
22.03.2017 06:18 4,1 °C 4,1 °C 95 % 1010,0 hPa 0,2 mm 3,6 km/h (1 Bft) O-NO 65 ° 0 min 0,000 mm 0,0 UV-I 0 W/m² 3,4 °C 4,1 °C 6,4 km/h (2 Bft)
22.03.2017 06:19 4,1 °C 4,1 °C 95 % 1010,0 hPa 0,0 mm 3,5 km/h (1 Bft) O-NO 65 ° 0 min 0,000 mm 0,0 UV-I 0 W/m² 3,4 °C 4,1 °C 4,8 km/h (1 Bft)
22.03.2017 06:20 4,1 °C 4,1 °C 95 % 1010,1 hPa 0,0 mm 4,0 km/h (1 Bft) O 90 ° 0 min 0,000 mm 0,0 UV-I 0 W/m² 3,4 °C 4,1 °C 6,4 km/h (2 Bft)
22.03.2017 06:21 4,1 °C 4,1 °C 95 % 1010,0 hPa 0,0 mm 3,6 km/h (1 Bft) O-NO 57 ° 0 min 0,000 mm 0,0 UV-I 0 W/m² 3,4 °C 4,1 °C 4,8 km/h (1 Bft)
22.03.2017 06:22 4,1 °C 4,1 °C 95 % 1010,0 hPa 0,0 mm 2,7 km/h (1 Bft) O-NO 57 ° 0 min 0,000 mm 0,0 UV-I 0 W/m² 3,4 °C 4,1 °C 3,2 km/h (1 Bft)
22.03.2017 06:23 4,1 °C 4,1 °C 95 % 1010,0 hPa 0,0 mm 2,7 km/h (1 Bft) O-NO 58 ° 0 min 0,000 mm 0,0 UV-I 0 W/m² 3,4 °C 4,1 °C 4,8 km/h (1 Bft)
22.03.2017 06:24 4,1 °C 4,1 °C 95 % 1010,0 hPa 0,0 mm 3,0 km/h (1 Bft) O-NO 69 ° 0 min 0,000 mm 0,0 UV-I 0 W/m² 3,4 °C 4,1 °C 4,8 km/h (1 Bft)
22.03.2017 06:25 4,1 °C 4,1 °C 95 % 1010,0 hPa 0,0 mm 4,5 km/h (1 Bft) O-NO 69 ° 0 min 0,000 mm 0,0 UV-I 0 W/m² 3,4 °C 4,1 °C 6,4 km/h (2 Bft)
22.03.2017 06:26 4,1 °C 4,1 °C 95 % 1010,0 hPa 0,0 mm 4,2 km/h (1 Bft) O 81 ° 0 min 0,000 mm 0,0 UV-I 0 W/m² 3,4 °C 4,1 °C 6,4 km/h (2 Bft)
22.03.2017 06:27 4,1 °C 4,1 °C 95 % 1010,0 hPa 0,0 mm 4,4 km/h (1 Bft) O-NO 69 ° 0 min 0,000 mm 0,0 UV-I 0 W/m² 3,4 °C 4,1 °C 6,4 km/h (2 Bft)
22.03.2017 06:28 4,1 °C 4,1 °C 95 % 1010,0 hPa 0,0 mm 4,8 km/h (1 Bft) O-NO 69 ° 0 min 0,000 mm 0,0 UV-I 0 W/m² 3,4 °C 3,1 °C 6,4 km/h (2 Bft)
22.03.2017 06:29 4,1 °C 4,1 °C 95 % 1009,9 hPa 0,0 mm 5,6 km/h (1 Bft) O-NO 76 ° 0 min 0,000 mm 0,0 UV-I 0 W/m² 3,4 °C 2,8 °C 8,0 km/h (2 Bft)
22.03.2017 06:30 4,1 °C 4,1 °C 95 % 1009,9 hPa 0,0 mm 3,8 km/h (1 Bft) O-NO 73 ° 0 min 0,000 mm 0,0 UV-I 0 W/m² 3,4 °C 4,1 °C 4,8 km/h (1 Bft)
22.03.2017 06:31 4,1 °C 4,1 °C 95 % 1009,9 hPa 0,0 mm 4,5 km/h (1 Bft) O-NO 66 ° 0 min 0,000 mm 0,0 UV-I 0 W/m² 3,4 °C 4,1 °C 6,4 km/h (2 Bft)
22.03.2017 06:32 4,1 °C 4,1 °C 95 % 1009,8 hPa 0,0 mm 5,7 km/h (1 Bft) O-NO 71 ° 0 min 0,000 mm 0,0 UV-I 0 W/m² 3,4 °C 2,8 °C 8,0 km/h (2 Bft)
22.03.2017 06:33 4,1 °C 4,1 °C 95 % 1009,8 hPa 0,0 mm 3,7 km/h (1 Bft) O-NO 61 ° 0 min 0,000 mm 0,0 UV-I 0 W/m² 3,4 °C 4,1 °C 6,4 km/h (2 Bft)
22.03.2017 06:34 4,1 °C 4,1 °C 95 % 1009,8 hPa 0,0 mm 4,8 km/h (1 Bft) O-NO 69 ° 0 min 0,000 mm 0,0 UV-I 0 W/m² 3,4 °C 3,1 °C 8,0 km/h (2 Bft)
22.03.2017 06:35 4,1 °C 4,1 °C 95 % 1009,8 hPa 0,0 mm 9,4 km/h (2 Bft) O-NO 68 ° 0 min 0,000 mm 0,0 UV-I 0 W/m² 3,4 °C 1,7 °C 14,5 km/h (3 Bft)
22.03.2017 06:36 4,1 °C 4,1 °C 95 % 1009,8 hPa 0,0 mm 7,2 km/h (2 Bft) NO 53 ° 0 min 0,000 mm 0,0 UV-I 0 W/m² 3,4 °C 2,3 °C 9,7 km/h (2 Bft)
22.03.2017 06:37 4,1 °C 4,1 °C 95 % 1009,8 hPa 0,0 mm 5,0 km/h (1 Bft) O-NO 63 ° 0 min 0,000 mm 0,0 UV-I 0 W/m² 3,4 °C 3,1 °C 6,4 km/h (2 Bft)
22.03.2017 06:38 4,1 °C 4,1 °C 95 % 1009,9 hPa 0,0 mm 5,2 km/h (1 Bft) O-NO 69 ° 0 min 0,000 mm 0,0 UV-I 0 W/m² 3,4 °C 3,0 °C 9,7 km/h (2 Bft)
22.03.2017 06:39 4,1 °C 4,1 °C 95 % 1009,9 hPa 0,0 mm 5,5 km/h (1 Bft) O-NO 61 ° 0 min 0,000 mm 0,0 UV-I 0 W/m² 3,4 °C 2,9 °C 8,0 km/h (2 Bft)
22.03.2017 06:40 4,1 °C 4,1 °C 95 % 1009,9 hPa 0,0 mm 2,9 km/h (1 Bft) NO 45 ° 0 min 0,000 mm 0,0 UV-I 5 W/m² 3,4 °C 4,1 °C 4,8 km/h (1 Bft)
22.03.2017 06:41 4,1 °C 4,1 °C 95 % 1009,9 hPa 0,0 mm 5,5 km/h (1 Bft) O-NO 76 ° 0 min 0,000 mm 0,0 UV-I 5 W/m² 3,4 °C 2,9 °C 8,0 km/h (2 Bft)
22.03.2017 06:42 4,1 °C 4,1 °C 95 % 1009,9 hPa 0,0 mm 4,8 km/h (1 Bft) NO 51 ° 0 min 0,000 mm 0,0 UV-I 5 W/m² 3,4 °C 3,1 °C 8,0 km/h (2 Bft)
22.03.2017 06:43 4,1 °C 4,1 °C 95 % 1009,9 hPa 0,0 mm 4,0 km/h (1 Bft) NO 44 ° 0 min 0,000 mm 0,0 UV-I 5 W/m² 3,4 °C 4,1 °C 6,4 km/h (2 Bft)
22.03.2017 06:44 4,1 °C 4,1 °C 95 % 1009,9 hPa 0,0 mm 4,1 km/h (1 Bft) NO 46 ° 0 min 0,000 mm 0,0 UV-I 5 W/m² 3,4 °C 4,1 °C 6,4 km/h (2 Bft)
22.03.2017 06:45 4,1 °C 4,1 °C 95 % 1009,9 hPa 0,0 mm 3,8 km/h (1 Bft) O-NO 71 ° 0 min 0,000 mm 0,0 UV-I 5 W/m² 3,4 °C 4,1 °C 6,4 km/h (2 Bft)
22.03.2017 06:46 4,1 °C 4,1 °C 95 % 1009,9 hPa 0,0 mm 4,4 km/h (1 Bft) O-NO 74 ° 0 min 0,000 mm 0,0 UV-I 5 W/m² 3,4 °C 4,1 °C 6,4 km/h (2 Bft)
22.03.2017 06:47 4,1 °C 4,1 °C 95 % 1009,8 hPa 0,0 mm 3,8 km/h (1 Bft) O 79 ° 0 min 0,000 mm 0,0 UV-I 5 W/m² 3,4 °C 4,1 °C 6,4 km/h (2 Bft)
22.03.2017 06:48 4,1 °C 4,1 °C 95 % 1009,9 hPa 0,0 mm 6,0 km/h (2 Bft) O-NO 71 ° 0 min 0,000 mm 0,0 UV-I 5 W/m² 3,4 °C 2,7 °C 6,4 km/h (2 Bft)
22.03.2017 06:49 4,0 °C 4,1 °C 95 % 1009,9 hPa 0,0 mm 4,2 km/h (1 Bft) O-NO 69 ° 0 min 0,000 mm 0,0 UV-I 5 W/m² 3,3 °C 4,0 °C 8,0 km/h (2 Bft)
22.03.2017 06:50 4,1 °C 4,1 °C 95 % 1009,9 hPa 0,0 mm 5,2 km/h (1 Bft) O-NO 67 ° 0 min 0,000 mm 0,0 UV-I 5 W/m² 3,4 °C 3,0 °C 8,0 km/h (2 Bft)
22.03.2017 06:51 4,0 °C 4,1 °C 95 % 1009,9 hPa 0,0 mm 4,2 km/h (1 Bft) NO 56 ° 0 min 0,000 mm 0,0 UV-I 5 W/m² 3,3 °C 4,0 °C 6,4 km/h (2 Bft)
22.03.2017 06:52 4,1 °C 4,1 °C 95 % 1009,9 hPa 0,0 mm 3,8 km/h (1 Bft) O-NO 77 ° 0 min 0,000 mm 0,0 UV-I 5 W/m² 3,4 °C 4,1 °C 8,0 km/h (2 Bft)
22.03.2017 06:53 4,0 °C 4,1 °C 95 % 1009,9 hPa 0,0 mm 3,0 km/h (1 Bft) O-NO 71 ° 0 min 0,000 mm 0,0 UV-I 5 W/m² 3,3 °C 4,0 °C 8,0 km/h (2 Bft)
22.03.2017 06:54 4,0 °C 4,1 °C 95 % 1009,9 hPa 0,0 mm 6,9 km/h (2 Bft) O-NO 70 ° 0 min 0,000 mm 0,0 UV-I 5 W/m² 3,3 °C 2,3 °C 9,7 km/h (2 Bft)
22.03.2017 06:55 4,0 °C 4,0 °C 95 % 1009,9 hPa 0,0 mm 9,8 km/h (2 Bft) O-NO 71 ° 0 min 0,000 mm 0,0 UV-I 5 W/m² 3,3 °C 1,5 °C 12,9 km/h (3 Bft)
22.03.2017 06:56 4,0 °C 4,0 °C 95 % 1009,8 hPa 0,0 mm 5,9 km/h (2 Bft) O-NO 72 ° 0 min 0,000 mm 0,0 UV-I 5 W/m² 3,3 °C 2,6 °C 12,9 km/h (3 Bft)
22.03.2017 06:57 4,0 °C 4,1 °C 95 % 1009,8 hPa 0,0 mm 5,7 km/h (1 Bft) O-NO 65 ° 0 min 0,000 mm 0,0 UV-I 5 W/m² 3,3 °C 2,7 °C 8,0 km/h (2 Bft)
22.03.2017 06:58 4,1 °C 4,1 °C 95 % 1009,8 hPa 0,0 mm 4,9 km/h (1 Bft) O-NO 64 ° 0 min 0,000 mm 0,0 UV-I 5 W/m² 3,4 °C 3,1 °C 6,4 km/h (2 Bft)
22.03.2017 06:59 4,1 °C 4,1 °C 95 % 1009,8 hPa 0,0 mm 3,2 km/h (1 Bft) O-NO 64 ° 0 min 0,000 mm 0,0 UV-I 7 W/m² 3,4 °C 4,1 °C 4,8 km/h (1 Bft)
22.03.2017 07:00 4,1 °C 4,1 °C 95 % 1009,8 hPa 0,0 mm 4,7 km/h (1 Bft) O-NO 69 ° 0 min 0,000 mm 0,0 UV-I 7 W/m² 3,4 °C 3,2 °C 6,4 km/h (2 Bft)
22.03.2017 07:01 4,1 °C 4,1 °C 95 % 1009,7 hPa 0,0 mm 5,9 km/h (2 Bft) O-NO 58 ° 0 min 0,000 mm 0,0 UV-I 7 W/m² 3,4 °C 2,7 °C 8,0 km/h (2 Bft)
22.03.2017 07:02 4,1 °C 4,1 °C 95 % 1009,7 hPa 0,0 mm 4,3 km/h (1 Bft) O-NO 67 ° 0 min 0,000 mm 0,0 UV-I 7 W/m² 3,4 °C 4,1 °C 6,4 km/h (2 Bft)
22.03.2017 07:03 4,1 °C 4,1 °C 95 % 1009,7 hPa 0,0 mm 4,6 km/h (1 Bft) O-NO 65 ° 0 min 0,000 mm 0,0 UV-I 9 W/m² 3,4 °C 3,2 °C 6,4 km/h (2 Bft)
22.03.2017 07:04 4,1 °C 4,1 °C 95 % 1009,7 hPa 0,0 mm 8,3 km/h (2 Bft) O 90 ° 0 min 0,000 mm 0,0 UV-I 9 W/m² 3,4 °C 2,0 °C 11,3 km/h (2 Bft)
22.03.2017 07:05 4,1 °C 4,1 °C 95 % 1009,7 hPa 0,0 mm 6,4 km/h (2 Bft) O-NO 65 ° 0 min 0,000 mm 0,0 UV-I 9 W/m² 3,4 °C 2,6 °C 11,3 km/h (2 Bft)
22.03.2017 07:06 4,1 °C 4,1 °C 95 % 1009,7 hPa 0,0 mm 6,8 km/h (2 Bft) O-NO 68 ° 0 min 0,000 mm 0,0 UV-I 9 W/m² 3,4 °C 2,4 °C 9,7 km/h (2 Bft)
22.03.2017 07:07 4,1 °C 4,1 °C 95 % 1009,6 hPa 0,0 mm 8,3 km/h (2 Bft) O-NO 57 ° 0 min 0,000 mm 0,0 UV-I 9 W/m² 3,4 °C 2,0 °C 12,9 km/h (3 Bft)
22.03.2017 07:08 4,1 °C 4,1 °C 95 % 1009,6 hPa 0,0 mm 6,3 km/h (2 Bft) O-NO 75 ° 0 min 0,000 mm 0,0 UV-I 9 W/m² 3,4 °C 2,6 °C 8,0 km/h (2 Bft)
22.03.2017 07:09 4,0 °C 4,1 °C 95 % 1009,6 hPa 0,0 mm 5,2 km/h (1 Bft) O-NO 76 ° 0 min 0,000 mm 0,0 UV-I 11 W/m² 3,3 °C 2,9 °C 8,0 km/h (2 Bft)
22.03.2017 07:10 4,1 °C 4,1 °C 95 % 1009,6 hPa 0,0 mm 4,0 km/h (1 Bft) O-NO 57 ° 0 min 0,000 mm 0,0 UV-I 11 W/m² 3,4 °C 4,1 °C 6,4 km/h (2 Bft)
22.03.2017 07:11 4,0 °C 4,1 °C 95 % 1009,6 hPa 0,0 mm 3,7 km/h (1 Bft) O-NO 65 ° 0 min 0,000 mm 0,0 UV-I 11 W/m² 3,3 °C 4,0 °C 6,4 km/h (2 Bft)
22.03.2017 07:12 4,0 °C 4,0 °C 95 % 1009,8 hPa 0,0 mm 4,9 km/h (1 Bft) O 90 ° 0 min 0,000 mm 0,0 UV-I 11 W/m² 3,3 °C 3,0 °C 8,0 km/h (2 Bft)
22.03.2017 07:13 4,1 °C 4,1 °C 95 % 1009,8 hPa 0,0 mm 6,7 km/h (2 Bft) O-NO 63 ° 0 min 0,000 mm 0,0 UV-I 11 W/m² 3,4 °C 2,5 °C 8,0 km/h (2 Bft)
22.03.2017 07:14 4,1 °C 4,1 °C 95 % 1009,8 hPa 0,0 mm 5,8 km/h (2 Bft) O-NO 73 ° 0 min 0,000 mm 0,0 UV-I 11 W/m² 3,4 °C 2,8 °C 8,0 km/h (2 Bft)
22.03.2017 07:15 4,0 °C 4,1 °C 95 % 1009,8 hPa 0,0 mm 3,4 km/h (1 Bft) O-NO 68 ° 0 min 0,000 mm 0,0 UV-I 11 W/m² 3,3 °C 4,0 °C 4,8 km/h (1 Bft)
22.03.2017 07:16 4,0 °C 4,1 °C 95 % 1009,9 hPa 0,0 mm 3,0 km/h (1 Bft) O-NO 71 ° 0 min 0,000 mm 0,0 UV-I 11 W/m² 3,3 °C 4,0 °C 4,8 km/h (1 Bft)
22.03.2017 07:17 4,0 °C 4,1 °C 95 % 1009,9 hPa 0,0 mm 4,4 km/h (1 Bft) NO 49 ° 0 min 0,000 mm 0,0 UV-I 11 W/m² 3,3 °C 4,0 °C 6,4 km/h (2 Bft)
22.03.2017 07:18 4,0 °C 4,1 °C 95 % 1009,9 hPa 0,0 mm 7,4 km/h (2 Bft) O-NO 77 ° 0 min 0,000 mm 0,0 UV-I 11 W/m² 3,3 °C 2,1 °C 11,3 km/h (2 Bft)
22.03.2017 07:19 4,0 °C 4,0 °C 95 % 1009,9 hPa 0,0 mm 7,6 km/h (2 Bft) O-NO 74 ° 0 min 0,000 mm 0,0 UV-I 11 W/m² 3,3 °C 2,1 °C 11,3 km/h (2 Bft)
22.03.2017 07:20 4,0 °C 4,0 °C 95 % 1009,8 hPa 0,0 mm 7,1 km/h (2 Bft) O-NO 70 ° 0 min 0,000 mm 0,0 UV-I 11 W/m² 3,3 °C 2,2 °C 11,3 km/h (2 Bft)
22.03.2017 07:21 3,9 °C 4,0 °C 95 % 1009,8 hPa 0,0 mm 2,3 km/h (1 Bft) O-NO 65 ° 0 min 0,000 mm 0,0 UV-I 11 W/m² 3,2 °C 3,9 °C 3,2 km/h (1 Bft)
22.03.2017 07:22 3,9 °C 4,0 °C 95 % 1009,8 hPa 0,0 mm 5,7 km/h (1 Bft) O 85 ° 0 min 0,000 mm 0,0 UV-I 12 W/m² 3,2 °C 2,6 °C 8,0 km/h (2 Bft)
22.03.2017 07:23 3,9 °C 4,0 °C 95 % 1009,8 hPa 0,0 mm 4,4 km/h (1 Bft) NO 42 ° 0 min 0,000 mm 0,0 UV-I 12 W/m² 3,2 °C 3,9 °C 6,4 km/h (2 Bft)
22.03.2017 07:24 3,9 °C 4,0 °C 95 % 1009,9 hPa 0,0 mm 4,4 km/h (1 Bft) NO 55 ° 0 min 0,000 mm 0,0 UV-I 12 W/m² 3,2 °C 3,9 °C 6,4 km/h (2 Bft)
22.03.2017 07:25 3,9 °C 4,0 °C 95 % 1009,9 hPa 0,0 mm 7,2 km/h (2 Bft) O-NO 75 ° 0 min 0,000 mm 0,0 UV-I 12 W/m² 3,2 °C 2,1 °C 9,7 km/h (2 Bft)
22.03.2017 07:26 3,9 °C 3,9 °C 95 % 1009,9 hPa 0,0 mm 4,7 km/h (1 Bft) O-NO 73 ° 0 min 0,000 mm 0,0 UV-I 12 W/m² 3,2 °C 3,0 °C 6,4 km/h (2 Bft)
22.03.2017 07:27 3,9 °C 3,9 °C 95 % 1009,9 hPa 0,0 mm 4,0 km/h (1 Bft) O 94 ° 0 min 0,000 mm 0,0 UV-I 12 W/m² 3,2 °C 3,9 °C 6,4 km/h (2 Bft)
22.03.2017 07:28 3,9 °C 3,9 °C 95 % 1010,0 hPa 0,0 mm 4,2 km/h (1 Bft) O 82 ° 0 min 0,000 mm 0,0 UV-I 12 W/m² 3,2 °C 3,9 °C 6,4 km/h (2 Bft)
22.03.2017 07:29 3,9 °C 3,9 °C 95 % 1010,0 hPa 0,0 mm 4,0 km/h (1 Bft) NO 56 ° 0 min 0,000 mm 0,0 UV-I 12 W/m² 3,2 °C 3,9 °C 6,4 km/h (2 Bft)
22.03.2017 07:30 3,9 °C 3,9 °C 95 % 1009,9 hPa 0,0 mm 5,2 km/h (1 Bft) O-NO 59 ° 0 min 0,000 mm 0,0 UV-I 12 W/m² 3,2 °C 2,8 °C 8,0 km/h (2 Bft)
22.03.2017 07:31 3,9 °C 3,9 °C 95 % 1009,9 hPa 0,0 mm 4,5 km/h (1 Bft) O-NO 58 ° 0 min 0,000 mm 0,0 UV-I 12 W/m² 3,2 °C 3,9 °C 6,4 km/h (2 Bft)
22.03.2017 07:32 3,9 °C 3,9 °C 95 % 1009,9 hPa 0,0 mm 3,6 km/h (1 Bft) O-NO 59 ° 0 min 0,000 mm 0,0 UV-I 12 W/m² 3,2 °C 3,9 °C 4,8 km/h (1 Bft)
22.03.2017 07:33 4,0 °C 4,0 °C 95 % 1010,0 hPa 0,0 mm 4,6 km/h (1 Bft) O-NO 60 ° 0 min 0,000 mm 0,0 UV-I 12 W/m² 3,3 °C 3,1 °C 9,7 km/h (2 Bft)
22.03.2017 07:34 4,0 °C 4,0 °C 95 % 1010,0 hPa 0,0 mm 6,3 km/h (2 Bft) O 79 ° 0 min 0,000 mm 0,0 UV-I 12 W/m² 3,3 °C 2,5 °C 8,0 km/h (2 Bft)
22.03.2017 07:35 4,0 °C 4,0 °C 95 % 1010,0 hPa 0,0 mm 5,9 km/h (2 Bft) O-NO 65 ° 0 min 0,000 mm 0,0 UV-I 12 W/m² 3,3 °C 2,6 °C 8,0 km/h (2 Bft)
22.03.2017 07:36 4,0 °C 4,0 °C 95 % 1010,0 hPa 0,0 mm 4,7 km/h (1 Bft) O-NO 63 ° 0 min 0,000 mm 0,0 UV-I 11 W/m² 3,3 °C 3,1 °C 6,4 km/h (2 Bft)
22.03.2017 07:37 4,0 °C 4,0 °C 95 % 1010,0 hPa 0,0 mm 3,7 km/h (1 Bft) O-NO 60 ° 0 min 0,000 mm 0,0 UV-I 12 W/m² 3,3 °C 4,0 °C 6,4 km/h (2 Bft)
22.03.2017 07:38 4,0 °C 4,0 °C 95 % 1010,0 hPa 0,0 mm 4,5 km/h (1 Bft) O-NO 57 ° 0 min 0,000 mm 0,0 UV-I 12 W/m² 3,3 °C 4,0 °C 6,4 km/h (2 Bft)
22.03.2017 07:39 4,0 °C 4,0 °C 95 % 1010,0 hPa 0,0 mm 4,6 km/h (1 Bft) O-NO 63 ° 0 min 0,000 mm 0,0 UV-I 11 W/m² 3,3 °C 3,1 °C 8,0 km/h (2 Bft)
22.03.2017 07:40 4,0 °C 4,0 °C 95 % 1010,0 hPa 0,0 mm 6,7 km/h (2 Bft) O-NO 71 ° 0 min 0,000 mm 0,0 UV-I 11 W/m² 3,3 °C 2,3 °C 8,0 km/h (2 Bft)
22.03.2017 07:41 4,0 °C 4,0 °C 95 % 1010,0 hPa 0,0 mm 4,6 km/h (1 Bft) O-NO 70 ° 0 min 0,000 mm 0,0 UV-I 11 W/m² 3,3 °C 3,1 °C 6,4 km/h (2 Bft)
22.03.2017 07:42 4,0 °C 4,0 °C 95 % 1010,0 hPa 0,0 mm 4,2 km/h (1 Bft) O-NO 67 ° 0 min 0,000 mm 0,0 UV-I 11 W/m² 3,3 °C 4,0 °C 6,4 km/h (2 Bft)
22.03.2017 07:43 4,0 °C 4,0 °C 95 % 1010,0 hPa 0,0 mm 5,4 km/h (1 Bft) O-NO 75 ° 0 min 0,000 mm 0,0 UV-I 11 W/m² 3,3 °C 2,8 °C 8,0 km/h (2 Bft)
22.03.2017 07:44 3,9 °C 4,0 °C 95 % 1010,0 hPa 0,0 mm 3,0 km/h (1 Bft) O-NO 74 ° 0 min 0,000 mm 0,0 UV-I 9 W/m² 3,2 °C 3,9 °C 6,4 km/h (2 Bft)
22.03.2017 07:45 4,0 °C 4,0 °C 95 % 1010,0 hPa 0,0 mm 4,8 km/h (1 Bft) O 82 ° 0 min 0,000 mm 0,0 UV-I 9 W/m² 3,3 °C 3,0 °C 6,4 km/h (2 Bft)
22.03.2017 07:46 4,0 °C 4,0 °C 95 % 1010,0 hPa 0,0 mm 4,0 km/h (1 Bft) O-NO 75 ° 0 min 0,000 mm 0,0 UV-I 9 W/m² 3,3 °C 4,0 °C 8,0 km/h (2 Bft)
22.03.2017 07:47 4,0 °C 4,0 °C 95 % 1010,0 hPa 0,0 mm 2,3 km/h (1 Bft) O-NO 75 ° 0 min 0,000 mm 0,0 UV-I 9 W/m² 3,3 °C 4,0 °C 3,2 km/h (1 Bft)
22.03.2017 07:48 4,0 °C 4,0 °C 95 % 1010,0 hPa 0,0 mm 2,3 km/h (1 Bft) O-NO 66 ° 0 min 0,000 mm 0,0 UV-I 9 W/m² 3,3 °C 4,0 °C 4,8 km/h (1 Bft)
22.03.2017 07:49 4,1 °C 4,1 °C 95 % 1010,0 hPa 0,0 mm 5,7 km/h (1 Bft) O-NO 69 ° 0 min 0,000 mm 0,0 UV-I 7 W/m² 3,4 °C 2,8 °C 8,0 km/h (2 Bft)
22.03.2017 07:50 4,1 °C 4,1 °C 95 % 1010,0 hPa 0,0 mm 4,3 km/h (1 Bft) O-NO 69 ° 0 min 0,000 mm 0,0 UV-I 7 W/m² 3,4 °C 4,1 °C 6,4 km/h (2 Bft)
22.03.2017 07:51 4,0 °C 4,1 °C 95 % 1010,0 hPa 0,0 mm 2,4 km/h (1 Bft) O-NO 69 ° 0 min 0,000 mm 0,0 UV-I 9 W/m² 3,3 °C 4,0 °C 4,8 km/h (1 Bft)
22.03.2017 07:52 4,0 °C 4,0 °C 95 % 1010,0 hPa 0,0 mm 1,6 km/h (1 Bft) N-NO 30 ° 0 min 0,000 mm 0,0 UV-I 9 W/m² 3,3 °C 4,0 °C 4,8 km/h (1 Bft)
22.03.2017 07:53 4,0 °C 4,0 °C 95 % 1010,0 hPa 0,0 mm 4,5 km/h (1 Bft) NO 36 ° 0 min 0,000 mm 0,0 UV-I 9 W/m² 3,3 °C 4,0 °C 6,4 km/h (2 Bft)
22.03.2017 07:54 4,1 °C 4,1 °C 95 % 1010,0 hPa 0,0 mm 5,2 km/h (1 Bft) O-NO 57 ° 0 min 0,000 mm 0,0 UV-I 9 W/m² 3,4 °C 3,0 °C 8,0 km/h (2 Bft)
22.03.2017 07:55 4,1 °C 4,1 °C 95 % 1010,0 hPa 0,0 mm 4,2 km/h (1 Bft) NO 42 ° 0 min 0,000 mm 0,0 UV-I 9 W/m² 3,4 °C 4,1 °C 6,4 km/h (2 Bft)
22.03.2017 07:56 4,1 °C 4,1 °C 95 % 1010,0 hPa 0,0 mm 3,1 km/h (1 Bft) NO 51 ° 0 min 0,000 mm 0,0 UV-I 11 W/m² 3,4 °C 4,1 °C 8,0 km/h (2 Bft)
22.03.2017 07:57 4,0 °C 4,1 °C 95 % 1010,0 hPa 0,2 mm 2,3 km/h (1 Bft) NO 51 ° 0 min 0,000 mm 0,0 UV-I 12 W/m² 3,3 °C 4,0 °C 4,8 km/h (1 Bft)
22.03.2017 07:58 4,1 °C 4,1 °C 95 % 1010,0 hPa 0,0 mm 4,0 km/h (1 Bft) NO 48 ° 0 min 0,000 mm 0,0 UV-I 12 W/m² 3,4 °C 4,1 °C 4,8 km/h (1 Bft)
22.03.2017 07:59 4,1 °C 4,1 °C 95 % 1010,0 hPa 0,0 mm 3,8 km/h (1 Bft) NO 35 ° 0 min 0,000 mm 0,0 UV-I 12 W/m² 3,4 °C 4,1 °C 4,8 km/h (1 Bft)
22.03.2017 08:00 4,1 °C 4,1 °C 95 % 1010,1 hPa 0,0 mm 4,6 km/h (1 Bft) NO 56 ° 0 min 0,000 mm 0,0 UV-I 14 W/m² 3,4 °C 3,2 °C 6,4 km/h (2 Bft)
22.03.2017 08:01 4,1 °C 4,1 °C 95 % 1010,1 hPa 0,0 mm 1,9 km/h (1 Bft) NO 56 ° 0 min 0,000 mm 0,0 UV-I 14 W/m² 3,4 °C 4,1 °C 3,2 km/h (1 Bft)
22.03.2017 08:02 4,1 °C 4,1 °C 95 % 1010,2 hPa 0,0 mm 2,9 km/h (1 Bft) NO 56 ° 0 min 0,000 mm 0,0 UV-I 16 W/m² 3,4 °C 4,1 °C 4,8 km/h (1 Bft)
22.03.2017 08:03 4,1 °C 4,1 °C 95 % 1010,2 hPa 0,0 mm 2,7 km/h (1 Bft) NO 56 ° 0 min 0,000 mm 0,0 UV-I 16 W/m² 3,4 °C 4,1 °C 4,8 km/h (1 Bft)
22.03.2017 08:04 4,1 °C 4,1 °C 95 % 1010,1 hPa 0,0 mm 3,4 km/h (1 Bft) NO 34 ° 0 min 0,000 mm 0,0 UV-I 18 W/m² 3,4 °C 4,1 °C 4,8 km/h (1 Bft)
22.03.2017 08:05 4,1 °C 4,1 °C 95 % 1010,2 hPa 0,0 mm 2,1 km/h (1 Bft) N-NO 29 ° 0 min 0,000 mm 0,0 UV-I 18 W/m² 3,4 °C 4,1 °C 4,8 km/h (1 Bft)
22.03.2017 08:06 4,1 °C 4,1 °C 95 % 1010,2 hPa 0,0 mm 5,0 km/h (1 Bft) NO 55 ° 0 min 0,000 mm 0,0 UV-I 18 W/m² 3,4 °C 3,1 °C 6,4 km/h (2 Bft)
22.03.2017 08:07 4,1 °C 4,1 °C 95 % 1010,2 hPa 0,0 mm 4,6 km/h (1 Bft) NO 52 ° 0 min 0,000 mm 0,0 UV-I 18 W/m² 3,4 °C 3,2 °C 6,4 km/h (2 Bft)
22.03.2017 08:08 4,1 °C 4,1 °C 95 % 1010,2 hPa 0,0 mm 4,4 km/h (1 Bft) NO 43 ° 0 min 0,000 mm 0,0 UV-I 19 W/m² 3,4 °C 4,1 °C 6,4 km/h (2 Bft)
22.03.2017 08:09 4,1 °C 4,1 °C 95 % 1010,2 hPa 0,0 mm 3,9 km/h (1 Bft) NO 52 ° 0 min 0,000 mm 0,0 UV-I 19 W/m² 3,4 °C 4,1 °C 4,8 km/h (1 Bft)
22.03.2017 08:10 4,1 °C 4,1 °C 95 % 1010,2 hPa 0,0 mm 1,4 km/h (1 Bft) NO 52 ° 0 min 0,000 mm 0,0 UV-I 21 W/m² 3,4 °C 4,1 °C 3,2 km/h (1 Bft)
22.03.2017 08:11 4,1 °C 4,1 °C 96 % 1010,3 hPa 0,0 mm 2,6 km/h (1 Bft) NO 52 ° 0 min 0,000 mm 0,0 UV-I 23 W/m² 3,5 °C 4,1 °C 3,2 km/h (1 Bft)
22.03.2017 08:12 4,1 °C 4,1 °C 95 % 1010,3 hPa 0,0 mm 4,0 km/h (1 Bft) N-NO 29 ° 0 min 0,000 mm 0,0 UV-I 25 W/m² 3,4 °C 4,1 °C 6,4 km/h (2 Bft)
22.03.2017 08:13 4,1 °C 4,1 °C 96 % 1010,3 hPa 0,0 mm 3,5 km/h (1 Bft) N-NO 26 ° 0 min 0,000 mm 0,0 UV-I 26 W/m² 3,5 °C 4,1 °C 4,8 km/h (1 Bft)
22.03.2017 08:14 4,1 °C 4,1 °C 96 % 1010,3 hPa 0,0 mm 2,4 km/h (1 Bft) N-NO 13 ° 0 min 0,000 mm 0,0 UV-I 28 W/m² 3,5 °C 4,1 °C 4,8 km/h (1 Bft)
22.03.2017 08:15 4,1 °C 4,1 °C 95 % 1010,3 hPa 0,2 mm 4,4 km/h (1 Bft) N-NO 13 ° 0 min 0,000 mm 0,0 UV-I 33 W/m² 3,4 °C 4,1 °C 6,4 km/h (2 Bft)
22.03.2017 08:16 4,1 °C 4,1 °C 95 % 1010,3 hPa 0,0 mm 4,7 km/h (1 Bft) N-NO 13 ° 0 min 0,000 mm 0,0 UV-I 35 W/m² 3,4 °C 3,2 °C 6,4 km/h (2 Bft)
22.03.2017 08:17 4,1 °C 4,1 °C 95 % 1010,3 hPa 0,0 mm 4,6 km/h (1 Bft) N 5 ° 0 min 0,000 mm 0,0 UV-I 39 W/m² 3,4 °C 3,2 °C 6,4 km/h (2 Bft)
22.03.2017 08:18 4,1 °C 4,1 °C 95 % 1010,4 hPa 0,0 mm 5,2 km/h (1 Bft) N 5 ° 0 min 0,000 mm 0,0 UV-I 42 W/m² 3,4 °C 3,0 °C 6,4 km/h (2 Bft)
22.03.2017 08:19 4,1 °C 4,1 °C 96 % 1010,4 hPa 0,0 mm 4,0 km/h (1 Bft) N 5 ° 0 min 0,000 mm 0,0 UV-I 46 W/m² 3,5 °C 4,1 °C 6,4 km/h (2 Bft)
22.03.2017 08:20 4,1 °C 4,2 °C 95 % 1010,4 hPa 0,0 mm 1,8 km/h (1 Bft) N 5 ° 0 min 0,000 mm 0,0 UV-I 49 W/m² 3,4 °C 4,1 °C 3,2 km/h (1 Bft)
22.03.2017 08:21 4,1 °C 4,1 °C 95 % 1010,4 hPa 0,0 mm 0,5 km/h (0 Bft) N 5 ° 0 min 0,000 mm 0,0 UV-I 56 W/m² 3,4 °C 4,1 °C 1,6 km/h (1 Bft)
22.03.2017 08:22 4,1 °C 4,1 °C 95 % 1010,4 hPa 0,0 mm 1,7 km/h (1 Bft) N-NO 25 ° 0 min 0,000 mm 0,0 UV-I 60 W/m² 3,4 °C 4,1 °C 4,8 km/h (1 Bft)
22.03.2017 08:23 4,1 °C 4,1 °C 96 % 1010,4 hPa 0,0 mm 3,5 km/h (1 Bft) N-NO 26 ° 0 min 0,000 mm 0,0 UV-I 63 W/m² 3,5 °C 4,1 °C 4,8 km/h (1 Bft)
22.03.2017 08:24 4,1 °C 4,1 °C 95 % 1010,4 hPa 0,0 mm 0,7 km/h (0 Bft) N-NO 26 ° 0 min 0,000 mm 0,0 UV-I 67 W/m² 3,4 °C 4,1 °C 1,6 km/h (1 Bft)
22.03.2017 08:25 4,1 °C 4,1 °C 95 % 1010,5 hPa 0,0 mm 1,9 km/h (1 Bft) N-NO 26 ° 0 min 0,000 mm 0,0 UV-I 69 W/m² 3,4 °C 4,1 °C 3,2 km/h (1 Bft)
22.03.2017 08:26 4,1 °C 4,1 °C 95 % 1010,5 hPa 0,0 mm 2,5 km/h (1 Bft) N-NO 26 ° 0 min 0,000 mm 0,0 UV-I 69 W/m² 3,4 °C 4,1 °C 4,8 km/h (1 Bft)
22.03.2017 08:27 4,2 °C 4,2 °C 95 % 1010,5 hPa 0,0 mm 2,4 km/h (1 Bft) N-NO 26 ° 0 min 0,000 mm 0,0 UV-I 65 W/m² 3,5 °C 4,2 °C 3,2 km/h (1 Bft)
22.03.2017 08:28 4,2 °C 4,2 °C 96 % 1010,6 hPa 0,0 mm 2,7 km/h (1 Bft) N-NO 25 ° 0 min 0,000 mm 0,0 UV-I 63 W/m² 3,6 °C 4,2 °C 4,8 km/h (1 Bft)
22.03.2017 08:29 4,2 °C 4,2 °C 96 % 1010,6 hPa 0,0 mm 2,0 km/h (1 Bft) N-NO 25 ° 0 min 0,000 mm 0,0 UV-I 62 W/m² 3,6 °C 4,2 °C 3,2 km/h (1 Bft)
22.03.2017 08:30 4,2 °C 4,2 °C 96 % 1010,6 hPa 0,0 mm 3,8 km/h (1 Bft) N-NO 20 ° 0 min 0,000 mm 0,0 UV-I 58 W/m² 3,6 °C 4,2 °C 4,8 km/h (1 Bft)
22.03.2017 08:31 4,2 °C 4,2 °C 96 % 1010,6 hPa 0,0 mm 2,4 km/h (1 Bft) N-NO 20 ° 0 min 0,000 mm 0,0 UV-I 58 W/m² 3,6 °C 4,2 °C 3,2 km/h (1 Bft)
22.03.2017 08:32 4,3 °C 4,3 °C 96 % 1010,6 hPa 0,0 mm 1,7 km/h (1 Bft) N-NO 20 ° 0 min 0,000 mm 0,0 UV-I 56 W/m² 3,7 °C 4,3 °C 3,2 km/h (1 Bft)
22.03.2017 08:33 4,3 °C 4,3 °C 96 % 1010,6 hPa 0,0 mm 3,9 km/h (1 Bft) O-NO 67 ° 0 min 0,000 mm 0,0 UV-I 58 W/m² 3,7 °C 4,3 °C 6,4 km/h (2 Bft)
22.03.2017 08:34 4,3 °C 4,3 °C 96 % 1010,6 hPa 0,0 mm 2,7 km/h (1 Bft) O-NO 71 ° 0 min 0,000 mm 0,0 UV-I 56 W/m² 3,7 °C 4,3 °C 4,8 km/h (1 Bft)
22.03.2017 08:35 4,3 °C 4,3 °C 96 % 1010,6 hPa 0,0 mm 1,7 km/h (1 Bft) N-NO 22 ° 0 min 0,000 mm 0,0 UV-I 56 W/m² 3,7 °C 4,3 °C 3,2 km/h (1 Bft)
22.03.2017 08:36 4,3 °C 4,3 °C 96 % 1010,6 hPa 0,0 mm 2,7 km/h (1 Bft) N-NO 22 ° 0 min 0,000 mm 0,0 UV-I 56 W/m² 3,7 °C 4,3 °C 4,8 km/h (1 Bft)
22.03.2017 08:37 4,3 °C 4,3 °C 96 % 1010,7 hPa 0,0 mm 1,6 km/h (1 Bft) N-NO 22 ° 0 min 0,000 mm 0,0 UV-I 53 W/m² 3,7 °C 4,3 °C 3,2 km/h (1 Bft)
22.03.2017 08:38 4,3 °C 4,3 °C 96 % 1010,7 hPa 0,0 mm 1,5 km/h (1 Bft) N-NO 20 ° 0 min 0,000 mm 0,0 UV-I 46 W/m² 3,7 °C 4,3 °C 3,2 km/h (1 Bft)
22.03.2017 08:39 4,3 °C 4,3 °C 96 % 1010,8 hPa 0,0 mm 2,5 km/h (1 Bft) N-NO 20 ° 0 min 0,000 mm 0,0 UV-I 44 W/m² 3,7 °C 4,3 °C 3,2 km/h (1 Bft)
22.03.2017 08:40 4,3 °C 4,3 °C 96 % 1010,8 hPa 0,0 mm 2,8 km/h (1 Bft) N-NO 24 ° 0 min 0,000 mm 0,0 UV-I 42 W/m² 3,7 °C 4,3 °C 4,8 km/h (1 Bft)
22.03.2017 08:41 4,3 °C 4,3 °C 96 % 1010,8 hPa 0,0 mm 1,7 km/h (1 Bft) N-NO 24 ° 0 min 0,000 mm 0,0 UV-I 42 W/m² 3,7 °C 4,3 °C 3,2 km/h (1 Bft)
22.03.2017 08:42 4,3 °C 4,3 °C 96 % 1010,9 hPa 0,0 mm 2,3 km/h (1 Bft) N-NO 24 ° 0 min 0,000 mm 0,0 UV-I 40 W/m² 3,7 °C 4,3 °C 3,2 km/h (1 Bft)
22.03.2017 08:43 4,3 °C 4,3 °C 96 % 1010,9 hPa 0,0 mm 1,1 km/h (1 Bft) N-NO 24 ° 0 min 0,000 mm 0,0 UV-I 39 W/m² 3,7 °C 4,3 °C 3,2 km/h (1 Bft)
22.03.2017 08:44 4,3 °C 4,3 °C 96 % 1011,0 hPa 0,0 mm 0,7 km/h (0 Bft) N-NO 24 ° 0 min 0,000 mm 0,0 UV-I 35 W/m² 3,7 °C 4,3 °C 1,6 km/h (1 Bft)
22.03.2017 08:45 4,3 °C 4,3 °C 96 % 1011,0 hPa 0,0 mm 0,8 km/h (0 Bft) N-NO 24 ° 0 min 0,000 mm 0,0 UV-I 35 W/m² 3,7 °C 4,3 °C 1,6 km/h (1 Bft)
22.03.2017 08:46 4,3 °C 4,3 °C 95 % 1011,0 hPa 0,0 mm 1,7 km/h (1 Bft) N-NO 24 ° 0 min 0,000 mm 0,0 UV-I 37 W/m² 3,6 °C 4,3 °C 3,2 km/h (1 Bft)
22.03.2017 08:47 4,3 °C 4,3 °C 96 % 1011,0 hPa 0,0 mm 1,3 km/h (1 Bft) N-NO 24 ° 0 min 0,000 mm 0,0 UV-I 39 W/m² 3,7 °C 4,3 °C 1,6 km/h (1 Bft)
22.03.2017 08:48 4,3 °C 4,3 °C 96 % 1011,0 hPa 0,0 mm 2,3 km/h (1 Bft) N-NO 24 ° 0 min 0,000 mm 0,0 UV-I 40 W/m² 3,7 °C 4,3 °C 3,2 km/h (1 Bft)
22.03.2017 08:49 4,3 °C 4,3 °C 96 % 1011,0 hPa 0,0 mm 2,7 km/h (1 Bft) N-NO 24 ° 0 min 0,000 mm 0,0 UV-I 40 W/m² 3,7 °C 4,3 °C 3,2 km/h (1 Bft)
22.03.2017 08:50 4,2 °C 4,3 °C 96 % 1011,0 hPa 0,0 mm 0,7 km/h (0 Bft) N-NO 24 ° 0 min 0,000 mm 0,0 UV-I 37 W/m² 3,6 °C 4,2 °C 1,6 km/h (1 Bft)
22.03.2017 08:51 4,2 °C 4,2 °C 96 % 1011,0 hPa 0,0 mm 0,0 km/h (0 Bft) N-NO 24 ° 0 min 0,000 mm 0,0 UV-I 35 W/m² 3,6 °C 4,2 °C 0,0 km/h (0 Bft)
22.03.2017 08:52 4,2 °C 4,2 °C 96 % 1011,0 hPa 0,0 mm 0,0 km/h (0 Bft) N-NO 24 ° 0 min 0,000 mm 0,0 UV-I 33 W/m² 3,6 °C 4,2 °C 0,0 km/h (0 Bft)
22.03.2017 08:53 4,2 °C 4,2 °C 95 % 1011,0 hPa 0,0 mm 0,0 km/h (0 Bft) N-NO 24 ° 0 min 0,000 mm 0,0 UV-I 33 W/m² 3,5 °C 4,2 °C 0,0 km/h (0 Bft)
22.03.2017 08:54 4,2 °C 4,2 °C 95 % 1011,1 hPa 0,0 mm 0,0 km/h (0 Bft) N-NO 24 ° 0 min 0,000 mm 0,0 UV-I 33 W/m² 3,5 °C 4,2 °C 0,0 km/h (0 Bft)
22.03.2017 08:55 4,2 °C 4,2 °C 95 % 1011,0 hPa 0,0 mm 0,0 km/h (0 Bft) N-NO 24 ° 0 min 0,000 mm 0,0 UV-I 33 W/m² 3,5 °C 4,2 °C 0,0 km/h (0 Bft)
22.03.2017 08:56 4,2 °C 4,2 °C 95 % 1011,0 hPa 0,0 mm 0,0 km/h (0 Bft) N-NO 24 ° 0 min 0,000 mm 0,0 UV-I 35 W/m² 3,5 °C 4,2 °C 0,0 km/h (0 Bft)
22.03.2017 08:57 4,2 °C 4,2 °C 95 % 1011,0 hPa 0,0 mm 0,0 km/h (0 Bft) N-NO 24 ° 0 min 0,000 mm 0,0 UV-I 37 W/m² 3,5 °C 4,2 °C 0,0 km/h (0 Bft)
22.03.2017 08:58 4,2 °C 4,2 °C 95 % 1011,0 hPa 0,2 mm 0,0 km/h (0 Bft) N-NO 24 ° 0 min 0,000 mm 0,0 UV-I 39 W/m² 3,5 °C 4,2 °C 0,0 km/h (0 Bft)
22.03.2017 08:59 4,2 °C 4,2 °C 96 % 1011,0 hPa 0,0 mm 2,9 km/h (1 Bft) N-NO 24 ° 0 min 0,000 mm 0,0 UV-I 42 W/m² 3,6 °C 4,2 °C 3,2 km/h (1 Bft)
22.03.2017 09:00 4,3 °C 4,3 °C 96 % 1011,1 hPa 0,0 mm 2,8 km/h (1 Bft) N-NO 24 ° 0 min 0,025 mm 0,0 UV-I 46 W/m² 3,7 °C 4,3 °C 3,2 km/h (1 Bft)
22.03.2017 09:01 4,3 °C 4,3 °C 96 % 1011,1 hPa 0,0 mm 2,3 km/h (1 Bft) N-NO 24 ° 0 min 0,000 mm 0,0 UV-I 49 W/m² 3,7 °C 4,3 °C 3,2 km/h (1 Bft)
22.03.2017 09:02 4,3 °C 4,3 °C 96 % 1011,1 hPa 0,0 mm 1,1 km/h (1 Bft) N-NO 24 ° 0 min 0,000 mm 0,0 UV-I 56 W/m² 3,7 °C 4,3 °C 1,6 km/h (1 Bft)
22.03.2017 09:03 4,3 °C 4,3 °C 96 % 1011,1 hPa 0,0 mm 1,0 km/h (0 Bft) N-NO 24 ° 0 min 0,000 mm 0,5 UV-I 60 W/m² 3,7 °C 4,3 °C 3,2 km/h (1 Bft)
22.03.2017 09:04 4,3 °C 4,3 °C 95 % 1011,1 hPa 0,0 mm 1,7 km/h (1 Bft) N-NO 24 ° 0 min 0,000 mm 0,5 UV-I 63 W/m² 3,6 °C 4,3 °C 3,2 km/h (1 Bft)
22.03.2017 09:05 4,3 °C 4,3 °C 96 % 1011,1 hPa 0,0 mm 1,3 km/h (1 Bft) N-NO 24 ° 0 min 0,000 mm 0,5 UV-I 69 W/m² 3,7 °C 4,3 °C 3,2 km/h (1 Bft)
22.03.2017 09:06 4,4 °C 4,4 °C 95 % 1011,1 hPa 0,0 mm 0,0 km/h (0 Bft) N-NO 24 ° 0 min 0,000 mm 0,6 UV-I 72 W/m² 3,7 °C 4,4 °C 0,0 km/h (0 Bft)
22.03.2017 09:07 4,3 °C 4,4 °C 95 % 1011,1 hPa 0,2 mm 0,0 km/h (0 Bft) N-NO 24 ° 0 min 0,000 mm 0,6 UV-I 76 W/m² 3,6 °C 4,3 °C 0,0 km/h (0 Bft)
22.03.2017 09:08 4,3 °C 4,3 °C 95 % 1011,1 hPa 0,0 mm 0,0 km/h (0 Bft) N-NO 24 ° 0 min 0,000 mm 0,6 UV-I 83 W/m² 3,6 °C 4,3 °C 0,0 km/h (0 Bft)
22.03.2017 09:09 4,3 °C 4,3 °C 95 % 1011,2 hPa 0,0 mm 0,0 km/h (0 Bft) N-NO 24 ° 0 min 0,000 mm 0,7 UV-I 86 W/m² 3,6 °C 4,3 °C 0,0 km/h (0 Bft)
22.03.2017 09:10 4,3 °C 4,4 °C 96 % 1011,1 hPa 0,0 mm 0,0 km/h (0 Bft) N-NO 24 ° 0 min 0,000 mm 0,7 UV-I 91 W/m² 3,7 °C 4,3 °C 0,0 km/h (0 Bft)
22.03.2017 09:11 4,3 °C 4,3 °C 95 % 1011,1 hPa 0,0 mm 0,0 km/h (0 Bft) N-NO 24 ° 0 min 0,000 mm 0,8 UV-I 97 W/m² 3,6 °C 4,3 °C 0,0 km/h (0 Bft)
22.03.2017 09:12 4,4 °C 4,4 °C 95 % 1011,1 hPa 0,0 mm 0,0 km/h (0 Bft) N-NO 24 ° 0 min 0,000 mm 0,8 UV-I 100 W/m² 3,7 °C 4,4 °C 0,0 km/h (0 Bft)
22.03.2017 09:13 4,4 °C 4,4 °C 95 % 1011,1 hPa 0,0 mm 0,1 km/h (0 Bft) N-NO 24 ° 0 min 0,000 mm 0,8 UV-I 109 W/m² 3,7 °C 4,4 °C 1,6 km/h (1 Bft)
22.03.2017 09:14 4,5 °C 4,5 °C 95 % 1011,1 hPa 0,0 mm 0,5 km/h (0 Bft) N-NO 24 ° 0 min 0,000 mm 0,8 UV-I 113 W/m² 3,8 °C 4,5 °C 1,6 km/h (1 Bft)
22.03.2017 09:15 4,5 °C 4,5 °C 95 % 1011,1 hPa 0,0 mm 1,4 km/h (1 Bft) N-NO 24 ° 0 min 0,000 mm 0,9 UV-I 118 W/m² 3,8 °C 4,5 °C 1,6 km/h (1 Bft)
22.03.2017 09:16 4,6 °C 4,6 °C 95 % 1011,1 hPa 0,0 mm 1,6 km/h (1 Bft) N-NO 24 ° 0 min 0,000 mm 0,9 UV-I 120 W/m² 3,9 °C 4,6 °C 3,2 km/h (1 Bft)
22.03.2017 09:17 4,6 °C 4,6 °C 95 % 1011,1 hPa 0,0 mm 2,1 km/h (1 Bft) N-NO 24 ° 0 min 0,000 mm 0,9 UV-I 120 W/m² 3,9 °C 4,6 °C 3,2 km/h (1 Bft)
22.03.2017 09:18 4,6 °C 4,6 °C 95 % 1011,1 hPa 0,0 mm 2,1 km/h (1 Bft) N-NO 24 ° 0 min 0,000 mm 0,9 UV-I 116 W/m² 3,9 °C 4,6 °C 3,2 km/h (1 Bft)
22.03.2017 09:19 4,6 °C 4,6 °C 95 % 1011,0 hPa 0,0 mm 1,5 km/h (1 Bft) NO 56 ° 0 min 0,000 mm 0,8 UV-I 114 W/m² 3,9 °C 4,6 °C 4,8 km/h (1 Bft)
22.03.2017 09:20 4,6 °C 4,6 °C 95 % 1011,0 hPa 0,0 mm 4,0 km/h (1 Bft) O-NO 65 ° 0 min 0,000 mm 0,8 UV-I 113 W/m² 3,9 °C 4,6 °C 4,8 km/h (1 Bft)
22.03.2017 09:21 4,6 °C 4,6 °C 95 % 1011,0 hPa 0,0 mm 2,5 km/h (1 Bft) O-NO 65 ° 0 min 0,000 mm 0,8 UV-I 113 W/m² 3,9 °C 4,6 °C 3,2 km/h (1 Bft)
22.03.2017 09:22 4,6 °C 4,6 °C 95 % 1011,0 hPa 0,0 mm 3,1 km/h (1 Bft) O-NO 65 ° 0 min 0,000 mm 0,8 UV-I 113 W/m² 3,9 °C 4,6 °C 4,8 km/h (1 Bft)
22.03.2017 09:23 4,6 °C 4,6 °C 95 % 1011,0 hPa 0,0 mm 2,1 km/h (1 Bft) O-NO 65 ° 0 min 0,000 mm 0,9 UV-I 116 W/m² 3,9 °C 4,6 °C 3,2 km/h (1 Bft)
22.03.2017 09:24 4,7 °C 4,7 °C 95 % 1011,0 hPa 0,0 mm 1,9 km/h (1 Bft) O-NO 65 ° 0 min 0,000 mm 0,9 UV-I 118 W/m² 4,0 °C 4,7 °C 3,2 km/h (1 Bft)
22.03.2017 09:25 4,7 °C 4,7 °C 95 % 1011,1 hPa 0,0 mm 2,1 km/h (1 Bft) O-NO 65 ° 0 min 0,000 mm 0,9 UV-I 113 W/m² 4,0 °C 4,7 °C 3,2 km/h (1 Bft)
22.03.2017 09:26 4,7 °C 4,7 °C 95 % 1011,1 hPa 0,0 mm 1,5 km/h (1 Bft) O-NO 65 ° 0 min 0,000 mm 0,8 UV-I 105 W/m² 4,0 °C 4,7 °C 3,2 km/h (1 Bft)
22.03.2017 09:27 4,7 °C 4,8 °C 95 % 1011,1 hPa 0,0 mm 1,5 km/h (1 Bft) O-NO 65 ° 0 min 0,000 mm 0,8 UV-I 100 W/m² 4,0 °C 4,7 °C 3,2 km/h (1 Bft)
22.03.2017 09:28 4,7 °C 4,7 °C 95 % 1011,1 hPa 0,0 mm 3,0 km/h (1 Bft) O-NO 65 ° 0 min 0,000 mm 0,8 UV-I 97 W/m² 4,0 °C 4,7 °C 3,2 km/h (1 Bft)
22.03.2017 09:29 4,7 °C 4,7 °C 94 % 1011,0 hPa 0,0 mm 2,6 km/h (1 Bft) O-NO 65 ° 0 min 0,000 mm 0,8 UV-I 95 W/m² 3,8 °C 4,7 °C 4,8 km/h (1 Bft)
22.03.2017 09:30 4,7 °C 4,7 °C 94 % 1011,1 hPa 0,0 mm 3,8 km/h (1 Bft) O-NO 65 ° 0 min 0,000 mm 0,8 UV-I 97 W/m² 3,8 °C 4,7 °C 4,8 km/h (1 Bft)
22.03.2017 09:31 4,7 °C 4,7 °C 94 % 1011,1 hPa 0,0 mm 3,4 km/h (1 Bft) O-NO 65 ° 0 min 0,000 mm 0,8 UV-I 107 W/m² 3,8 °C 4,7 °C 4,8 km/h (1 Bft)
22.03.2017 09:32 4,8 °C 4,8 °C 94 % 1011,1 hPa 0,0 mm 4,1 km/h (1 Bft) O-NO 65 ° 0 min 0,000 mm 0,9 UV-I 114 W/m² 3,9 °C 4,8 °C 4,8 km/h (1 Bft)
22.03.2017 09:33 4,8 °C 4,8 °C 94 % 1011,2 hPa 0,0 mm 2,7 km/h (1 Bft) O-NO 65 ° 0 min 0,000 mm 1,0 UV-I 121 W/m² 3,9 °C 4,8 °C 3,2 km/h (1 Bft)
22.03.2017 09:34 4,8 °C 4,8 °C 94 % 1011,2 hPa 0,0 mm 1,7 km/h (1 Bft) O-NO 65 ° 0 min 0,000 mm 1,0 UV-I 125 W/m² 3,9 °C 4,8 °C 3,2 km/h (1 Bft)
22.03.2017 09:35 4,8 °C 4,8 °C 94 % 1011,2 hPa 0,0 mm 2,7 km/h (1 Bft) O-NO 65 ° 0 min 0,000 mm 1,0 UV-I 125 W/m² 3,9 °C 4,8 °C 3,2 km/h (1 Bft)
22.03.2017 09:36 4,8 °C 4,8 °C 94 % 1011,2 hPa 0,0 mm 3,3 km/h (1 Bft) O-NO 65 ° 0 min 0,000 mm 1,0 UV-I 128 W/m² 3,9 °C 4,8 °C 4,8 km/h (1 Bft)
22.03.2017 09:37 4,9 °C 4,9 °C 94 % 1011,1 hPa 0,0 mm 4,6 km/h (1 Bft) O-NO 65 ° 0 min 0,000 mm 1,0 UV-I 132 W/m² 4,0 °C 4,1 °C 4,8 km/h (1 Bft)
22.03.2017 09:38 4,8 °C 4,9 °C 94 % 1011,1 hPa 0,0 mm 3,6 km/h (1 Bft) O-NO 65 ° 0 min 0,000 mm 1,1 UV-I 141 W/m² 3,9 °C 4,8 °C 4,8 km/h (1 Bft)
22.03.2017 09:39 4,9 °C 4,9 °C 94 % 1011,1 hPa 0,0 mm 2,3 km/h (1 Bft) O-NO 65 ° 0 min 0,000 mm 1,1 UV-I 151 W/m² 4,0 °C 4,9 °C 3,2 km/h (1 Bft)
22.03.2017 09:40 4,9 °C 4,9 °C 94 % 1011,1 hPa 0,0 mm 2,7 km/h (1 Bft) O-NO 65 ° 0 min 0,000 mm 1,1 UV-I 149 W/m² 4,0 °C 4,9 °C 4,8 km/h (1 Bft)
22.03.2017 09:41 4,9 °C 4,9 °C 94 % 1011,1 hPa 0,0 mm 3,3 km/h (1 Bft) O-NO 65 ° 0 min 0,000 mm 1,0 UV-I 137 W/m² 4,0 °C 4,9 °C 4,8 km/h (1 Bft)
22.03.2017 09:42 4,9 °C 4,9 °C 94 % 1011,2 hPa 0,0 mm 2,4 km/h (1 Bft) NO 55 ° 0 min 0,000 mm 1,0 UV-I 127 W/m² 4,0 °C 4,9 °C 4,8 km/h (1 Bft)
22.03.2017 09:43 5,0 °C 5,0 °C 94 % 1011,2 hPa 0,0 mm 4,7 km/h (1 Bft) NO 50 ° 0 min 0,000 mm 1,0 UV-I 127 W/m² 4,1 °C 4,2 °C 6,4 km/h (2 Bft)
22.03.2017 09:44 5,0 °C 5,0 °C 94 % 1011,2 hPa 0,0 mm 5,2 km/h (1 Bft) O-NO 71 ° 0 min 0,000 mm 1,1 UV-I 134 W/m² 4,1 °C 4,0 °C 9,7 km/h (2 Bft)
22.03.2017 09:45 5,0 °C 5,1 °C 94 % 1011,2 hPa 0,0 mm 4,5 km/h (1 Bft) NO 55 ° 0 min 0,000 mm 1,2 UV-I 142 W/m² 4,1 °C 5,0 °C 6,4 km/h (2 Bft)
22.03.2017 09:46 5,1 °C 5,1 °C 94 % 1011,1 hPa 0,0 mm 5,4 km/h (1 Bft) NO 49 ° 0 min 0,000 mm 1,2 UV-I 148 W/m² 4,2 °C 4,0 °C 6,4 km/h (2 Bft)
22.03.2017 09:47 5,1 °C 5,1 °C 94 % 1011,1 hPa 0,0 mm 4,2 km/h (1 Bft) O-NO 75 ° 0 min 0,000 mm 1,2 UV-I 148 W/m² 4,2 °C 5,1 °C 8,0 km/h (2 Bft)
22.03.2017 09:48 5,1 °C 5,2 °C 94 % 1011,1 hPa 0,0 mm 5,8 km/h (2 Bft) O-NO 77 ° 0 min 0,000 mm 1,2 UV-I 121 W/m² 4,2 °C 3,9 °C 8,0 km/h (2 Bft)
22.03.2017 09:49 5,1 °C 5,2 °C 94 % 1011,1 hPa 0,0 mm 2,6 km/h (1 Bft) O-NO 59 ° 0 min 0,000 mm 1,0 UV-I 113 W/m² 4,2 °C 5,1 °C 6,4 km/h (2 Bft)
22.03.2017 09:50 5,2 °C 5,2 °C 94 % 1011,1 hPa 0,0 mm 3,2 km/h (1 Bft) N-NO 27 ° 0 min 0,000 mm 1,0 UV-I 116 W/m² 4,3 °C 5,2 °C 6,4 km/h (2 Bft)
22.03.2017 09:51 5,2 °C 5,2 °C 94 % 1011,1 hPa 0,0 mm 4,0 km/h (1 Bft) N-NO 27 ° 0 min 0,000 mm 1,1 UV-I 132 W/m² 4,3 °C 5,2 °C 4,8 km/h (1 Bft)
22.03.2017 09:52 5,2 °C 5,2 °C 94 % 1011,1 hPa 0,0 mm 4,2 km/h (1 Bft) N-NO 24 ° 0 min 0,000 mm 1,3 UV-I 153 W/m² 4,3 °C 5,2 °C 4,8 km/h (1 Bft)
22.03.2017 09:53 5,2 °C 5,2 °C 94 % 1011,1 hPa 0,0 mm 5,0 km/h (1 Bft) N 11 ° 0 min 0,000 mm 1,4 UV-I 176 W/m² 4,3 °C 4,3 °C 6,4 km/h (2 Bft)
22.03.2017 09:54 5,2 °C 5,2 °C 94 % 1011,1 hPa 0,0 mm 4,2 km/h (1 Bft) N-NO 13 ° 0 min 0,000 mm 1,4 UV-I 193 W/m² 4,3 °C 5,2 °C 4,8 km/h (1 Bft)
22.03.2017 09:55 5,2 °C 5,2 °C 94 % 1011,1 hPa 0,0 mm 4,4 km/h (1 Bft) O-NO 71 ° 0 min 0,000 mm 1,5 UV-I 192 W/m² 4,3 °C 5,2 °C 6,4 km/h (2 Bft)
22.03.2017 09:56 5,2 °C 5,2 °C 94 % 1011,2 hPa 0,0 mm 3,6 km/h (1 Bft) O-NO 71 ° 0 min 0,000 mm 1,4 UV-I 188 W/m² 4,3 °C 5,2 °C 4,8 km/h (1 Bft)
22.03.2017 09:57 5,2 °C 5,2 °C 94 % 1011,2 hPa 0,0 mm 3,9 km/h (1 Bft) O-NO 71 ° 0 min 0,000 mm 1,4 UV-I 193 W/m² 4,3 °C 5,2 °C 4,8 km/h (1 Bft)
22.03.2017 09:58 5,2 °C 5,2 °C 94 % 1011,2 hPa 0,0 mm 1,3 km/h (1 Bft) O-NO 71 ° 0 min 0,000 mm 1,3 UV-I 179 W/m² 4,3 °C 5,2 °C 4,8 km/h (1 Bft)
22.03.2017 09:59 5,2 °C 5,2 °C 94 % 1011,2 hPa 0,0 mm 3,9 km/h (1 Bft) O-NO 71 ° 0 min 0,000 mm 1,2 UV-I 171 W/m² 4,3 °C 5,2 °C 6,4 km/h (2 Bft)
22.03.2017 10:00 5,3 °C 5,3 °C 94 % 1011,1 hPa 0,0 mm 5,6 km/h (1 Bft) NO 51 ° 0 min 0,000 mm 1,1 UV-I 141 W/m² 4,4 °C 4,2 °C 8,0 km/h (2 Bft)
22.03.2017 10:01 5,3 °C 5,3 °C 94 % 1011,1 hPa 0,0 mm 4,3 km/h (1 Bft) N-NO 19 ° 0 min 0,051 mm 1,1 UV-I 132 W/m² 4,4 °C 5,3 °C 6,4 km/h (2 Bft)
22.03.2017 10:02 5,3 °C 5,3 °C 94 % 1011,1 hPa 0,0 mm 3,7 km/h (1 Bft) O-NO 60 ° 0 min 0,000 mm 1,1 UV-I 128 W/m² 4,4 °C 5,3 °C 4,8 km/h (1 Bft)
22.03.2017 10:03 5,2 °C 5,3 °C 94 % 1011,1 hPa 0,0 mm 3,4 km/h (1 Bft) NO 46 ° 0 min 0,000 mm 1,1 UV-I 134 W/m² 4,3 °C 5,2 °C 4,8 km/h (1 Bft)
22.03.2017 10:04 5,2 °C 5,2 °C 93 % 1011,1 hPa 0,0 mm 2,9 km/h (1 Bft) NO 46 ° 0 min 0,000 mm 1,2 UV-I 148 W/m² 4,2 °C 5,2 °C 4,8 km/h (1 Bft)
22.03.2017 10:05 5,2 °C 5,2 °C 94 % 1011,0 hPa 0,0 mm 1,1 km/h (1 Bft) NO 46 ° 0 min 0,000 mm 1,2 UV-I 176 W/m² 4,3 °C 5,2 °C 3,2 km/h (1 Bft)
22.03.2017 10:06 5,3 °C 5,3 °C 94 % 1011,0 hPa 0,0 mm 5,5 km/h (1 Bft) NO 53 ° 0 min 0,000 mm 1,4 UV-I 179 W/m² 4,4 °C 4,2 °C 8,0 km/h (2 Bft)
22.03.2017 10:07 5,3 °C 5,3 °C 94 % 1011,0 hPa 0,0 mm 5,0 km/h (1 Bft) NO 48 ° 0 min 0,000 mm 1,5 UV-I 211 W/m² 4,4 °C 4,4 °C 8,0 km/h (2 Bft)
22.03.2017 10:08 5,3 °C 5,3 °C 94 % 1011,0 hPa 0,0 mm 4,0 km/h (1 Bft) NO 42 ° 1 min 0,000 mm 1,7 UV-I 292 W/m² 4,4 °C 5,3 °C 4,8 km/h (1 Bft)
22.03.2017 10:09 5,3 °C 5,3 °C 94 % 1011,1 hPa 0,0 mm 4,8 km/h (1 Bft) O-NO 59 ° 0 min 0,000 mm 1,8 UV-I 274 W/m² 4,4 °C 4,5 °C 8,0 km/h (2 Bft)
22.03.2017 10:10 5,4 °C 5,4 °C 94 % 1011,1 hPa 0,0 mm 8,0 km/h (2 Bft) O-SO 113 ° 0 min 0,000 mm 1,8 UV-I 269 W/m² 4,5 °C 3,6 °C 9,7 km/h (2 Bft)
22.03.2017 10:11 5,4 °C 5,4 °C 94 % 1011,2 hPa 0,0 mm 4,6 km/h (1 Bft) O 91 ° 0 min 0,000 mm 1,7 UV-I 229 W/m² 4,5 °C 4,7 °C 9,7 km/h (2 Bft)
22.03.2017 10:12 5,3 °C 5,4 °C 93 % 1011,1 hPa 0,0 mm 5,3 km/h (1 Bft) O 82 ° 0 min 0,000 mm 1,7 UV-I 221 W/m² 4,3 °C 4,3 °C 6,4 km/h (2 Bft)
22.03.2017 10:13 5,3 °C 5,3 °C 93 % 1011,1 hPa 0,0 mm 3,2 km/h (1 Bft) O-NO 73 ° 0 min 0,000 mm 1,6 UV-I 214 W/m² 4,3 °C 5,3 °C 4,8 km/h (1 Bft)
22.03.2017 10:14 5,3 °C 5,3 °C 93 % 1011,1 hPa 0,0 mm 5,0 km/h (1 Bft) O-NO 69 ° 0 min 0,000 mm 1,6 UV-I 200 W/m² 4,3 °C 4,4 °C 9,7 km/h (2 Bft)
22.03.2017 10:15 5,3 °C 5,4 °C 93 % 1011,0 hPa 0,0 mm 7,0 km/h (2 Bft) O 86 ° 0 min 0,000 mm 1,6 UV-I 199 W/m² 4,3 °C 3,8 °C 11,3 km/h (2 Bft)
22.03.2017 10:16 5,3 °C 5,3 °C 93 % 1011,0 hPa 0,0 mm 4,7 km/h (1 Bft) O 82 ° 0 min 0,000 mm 1,6 UV-I 204 W/m² 4,3 °C 4,5 °C 8,0 km/h (2 Bft)
22.03.2017 10:17 5,3 °C 5,3 °C 93 % 1011,0 hPa 0,0 mm 6,2 km/h (2 Bft) O-NO 75 ° 0 min 0,000 mm 1,6 UV-I 202 W/m² 4,3 °C 4,0 °C 8,0 km/h (2 Bft)
22.03.2017 10:18 5,3 °C 5,3 °C 93 % 1011,0 hPa 0,0 mm 7,2 km/h (2 Bft) O 90 ° 0 min 0,000 mm 1,5 UV-I 213 W/m² 4,3 °C 3,7 °C 11,3 km/h (2 Bft)
22.03.2017 10:19 5,3 °C 5,3 °C 93 % 1011,0 hPa 0,0 mm 6,0 km/h (2 Bft) O 96 ° 0 min 0,000 mm 1,6 UV-I 225 W/m² 4,3 °C 4,1 °C 9,7 km/h (2 Bft)
22.03.2017 10:20 5,3 °C 5,3 °C 93 % 1011,1 hPa 0,0 mm 2,8 km/h (1 Bft) O-NO 71 ° 0 min 0,000 mm 1,5 UV-I 197 W/m² 4,3 °C 5,3 °C 8,0 km/h (2 Bft)
22.03.2017 10:21 5,3 °C 5,3 °C 93 % 1011,1 hPa 0,0 mm 8,2 km/h (2 Bft) O-NO 67 ° 0 min 0,000 mm 1,5 UV-I 195 W/m² 4,3 °C 3,4 °C 14,5 km/h (3 Bft)
22.03.2017 10:22 5,4 °C 5,4 °C 93 % 1011,1 hPa 0,0 mm 8,5 km/h (2 Bft) O-NO 64 ° 0 min 0,000 mm 1,4 UV-I 195 W/m² 4,4 °C 3,5 °C 11,3 km/h (2 Bft)
22.03.2017 10:23 5,4 °C 5,4 °C 93 % 1011,1 hPa 0,0 mm 6,3 km/h (2 Bft) O-NO 58 ° 0 min 0,000 mm 1,3 UV-I 181 W/m² 4,4 °C 4,1 °C 8,0 km/h (2 Bft)
22.03.2017 10:24 5,5 °C 5,5 °C 93 % 1011,1 hPa 0,0 mm 5,1 km/h (1 Bft) O-NO 77 ° 0 min 0,000 mm 1,3 UV-I 162 W/m² 4,5 °C 4,6 °C 8,0 km/h (2 Bft)
22.03.2017 10:25 5,6 °C 5,6 °C 93 % 1011,1 hPa 0,0 mm 5,7 km/h (1 Bft) O-NO 71 ° 0 min 0,000 mm 1,2 UV-I 153 W/m² 4,6 °C 4,5 °C 8,0 km/h (2 Bft)
22.03.2017 10:26 5,6 °C 5,6 °C 93 % 1011,1 hPa 0,0 mm 9,6 km/h (2 Bft) O 82 ° 0 min 0,000 mm 1,1 UV-I 141 W/m² 4,6 °C 3,5 °C 12,9 km/h (3 Bft)
22.03.2017 10:27 5,4 °C 5,6 °C 93 % 1011,1 hPa 0,0 mm 7,6 km/h (2 Bft) O-NO 57 ° 0 min 0,000 mm 1,1 UV-I 135 W/m² 4,4 °C 3,7 °C 11,3 km/h (2 Bft)
22.03.2017 10:28 5,4 °C 5,4 °C 93 % 1011,1 hPa 0,0 mm 4,8 km/h (1 Bft) O-NO 67 ° 0 min 0,000 mm 1,1 UV-I 135 W/m² 4,4 °C 4,6 °C 9,7 km/h (2 Bft)
22.03.2017 10:29 5,4 °C 5,4 °C 93 % 1011,1 hPa 0,0 mm 6,2 km/h (2 Bft) NO 52 ° 0 min 0,000 mm 1,1 UV-I 134 W/m² 4,4 °C 4,1 °C 9,7 km/h (2 Bft)
22.03.2017 10:30 5,3 °C 5,4 °C 93 % 1011,1 hPa 0,0 mm 7,4 km/h (2 Bft) O-NO 60 ° 0 min 0,000 mm 1,0 UV-I 125 W/m² 4,3 °C 3,6 °C 9,7 km/h (2 Bft)
22.03.2017 10:31 5,3 °C 5,3 °C 93 % 1011,1 hPa 0,0 mm 9,9 km/h (2 Bft) O-NO 69 ° 0 min 0,000 mm 1,0 UV-I 125 W/m² 4,3 °C 3,0 °C 12,9 km/h (3 Bft)
22.03.2017 10:32 5,3 °C 5,3 °C 93 % 1011,2 hPa 0,0 mm 5,9 km/h (2 Bft) O-NO 74 ° 0 min 0,000 mm 1,0 UV-I 127 W/m² 4,3 °C 4,1 °C 11,3 km/h (2 Bft)
22.03.2017 10:33 5,3 °C 5,3 °C 94 % 1011,2 hPa 0,0 mm 5,0 km/h (1 Bft) N-NO 31 ° 0 min 0,000 mm 1,0 UV-I 132 W/m² 4,4 °C 4,4 °C 6,4 km/h (2 Bft)
22.03.2017 10:34 5,3 °C 5,3 °C 94 % 1011,1 hPa 0,0 mm 5,0 km/h (1 Bft) O-NO 67 ° 0 min 0,000 mm 1,1 UV-I 137 W/m² 4,4 °C 4,4 °C 8,0 km/h (2 Bft)
22.03.2017 10:35 5,3 °C 5,3 °C 94 % 1011,2 hPa 0,0 mm 5,6 km/h (1 Bft) O-NO 60 ° 0 min 0,000 mm 1,0 UV-I 134 W/m² 4,4 °C 4,2 °C 9,7 km/h (2 Bft)
22.03.2017 10:36 5,3 °C 5,3 °C 94 % 1011,2 hPa 0,0 mm 6,2 km/h (2 Bft) O 80 ° 0 min 0,000 mm 1,0 UV-I 123 W/m² 4,4 °C 4,0 °C 11,3 km/h (2 Bft)
22.03.2017 10:37 5,3 °C 5,3 °C 94 % 1011,2 hPa 0,0 mm 6,4 km/h (2 Bft) O-NO 73 ° 0 min 0,000 mm 0,9 UV-I 118 W/m² 4,4 °C 3,9 °C 8,0 km/h (2 Bft)
22.03.2017 10:38 5,2 °C 5,3 °C 94 % 1011,2 hPa 0,0 mm 8,9 km/h (2 Bft) O 82 ° 0 min 0,000 mm 0,9 UV-I 114 W/m² 4,3 °C 3,1 °C 12,9 km/h (3 Bft)
22.03.2017 10:39 5,2 °C 5,2 °C 94 % 1011,2 hPa 0,0 mm 8,1 km/h (2 Bft) O-NO 64 ° 0 min 0,000 mm 0,9 UV-I 114 W/m² 4,3 °C 3,3 °C 11,3 km/h (2 Bft)
22.03.2017 10:40 5,1 °C 5,2 °C 93 % 1011,2 hPa 0,0 mm 5,6 km/h (1 Bft) O 82 ° 0 min 0,000 mm 0,9 UV-I 114 W/m² 4,1 °C 4,0 °C 8,0 km/h (2 Bft)
22.03.2017 10:41 5,1 °C 5,2 °C 94 % 1011,2 hPa 0,0 mm 4,4 km/h (1 Bft) O-NO 78 ° 0 min 0,000 mm 0,9 UV-I 116 W/m² 4,2 °C 5,1 °C 6,4 km/h (2 Bft)
22.03.2017 10:42 5,1 °C 5,1 °C 94 % 1011,1 hPa 0,0 mm 6,2 km/h (2 Bft) NO 49 ° 0 min 0,000 mm 0,9 UV-I 116 W/m² 4,2 °C 3,8 °C 8,0 km/h (2 Bft)
22.03.2017 10:43 5,2 °C 5,2 °C 94 % 1011,2 hPa 0,0 mm 4,4 km/h (1 Bft) O-NO 73 ° 0 min 0,000 mm 0,9 UV-I 118 W/m² 4,3 °C 5,2 °C 6,4 km/h (2 Bft)
22.03.2017 10:44 5,2 °C 5,2 °C 94 % 1011,2 hPa 0,0 mm 7,2 km/h (2 Bft) O-NO 70 ° 0 min 0,000 mm 0,9 UV-I 120 W/m² 4,3 °C 3,6 °C 9,7 km/h (2 Bft)
22.03.2017 10:45 5,1 °C 5,2 °C 94 % 1011,2 hPa 0,0 mm 7,3 km/h (2 Bft) O-NO 76 ° 0 min 0,000 mm 0,9 UV-I 123 W/m² 4,2 °C 3,4 °C 11,3 km/h (2 Bft)
22.03.2017 10:46 5,1 °C 5,2 °C 94 % 1011,2 hPa 0,0 mm 6,3 km/h (2 Bft) O-NO 67 ° 0 min 0,000 mm 0,9 UV-I 123 W/m² 4,2 °C 3,7 °C 12,9 km/h (3 Bft)
22.03.2017 10:47 5,1 °C 5,1 °C 94 % 1011,2 hPa 0,0 mm 5,6 km/h (1 Bft) O-NO 61 ° 0 min 0,000 mm 0,9 UV-I 128 W/m² 4,2 °C 4,0 °C 8,0 km/h (2 Bft)
22.03.2017 10:48 5,1 °C 5,1 °C 94 % 1011,2 hPa 0,0 mm 7,4 km/h (2 Bft) O-NO 78 ° 0 min 0,000 mm 1,0 UV-I 130 W/m² 4,2 °C 3,4 °C 8,0 km/h (2 Bft)
22.03.2017 10:49 5,1 °C 5,1 °C 94 % 1011,2 hPa 0,0 mm 4,0 km/h (1 Bft) NO 46 ° 0 min 0,000 mm 1,0 UV-I 127 W/m² 4,2 °C 5,1 °C 6,4 km/h (2 Bft)
22.03.2017 10:50 5,1 °C 5,1 °C 94 % 1011,2 hPa 0,0 mm 6,9 km/h (2 Bft) O 84 ° 0 min 0,000 mm 1,0 UV-I 130 W/m² 4,2 °C 3,6 °C 9,7 km/h (2 Bft)
22.03.2017 10:51 5,1 °C 5,1 °C 95 % 1011,1 hPa 0,0 mm 3,6 km/h (1 Bft) O-NO 59 ° 0 min 0,000 mm 1,0 UV-I 134 W/m² 4,4 °C 5,1 °C 6,4 km/h (2 Bft)
22.03.2017 10:52 5,2 °C 5,2 °C 95 % 1011,1 hPa 0,0 mm 5,7 km/h (1 Bft) O-NO 67 ° 0 min 0,000 mm 1,1 UV-I 139 W/m² 4,5 °C 4,1 °C 9,7 km/h (2 Bft)
22.03.2017 10:53 5,2 °C 5,2 °C 95 % 1011,1 hPa 0,0 mm 6,0 km/h (2 Bft) O-NO 74 ° 0 min 0,000 mm 1,1 UV-I 134 W/m² 4,5 °C 4,0 °C 11,3 km/h (2 Bft)
22.03.2017 10:54 5,2 °C 5,2 °C 95 % 1011,1 hPa 0,0 mm 7,0 km/h (2 Bft) NO 55 ° 0 min 0,000 mm 1,0 UV-I 125 W/m² 4,5 °C 3,6 °C 11,3 km/h (2 Bft)
22.03.2017 10:55 5,2 °C 5,2 °C 95 % 1011,1 hPa 0,0 mm 5,0 km/h (1 Bft) O 80 ° 0 min 0,000 mm 1,0 UV-I 123 W/m² 4,5 °C 4,3 °C 9,7 km/h (2 Bft)
22.03.2017 10:56 5,2 °C 5,2 °C 94 % 1011,0 hPa 0,0 mm 5,4 km/h (1 Bft) O 80 ° 0 min 0,000 mm 1,0 UV-I 123 W/m² 4,3 °C 4,2 °C 8,0 km/h (2 Bft)
22.03.2017 10:57 5,2 °C 5,2 °C 95 % 1011,0 hPa 0,0 mm 4,8 km/h (1 Bft) O-NO 65 ° 0 min 0,000 mm 1,0 UV-I 123 W/m² 4,5 °C 4,4 °C 9,7 km/h (2 Bft)
22.03.2017 10:58 5,2 °C 5,2 °C 94 % 1011,1 hPa 0,0 mm 5,4 km/h (1 Bft) NO 46 ° 0 min 0,000 mm 1,0 UV-I 121 W/m² 4,3 °C 4,2 °C 8,0 km/h (2 Bft)
22.03.2017 10:59 5,2 °C 5,2 °C 95 % 1011,1 hPa 0,0 mm 4,8 km/h (1 Bft) NO 40 ° 0 min 0,000 mm 0,9 UV-I 118 W/m² 4,5 °C 4,4 °C 6,4 km/h (2 Bft)
22.03.2017 11:00 5,3 °C 5,3 °C 95 % 1011,1 hPa 0,0 mm 2,6 km/h (1 Bft) NO 40 ° 0 min 0,000 mm 1,0 UV-I 120 W/m² 4,6 °C 5,3 °C 3,2 km/h (1 Bft)
22.03.2017 11:01 5,3 °C 5,3 °C 95 % 1011,1 hPa 0,0 mm 2,4 km/h (1 Bft) NO 35 ° 0 min 0,076 mm 1,0 UV-I 123 W/m² 4,6 °C 5,3 °C 4,8 km/h (1 Bft)
22.03.2017 11:02 5,3 °C 5,3 °C 95 % 1011,1 hPa 0,0 mm 3,5 km/h (1 Bft) NO 40 ° 0 min 0,000 mm 1,0 UV-I 127 W/m² 4,6 °C 5,3 °C 6,4 km/h (2 Bft)
22.03.2017 11:03 5,3 °C 5,3 °C 95 % 1011,1 hPa 0,0 mm 4,5 km/h (1 Bft) NO 38 ° 0 min 0,000 mm 1,0 UV-I 127 W/m² 4,6 °C 5,3 °C 8,0 km/h (2 Bft)
22.03.2017 11:04 5,3 °C 5,3 °C 95 % 1011,1 hPa 0,0 mm 5,9 km/h (2 Bft) O 88 ° 0 min 0,000 mm 1,0 UV-I 127 W/m² 4,6 °C 4,1 °C 8,0 km/h (2 Bft)
22.03.2017 11:05 5,3 °C 5,3 °C 95 % 1011,1 hPa 0,0 mm 5,4 km/h (1 Bft) O-NO 59 ° 0 min 0,000 mm 1,0 UV-I 127 W/m² 4,6 °C 4,3 °C 9,7 km/h (2 Bft)
22.03.2017 11:06 5,4 °C 5,4 °C 94 % 1011,1 hPa 0,0 mm 4,1 km/h (1 Bft) O-NO 77 ° 0 min 0,000 mm 1,0 UV-I 118 W/m² 4,5 °C 5,4 °C 6,4 km/h (2 Bft)
22.03.2017 11:07 5,3 °C 5,4 °C 94 % 1011,2 hPa 0,0 mm 5,6 km/h (1 Bft) O 82 ° 0 min 0,000 mm 0,9 UV-I 113 W/m² 4,4 °C 4,2 °C 8,0 km/h (2 Bft)
22.03.2017 11:08 5,4 °C 5,4 °C 94 % 1011,2 hPa 0,0 mm 6,3 km/h (2 Bft) O 80 ° 0 min 0,000 mm 1,0 UV-I 111 W/m² 4,5 °C 4,1 °C 8,0 km/h (2 Bft)
22.03.2017 11:09 5,4 °C 5,4 °C 94 % 1011,1 hPa 0,0 mm 3,6 km/h (1 Bft) O 80 ° 0 min 0,000 mm 1,0 UV-I 114 W/m² 4,5 °C 5,4 °C 4,8 km/h (1 Bft)
22.03.2017 11:10 5,4 °C 5,4 °C 94 % 1011,1 hPa 0,0 mm 3,0 km/h (1 Bft) O-NO 69 ° 0 min 0,000 mm 1,0 UV-I 120 W/m² 4,5 °C 5,4 °C 4,8 km/h (1 Bft)
22.03.2017 11:11 5,4 °C 5,5 °C 95 % 1011,1 hPa 0,0 mm 3,5 km/h (1 Bft) NO 55 ° 0 min 0,000 mm 1,1 UV-I 130 W/m² 4,7 °C 5,4 °C 6,4 km/h (2 Bft)
22.03.2017 11:12 5,4 °C 5,5 °C 95 % 1011,1 hPa 0,0 mm 1,5 km/h (1 Bft) NO 55 ° 0 min 0,000 mm 1,1 UV-I 134 W/m² 4,7 °C 5,4 °C 3,2 km/h (1 Bft)
22.03.2017 11:13 5,5 °C 5,5 °C 94 % 1011,2 hPa 0,0 mm 3,0 km/h (1 Bft) O-NO 72 ° 0 min 0,000 mm 1,1 UV-I 134 W/m² 4,6 °C 5,5 °C 4,8 km/h (1 Bft)
22.03.2017 11:14 5,6 °C 5,6 °C 95 % 1011,2 hPa 0,0 mm 2,3 km/h (1 Bft) O-NO 71 ° 0 min 0,000 mm 1,0 UV-I 125 W/m² 4,9 °C 5,6 °C 4,8 km/h (1 Bft)
22.03.2017 11:15 5,6 °C 5,6 °C 95 % 1011,1 hPa 0,0 mm 2,8 km/h (1 Bft) NO 38 ° 0 min 0,000 mm 0,9 UV-I 114 W/m² 4,9 °C 5,6 °C 4,8 km/h (1 Bft)
22.03.2017 11:16 5,6 °C 5,7 °C 95 % 1011,1 hPa 0,0 mm 6,6 km/h (2 Bft) O-SO 106 ° 0 min 0,000 mm 0,9 UV-I 113 W/m² 4,9 °C 4,2 °C 9,7 km/h (2 Bft)
22.03.2017 11:17 5,7 °C 5,7 °C 94 % 1011,2 hPa 0,0 mm 3,5 km/h (1 Bft) O-SO 105 ° 0 min 0,000 mm 0,9 UV-I 121 W/m² 4,8 °C 5,7 °C 4,8 km/h (1 Bft)
22.03.2017 11:18 5,7 °C 5,7 °C 95 % 1011,2 hPa 0,0 mm 2,6 km/h (1 Bft) NO 52 ° 0 min 0,000 mm 1,0 UV-I 120 W/m² 5,0 °C 5,7 °C 4,8 km/h (1 Bft)
22.03.2017 11:19 5,8 °C 5,8 °C 94 % 1011,1 hPa 0,0 mm 4,1 km/h (1 Bft) O-NO 64 ° 0 min 0,000 mm 0,9 UV-I 118 W/m² 4,9 °C 5,8 °C 4,8 km/h (1 Bft)
22.03.2017 11:20 5,7 °C 5,8 °C 94 % 1011,1 hPa 0,0 mm 3,4 km/h (1 Bft) O-NO 64 ° 0 min 0,000 mm 0,9 UV-I 109 W/m² 4,8 °C 5,7 °C 4,8 km/h (1 Bft)
22.03.2017 11:21 5,7 °C 5,7 °C 94 % 1011,1 hPa 0,0 mm 2,9 km/h (1 Bft) O-NO 63 ° 0 min 0,000 mm 0,8 UV-I 104 W/m² 4,8 °C 5,7 °C 4,8 km/h (1 Bft)
22.03.2017 11:22 5,8 °C 5,8 °C 94 % 1011,1 hPa 0,0 mm 2,4 km/h (1 Bft) O-NO 63 ° 0 min 0,000 mm 0,8 UV-I 93 W/m² 4,9 °C 5,8 °C 3,2 km/h (1 Bft)
22.03.2017 11:23 5,7 °C 5,8 °C 94 % 1011,2 hPa 0,0 mm 0,2 km/h (0 Bft) O-NO 63 ° 0 min 0,000 mm 0,7 UV-I 88 W/m² 4,8 °C 5,7 °C 1,6 km/h (1 Bft)
22.03.2017 11:24 5,7 °C 5,7 °C 94 % 1011,2 hPa 0,0 mm 1,1 km/h (1 Bft) O-NO 63 ° 0 min 0,000 mm 0,7 UV-I 83 W/m² 4,8 °C 5,7 °C 3,2 km/h (1 Bft)
22.03.2017 11:25 5,6 °C 5,7 °C 94 % 1011,2 hPa 0,0 mm 0,3 km/h (0 Bft) O-NO 63 ° 0 min 0,000 mm 0,6 UV-I 79 W/m² 4,7 °C 5,6 °C 1,6 km/h (1 Bft)
22.03.2017 11:26 5,6 °C 5,6 °C 94 % 1011,2 hPa 0,0 mm 0,0 km/h (0 Bft) O-NO 63 ° 0 min 0,000 mm 0,6 UV-I 77 W/m² 4,7 °C 5,6 °C 0,0 km/h (0 Bft)
22.03.2017 11:27 5,7 °C 5,7 °C 94 % 1011,2 hPa 0,0 mm 0,1 km/h (0 Bft) O-NO 63 ° 0 min 0,000 mm 0,6 UV-I 81 W/m² 4,8 °C 5,7 °C 1,6 km/h (1 Bft)
22.03.2017 11:28 5,7 °C 5,7 °C 94 % 1011,3 hPa 0,0 mm 3,3 km/h (1 Bft) NO 44 ° 0 min 0,000 mm 0,7 UV-I 93 W/m² 4,8 °C 5,7 °C 6,4 km/h (2 Bft)
22.03.2017 11:29 5,7 °C 5,7 °C 94 % 1011,2 hPa 0,0 mm 4,7 km/h (1 Bft) O-NO 60 ° 0 min 0,000 mm 0,8 UV-I 100 W/m² 4,8 °C 5,0 °C 6,4 km/h (2 Bft)
22.03.2017 11:30 5,7 °C 5,7 °C 94 % 1011,2 hPa 0,0 mm 4,2 km/h (1 Bft) O-NO 60 ° 0 min 0,000 mm 0,8 UV-I 107 W/m² 4,8 °C 5,7 °C 6,4 km/h (2 Bft)
22.03.2017 11:31 5,7 °C 5,7 °C 94 % 1011,1 hPa 0,0 mm 6,2 km/h (2 Bft) O-NO 69 ° 0 min 0,000 mm 0,9 UV-I 114 W/m² 4,8 °C 4,5 °C 8,0 km/h (2 Bft)
22.03.2017 11:32 5,7 °C 5,7 °C 94 % 1011,0 hPa 0,0 mm 5,0 km/h (1 Bft) NO 49 ° 0 min 0,000 mm 1,0 UV-I 127 W/m² 4,8 °C 4,9 °C 6,4 km/h (2 Bft)
22.03.2017 11:33 5,7 °C 5,7 °C 94 % 1011,0 hPa 0,0 mm 7,4 km/h (2 Bft) NO 48 ° 0 min 0,000 mm 1,1 UV-I 144 W/m² 4,8 °C 4,1 °C 8,0 km/h (2 Bft)
22.03.2017 11:34 5,7 °C 5,7 °C 94 % 1010,9 hPa 0,0 mm 4,8 km/h (1 Bft) NO 55 ° 0 min 0,000 mm 1,2 UV-I 155 W/m² 4,8 °C 5,0 °C 6,4 km/h (2 Bft)
22.03.2017 11:35 5,7 °C 5,7 °C 94 % 1010,9 hPa 0,0 mm 5,5 km/h (1 Bft) O-NO 61 ° 0 min 0,000 mm 1,3 UV-I 163 W/m² 4,8 °C 4,7 °C 9,7 km/h (2 Bft)
22.03.2017 11:36 5,7 °C 5,7 °C 94 % 1010,9 hPa 0,0 mm 6,3 km/h (2 Bft) O-NO 59 ° 0 min 0,000 mm 1,3 UV-I 158 W/m² 4,8 °C 4,4 °C 8,0 km/h (2 Bft)
22.03.2017 11:37 5,7 °C 5,7 °C 94 % 1010,9 hPa 0,0 mm 5,2 km/h (1 Bft) NO 53 ° 0 min 0,000 mm 1,2 UV-I 155 W/m² 4,8 °C 4,8 °C 6,4 km/h (2 Bft)
22.03.2017 11:38 5,7 °C 5,7 °C 94 % 1010,9 hPa 0,0 mm 3,5 km/h (1 Bft) NO 42 ° 0 min 0,000 mm 1,3 UV-I 156 W/m² 4,8 °C 5,7 °C 6,4 km/h (2 Bft)
22.03.2017 11:39 5,7 °C 5,8 °C 94 % 1010,9 hPa 0,0 mm 5,4 km/h (1 Bft) O-NO 72 ° 0 min 0,000 mm 1,2 UV-I 153 W/m² 4,8 °C 4,7 °C 8,0 km/h (2 Bft)
22.03.2017 11:40 5,7 °C 5,7 °C 94 % 1010,9 hPa 0,0 mm 3,9 km/h (1 Bft) O-NO 72 ° 0 min 0,000 mm 1,2 UV-I 144 W/m² 4,8 °C 5,7 °C 8,0 km/h (2 Bft)
22.03.2017 11:41 5,7 °C 5,7 °C 94 % 1010,9 hPa 0,0 mm 2,8 km/h (1 Bft) O-NO 73 ° 0 min 0,000 mm 1,2 UV-I 141 W/m² 4,8 °C 5,7 °C 3,2 km/h (1 Bft)
22.03.2017 11:42 5,7 °C 5,7 °C 94 % 1010,9 hPa 0,0 mm 2,9 km/h (1 Bft) NO 42 ° 0 min 0,000 mm 1,1 UV-I 137 W/m² 4,8 °C 5,7 °C 4,8 km/h (1 Bft)
22.03.2017 11:43 5,7 °C 5,7 °C 94 % 1010,9 hPa 0,0 mm 3,3 km/h (1 Bft) NO 42 ° 0 min 0,000 mm 1,1 UV-I 137 W/m² 4,8 °C 5,7 °C 4,8 km/h (1 Bft)
22.03.2017 11:44 5,7 °C 5,7 °C 94 % 1011,0 hPa 0,0 mm 3,8 km/h (1 Bft) NO 42 ° 0 min 0,000 mm 1,1 UV-I 127 W/m² 4,8 °C 5,7 °C 4,8 km/h (1 Bft)
22.03.2017 11:45 5,8 °C 5,8 °C 94 % 1011,0 hPa 0,0 mm 4,4 km/h (1 Bft) N-NO 28 ° 0 min 0,000 mm 1,1 UV-I 128 W/m² 4,9 °C 5,8 °C 6,4 km/h (2 Bft)
22.03.2017 11:46 5,8 °C 5,8 °C 94 % 1011,0 hPa 0,0 mm 4,7 km/h (1 Bft) NO 55 ° 0 min 0,000 mm 1,1 UV-I 141 W/m² 4,9 °C 5,1 °C 6,4 km/h (2 Bft)
22.03.2017 11:47 5,7 °C 5,8 °C 94 % 1011,0 hPa 0,0 mm 4,7 km/h (1 Bft) O-NO 59 ° 0 min 0,000 mm 1,2 UV-I 151 W/m² 4,8 °C 5,0 °C 6,4 km/h (2 Bft)
22.03.2017 11:48 5,7 °C 5,7 °C 94 % 1010,9 hPa 0,0 mm 4,3 km/h (1 Bft) O-NO 69 ° 0 min 0,000 mm 1,3 UV-I 158 W/m² 4,8 °C 5,7 °C 6,4 km/h (2 Bft)
22.03.2017 11:49 5,7 °C 5,7 °C 94 % 1010,9 hPa 0,0 mm 3,3 km/h (1 Bft) O-NO 69 ° 0 min 0,000 mm 1,3 UV-I 167 W/m² 4,8 °C 5,7 °C 4,8 km/h (1 Bft)
22.03.2017 11:50 5,7 °C 5,7 °C 94 % 1010,9 hPa 0,0 mm 5,9 km/h (2 Bft) N 360 ° 0 min 0,000 mm 1,3 UV-I 174 W/m² 4,8 °C 4,6 °C 9,7 km/h (2 Bft)
22.03.2017 11:51 5,7 °C 5,7 °C 94 % 1010,9 hPa 0,0 mm 6,5 km/h (2 Bft) O-NO 69 ° 0 min 0,000 mm 1,4 UV-I 174 W/m² 4,8 °C 4,4 °C 8,0 km/h (2 Bft)
22.03.2017 11:52 5,6 °C 5,7 °C 94 % 1010,9 hPa 0,0 mm 5,2 km/h (1 Bft) N-NO 20 ° 0 min 0,000 mm 1,4 UV-I 171 W/m² 4,7 °C 4,7 °C 8,0 km/h (2 Bft)
22.03.2017 11:53 5,6 °C 5,7 °C 94 % 1011,0 hPa 0,0 mm 6,1 km/h (2 Bft) NO 38 ° 0 min 0,000 mm 1,4 UV-I 174 W/m² 4,7 °C 4,4 °C 8,0 km/h (2 Bft)
22.03.2017 11:54 5,7 °C 5,7 °C 94 % 1011,0 hPa 0,0 mm 3,0 km/h (1 Bft) NO 44 ° 0 min 0,000 mm 1,4 UV-I 176 W/m² 4,8 °C 5,7 °C 6,4 km/h (2 Bft)
22.03.2017 11:55 5,8 °C 5,8 °C 94 % 1011,0 hPa 0,0 mm 5,2 km/h (1 Bft) O 89 ° 0 min 0,000 mm 1,4 UV-I 176 W/m² 4,9 °C 4,9 °C 8,0 km/h (2 Bft)
22.03.2017 11:56 5,8 °C 5,8 °C 94 % 1011,0 hPa 0,0 mm 2,9 km/h (1 Bft) O 88 ° 0 min 0,000 mm 1,3 UV-I 169 W/m² 4,9 °C 5,8 °C 4,8 km/h (1 Bft)
22.03.2017 11:57 5,8 °C 5,8 °C 94 % 1011,0 hPa 0,0 mm 4,3 km/h (1 Bft) O-NO 76 ° 0 min 0,000 mm 1,3 UV-I 163 W/m² 4,9 °C 5,8 °C 6,4 km/h (2 Bft)
22.03.2017 11:58 5,8 °C 5,8 °C 94 % 1011,0 hPa 0,0 mm 2,4 km/h (1 Bft) O-NO 76 ° 0 min 0,000 mm 1,3 UV-I 156 W/m² 4,9 °C 5,8 °C 4,8 km/h (1 Bft)
22.03.2017 11:59 5,8 °C 5,8 °C 94 % 1011,0 hPa 0,0 mm 1,1 km/h (1 Bft) O-NO 76 ° 0 min 0,000 mm 1,2 UV-I 149 W/m² 4,9 °C 5,8 °C 3,2 km/h (1 Bft)
22.03.2017 12:00 5,8 °C 5,8 °C 94 % 1011,1 hPa 0,0 mm 2,6 km/h (1 Bft) N-NW 336 ° 0 min 0,000 mm 1,2 UV-I 146 W/m² 4,9 °C 5,8 °C 4,8 km/h (1 Bft)
22.03.2017 12:01 5,8 °C 5,9 °C 94 % 1011,1 hPa 0,0 mm 3,9 km/h (1 Bft) N-NO 33 ° 0 min 0,051 mm 1,2 UV-I 148 W/m² 4,9 °C 5,8 °C 4,8 km/h (1 Bft)
22.03.2017 12:02 5,9 °C 5,9 °C 94 % 1011,1 hPa 0,0 mm 5,5 km/h (1 Bft) N 355 ° 0 min 0,000 mm 1,2 UV-I 146 W/m² 5,0 °C 4,9 °C 6,4 km/h (2 Bft)
22.03.2017 12:03 5,9 °C 5,9 °C 94 % 1011,2 hPa 0,0 mm 5,5 km/h (1 Bft) N 355 ° 0 min 0,000 mm 1,1 UV-I 128 W/m² 5,0 °C 4,9 °C 6,4 km/h (2 Bft)
22.03.2017 12:04 5,9 °C 5,9 °C 94 % 1011,2 hPa 0,0 mm 4,8 km/h (1 Bft) N-NW 341 ° 0 min 0,000 mm 1,0 UV-I 128 W/m² 5,0 °C 5,2 °C 6,4 km/h (2 Bft)
22.03.2017 12:05 5,9 °C 5,9 °C 94 % 1011,2 hPa 0,0 mm 3,8 km/h (1 Bft) N-NW 341 ° 0 min 0,000 mm 1,0 UV-I 125 W/m² 5,0 °C 5,9 °C 4,8 km/h (1 Bft)
22.03.2017 12:06 6,0 °C 6,1 °C 94 % 1011,2 hPa 0,0 mm 1,3 km/h (1 Bft) N-NW 341 ° 0 min 0,000 mm 1,0 UV-I 123 W/m² 5,1 °C 6,0 °C 3,2 km/h (1 Bft)
22.03.2017 12:07 5,9 °C 6,0 °C 94 % 1011,1 hPa 0,0 mm 1,7 km/h (1 Bft) N-NW 341 ° 0 min 0,000 mm 1,0 UV-I 125 W/m² 5,0 °C 5,9 °C 3,2 km/h (1 Bft)
22.03.2017 12:08 6,1 °C 6,1 °C 94 % 1011,2 hPa 0,0 mm 1,9 km/h (1 Bft) N-NW 341 ° 0 min 0,000 mm 1,0 UV-I 130 W/m² 5,2 °C 6,1 °C 3,2 km/h (1 Bft)
22.03.2017 12:09 6,0 °C 6,1 °C 94 % 1011,1 hPa 0,0 mm 4,6 km/h (1 Bft) N 355 ° 0 min 0,000 mm 1,1 UV-I 130 W/m² 5,1 °C 5,4 °C 6,4 km/h (2 Bft)
22.03.2017 12:10 6,0 °C 6,0 °C 94 % 1011,1 hPa 0,0 mm 4,4 km/h (1 Bft) N 355 ° 0 min 0,000 mm 1,0 UV-I 125 W/m² 5,1 °C 6,0 °C 6,4 km/h (2 Bft)
22.03.2017 12:11 6,0 °C 6,0 °C 94 % 1011,1 hPa 0,0 mm 2,4 km/h (1 Bft) N 355 ° 0 min 0,000 mm 1,0 UV-I 118 W/m² 5,1 °C 6,0 °C 3,2 km/h (1 Bft)
22.03.2017 12:12 5,9 °C 6,0 °C 94 % 1011,0 hPa 0,0 mm 2,9 km/h (1 Bft) NO 53 ° 0 min 0,000 mm 1,0 UV-I 120 W/m² 5,0 °C 5,9 °C 4,8 km/h (1 Bft)
22.03.2017 12:13 6,0 °C 6,1 °C 94 % 1011,0 hPa 0,0 mm 5,5 km/h (1 Bft) N-NO 26 ° 0 min 0,000 mm 1,1 UV-I 123 W/m² 5,1 °C 5,0 °C 6,4 km/h (2 Bft)
22.03.2017 12:14 5,9 °C 6,0 °C 94 % 1011,0 hPa 0,0 mm 3,2 km/h (1 Bft) N-NO 26 ° 0 min 0,000 mm 1,1 UV-I 127 W/m² 5,0 °C 5,9 °C 4,8 km/h (1 Bft)
22.03.2017 12:15 6,0 °C 6,0 °C 94 % 1011,1 hPa 0,0 mm 5,3 km/h (1 Bft) O-NO 66 ° 0 min 0,000 mm 1,2 UV-I 142 W/m² 5,1 °C 5,1 °C 6,4 km/h (2 Bft)
22.03.2017 12:16 5,9 °C 6,0 °C 94 % 1011,0 hPa 0,0 mm 4,4 km/h (1 Bft) O-NO 62 ° 0 min 0,000 mm 1,3 UV-I 153 W/m² 5,0 °C 5,9 °C 6,4 km/h (2 Bft)
22.03.2017 12:17 5,9 °C 5,9 °C 94 % 1011,0 hPa 0,0 mm 4,4 km/h (1 Bft) NO 46 ° 0 min 0,000 mm 1,4 UV-I 162 W/m² 5,0 °C 5,9 °C 8,0 km/h (2 Bft)
22.03.2017 12:18 6,0 °C 6,0 °C 94 % 1011,0 hPa 0,0 mm 2,5 km/h (1 Bft) NO 46 ° 0 min 0,000 mm 1,4 UV-I 169 W/m² 5,1 °C 6,0 °C 4,8 km/h (1 Bft)
22.03.2017 12:19 6,1 °C 6,1 °C 94 % 1011,1 hPa 0,0 mm 3,8 km/h (1 Bft) NO 46 ° 0 min 0,000 mm 1,4 UV-I 167 W/m² 5,2 °C 6,1 °C 6,4 km/h (2 Bft)
22.03.2017 12:20 6,1 °C 6,1 °C 94 % 1011,0 hPa 0,0 mm 4,2 km/h (1 Bft) NO 36 ° 0 min 0,000 mm 1,3 UV-I 156 W/m² 5,2 °C 6,1 °C 6,4 km/h (2 Bft)
22.03.2017 12:21 6,1 °C 6,1 °C 94 % 1011,0 hPa 0,0 mm 3,4 km/h (1 Bft) O-NO 62 ° 0 min 0,000 mm 1,1 UV-I 114 W/m² 5,2 °C 6,1 °C 6,4 km/h (2 Bft)
22.03.2017 12:22 6,1 °C 6,1 °C 94 % 1011,0 hPa 0,0 mm 3,1 km/h (1 Bft) O-NO 64 ° 0 min 0,000 mm 0,9 UV-I 105 W/m² 5,2 °C 6,1 °C 4,8 km/h (1 Bft)
22.03.2017 12:23 6,1 °C 6,1 °C 93 % 1011,0 hPa 0,0 mm 7,0 km/h (2 Bft) O-NO 68 ° 0 min 0,000 mm 0,9 UV-I 104 W/m² 5,1 °C 4,7 °C 11,3 km/h (2 Bft)
22.03.2017 12:24 6,1 °C 6,1 °C 93 % 1011,0 hPa 0,0 mm 6,4 km/h (2 Bft) O-NO 73 ° 0 min 0,000 mm 0,9 UV-I 107 W/m² 5,1 °C 4,9 °C 8,0 km/h (2 Bft)
22.03.2017 12:25 6,0 °C 6,1 °C 93 % 1011,0 hPa 0,0 mm 6,6 km/h (2 Bft) O-NO 65 ° 0 min 0,000 mm 1,0 UV-I 116 W/m² 5,0 °C 4,7 °C 8,0 km/h (2 Bft)
22.03.2017 12:26 5,9 °C 6,0 °C 93 % 1011,0 hPa 0,0 mm 6,7 km/h (2 Bft) O-NO 69 ° 0 min 0,000 mm 1,0 UV-I 127 W/m² 4,9 °C 4,5 °C 8,0 km/h (2 Bft)
22.03.2017 12:27 5,8 °C 5,9 °C 93 % 1011,0 hPa 0,0 mm 5,2 km/h (1 Bft) NO 44 ° 0 min 0,000 mm 1,1 UV-I 132 W/m² 4,8 °C 4,9 °C 6,4 km/h (2 Bft)
22.03.2017 12:28 5,9 °C 5,9 °C 93 % 1010,9 hPa 0,0 mm 3,5 km/h (1 Bft) N-NO 24 ° 0 min 0,000 mm 1,1 UV-I 135 W/m² 4,9 °C 5,9 °C 4,8 km/h (1 Bft)
22.03.2017 12:29 5,9 °C 5,9 °C 93 % 1010,9 hPa 0,0 mm 3,3 km/h (1 Bft) O-NO 74 ° 0 min 0,000 mm 1,1 UV-I 132 W/m² 4,9 °C 5,9 °C 4,8 km/h (1 Bft)
22.03.2017 12:30 5,9 °C 5,9 °C 94 % 1010,9 hPa 0,0 mm 4,1 km/h (1 Bft) O-NO 74 ° 0 min 0,000 mm 1,0 UV-I 128 W/m² 5,0 °C 5,9 °C 4,8 km/h (1 Bft)
22.03.2017 12:31 5,9 °C 5,9 °C 94 % 1011,0 hPa 0,0 mm 2,3 km/h (1 Bft) O-NO 74 ° 0 min 0,000 mm 1,0 UV-I 121 W/m² 5,0 °C 5,9 °C 4,8 km/h (1 Bft)
22.03.2017 12:32 5,9 °C 5,9 °C 94 % 1011,0 hPa 0,0 mm 1,8 km/h (1 Bft) O-NO 74 ° 0 min 0,000 mm 0,9 UV-I 114 W/m² 5,0 °C 5,9 °C 3,2 km/h (1 Bft)
22.03.2017 12:33 5,9 °C 5,9 °C 93 % 1011,0 hPa 0,0 mm 2,1 km/h (1 Bft) O-NO 74 ° 0 min 0,000 mm 0,9 UV-I 118 W/m² 4,9 °C 5,9 °C 3,2 km/h (1 Bft)
22.03.2017 12:34 5,9 °C 5,9 °C 93 % 1011,0 hPa 0,0 mm 4,1 km/h (1 Bft) NO 38 ° 0 min 0,000 mm 1,0 UV-I 125 W/m² 4,9 °C 5,9 °C 4,8 km/h (1 Bft)
22.03.2017 12:35 5,9 °C 5,9 °C 94 % 1011,0 hPa 0,0 mm 4,6 km/h (1 Bft) NO 38 ° 0 min 0,000 mm 1,1 UV-I 134 W/m² 5,0 °C 5,3 °C 6,4 km/h (2 Bft)
22.03.2017 12:36 5,9 °C 5,9 °C 93 % 1010,9 hPa 0,0 mm 3,2 km/h (1 Bft) NO 38 ° 0 min 0,000 mm 1,2 UV-I 139 W/m² 4,9 °C 5,9 °C 3,2 km/h (1 Bft)
22.03.2017 12:37 5,9 °C 5,9 °C 93 % 1011,0 hPa 0,0 mm 2,9 km/h (1 Bft) N-NO 32 ° 0 min 0,000 mm 1,1 UV-I 135 W/m² 4,9 °C 5,9 °C 4,8 km/h (1 Bft)
22.03.2017 12:38 6,1 °C 6,1 °C 93 % 1011,0 hPa 0,0 mm 3,0 km/h (1 Bft) N-NO 32 ° 0 min 0,000 mm 1,0 UV-I 121 W/m² 5,1 °C 6,1 °C 3,2 km/h (1 Bft)
22.03.2017 12:39 6,0 °C 6,1 °C 94 % 1010,9 hPa 0,0 mm 2,5 km/h (1 Bft) N-NO 32 ° 0 min 0,000 mm 1,0 UV-I 118 W/m² 5,1 °C 6,0 °C 4,8 km/h (1 Bft)
22.03.2017 12:40 6,1 °C 6,1 °C 94 % 1010,9 hPa 0,0 mm 2,7 km/h (1 Bft) N-NO 32 ° 0 min 0,000 mm 1,0 UV-I 118 W/m² 5,2 °C 6,1 °C 3,2 km/h (1 Bft)
22.03.2017 12:41 6,1 °C 6,1 °C 93 % 1010,9 hPa 0,0 mm 3,3 km/h (1 Bft) N-NO 32 ° 0 min 0,000 mm 1,0 UV-I 120 W/m² 5,1 °C 6,1 °C 4,8 km/h (1 Bft)
22.03.2017 12:42 6,0 °C 6,1 °C 93 % 1010,9 hPa 0,0 mm 4,4 km/h (1 Bft) N-NO 28 ° 0 min 0,000 mm 1,0 UV-I 123 W/m² 5,0 °C 6,0 °C 6,4 km/h (2 Bft)
22.03.2017 12:43 6,0 °C 6,0 °C 93 % 1010,9 hPa 0,0 mm 3,2 km/h (1 Bft) N-NO 28 ° 0 min 0,000 mm 1,1 UV-I 128 W/m² 5,0 °C 6,0 °C 4,8 km/h (1 Bft)
22.03.2017 12:44 6,1 °C 6,1 °C 93 % 1010,9 hPa 0,0 mm 2,0 km/h (1 Bft) N-NO 28 ° 0 min 0,000 mm 1,1 UV-I 135 W/m² 5,1 °C 6,1 °C 4,8 km/h (1 Bft)
22.03.2017 12:45 6,1 °C 6,1 °C 94 % 1010,9 hPa 0,0 mm 3,6 km/h (1 Bft) O 84 ° 0 min 0,000 mm 1,1 UV-I 135 W/m² 5,2 °C 6,1 °C 4,8 km/h (1 Bft)
22.03.2017 12:46 6,1 °C 6,1 °C 94 % 1010,9 hPa 0,0 mm 3,8 km/h (1 Bft) O-NO 58 ° 0 min 0,000 mm 1,1 UV-I 137 W/m² 5,2 °C 6,1 °C 4,8 km/h (1 Bft)
22.03.2017 12:47 6,2 °C 6,2 °C 94 % 1010,9 hPa 0,0 mm 5,2 km/h (1 Bft) NO 46 ° 0 min 0,000 mm 1,1 UV-I 137 W/m² 5,3 °C 5,4 °C 6,4 km/h (2 Bft)
22.03.2017 12:48 6,2 °C 6,2 °C 93 % 1010,9 hPa 0,0 mm 3,6 km/h (1 Bft) NO 46 ° 0 min 0,000 mm 1,1 UV-I 134 W/m² 5,2 °C 6,2 °C 4,8 km/h (1 Bft)
22.03.2017 12:49 6,1 °C 6,2 °C 93 % 1010,9 hPa 0,0 mm 2,5 km/h (1 Bft) NO 46 ° 0 min 0,000 mm 1,0 UV-I 130 W/m² 5,1 °C 6,1 °C 3,2 km/h (1 Bft)
22.03.2017 12:50 6,1 °C 6,1 °C 93 % 1010,9 hPa 0,0 mm 1,1 km/h (1 Bft) NO 46 ° 0 min 0,000 mm 1,0 UV-I 121 W/m² 5,1 °C 6,1 °C 3,2 km/h (1 Bft)
22.03.2017 12:51 6,1 °C 6,1 °C 93 % 1010,9 hPa 0,0 mm 1,0 km/h (0 Bft) NO 46 ° 0 min 0,000 mm 1,0 UV-I 121 W/m² 5,1 °C 6,1 °C 3,2 km/h (1 Bft)
22.03.2017 12:52 6,2 °C 6,2 °C 94 % 1010,9 hPa 0,0 mm 1,1 km/h (1 Bft) NO 46 ° 0 min 0,000 mm 1,0 UV-I 123 W/m² 5,3 °C 6,2 °C 3,2 km/h (1 Bft)
22.03.2017 12:53 6,3 °C 6,3 °C 94 % 1010,9 hPa 0,0 mm 3,4 km/h (1 Bft) N-NO 33 ° 0 min 0,000 mm 1,0 UV-I 123 W/m² 5,4 °C 6,3 °C 4,8 km/h (1 Bft)
22.03.2017 12:54 6,3 °C 6,3 °C 94 % 1010,9 hPa 0,0 mm 3,9 km/h (1 Bft) N-NO 33 ° 0 min 0,000 mm 1,0 UV-I 123 W/m² 5,4 °C 6,3 °C 4,8 km/h (1 Bft)
22.03.2017 12:55 6,3 °C 6,3 °C 93 % 1010,9 hPa 0,0 mm 2,4 km/h (1 Bft) N-NO 33 ° 0 min 0,000 mm 1,0 UV-I 121 W/m² 5,3 °C 6,3 °C 3,2 km/h (1 Bft)
22.03.2017 12:56 6,3 °C 6,3 °C 93 % 1010,9 hPa 0,0 mm 1,5 km/h (1 Bft) N-NO 33 ° 0 min 0,000 mm 1,0 UV-I 121 W/m² 5,3 °C 6,3 °C 3,2 km/h (1 Bft)
22.03.2017 12:57 6,2 °C 6,3 °C 93 % 1010,9 hPa 0,0 mm 1,6 km/h (1 Bft) N-NO 33 ° 0 min 0,000 mm 1,0 UV-I 121 W/m² 5,2 °C 6,2 °C 3,2 km/h (1 Bft)
22.03.2017 12:58 6,3 °C 6,3 °C 93 % 1010,9 hPa 0,0 mm 2,6 km/h (1 Bft) N-NO 33 ° 0 min 0,000 mm 1,0 UV-I 121 W/m² 5,3 °C 6,3 °C 3,2 km/h (1 Bft)
22.03.2017 12:59 6,3 °C 6,3 °C 93 % 1010,9 hPa 0,0 mm 3,6 km/h (1 Bft) N 5 ° 0 min 0,000 mm 1,0 UV-I 120 W/m² 5,3 °C 6,3 °C 6,4 km/h (2 Bft)
22.03.2017 13:00 6,3 °C 6,3 °C 93 % 1010,9 hPa 0,0 mm 3,9 km/h (1 Bft) N 9 ° 0 min 0,000 mm 0,9 UV-I 118 W/m² 5,3 °C 6,3 °C 6,4 km/h (2 Bft)
22.03.2017 13:01 6,3 °C 6,3 °C 93 % 1010,9 hPa 0,0 mm 2,8 km/h (1 Bft) NO 53 ° 0 min 0,051 mm 0,9 UV-I 111 W/m² 5,3 °C 6,3 °C 4,8 km/h (1 Bft)
22.03.2017 13:02 6,3 °C 6,3 °C 93 % 1010,9 hPa 0,0 mm 3,1 km/h (1 Bft) NO 53 ° 0 min 0,000 mm 0,8 UV-I 102 W/m² 5,3 °C 6,3 °C 4,8 km/h (1 Bft)
22.03.2017 13:03 6,3 °C 6,3 °C 93 % 1010,9 hPa 0,0 mm 2,1 km/h (1 Bft) NO 53 ° 0 min 0,000 mm 0,9 UV-I 105 W/m² 5,3 °C 6,3 °C 3,2 km/h (1 Bft)
22.03.2017 13:04 6,3 °C 6,3 °C 93 % 1010,9 hPa 0,0 mm 1,3 km/h (1 Bft) NO 53 ° 0 min 0,000 mm 0,9 UV-I 113 W/m² 5,3 °C 6,3 °C 3,2 km/h (1 Bft)
22.03.2017 13:05 6,3 °C 6,3 °C 93 % 1010,9 hPa 0,0 mm 1,8 km/h (1 Bft) NO 53 ° 0 min 0,000 mm 1,0 UV-I 121 W/m² 5,3 °C 6,3 °C 3,2 km/h (1 Bft)
22.03.2017 13:06 6,3 °C 6,3 °C 93 % 1010,9 hPa 0,0 mm 2,3 km/h (1 Bft) NO 53 ° 0 min 0,000 mm 1,0 UV-I 125 W/m² 5,3 °C 6,3 °C 3,2 km/h (1 Bft)
22.03.2017 13:07 6,3 °C 6,4 °C 93 % 1010,9 hPa 0,0 mm 1,4 km/h (1 Bft) NO 53 ° 0 min 0,000 mm 0,9 UV-I 118 W/m² 5,3 °C 6,3 °C 3,2 km/h (1 Bft)
22.03.2017 13:08 6,4 °C 6,4 °C 93 % 1010,9 hPa 0,0 mm 0,2 km/h (0 Bft) NO 53 ° 0 min 0,000 mm 0,8 UV-I 84 W/m² 5,4 °C 6,4 °C 1,6 km/h (1 Bft)
22.03.2017 13:09 6,4 °C 6,4 °C 93 % 1011,0 hPa 0,0 mm 4,6 km/h (1 Bft) N-NO 18 ° 0 min 0,000 mm 0,6 UV-I 74 W/m² 5,4 °C 5,8 °C 6,4 km/h (2 Bft)
22.03.2017 13:10 6,4 °C 6,4 °C 93 % 1011,0 hPa 0,0 mm 4,5 km/h (1 Bft) N 355 ° 0 min 0,000 mm 0,6 UV-I 69 W/m² 5,4 °C 6,4 °C 6,4 km/h (2 Bft)
22.03.2017 13:11 6,4 °C 6,4 °C 93 % 1011,0 hPa 0,0 mm 2,1 km/h (1 Bft) N 355 ° 0 min 0,000 mm 0,5 UV-I 65 W/m² 5,4 °C 6,4 °C 3,2 km/h (1 Bft)
22.03.2017 13:12 6,4 °C 6,4 °C 93 % 1011,0 hPa 0,0 mm 3,6 km/h (1 Bft) N 355 ° 0 min 0,000 mm 0,5 UV-I 65 W/m² 5,4 °C 6,4 °C 4,8 km/h (1 Bft)
22.03.2017 13:13 6,4 °C 6,4 °C 93 % 1011,0 hPa 0,0 mm 3,6 km/h (1 Bft) N 355 ° 0 min 0,000 mm 0,6 UV-I 67 W/m² 5,4 °C 6,4 °C 4,8 km/h (1 Bft)
22.03.2017 13:14 6,4 °C 6,4 °C 93 % 1011,0 hPa 0,0 mm 2,9 km/h (1 Bft) N 355 ° 0 min 0,000 mm 0,6 UV-I 69 W/m² 5,4 °C 6,4 °C 4,8 km/h (1 Bft)
22.03.2017 13:15 6,4 °C 6,4 °C 93 % 1011,0 hPa 0,0 mm 2,4 km/h (1 Bft) N 355 ° 0 min 0,000 mm 0,6 UV-I 70 W/m² 5,4 °C 6,4 °C 4,8 km/h (1 Bft)
22.03.2017 13:16 6,4 °C 6,4 °C 93 % 1011,0 hPa 0,0 mm 1,3 km/h (1 Bft) N 355 ° 0 min 0,000 mm 0,6 UV-I 72 W/m² 5,4 °C 6,4 °C 1,6 km/h (1 Bft)
22.03.2017 13:17 6,4 °C 6,4 °C 93 % 1011,0 hPa 0,0 mm 1,4 km/h (1 Bft) N 355 ° 0 min 0,000 mm 0,6 UV-I 72 W/m² 5,4 °C 6,4 °C 1,6 km/h (1 Bft)
22.03.2017 13:18 6,5 °C 6,5 °C 93 % 1011,0 hPa 0,0 mm 1,5 km/h (1 Bft) N 355 ° 0 min 0,000 mm 0,6 UV-I 72 W/m² 5,5 °C 6,5 °C 3,2 km/h (1 Bft)
22.03.2017 13:19 6,5 °C 6,5 °C 93 % 1011,0 hPa 0,0 mm 0,7 km/h (0 Bft) N 9 ° 0 min 0,000 mm 0,6 UV-I 72 W/m² 5,5 °C 6,5 °C 1,6 km/h (1 Bft)
22.03.2017 13:20 6,5 °C 6,5 °C 93 % 1011,0 hPa 0,0 mm 2,5 km/h (1 Bft) NO 46 ° 0 min 0,000 mm 0,6 UV-I 72 W/m² 5,5 °C 6,5 °C 4,8 km/h (1 Bft)
22.03.2017 13:21 6,4 °C 6,5 °C 93 % 1011,0 hPa 0,0 mm 3,2 km/h (1 Bft) O-NO 58 ° 0 min 0,000 mm 0,6 UV-I 74 W/m² 5,4 °C 6,4 °C 4,8 km/h (1 Bft)
22.03.2017 13:22 6,4 °C 6,4 °C 93 % 1011,0 hPa 0,0 mm 3,0 km/h (1 Bft) O-NO 58 ° 0 min 0,000 mm 0,6 UV-I 76 W/m² 5,4 °C 6,4 °C 4,8 km/h (1 Bft)
22.03.2017 13:23 6,4 °C 6,5 °C 93 % 1011,0 hPa 0,0 mm 3,9 km/h (1 Bft) O-NO 58 ° 0 min 0,000 mm 0,6 UV-I 74 W/m² 5,4 °C 6,4 °C 6,4 km/h (2 Bft)
22.03.2017 13:24 6,4 °C 6,5 °C 93 % 1011,0 hPa 0,0 mm 3,0 km/h (1 Bft) O-NO 58 ° 0 min 0,000 mm 0,6 UV-I 72 W/m² 5,4 °C 6,4 °C 3,2 km/h (1 Bft)
22.03.2017 13:25 6,4 °C 6,5 °C 92 % 1011,1 hPa 0,0 mm 2,5 km/h (1 Bft) O-NO 58 ° 0 min 0,000 mm 0,5 UV-I 60 W/m² 5,2 °C 6,4 °C 3,2 km/h (1 Bft)
22.03.2017 13:26 6,4 °C 6,4 °C 92 % 1011,0 hPa 0,0 mm 0,7 km/h (0 Bft) O-NO 58 ° 0 min 0,000 mm 0,5 UV-I 54 W/m² 5,2 °C 6,4 °C 1,6 km/h (1 Bft)
22.03.2017 13:27 6,4 °C 6,4 °C 92 % 1011,1 hPa 0,0 mm 0,1 km/h (0 Bft) O-NO 58 ° 0 min 0,000 mm 0,0 UV-I 49 W/m² 5,2 °C 6,4 °C 1,6 km/h (1 Bft)
22.03.2017 13:28 6,4 °C 6,4 °C 92 % 1011,1 hPa 0,0 mm 0,2 km/h (0 Bft) O-NO 58 ° 0 min 0,000 mm 0,0 UV-I 47 W/m² 5,2 °C 6,4 °C 1,6 km/h (1 Bft)
22.03.2017 13:29 6,3 °C 6,4 °C 92 % 1011,1 hPa 0,0 mm 0,5 km/h (0 Bft) O-NO 58 ° 0 min 0,000 mm 0,0 UV-I 47 W/m² 5,1 °C 6,3 °C 1,6 km/h (1 Bft)
22.03.2017 13:30 6,3 °C 6,4 °C 92 % 1011,1 hPa 0,0 mm 1,5 km/h (1 Bft) O-NO 58 ° 0 min 0,000 mm 0,0 UV-I 49 W/m² 5,1 °C 6,3 °C 3,2 km/h (1 Bft)
22.03.2017 13:31 6,4 °C 6,4 °C 92 % 1011,1 hPa 0,0 mm 1,5 km/h (1 Bft) O-NO 58 ° 0 min 0,000 mm 0,0 UV-I 54 W/m² 5,2 °C 6,4 °C 3,2 km/h (1 Bft)
22.03.2017 13:32 6,4 °C 6,4 °C 93 % 1011,1 hPa 0,0 mm 3,2 km/h (1 Bft) O-NO 58 ° 0 min 0,000 mm 0,5 UV-I 58 W/m² 5,4 °C 6,4 °C 4,8 km/h (1 Bft)
22.03.2017 13:33 6,5 °C 6,5 °C 93 % 1011,1 hPa 0,0 mm 1,9 km/h (1 Bft) O-NO 58 ° 0 min 0,000 mm 0,5 UV-I 62 W/m² 5,5 °C 6,5 °C 4,8 km/h (1 Bft)
22.03.2017 13:34 6,5 °C 6,5 °C 93 % 1011,1 hPa 0,0 mm 1,9 km/h (1 Bft) O-NO 58 ° 0 min 0,000 mm 0,5 UV-I 63 W/m² 5,5 °C 6,5 °C 4,8 km/h (1 Bft)
22.03.2017 13:35 6,5 °C 6,5 °C 93 % 1011,1 hPa 0,0 mm 5,6 km/h (1 Bft) O-NO 78 ° 0 min 0,000 mm 0,6 UV-I 63 W/m² 5,5 °C 5,6 °C 6,4 km/h (2 Bft)
22.03.2017 13:36 6,4 °C 6,5 °C 92 % 1011,1 hPa 0,0 mm 4,5 km/h (1 Bft) O-NO 78 ° 0 min 0,000 mm 0,6 UV-I 65 W/m² 5,2 °C 6,4 °C 4,8 km/h (1 Bft)
22.03.2017 13:37 6,4 °C 6,4 °C 92 % 1011,1 hPa 0,0 mm 3,9 km/h (1 Bft) O-NO 78 ° 0 min 0,000 mm 0,6 UV-I 65 W/m² 5,2 °C 6,4 °C 6,4 km/h (2 Bft)
22.03.2017 13:38 6,4 °C 6,4 °C 92 % 1011,2 hPa 0,0 mm 2,3 km/h (1 Bft) O-NO 78 ° 0 min 0,000 mm 0,6 UV-I 63 W/m² 5,2 °C 6,4 °C 6,4 km/h (2 Bft)
22.03.2017 13:39 6,4 °C 6,4 °C 92 % 1011,1 hPa 0,0 mm 3,5 km/h (1 Bft) O-NO 61 ° 0 min 0,000 mm 0,5 UV-I 63 W/m² 5,2 °C 6,4 °C 4,8 km/h (1 Bft)
22.03.2017 13:40 6,4 °C 6,4 °C 92 % 1011,1 hPa 0,0 mm 4,4 km/h (1 Bft) O-NO 62 ° 0 min 0,000 mm 0,5 UV-I 62 W/m² 5,2 °C 6,4 °C 4,8 km/h (1 Bft)
22.03.2017 13:41 6,4 °C 6,4 °C 92 % 1011,2 hPa 0,0 mm 4,3 km/h (1 Bft) O-NO 60 ° 0 min 0,000 mm 0,5 UV-I 62 W/m² 5,2 °C 6,4 °C 4,8 km/h (1 Bft)
22.03.2017 13:42 6,4 °C 6,5 °C 92 % 1011,2 hPa 0,0 mm 3,6 km/h (1 Bft) O-NO 61 ° 0 min 0,000 mm 0,5 UV-I 60 W/m² 5,2 °C 6,4 °C 4,8 km/h (1 Bft)
22.03.2017 13:43 6,5 °C 6,5 °C 92 % 1011,1 hPa 0,0 mm 4,7 km/h (1 Bft) O-NO 61 ° 0 min 0,000 mm 0,5 UV-I 62 W/m² 5,3 °C 5,9 °C 4,8 km/h (1 Bft)
22.03.2017 13:44 6,5 °C 6,5 °C 92 % 1011,2 hPa 0,0 mm 3,2 km/h (1 Bft) O-NO 61 ° 0 min 0,000 mm 0,5 UV-I 62 W/m² 5,3 °C 6,5 °C 6,4 km/h (2 Bft)
22.03.2017 13:45 6,5 °C 6,5 °C 92 % 1011,1 hPa 0,0 mm 4,6 km/h (1 Bft) NO 45 ° 0 min 0,000 mm 0,5 UV-I 62 W/m² 5,3 °C 5,9 °C 8,0 km/h (2 Bft)
22.03.2017 13:46 6,5 °C 6,5 °C 92 % 1011,1 hPa 0,0 mm 5,8 km/h (2 Bft) NO 51 ° 0 min 0,000 mm 0,5 UV-I 62 W/m² 5,3 °C 5,5 °C 8,0 km/h (2 Bft)
22.03.2017 13:47 6,5 °C 6,5 °C 92 % 1011,1 hPa 0,0 mm 3,4 km/h (1 Bft) NO 51 ° 0 min 0,000 mm 0,6 UV-I 63 W/m² 5,3 °C 6,5 °C 4,8 km/h (1 Bft)
22.03.2017 13:48 6,5 °C 6,5 °C 92 % 1011,2 hPa 0,0 mm 3,4 km/h (1 Bft) O 94 ° 0 min 0,000 mm 0,6 UV-I 67 W/m² 5,3 °C 6,5 °C 6,4 km/h (2 Bft)
22.03.2017 13:49 6,5 °C 6,5 °C 92 % 1011,1 hPa 0,0 mm 2,8 km/h (1 Bft) O 94 ° 0 min 0,000 mm 0,6 UV-I 72 W/m² 5,3 °C 6,5 °C 4,8 km/h (1 Bft)
22.03.2017 13:50 6,5 °C 6,5 °C 92 % 1011,1 hPa 0,0 mm 2,0 km/h (1 Bft) O 94 ° 0 min 0,000 mm 0,6 UV-I 76 W/m² 5,3 °C 6,5 °C 3,2 km/h (1 Bft)
22.03.2017 13:51 6,4 °C 6,5 °C 92 % 1011,1 hPa 0,0 mm 2,5 km/h (1 Bft) O 94 ° 0 min 0,000 mm 0,7 UV-I 77 W/m² 5,2 °C 6,4 °C 4,8 km/h (1 Bft)
22.03.2017 13:52 6,4 °C 6,5 °C 92 % 1011,1 hPa 0,0 mm 1,7 km/h (1 Bft) O 94 ° 0 min 0,000 mm 0,7 UV-I 77 W/m² 5,2 °C 6,4 °C 3,2 km/h (1 Bft)
22.03.2017 13:53 6,4 °C 6,4 °C 92 % 1011,1 hPa 0,0 mm 0,9 km/h (0 Bft) O 94 ° 0 min 0,000 mm 0,7 UV-I 77 W/m² 5,2 °C 6,4 °C 1,6 km/h (1 Bft)
22.03.2017 13:54 6,4 °C 6,5 °C 92 % 1011,1 hPa 0,0 mm 0,7 km/h (0 Bft) O 94 ° 0 min 0,000 mm 0,7 UV-I 79 W/m² 5,2 °C 6,4 °C 1,6 km/h (1 Bft)
22.03.2017 13:55 6,4 °C 6,5 °C 92 % 1011,2 hPa 0,0 mm 1,6 km/h (1 Bft) O 94 ° 0 min 0,000 mm 0,7 UV-I 83 W/m² 5,2 °C 6,4 °C 3,2 km/h (1 Bft)
22.03.2017 13:56 6,5 °C 6,5 °C 93 % 1011,2 hPa 0,0 mm 1,7 km/h (1 Bft) O 94 ° 0 min 0,000 mm 0,7 UV-I 84 W/m² 5,5 °C 6,5 °C 3,2 km/h (1 Bft)
22.03.2017 13:57 6,5 °C 6,5 °C 93 % 1011,2 hPa 0,0 mm 0,1 km/h (0 Bft) O 94 ° 0 min 0,000 mm 0,7 UV-I 84 W/m² 5,5 °C 6,5 °C 1,6 km/h (1 Bft)
22.03.2017 13:58 6,5 °C 6,5 °C 92 % 1011,2 hPa 0,0 mm 1,3 km/h (1 Bft) O 94 ° 0 min 0,000 mm 0,7 UV-I 83 W/m² 5,3 °C 6,5 °C 3,2 km/h (1 Bft)
22.03.2017 13:59 6,5 °C 6,5 °C 92 % 1011,2 hPa 0,0 mm 0,0 km/h (0 Bft) O 94 ° 0 min 0,000 mm 0,7 UV-I 81 W/m² 5,3 °C 6,5 °C 0,0 km/h (0 Bft)
22.03.2017 14:00 6,5 °C 6,5 °C 92 % 1011,2 hPa 0,0 mm 0,0 km/h (0 Bft) O 94 ° 0 min 0,000 mm 0,7 UV-I 77 W/m² 5,3 °C 6,5 °C 0,0 km/h (0 Bft)
22.03.2017 14:01 6,5 °C 6,5 °C 92 % 1011,3 hPa 0,0 mm 0,0 km/h (0 Bft) O 94 ° 0 min 0,025 mm 0,7 UV-I 77 W/m² 5,3 °C 6,5 °C 0,0 km/h (0 Bft)
22.03.2017 14:02 6,5 °C 6,5 °C 92 % 1011,3 hPa 0,0 mm 0,0 km/h (0 Bft) O 94 ° 0 min 0,000 mm 0,7 UV-I 77 W/m² 5,3 °C 6,5 °C 0,0 km/h (0 Bft)
22.03.2017 14:03 6,5 °C 6,5 °C 92 % 1011,3 hPa 0,0 mm 1,0 km/h (0 Bft) O 94 ° 0 min 0,000 mm 0,6 UV-I 77 W/m² 5,3 °C 6,5 °C 3,2 km/h (1 Bft)
22.03.2017 14:04 6,5 °C 6,5 °C 92 % 1011,3 hPa 0,0 mm 1,4 km/h (1 Bft) O 94 ° 0 min 0,000 mm 0,6 UV-I 76 W/m² 5,3 °C 6,5 °C 1,6 km/h (1 Bft)
22.03.2017 14:05 6,6 °C 6,6 °C 92 % 1011,3 hPa 0,0 mm 1,4 km/h (1 Bft) O 94 ° 0 min 0,000 mm 0,6 UV-I 74 W/m² 5,4 °C 6,6 °C 3,2 km/h (1 Bft)
22.03.2017 14:06 6,6 °C 6,6 °C 93 % 1011,3 hPa 0,0 mm 3,4 km/h (1 Bft) O 94 ° 0 min 0,000 mm 0,6 UV-I 72 W/m² 5,6 °C 6,6 °C 4,8 km/h (1 Bft)
22.03.2017 14:07 6,6 °C 6,6 °C 92 % 1011,3 hPa 0,0 mm 3,1 km/h (1 Bft) O 94 ° 0 min 0,000 mm 0,6 UV-I 72 W/m² 5,4 °C 6,6 °C 4,8 km/h (1 Bft)
22.03.2017 14:08 6,6 °C 6,6 °C 92 % 1011,3 hPa 0,0 mm 2,2 km/h (1 Bft) O 94 ° 0 min 0,000 mm 0,6 UV-I 74 W/m² 5,4 °C 6,6 °C 3,2 km/h (1 Bft)
22.03.2017 14:09 6,6 °C 6,6 °C 92 % 1011,3 hPa 0,0 mm 2,1 km/h (1 Bft) O 94 ° 0 min 0,000 mm 0,6 UV-I 76 W/m² 5,4 °C 6,6 °C 3,2 km/h (1 Bft)
22.03.2017 14:10 6,6 °C 6,6 °C 92 % 1011,2 hPa 0,0 mm 2,5 km/h (1 Bft) O 82 ° 0 min 0,000 mm 0,7 UV-I 77 W/m² 5,4 °C 6,6 °C 6,4 km/h (2 Bft)
22.03.2017 14:11 6,6 °C 6,7 °C 92 % 1011,3 hPa 0,0 mm 3,5 km/h (1 Bft) O 82 ° 0 min 0,000 mm 0,7 UV-I 81 W/m² 5,4 °C 6,6 °C 4,8 km/h (1 Bft)
22.03.2017 14:12 6,6 °C 6,7 °C 92 % 1011,3 hPa 0,0 mm 3,5 km/h (1 Bft) O-NO 57 ° 0 min 0,000 mm 0,7 UV-I 90 W/m² 5,4 °C 6,6 °C 4,8 km/h (1 Bft)
22.03.2017 14:13 6,6 °C 6,6 °C 92 % 1011,2 hPa 0,0 mm 4,5 km/h (1 Bft) O-NO 57 ° 0 min 0,000 mm 0,8 UV-I 95 W/m² 5,4 °C 6,6 °C 6,4 km/h (2 Bft)
22.03.2017 14:14 6,6 °C 6,6 °C 92 % 1011,2 hPa 0,0 mm 3,9 km/h (1 Bft) O-NO 57 ° 0 min 0,000 mm 0,8 UV-I 97 W/m² 5,4 °C 6,6 °C 4,8 km/h (1 Bft)
22.03.2017 14:15 6,6 °C 6,7 °C 92 % 1011,2 hPa 0,0 mm 2,6 km/h (1 Bft) O-NO 57 ° 0 min 0,000 mm 0,8 UV-I 97 W/m² 5,4 °C 6,6 °C 4,8 km/h (1 Bft)
22.03.2017 14:16 6,6 °C 6,6 °C 92 % 1011,2 hPa 0,0 mm 1,3 km/h (1 Bft) O-NO 57 ° 0 min 0,000 mm 0,8 UV-I 93 W/m² 5,4 °C 6,6 °C 3,2 km/h (1 Bft)
22.03.2017 14:17 6,6 °C 6,6 °C 92 % 1011,2 hPa 0,0 mm 2,1 km/h (1 Bft) O-NO 57 ° 0 min 0,000 mm 0,8 UV-I 90 W/m² 5,4 °C 6,6 °C 3,2 km/h (1 Bft)
22.03.2017 14:18 6,6 °C 6,7 °C 93 % 1011,3 hPa 0,0 mm 3,0 km/h (1 Bft) O-NO 57 ° 0 min 0,000 mm 0,7 UV-I 88 W/m² 5,6 °C 6,6 °C 4,8 km/h (1 Bft)
22.03.2017 14:19 6,7 °C 6,7 °C 92 % 1011,2 hPa 0,0 mm 4,7 km/h (1 Bft) O-NO 57 ° 0 min 0,000 mm 0,8 UV-I 88 W/m² 5,5 °C 6,1 °C 6,4 km/h (2 Bft)
22.03.2017 14:20 6,6 °C 6,7 °C 92 % 1011,2 hPa 0,0 mm 4,7 km/h (1 Bft) O-NO 57 ° 0 min 0,000 mm 0,8 UV-I 91 W/m² 5,4 °C 6,0 °C 6,4 km/h (2 Bft)
22.03.2017 14:21 6,6 °C 6,6 °C 92 % 1011,3 hPa 0,0 mm 3,8 km/h (1 Bft) O-NO 57 ° 0 min 0,000 mm 0,8 UV-I 95 W/m² 5,4 °C 6,6 °C 4,8 km/h (1 Bft)
22.03.2017 14:22 6,6 °C 6,6 °C 92 % 1011,2 hPa 0,0 mm 2,7 km/h (1 Bft) O-NO 57 ° 0 min 0,000 mm 0,8 UV-I 98 W/m² 5,4 °C 6,6 °C 3,2 km/h (1 Bft)
22.03.2017 14:23 6,6 °C 6,7 °C 92 % 1011,3 hPa 0,0 mm 1,4 km/h (1 Bft) O-NO 57 ° 0 min 0,000 mm 0,8 UV-I 102 W/m² 5,4 °C 6,6 °C 3,2 km/h (1 Bft)
22.03.2017 14:24 6,6 °C 6,6 °C 92 % 1011,3 hPa 0,0 mm 0,3 km/h (0 Bft) O-NO 57 ° 0 min 0,000 mm 0,9 UV-I 105 W/m² 5,4 °C 6,6 °C 1,6 km/h (1 Bft)
22.03.2017 14:25 6,7 °C 6,7 °C 92 % 1011,3 hPa 0,0 mm 2,5 km/h (1 Bft) O-NO 57 ° 0 min 0,000 mm 0,9 UV-I 104 W/m² 5,5 °C 6,7 °C 3,2 km/h (1 Bft)
22.03.2017 14:26 6,7 °C 6,7 °C 92 % 1011,3 hPa 0,0 mm 2,9 km/h (1 Bft) O-NO 57 ° 0 min 0,000 mm 0,8 UV-I 100 W/m² 5,5 °C 6,7 °C 6,4 km/h (2 Bft)
22.03.2017 14:27 6,7 °C 6,7 °C 92 % 1011,3 hPa 0,0 mm 4,8 km/h (1 Bft) O-NO 57 ° 0 min 0,000 mm 0,8 UV-I 95 W/m² 5,5 °C 6,1 °C 4,8 km/h (1 Bft)
22.03.2017 14:28 6,7 °C 6,7 °C 91 % 1011,3 hPa 0,0 mm 3,6 km/h (1 Bft) O-NO 57 ° 0 min 0,000 mm 0,7 UV-I 90 W/m² 5,3 °C 6,7 °C 4,8 km/h (1 Bft)
22.03.2017 14:29 6,7 °C 6,7 °C 91 % 1011,3 hPa 0,0 mm 4,4 km/h (1 Bft) O-NO 57 ° 0 min 0,000 mm 0,7 UV-I 84 W/m² 5,3 °C 6,7 °C 4,8 km/h (1 Bft)
22.03.2017 14:30 6,7 °C 6,7 °C 91 % 1011,3 hPa 0,0 mm 2,7 km/h (1 Bft) O-NO 57 ° 0 min 0,000 mm 0,7 UV-I 79 W/m² 5,3 °C 6,7 °C 4,8 km/h (1 Bft)
22.03.2017 14:31 6,7 °C 6,7 °C 92 % 1011,3 hPa 0,0 mm 2,7 km/h (1 Bft) NO 55 ° 0 min 0,000 mm 0,6 UV-I 76 W/m² 5,5 °C 6,7 °C 4,8 km/h (1 Bft)
22.03.2017 14:32 6,7 °C 6,7 °C 92 % 1011,3 hPa 0,0 mm 4,3 km/h (1 Bft) NO 53 ° 0 min 0,000 mm 0,6 UV-I 74 W/m² 5,5 °C 6,7 °C 6,4 km/h (2 Bft)
22.03.2017 14:33 6,7 °C 6,7 °C 92 % 1011,3 hPa 0,0 mm 4,0 km/h (1 Bft) NO 53 ° 0 min 0,000 mm 0,6 UV-I 72 W/m² 5,5 °C 6,7 °C 6,4 km/h (2 Bft)
22.03.2017 14:34 6,7 °C 6,7 °C 92 % 1011,3 hPa 0,0 mm 3,8 km/h (1 Bft) NO 53 ° 0 min 0,000 mm 0,6 UV-I 72 W/m² 5,5 °C 6,7 °C 4,8 km/h (1 Bft)
22.03.2017 14:35 6,7 °C 6,7 °C 92 % 1011,3 hPa 0,0 mm 3,6 km/h (1 Bft) NO 53 ° 0 min 0,000 mm 0,6 UV-I 72 W/m² 5,5 °C 6,7 °C 4,8 km/h (1 Bft)
22.03.2017 14:36 6,7 °C 6,7 °C 92 % 1011,2 hPa 0,0 mm 3,9 km/h (1 Bft) NO 44 ° 0 min 0,000 mm 0,6 UV-I 74 W/m² 5,5 °C 6,7 °C 6,4 km/h (2 Bft)
22.03.2017 14:37 6,6 °C 6,7 °C 92 % 1011,3 hPa 0,0 mm 4,1 km/h (1 Bft) NO 49 ° 0 min 0,000 mm 0,6 UV-I 74 W/m² 5,4 °C 6,6 °C 6,4 km/h (2 Bft)
22.03.2017 14:38 6,6 °C 6,7 °C 92 % 1011,2 hPa 0,0 mm 2,7 km/h (1 Bft) NO 49 ° 0 min 0,000 mm 0,6 UV-I 76 W/m² 5,4 °C 6,6 °C 4,8 km/h (1 Bft)
22.03.2017 14:39 6,6 °C 6,6 °C 92 % 1011,2 hPa 0,0 mm 2,8 km/h (1 Bft) NO 49 ° 0 min 0,000 mm 0,6 UV-I 77 W/m² 5,4 °C 6,6 °C 4,8 km/h (1 Bft)
22.03.2017 14:40 6,6 °C 6,6 °C 92 % 1011,2 hPa 0,0 mm 3,1 km/h (1 Bft) NO 49 ° 0 min 0,000 mm 0,6 UV-I 79 W/m² 5,4 °C 6,6 °C 4,8 km/h (1 Bft)
22.03.2017 14:41 6,6 °C 6,6 °C 92 % 1011,3 hPa 0,0 mm 3,1 km/h (1 Bft) NO 49 ° 0 min 0,000 mm 0,7 UV-I 83 W/m² 5,4 °C 6,6 °C 4,8 km/h (1 Bft)
22.03.2017 14:42 6,6 °C 6,6 °C 92 % 1011,3 hPa 0,0 mm 2,5 km/h (1 Bft) NO 49 ° 0 min 0,000 mm 0,7 UV-I 83 W/m² 5,4 °C 6,6 °C 3,2 km/h (1 Bft)
22.03.2017 14:43 6,6 °C 6,6 °C 92 % 1011,3 hPa 0,0 mm 3,8 km/h (1 Bft) NO 49 ° 0 min 0,000 mm 0,7 UV-I 83 W/m² 5,4 °C 6,6 °C 4,8 km/h (1 Bft)
22.03.2017 14:44 6,6 °C 6,6 °C 92 % 1011,3 hPa 0,0 mm 3,4 km/h (1 Bft) NO 49 ° 0 min 0,000 mm 0,7 UV-I 83 W/m² 5,4 °C 6,6 °C 4,8 km/h (1 Bft)
22.03.2017 14:45 6,6 °C 6,6 °C 92 % 1011,3 hPa 0,0 mm 3,4 km/h (1 Bft) NO 49 ° 0 min 0,000 mm 0,7 UV-I 86 W/m² 5,4 °C 6,6 °C 4,8 km/h (1 Bft)
22.03.2017 14:46 6,6 °C 6,6 °C 92 % 1011,3 hPa 0,0 mm 2,0 km/h (1 Bft) NO 49 ° 0 min 0,000 mm 0,7 UV-I 88 W/m² 5,4 °C 6,6 °C 3,2 km/h (1 Bft)
22.03.2017 14:47 6,6 °C 6,6 °C 92 % 1011,3 hPa 0,0 mm 2,5 km/h (1 Bft) NO 49 ° 0 min 0,000 mm 0,7 UV-I 86 W/m² 5,4 °C 6,6 °C 4,8 km/h (1 Bft)
22.03.2017 14:48 6,7 °C 6,7 °C 92 % 1011,3 hPa 0,0 mm 2,9 km/h (1 Bft) NO 49 ° 0 min 0,000 mm 0,7 UV-I 86 W/m² 5,5 °C 6,7 °C 4,8 km/h (1 Bft)
22.03.2017 14:49 6,7 °C 6,7 °C 92 % 1011,3 hPa 0,0 mm 3,0 km/h (1 Bft) NO 49 ° 0 min 0,000 mm 0,6 UV-I 83 W/m² 5,5 °C 6,7 °C 4,8 km/h (1 Bft)
22.03.2017 14:50 6,6 °C 6,7 °C 91 % 1011,4 hPa 0,0 mm 2,0 km/h (1 Bft) NO 49 ° 0 min 0,000 mm 0,6 UV-I 79 W/m² 5,2 °C 6,6 °C 3,2 km/h (1 Bft)
22.03.2017 14:51 6,6 °C 6,6 °C 92 % 1011,4 hPa 0,0 mm 1,0 km/h (0 Bft) NO 49 ° 0 min 0,000 mm 0,6 UV-I 77 W/m² 5,4 °C 6,6 °C 1,6 km/h (1 Bft)
22.03.2017 14:52 6,7 °C 6,7 °C 92 % 1011,4 hPa 0,0 mm 1,6 km/h (1 Bft) NO 49 ° 0 min 0,000 mm 0,6 UV-I 74 W/m² 5,5 °C 6,7 °C 4,8 km/h (1 Bft)
22.03.2017 14:53 6,6 °C 6,7 °C 92 % 1011,4 hPa 0,0 mm 4,6 km/h (1 Bft) NO 49 ° 0 min 0,000 mm 0,5 UV-I 65 W/m² 5,4 °C 6,0 °C 4,8 km/h (1 Bft)
22.03.2017 14:54 6,7 °C 6,7 °C 92 % 1011,5 hPa 0,0 mm 5,1 km/h (1 Bft) O 80 ° 0 min 0,000 mm 0,5 UV-I 60 W/m² 5,5 °C 6,0 °C 8,0 km/h (2 Bft)
22.03.2017 14:55 6,6 °C 6,7 °C 92 % 1011,5 hPa 0,0 mm 5,8 km/h (2 Bft) O-NO 66 ° 0 min 0,000 mm 0,0 UV-I 54 W/m² 5,4 °C 5,6 °C 6,4 km/h (2 Bft)
22.03.2017 14:56 6,6 °C 6,6 °C 92 % 1011,4 hPa 0,0 mm 3,3 km/h (1 Bft) O-NO 66 ° 0 min 0,000 mm 0,0 UV-I 51 W/m² 5,4 °C 6,6 °C 4,8 km/h (1 Bft)
22.03.2017 14:57 6,6 °C 6,6 °C 92 % 1011,5 hPa 0,0 mm 3,1 km/h (1 Bft) O-NO 66 ° 0 min 0,000 mm 0,0 UV-I 51 W/m² 5,4 °C 6,6 °C 4,8 km/h (1 Bft)
22.03.2017 14:58 6,6 °C 6,6 °C 92 % 1011,5 hPa 0,0 mm 3,8 km/h (1 Bft) O-NO 66 ° 0 min 0,000 mm 0,0 UV-I 53 W/m² 5,4 °C 6,6 °C 6,4 km/h (2 Bft)
22.03.2017 14:59 6,6 °C 6,6 °C 92 % 1011,5 hPa 0,0 mm 3,2 km/h (1 Bft) O-NO 63 ° 0 min 0,000 mm 0,0 UV-I 58 W/m² 5,4 °C 6,6 °C 4,8 km/h (1 Bft)
22.03.2017 15:00 6,6 °C 6,6 °C 93 % 1011,5 hPa 0,0 mm 3,1 km/h (1 Bft) NO 40 ° 0 min 0,026 mm 0,0 UV-I 58 W/m² 5,6 °C 6,6 °C 4,8 km/h (1 Bft)
22.03.2017 15:01 6,6 °C 6,6 °C 93 % 1011,4 hPa 0,0 mm 2,4 km/h (1 Bft) NO 40 ° 0 min 0,000 mm 0,0 UV-I 56 W/m² 5,6 °C 6,6 °C 4,8 km/h (1 Bft)
22.03.2017 15:02 6,6 °C 6,6 °C 92 % 1011,4 hPa 0,0 mm 2,5 km/h (1 Bft) NO 40 ° 0 min 0,000 mm 0,0 UV-I 54 W/m² 5,4 °C 6,6 °C 3,2 km/h (1 Bft)
22.03.2017 15:03 6,5 °C 6,6 °C 92 % 1011,4 hPa 0,0 mm 2,7 km/h (1 Bft) NO 40 ° 0 min 0,000 mm 0,5 UV-I 56 W/m² 5,3 °C 6,5 °C 4,8 km/h (1 Bft)
22.03.2017 15:04 6,6 °C 6,6 °C 92 % 1011,4 hPa 0,0 mm 3,3 km/h (1 Bft) O-NO 63 ° 0 min 0,000 mm 0,5 UV-I 58 W/m² 5,4 °C 6,6 °C 6,4 km/h (2 Bft)
22.03.2017 15:05 6,6 °C 6,6 °C 92 % 1011,4 hPa 0,0 mm 3,1 km/h (1 Bft) O-NO 63 ° 0 min 0,000 mm 0,5 UV-I 62 W/m² 5,4 °C 6,6 °C 4,8 km/h (1 Bft)
22.03.2017 15:06 6,5 °C 6,6 °C 92 % 1011,3 hPa 0,0 mm 3,3 km/h (1 Bft) O-NO 63 ° 0 min 0,000 mm 0,5 UV-I 62 W/m² 5,3 °C 6,5 °C 4,8 km/h (1 Bft)
22.03.2017 15:07 6,5 °C 6,5 °C 92 % 1011,3 hPa 0,0 mm 3,1 km/h (1 Bft) O-NO 63 ° 0 min 0,000 mm 0,5 UV-I 60 W/m² 5,3 °C 6,5 °C 4,8 km/h (1 Bft)
22.03.2017 15:08 6,5 °C 6,5 °C 92 % 1011,3 hPa 0,0 mm 2,1 km/h (1 Bft) O-NO 63 ° 0 min 0,000 mm 0,5 UV-I 60 W/m² 5,3 °C 6,5 °C 3,2 km/h (1 Bft)
22.03.2017 15:09 6,5 °C 6,5 °C 92 % 1011,3 hPa 0,0 mm 2,7 km/h (1 Bft) O-NO 63 ° 0 min 0,000 mm 0,5 UV-I 60 W/m² 5,3 °C 6,5 °C 3,2 km/h (1 Bft)
22.03.2017 15:10 6,5 °C 6,6 °C 92 % 1011,4 hPa 0,0 mm 2,5 km/h (1 Bft) O-NO 63 ° 0 min 0,000 mm 0,5 UV-I 60 W/m² 5,3 °C 6,5 °C 3,2 km/h (1 Bft)
22.03.2017 15:11 6,5 °C 6,6 °C 92 % 1011,3 hPa 0,0 mm 3,0 km/h (1 Bft) O-NO 61 ° 0 min 0,000 mm 0,5 UV-I 58 W/m² 5,3 °C 6,5 °C 3,2 km/h (1 Bft)
22.03.2017 15:12 6,6 °C 6,6 °C 92 % 1011,3 hPa 0,0 mm 4,3 km/h (1 Bft) O-NO 61 ° 0 min 0,000 mm 0,5 UV-I 58 W/m² 5,4 °C 6,6 °C 4,8 km/h (1 Bft)
22.03.2017 15:13 6,6 °C 6,6 °C 93 % 1011,3 hPa 0,0 mm 3,8 km/h (1 Bft) O-NO 61 ° 0 min 0,000 mm 0,5 UV-I 60 W/m² 5,6 °C 6,6 °C 4,8 km/h (1 Bft)
22.03.2017 15:14 6,7 °C 6,7 °C 93 % 1011,2 hPa 0,0 mm 3,4 km/h (1 Bft) O-NO 61 ° 0 min 0,000 mm 0,5 UV-I 60 W/m² 5,6 °C 6,7 °C 4,8 km/h (1 Bft)
22.03.2017 15:15 6,7 °C 6,7 °C 92 % 1011,3 hPa 0,0 mm 2,8 km/h (1 Bft) O-NO 61 ° 0 min 0,000 mm 0,5 UV-I 60 W/m² 5,5 °C 6,7 °C 4,8 km/h (1 Bft)
22.03.2017 15:16 6,7 °C 6,7 °C 92 % 1011,3 hPa 0,0 mm 2,4 km/h (1 Bft) O-NO 61 ° 0 min 0,000 mm 0,5 UV-I 62 W/m² 5,5 °C 6,7 °C 4,8 km/h (1 Bft)
22.03.2017 15:17 6,7 °C 6,7 °C 93 % 1011,3 hPa 0,0 mm 3,6 km/h (1 Bft) O-NO 61 ° 0 min 0,000 mm 0,5 UV-I 65 W/m² 5,6 °C 6,7 °C 4,8 km/h (1 Bft)
22.03.2017 15:18 6,7 °C 6,7 °C 93 % 1011,3 hPa 0,0 mm 2,8 km/h (1 Bft) O-NO 61 ° 0 min 0,000 mm 0,5 UV-I 67 W/m² 5,6 °C 6,7 °C 4,8 km/h (1 Bft)
22.03.2017 15:19 6,7 °C 6,7 °C 93 % 1011,2 hPa 0,0 mm 4,6 km/h (1 Bft) N-NO 32 ° 0 min 0,000 mm 0,5 UV-I 69 W/m² 5,6 °C 6,2 °C 6,4 km/h (2 Bft)
22.03.2017 15:20 6,7 °C 6,7 °C 93 % 1011,2 hPa 0,0 mm 3,0 km/h (1 Bft) N-NO 32 ° 0 min 0,000 mm 0,5 UV-I 69 W/m² 5,6 °C 6,7 °C 4,8 km/h (1 Bft)
22.03.2017 15:21 6,7 °C 6,7 °C 92 % 1011,3 hPa 0,0 mm 2,7 km/h (1 Bft) N-NO 32 ° 0 min 0,000 mm 0,5 UV-I 65 W/m² 5,5 °C 6,7 °C 3,2 km/h (1 Bft)
22.03.2017 15:22 6,7 °C 6,7 °C 92 % 1011,3 hPa 0,0 mm 0,3 km/h (0 Bft) N-NO 32 ° 0 min 0,000 mm 0,5 UV-I 62 W/m² 5,5 °C 6,7 °C 1,6 km/h (1 Bft)
22.03.2017 15:23 6,7 °C 6,7 °C 92 % 1011,3 hPa 0,0 mm 2,9 km/h (1 Bft) O-NO 65 ° 0 min 0,000 mm 0,5 UV-I 54 W/m² 5,5 °C 6,7 °C 6,4 km/h (2 Bft)
22.03.2017 15:24 6,7 °C 6,7 °C 92 % 1011,4 hPa 0,0 mm 3,6 km/h (1 Bft) O-NO 65 ° 0 min 0,000 mm 0,0 UV-I 51 W/m² 5,5 °C 6,7 °C 4,8 km/h (1 Bft)
22.03.2017 15:25 6,6 °C 6,7 °C 92 % 1011,3 hPa 0,0 mm 1,6 km/h (1 Bft) O-NO 65 ° 0 min 0,000 mm 0,0 UV-I 53 W/m² 5,4 °C 6,6 °C 4,8 km/h (1 Bft)
22.03.2017 15:26 6,7 °C 6,7 °C 92 % 1011,3 hPa 0,0 mm 4,6 km/h (1 Bft) O-NO 60 ° 0 min 0,000 mm 0,0 UV-I 54 W/m² 5,5 °C 6,2 °C 6,4 km/h (2 Bft)
22.03.2017 15:27 6,7 °C 6,7 °C 92 % 1011,3 hPa 0,0 mm 5,1 km/h (1 Bft) NO 42 ° 0 min 0,000 mm 0,5 UV-I 58 W/m² 5,5 °C 6,0 °C 6,4 km/h (2 Bft)
22.03.2017 15:28 6,6 °C 6,7 °C 92 % 1011,3 hPa 0,0 mm 4,9 km/h (1 Bft) NO 47 ° 0 min 0,000 mm 0,5 UV-I 60 W/m² 5,4 °C 5,9 °C 6,4 km/h (2 Bft)
22.03.2017 15:29 6,6 °C 6,6 °C 91 % 1011,2 hPa 0,0 mm 0,5 km/h (0 Bft) NO 47 ° 0 min 0,000 mm 0,5 UV-I 62 W/m² 5,2 °C 6,6 °C 1,6 km/h (1 Bft)
22.03.2017 15:30 6,6 °C 6,6 °C 91 % 1011,2 hPa 0,0 mm 1,2 km/h (1 Bft) NO 47 ° 0 min 0,000 mm 0,5 UV-I 63 W/m² 5,2 °C 6,6 °C 1,6 km/h (1 Bft)
22.03.2017 15:31 6,6 °C 6,6 °C 92 % 1011,2 hPa 0,0 mm 1,9 km/h (1 Bft) NO 47 ° 0 min 0,000 mm 0,5 UV-I 69 W/m² 5,4 °C 6,6 °C 3,2 km/h (1 Bft)
22.03.2017 15:32 6,6 °C 6,6 °C 92 % 1011,3 hPa 0,0 mm 2,6 km/h (1 Bft) NO 47 ° 0 min 0,000 mm 0,5 UV-I 74 W/m² 5,4 °C 6,6 °C 4,8 km/h (1 Bft)
22.03.2017 15:33 6,6 °C 6,6 °C 92 % 1011,3 hPa 0,0 mm 2,1 km/h (1 Bft) NO 47 ° 0 min 0,000 mm 0,6 UV-I 77 W/m² 5,4 °C 6,6 °C 3,2 km/h (1 Bft)
22.03.2017 15:34 6,6 °C 6,7 °C 92 % 1011,3 hPa 0,0 mm 0,4 km/h (0 Bft) NO 47 ° 0 min 0,000 mm 0,6 UV-I 83 W/m² 5,4 °C 6,6 °C 1,6 km/h (1 Bft)
22.03.2017 15:35 6,7 °C 6,7 °C 91 % 1011,3 hPa 0,0 mm 0,3 km/h (0 Bft) NO 47 ° 0 min 0,000 mm 0,6 UV-I 83 W/m² 5,3 °C 6,7 °C 1,6 km/h (1 Bft)
22.03.2017 15:36 6,6 °C 6,7 °C 91 % 1011,3 hPa 0,0 mm 0,4 km/h (0 Bft) NO 47 ° 0 min 0,000 mm 0,6 UV-I 83 W/m² 5,2 °C 6,6 °C 1,6 km/h (1 Bft)
22.03.2017 15:37 6,6 °C 6,6 °C 91 % 1011,3 hPa 0,0 mm 2,5 km/h (1 Bft) NO 46 ° 0 min 0,000 mm 0,5 UV-I 76 W/m² 5,2 °C 6,6 °C 4,8 km/h (1 Bft)
22.03.2017 15:38 6,7 °C 6,7 °C 92 % 1011,3 hPa 0,0 mm 3,1 km/h (1 Bft) NO 46 ° 0 min 0,000 mm 0,0 UV-I 67 W/m² 5,5 °C 6,7 °C 4,8 km/h (1 Bft)
22.03.2017 15:39 6,7 °C 6,7 °C 92 % 1011,2 hPa 0,0 mm 3,9 km/h (1 Bft) NO 46 ° 0 min 0,000 mm 0,0 UV-I 56 W/m² 5,5 °C 6,7 °C 4,8 km/h (1 Bft)
22.03.2017 15:40 6,7 °C 6,8 °C 92 % 1011,3 hPa 0,0 mm 4,6 km/h (1 Bft) N-NO 24 ° 0 min 0,000 mm 0,0 UV-I 39 W/m² 5,5 °C 6,2 °C 6,4 km/h (2 Bft)
22.03.2017 15:41 6,7 °C 6,7 °C 92 % 1011,3 hPa 0,0 mm 4,4 km/h (1 Bft) N 360 ° 0 min 0,000 mm 0,0 UV-I 32 W/m² 5,5 °C 6,7 °C 6,4 km/h (2 Bft)
22.03.2017 15:42 6,7 °C 6,7 °C 92 % 1011,3 hPa 0,0 mm 3,1 km/h (1 Bft) N 360 ° 0 min 0,000 mm 0,0 UV-I 28 W/m² 5,5 °C 6,7 °C 4,8 km/h (1 Bft)
22.03.2017 15:43 6,7 °C 6,7 °C 92 % 1011,3 hPa 0,0 mm 3,8 km/h (1 Bft) N 360 ° 0 min 0,000 mm 0,0 UV-I 26 W/m² 5,5 °C 6,7 °C 4,8 km/h (1 Bft)
22.03.2017 15:44 6,7 °C 6,7 °C 92 % 1011,3 hPa 0,0 mm 3,5 km/h (1 Bft) N-NO 24 ° 0 min 0,000 mm 0,0 UV-I 28 W/m² 5,5 °C 6,7 °C 4,8 km/h (1 Bft)
22.03.2017 15:45 6,6 °C 6,7 °C 92 % 1011,3 hPa 0,0 mm 3,9 km/h (1 Bft) NO 53 ° 0 min 0,000 mm 0,0 UV-I 30 W/m² 5,4 °C 6,6 °C 6,4 km/h (2 Bft)
22.03.2017 15:46 6,7 °C 6,7 °C 92 % 1011,3 hPa 0,0 mm 3,9 km/h (1 Bft) NO 53 ° 0 min 0,000 mm 0,0 UV-I 35 W/m² 5,5 °C 6,7 °C 4,8 km/h (1 Bft)
22.03.2017 15:47 6,6 °C 6,7 °C 92 % 1011,3 hPa 0,0 mm 4,8 km/h (1 Bft) NO 54 ° 0 min 0,000 mm 0,0 UV-I 37 W/m² 5,4 °C 6,0 °C 11,3 km/h (2 Bft)
22.03.2017 15:48 6,6 °C 6,6 °C 92 % 1011,3 hPa 0,0 mm 5,2 km/h (1 Bft) NO 39 ° 0 min 0,000 mm 0,0 UV-I 37 W/m² 5,4 °C 5,8 °C 8,0 km/h (2 Bft)
22.03.2017 15:49 6,5 °C 6,6 °C 92 % 1011,4 hPa 0,0 mm 2,0 km/h (1 Bft) O-NO 59 ° 0 min 0,000 mm 0,0 UV-I 37 W/m² 5,3 °C 6,5 °C 4,8 km/h (1 Bft)
22.03.2017 15:50 6,5 °C 6,5 °C 92 % 1011,3 hPa 0,0 mm 4,0 km/h (1 Bft) NO 42 ° 0 min 0,000 mm 0,0 UV-I 37 W/m² 5,3 °C 6,5 °C 4,8 km/h (1 Bft)
22.03.2017 15:51 6,4 °C 6,5 °C 92 % 1011,3 hPa 0,0 mm 2,8 km/h (1 Bft) O-NO 69 ° 0 min 0,000 mm 0,0 UV-I 39 W/m² 5,2 °C 6,4 °C 4,8 km/h (1 Bft)
22.03.2017 15:52 6,4 °C 6,4 °C 92 % 1011,3 hPa 0,0 mm 5,1 km/h (1 Bft) N-NO 27 ° 0 min 0,000 mm 0,0 UV-I 42 W/m² 5,2 °C 5,6 °C 6,4 km/h (2 Bft)
22.03.2017 15:53 6,4 °C 6,4 °C 92 % 1011,4 hPa 0,0 mm 5,1 km/h (1 Bft) NO 53 ° 0 min 0,000 mm 0,0 UV-I 44 W/m² 5,2 °C 5,6 °C 6,4 km/h (2 Bft)
22.03.2017 15:54 6,4 °C 6,4 °C 93 % 1011,3 hPa 0,0 mm 4,2 km/h (1 Bft) NO 52 ° 0 min 0,000 mm 0,0 UV-I 44 W/m² 5,4 °C 6,4 °C 4,8 km/h (1 Bft)
22.03.2017 15:55 6,4 °C 6,4 °C 92 % 1011,3 hPa 0,0 mm 5,0 km/h (1 Bft) NO 53 ° 0 min 0,000 mm 0,0 UV-I 42 W/m² 5,2 °C 5,7 °C 6,4 km/h (2 Bft)
22.03.2017 15:56 6,4 °C 6,4 °C 92 % 1011,4 hPa 0,0 mm 3,8 km/h (1 Bft) NO 53 ° 0 min 0,000 mm 0,0 UV-I 42 W/m² 5,2 °C 6,4 °C 4,8 km/h (1 Bft)
22.03.2017 15:57 6,4 °C 6,4 °C 92 % 1011,4 hPa 0,0 mm 2,7 km/h (1 Bft) NO 53 ° 0 min 0,000 mm 0,0 UV-I 40 W/m² 5,2 °C 6,4 °C 4,8 km/h (1 Bft)
22.03.2017 15:58 6,4 °C 6,4 °C 92 % 1011,4 hPa 0,0 mm 3,2 km/h (1 Bft) NO 43 ° 0 min 0,000 mm 0,0 UV-I 37 W/m² 5,2 °C 6,4 °C 4,8 km/h (1 Bft)
22.03.2017 15:59 6,4 °C 6,4 °C 93 % 1011,5 hPa 0,0 mm 3,0 km/h (1 Bft) NO 43 ° 0 min 0,000 mm 0,0 UV-I 37 W/m² 5,4 °C 6,4 °C 4,8 km/h (1 Bft)
22.03.2017 16:00 6,5 °C 6,5 °C 93 % 1011,5 hPa 0,0 mm 2,3 km/h (1 Bft) NO 43 ° 0 min 0,000 mm 0,0 UV-I 33 W/m² 5,5 °C 6,5 °C 3,2 km/h (1 Bft)
22.03.2017 16:01 6,5 °C 6,5 °C 93 % 1011,5 hPa 0,0 mm 3,1 km/h (1 Bft) NO 43 ° 0 min 0,025 mm 0,0 UV-I 33 W/m² 5,5 °C 6,5 °C 4,8 km/h (1 Bft)
22.03.2017 16:02 6,5 °C 6,5 °C 92 % 1011,5 hPa 0,0 mm 2,7 km/h (1 Bft) NO 43 ° 0 min 0,000 mm 0,0 UV-I 33 W/m² 5,3 °C 6,5 °C 4,8 km/h (1 Bft)
22.03.2017 16:03 6,5 °C 6,5 °C 92 % 1011,6 hPa 0,0 mm 3,2 km/h (1 Bft) NO 43 ° 0 min 0,000 mm 0,0 UV-I 33 W/m² 5,3 °C 6,5 °C 4,8 km/h (1 Bft)
22.03.2017 16:04 6,5 °C 6,6 °C 92 % 1011,6 hPa 0,0 mm 2,1 km/h (1 Bft) NO 43 ° 0 min 0,000 mm 0,0 UV-I 35 W/m² 5,3 °C 6,5 °C 3,2 km/h (1 Bft)
22.03.2017 16:05 6,5 °C 6,5 °C 92 % 1011,5 hPa 0,0 mm 0,1 km/h (0 Bft) NO 43 ° 0 min 0,000 mm 0,0 UV-I 39 W/m² 5,3 °C 6,5 °C 1,6 km/h (1 Bft)
22.03.2017 16:06 6,5 °C 6,5 °C 92 % 1011,6 hPa 0,0 mm 0,7 km/h (0 Bft) NO 43 ° 0 min 0,000 mm 0,0 UV-I 40 W/m² 5,3 °C 6,5 °C 1,6 km/h (1 Bft)
22.03.2017 16:07 6,5 °C 6,5 °C 92 % 1011,5 hPa 0,0 mm 2,2 km/h (1 Bft) NO 43 ° 0 min 0,000 mm 0,0 UV-I 39 W/m² 5,3 °C 6,5 °C 3,2 km/h (1 Bft)
22.03.2017 16:08 6,5 °C 6,5 °C 92 % 1011,6 hPa 0,0 mm 1,6 km/h (1 Bft) NO 43 ° 0 min 0,000 mm 0,0 UV-I 35 W/m² 5,3 °C 6,5 °C 3,2 km/h (1 Bft)
22.03.2017 16:09 6,4 °C 6,5 °C 92 % 1011,6 hPa 0,0 mm 1,9 km/h (1 Bft) NO 43 ° 0 min 0,000 mm 0,0 UV-I 33 W/m² 5,2 °C 6,4 °C 3,2 km/h (1 Bft)
22.03.2017 16:10 6,5 °C 6,5 °C 92 % 1011,5 hPa 0,0 mm 1,0 km/h (0 Bft) NO 43 ° 0 min 0,000 mm 0,0 UV-I 33 W/m² 5,3 °C 6,5 °C 1,6 km/h (1 Bft)
22.03.2017 16:11 6,5 °C 6,5 °C 92 % 1011,6 hPa 0,0 mm 2,1 km/h (1 Bft) NO 43 ° 0 min 0,000 mm 0,0 UV-I 33 W/m² 5,3 °C 6,5 °C 3,2 km/h (1 Bft)
22.03.2017 16:12 6,5 °C 6,5 °C 92 % 1011,6 hPa 0,0 mm 2,2 km/h (1 Bft) NO 43 ° 0 min 0,000 mm 0,0 UV-I 33 W/m² 5,3 °C 6,5 °C 3,2 km/h (1 Bft)
22.03.2017 16:13 6,5 °C 6,5 °C 92 % 1011,5 hPa 0,0 mm 1,6 km/h (1 Bft) NO 43 ° 0 min 0,000 mm 0,0 UV-I 33 W/m² 5,3 °C 6,5 °C 3,2 km/h (1 Bft)
22.03.2017 16:14 6,5 °C 6,5 °C 92 % 1011,6 hPa 0,0 mm 1,7 km/h (1 Bft) NO 43 ° 0 min 0,000 mm 0,0 UV-I 32 W/m² 5,3 °C 6,5 °C 3,2 km/h (1 Bft)
22.03.2017 16:15 6,5 °C 6,5 °C 92 % 1011,6 hPa 0,0 mm 2,7 km/h (1 Bft) NO 43 ° 0 min 0,000 mm 0,0 UV-I 28 W/m² 5,3 °C 6,5 °C 3,2 km/h (1 Bft)
22.03.2017 16:16 6,5 °C 6,5 °C 92 % 1011,6 hPa 0,0 mm 3,0 km/h (1 Bft) NO 43 ° 0 min 0,000 mm 0,0 UV-I 26 W/m² 5,3 °C 6,5 °C 4,8 km/h (1 Bft)
22.03.2017 16:17 6,5 °C 6,5 °C 92 % 1011,6 hPa 0,0 mm 1,5 km/h (1 Bft) NO 43 ° 0 min 0,000 mm 0,0 UV-I 26 W/m² 5,3 °C 6,5 °C 3,2 km/h (1 Bft)
22.03.2017 16:18 6,4 °C 6,5 °C 92 % 1011,6 hPa 0,0 mm 3,4 km/h (1 Bft) NO 43 ° 0 min 0,000 mm 0,0 UV-I 26 W/m² 5,2 °C 6,4 °C 4,8 km/h (1 Bft)
22.03.2017 16:19 6,4 °C 6,5 °C 92 % 1011,6 hPa 0,0 mm 2,9 km/h (1 Bft) NO 53 ° 0 min 0,000 mm 0,0 UV-I 26 W/m² 5,2 °C 6,4 °C 4,8 km/h (1 Bft)
22.03.2017 16:20 6,4 °C 6,4 °C 92 % 1011,6 hPa 0,0 mm 2,6 km/h (1 Bft) NO 53 ° 0 min 0,000 mm 0,0 UV-I 26 W/m² 5,2 °C 6,4 °C 3,2 km/h (1 Bft)
22.03.2017 16:21 6,4 °C 6,4 °C 92 % 1011,6 hPa 0,0 mm 5,2 km/h (1 Bft) NO 55 ° 0 min 0,000 mm 0,0 UV-I 25 W/m² 5,2 °C 5,6 °C 6,4 km/h (2 Bft)
22.03.2017 16:22 6,4 °C 6,4 °C 92 % 1011,6 hPa 0,0 mm 4,2 km/h (1 Bft) O-NO 60 ° 0 min 0,000 mm 0,0 UV-I 23 W/m² 5,2 °C 6,4 °C 6,4 km/h (2 Bft)
22.03.2017 16:23 6,4 °C 6,4 °C 92 % 1011,6 hPa 0,0 mm 4,4 km/h (1 Bft) O-NO 60 ° 0 min 0,000 mm 0,0 UV-I 21 W/m² 5,2 °C 6,4 °C 6,4 km/h (2 Bft)
22.03.2017 16:24 6,4 °C 6,4 °C 93 % 1011,5 hPa 0,0 mm 4,3 km/h (1 Bft) NO 38 ° 0 min 0,000 mm 0,0 UV-I 19 W/m² 5,4 °C 6,4 °C 4,8 km/h (1 Bft)
22.03.2017 16:25 6,4 °C 6,4 °C 93 % 1011,6 hPa 0,0 mm 5,3 km/h (1 Bft) NO 50 ° 0 min 0,000 mm 0,0 UV-I 18 W/m² 5,4 °C 5,6 °C 6,4 km/h (2 Bft)
22.03.2017 16:26 6,4 °C 6,4 °C 93 % 1011,5 hPa 0,0 mm 2,6 km/h (1 Bft) NO 50 ° 0 min 0,000 mm 0,0 UV-I 18 W/m² 5,4 °C 6,4 °C 4,8 km/h (1 Bft)
22.03.2017 16:27 6,4 °C 6,4 °C 93 % 1011,6 hPa 0,0 mm 3,9 km/h (1 Bft) O-NO 69 ° 0 min 0,000 mm 0,0 UV-I 16 W/m² 5,4 °C 6,4 °C 6,4 km/h (2 Bft)
22.03.2017 16:28 6,4 °C 6,4 °C 93 % 1011,5 hPa 0,0 mm 3,9 km/h (1 Bft) O-NO 69 ° 0 min 0,000 mm 0,0 UV-I 16 W/m² 5,4 °C 6,4 °C 4,8 km/h (1 Bft)
22.03.2017 16:29 6,3 °C 6,4 °C 93 % 1011,5 hPa 0,0 mm 3,8 km/h (1 Bft) NO 52 ° 0 min 0,000 mm 0,0 UV-I 16 W/m² 5,3 °C 6,3 °C 6,4 km/h (2 Bft)
22.03.2017 16:30 6,3 °C 6,3 °C 93 % 1011,6 hPa 0,0 mm 4,0 km/h (1 Bft) NO 52 ° 0 min 0,000 mm 0,0 UV-I 16 W/m² 5,3 °C 6,3 °C 4,8 km/h (1 Bft)
22.03.2017 16:31 6,3 °C 6,3 °C 93 % 1011,6 hPa 0,0 mm 4,5 km/h (1 Bft) NO 52 ° 0 min 0,000 mm 0,0 UV-I 18 W/m² 5,3 °C 6,3 °C 6,4 km/h (2 Bft)
22.03.2017 16:32 6,3 °C 6,3 °C 93 % 1011,5 hPa 0,0 mm 4,1 km/h (1 Bft) NO 51 ° 0 min 0,000 mm 0,0 UV-I 19 W/m² 5,3 °C 6,3 °C 4,8 km/h (1 Bft)
22.03.2017 16:33 6,3 °C 6,3 °C 93 % 1011,6 hPa 0,0 mm 4,0 km/h (1 Bft) NO 52 ° 0 min 0,000 mm 0,0 UV-I 21 W/m² 5,3 °C 6,3 °C 4,8 km/h (1 Bft)
22.03.2017 16:34 6,3 °C 6,3 °C 93 % 1011,5 hPa 0,0 mm 1,4 km/h (1 Bft) NO 52 ° 0 min 0,000 mm 0,0 UV-I 21 W/m² 5,3 °C 6,3 °C 4,8 km/h (1 Bft)
22.03.2017 16:35 6,3 °C 6,3 °C 93 % 1011,5 hPa 0,0 mm 3,8 km/h (1 Bft) NO 52 ° 0 min 0,000 mm 0,0 UV-I 23 W/m² 5,3 °C 6,3 °C 4,8 km/h (1 Bft)
22.03.2017 16:36 6,3 °C 6,3 °C 93 % 1011,5 hPa 0,0 mm 2,0 km/h (1 Bft) NO 52 ° 0 min 0,000 mm 0,0 UV-I 23 W/m² 5,3 °C 6,3 °C 3,2 km/h (1 Bft)
22.03.2017 16:37 6,3 °C 6,3 °C 93 % 1011,5 hPa 0,0 mm 2,5 km/h (1 Bft) NO 52 ° 0 min 0,000 mm 0,0 UV-I 23 W/m² 5,3 °C 6,3 °C 3,2 km/h (1 Bft)
22.03.2017 16:38 6,3 °C 6,3 °C 93 % 1011,5 hPa 0,0 mm 3,3 km/h (1 Bft) NO 52 ° 0 min 0,000 mm 0,0 UV-I 23 W/m² 5,3 °C 6,3 °C 4,8 km/h (1 Bft)
22.03.2017 16:39 6,3 °C 6,3 °C 93 % 1011,5 hPa 0,0 mm 3,5 km/h (1 Bft) NO 52 ° 0 min 0,000 mm 0,0 UV-I 23 W/m² 5,3 °C 6,3 °C 4,8 km/h (1 Bft)
22.03.2017 16:40 6,3 °C 6,3 °C 93 % 1011,5 hPa 0,0 mm 3,0 km/h (1 Bft) NO 52 ° 0 min 0,000 mm 0,0 UV-I 23 W/m² 5,3 °C 6,3 °C 4,8 km/h (1 Bft)
22.03.2017 16:41 6,3 °C 6,3 °C 93 % 1011,5 hPa 0,0 mm 1,8 km/h (1 Bft) NO 52 ° 0 min 0,000 mm 0,0 UV-I 25 W/m² 5,3 °C 6,3 °C 3,2 km/h (1 Bft)
22.03.2017 16:42 6,3 °C 6,3 °C 93 % 1011,5 hPa 0,0 mm 1,2 km/h (1 Bft) NO 52 ° 0 min 0,000 mm 0,0 UV-I 25 W/m² 5,3 °C 6,3 °C 3,2 km/h (1 Bft)
22.03.2017 16:43 6,3 °C 6,3 °C 93 % 1011,5 hPa 0,0 mm 3,7 km/h (1 Bft) NO 52 ° 0 min 0,000 mm 0,0 UV-I 23 W/m² 5,3 °C 6,3 °C 6,4 km/h (2 Bft)
22.03.2017 16:44 6,3 °C 6,3 °C 93 % 1011,4 hPa 0,0 mm 1,7 km/h (1 Bft) NO 52 ° 0 min 0,000 mm 0,0 UV-I 25 W/m² 5,3 °C 6,3 °C 4,8 km/h (1 Bft)
22.03.2017 16:45 6,3 °C 6,3 °C 93 % 1011,4 hPa 0,0 mm 2,1 km/h (1 Bft) NO 52 ° 0 min 0,000 mm 0,0 UV-I 25 W/m² 5,3 °C 6,3 °C 3,2 km/h (1 Bft)
22.03.2017 16:46 6,3 °C 6,3 °C 93 % 1011,5 hPa 0,0 mm 3,3 km/h (1 Bft) NO 52 ° 0 min 0,000 mm 0,0 UV-I 25 W/m² 5,3 °C 6,3 °C 4,8 km/h (1 Bft)
22.03.2017 16:47 6,3 °C 6,3 °C 93 % 1011,5 hPa 0,0 mm 3,1 km/h (1 Bft) NO 52 ° 0 min 0,000 mm 0,0 UV-I 25 W/m² 5,3 °C 6,3 °C 3,2 km/h (1 Bft)
22.03.2017 16:48 6,3 °C 6,3 °C 93 % 1011,5 hPa 0,0 mm 1,5 km/h (1 Bft) NO 52 ° 0 min 0,000 mm 0,0 UV-I 26 W/m² 5,3 °C 6,3 °C 4,8 km/h (1 Bft)
22.03.2017 16:49 6,3 °C 6,3 °C 93 % 1011,5 hPa 0,0 mm 4,4 km/h (1 Bft) O-NO 61 ° 0 min 0,000 mm 0,0 UV-I 26 W/m² 5,3 °C 6,3 °C 6,4 km/h (2 Bft)
22.03.2017 16:50 6,3 °C 6,3 °C 93 % 1011,4 hPa 0,0 mm 4,4 km/h (1 Bft) O-NO 71 ° 0 min 0,000 mm 0,0 UV-I 25 W/m² 5,3 °C 6,3 °C 6,4 km/h (2 Bft)
22.03.2017 16:51 6,3 °C 6,3 °C 93 % 1011,4 hPa 0,0 mm 2,6 km/h (1 Bft) O-NO 74 ° 0 min 0,000 mm 0,0 UV-I 25 W/m² 5,3 °C 6,3 °C 3,2 km/h (1 Bft)
22.03.2017 16:52 6,3 °C 6,3 °C 93 % 1011,4 hPa 0,0 mm 3,0 km/h (1 Bft) O-NO 74 ° 0 min 0,000 mm 0,0 UV-I 25 W/m² 5,3 °C 6,3 °C 3,2 km/h (1 Bft)
22.03.2017 16:53 6,3 °C 6,3 °C 93 % 1011,4 hPa 0,0 mm 1,4 km/h (1 Bft) O-NO 74 ° 0 min 0,000 mm 0,0 UV-I 25 W/m² 5,3 °C 6,3 °C 3,2 km/h (1 Bft)
22.03.2017 16:54 6,3 °C 6,3 °C 93 % 1011,4 hPa 0,0 mm 1,9 km/h (1 Bft) O-NO 74 ° 0 min 0,000 mm 0,0 UV-I 23 W/m² 5,3 °C 6,3 °C 3,2 km/h (1 Bft)
22.03.2017 16:55 6,3 °C 6,3 °C 93 % 1011,4 hPa 0,0 mm 3,3 km/h (1 Bft) NO 52 ° 0 min 0,000 mm 0,0 UV-I 23 W/m² 5,3 °C 6,3 °C 4,8 km/h (1 Bft)
22.03.2017 16:56 6,3 °C 6,3 °C 93 % 1011,4 hPa 0,0 mm 2,7 km/h (1 Bft) NO 52 ° 0 min 0,000 mm 0,0 UV-I 19 W/m² 5,3 °C 6,3 °C 4,8 km/h (1 Bft)
22.03.2017 16:57 6,4 °C 6,4 °C 93 % 1011,4 hPa 0,0 mm 3,1 km/h (1 Bft) NO 52 ° 0 min 0,000 mm 0,0 UV-I 19 W/m² 5,4 °C 6,4 °C 6,4 km/h (2 Bft)
22.03.2017 16:58 6,4 °C 6,4 °C 93 % 1011,4 hPa 0,0 mm 4,0 km/h (1 Bft) NO 52 ° 0 min 0,000 mm 0,0 UV-I 19 W/m² 5,4 °C 6,4 °C 4,8 km/h (1 Bft)
22.03.2017 16:59 6,4 °C 6,4 °C 93 % 1011,4 hPa 0,0 mm 3,8 km/h (1 Bft) NO 52 ° 0 min 0,000 mm 0,0 UV-I 19 W/m² 5,4 °C 6,4 °C 6,4 km/h (2 Bft)
22.03.2017 17:00 6,3 °C 6,4 °C 93 % 1011,3 hPa 0,0 mm 4,1 km/h (1 Bft) NO 52 ° 0 min 0,000 mm 0,0 UV-I 19 W/m² 5,3 °C 6,3 °C 4,8 km/h (1 Bft)
22.03.2017 17:01 6,4 °C 6,4 °C 93 % 1011,4 hPa 0,0 mm 2,9 km/h (1 Bft) NO 52 ° 0 min 0,026 mm 0,0 UV-I 19 W/m² 5,4 °C 6,4 °C 4,8 km/h (1 Bft)
22.03.2017 17:02 6,3 °C 6,4 °C 93 % 1011,3 hPa 0,0 mm 1,7 km/h (1 Bft) NO 52 ° 0 min 0,000 mm 0,0 UV-I 16 W/m² 5,3 °C 6,3 °C 3,2 km/h (1 Bft)
22.03.2017 17:03 6,3 °C 6,4 °C 93 % 1011,3 hPa 0,0 mm 2,3 km/h (1 Bft) NO 52 ° 0 min 0,000 mm 0,0 UV-I 14 W/m² 5,3 °C 6,3 °C 4,8 km/h (1 Bft)
22.03.2017 17:04 6,3 °C 6,4 °C 93 % 1011,4 hPa 0,0 mm 2,5 km/h (1 Bft) NO 52 ° 0 min 0,000 mm 0,0 UV-I 14 W/m² 5,3 °C 6,3 °C 3,2 km/h (1 Bft)
22.03.2017 17:05 6,3 °C 6,4 °C 93 % 1011,4 hPa 0,0 mm 2,0 km/h (1 Bft) NO 52 ° 0 min 0,000 mm 0,0 UV-I 12 W/m² 5,3 °C 6,3 °C 3,2 km/h (1 Bft)
22.03.2017 17:06 6,4 °C 6,4 °C 93 % 1011,4 hPa 0,0 mm 1,2 km/h (1 Bft) NO 52 ° 0 min 0,000 mm 0,0 UV-I 12 W/m² 5,4 °C 6,4 °C 3,2 km/h (1 Bft)
22.03.2017 17:07 6,4 °C 6,4 °C 93 % 1011,5 hPa 0,0 mm 1,9 km/h (1 Bft) NO 52 ° 0 min 0,000 mm 0,0 UV-I 12 W/m² 5,4 °C 6,4 °C 3,2 km/h (1 Bft)
22.03.2017 17:08 6,4 °C 6,4 °C 93 % 1011,5 hPa 0,0 mm 2,1 km/h (1 Bft) NO 52 ° 0 min 0,000 mm 0,0 UV-I 12 W/m² 5,4 °C 6,4 °C 3,2 km/h (1 Bft)
22.03.2017 17:09 6,4 °C 6,4 °C 93 % 1011,4 hPa 0,0 mm 1,8 km/h (1 Bft) NO 52 ° 0 min 0,000 mm 0,0 UV-I 12 W/m² 5,4 °C 6,4 °C 3,2 km/h (1 Bft)
22.03.2017 17:10 6,4 °C 6,4 °C 93 % 1011,5 hPa 0,0 mm 2,6 km/h (1 Bft) NO 52 ° 0 min 0,000 mm 0,0 UV-I 12 W/m² 5,4 °C 6,4 °C 3,2 km/h (1 Bft)
22.03.2017 17:11 6,4 °C 6,4 °C 93 % 1011,5 hPa 0,0 mm 2,6 km/h (1 Bft) NO 52 ° 0 min 0,000 mm 0,0 UV-I 11 W/m² 5,4 °C 6,4 °C 3,2 km/h (1 Bft)
22.03.2017 17:12 6,3 °C 6,4 °C 93 % 1011,5 hPa 0,0 mm 2,2 km/h (1 Bft) NO 52 ° 0 min 0,000 mm 0,0 UV-I 11 W/m² 5,3 °C 6,3 °C 3,2 km/h (1 Bft)
22.03.2017 17:13 6,3 °C 6,3 °C 93 % 1011,5 hPa 0,0 mm 1,9 km/h (1 Bft) NO 52 ° 0 min 0,000 mm 0,0 UV-I 11 W/m² 5,3 °C 6,3 °C 3,2 km/h (1 Bft)
22.03.2017 17:14 6,3 °C 6,3 °C 93 % 1011,5 hPa 0,0 mm 1,8 km/h (1 Bft) NO 52 ° 0 min 0,000 mm 0,0 UV-I 9 W/m² 5,3 °C 6,3 °C 3,2 km/h (1 Bft)
22.03.2017 17:15 6,4 °C 6,4 °C 93 % 1011,5 hPa 0,0 mm 1,1 km/h (1 Bft) NO 52 ° 0 min 0,000 mm 0,0 UV-I 9 W/m² 5,4 °C 6,4 °C 3,2 km/h (1 Bft)
22.03.2017 17:16 6,3 °C 6,4 °C 93 % 1011,5 hPa 0,0 mm 2,3 km/h (1 Bft) NO 52 ° 0 min 0,000 mm 0,0 UV-I 9 W/m² 5,3 °C 6,3 °C 3,2 km/h (1 Bft)
22.03.2017 17:17 6,4 °C 6,4 °C 93 % 1011,5 hPa 0,0 mm 1,9 km/h (1 Bft) NO 52 ° 0 min 0,000 mm 0,0 UV-I 9 W/m² 5,4 °C 6,4 °C 3,2 km/h (1 Bft)
22.03.2017 17:18 6,4 °C 6,4 °C 93 % 1011,5 hPa 0,0 mm 2,5 km/h (1 Bft) NO 52 ° 0 min 0,000 mm 0,0 UV-I 9 W/m² 5,4 °C 6,4 °C 4,8 km/h (1 Bft)
22.03.2017 17:19 6,4 °C 6,4 °C 93 % 1011,5 hPa 0,0 mm 2,5 km/h (1 Bft) NO 52 ° 0 min 0,000 mm 0,0 UV-I 9 W/m² 5,4 °C 6,4 °C 4,8 km/h (1 Bft)
22.03.2017 17:20 6,4 °C 6,4 °C 93 % 1011,5 hPa 0,0 mm 2,1 km/h (1 Bft) NO 52 ° 0 min 0,000 mm 0,0 UV-I 9 W/m² 5,4 °C 6,4 °C 3,2 km/h (1 Bft)
22.03.2017 17:21 6,4 °C 6,4 °C 93 % 1011,5 hPa 0,0 mm 1,1 km/h (1 Bft) NO 52 ° 0 min 0,000 mm 0,0 UV-I 11 W/m² 5,4 °C 6,4 °C 3,2 km/h (1 Bft)
22.03.2017 17:22 6,4 °C 6,4 °C 93 % 1011,5 hPa 0,0 mm 1,8 km/h (1 Bft) NO 52 ° 0 min 0,000 mm 0,0 UV-I 11 W/m² 5,4 °C 6,4 °C 3,2 km/h (1 Bft)
22.03.2017 17:23 6,4 °C 6,4 °C 93 % 1011,5 hPa 0,0 mm 0,5 km/h (0 Bft) NO 52 ° 0 min 0,000 mm 0,0 UV-I 11 W/m² 5,4 °C 6,4 °C 1,6 km/h (1 Bft)
22.03.2017 17:24 6,4 °C 6,4 °C 93 % 1011,5 hPa 0,0 mm 0,0 km/h (0 Bft) NO 52 ° 0 min 0,000 mm 0,0 UV-I 11 W/m² 5,4 °C 6,4 °C 0,0 km/h (0 Bft)
22.03.2017 17:25 6,4 °C 6,4 °C 93 % 1011,5 hPa 0,0 mm 3,0 km/h (1 Bft) NO 52 ° 0 min 0,000 mm 0,0 UV-I 11 W/m² 5,4 °C 6,4 °C 4,8 km/h (1 Bft)
22.03.2017 17:26 6,4 °C 6,4 °C 93 % 1011,5 hPa 0,0 mm 2,8 km/h (1 Bft) NO 52 ° 0 min 0,000 mm 0,0 UV-I 11 W/m² 5,4 °C 6,4 °C 4,8 km/h (1 Bft)
22.03.2017 17:27 6,3 °C 6,4 °C 93 % 1011,5 hPa 0,0 mm 2,8 km/h (1 Bft) NO 52 ° 0 min 0,000 mm 0,0 UV-I 11 W/m² 5,3 °C 6,3 °C 3,2 km/h (1 Bft)
22.03.2017 17:28 6,3 °C 6,4 °C 93 % 1011,4 hPa 0,0 mm 3,6 km/h (1 Bft) NO 52 ° 0 min 0,000 mm 0,0 UV-I 12 W/m² 5,3 °C 6,3 °C 4,8 km/h (1 Bft)
22.03.2017 17:29 6,3 °C 6,4 °C 93 % 1011,5 hPa 0,0 mm 0,7 km/h (0 Bft) NO 52 ° 0 min 0,000 mm 0,0 UV-I 12 W/m² 5,3 °C 6,3 °C 1,6 km/h (1 Bft)
22.03.2017 17:30 6,3 °C 6,3 °C 94 % 1011,5 hPa 0,0 mm 0,6 km/h (0 Bft) NO 52 ° 0 min 0,000 mm 0,0 UV-I 12 W/m² 5,4 °C 6,3 °C 1,6 km/h (1 Bft)
22.03.2017 17:31 6,4 °C 6,4 °C 94 % 1011,5 hPa 0,0 mm 1,6 km/h (1 Bft) NO 52 ° 0 min 0,000 mm 0,0 UV-I 12 W/m² 5,5 °C 6,4 °C 3,2 km/h (1 Bft)
22.03.2017 17:32 6,3 °C 6,4 °C 94 % 1011,4 hPa 0,0 mm 1,7 km/h (1 Bft) NO 52 ° 0 min 0,000 mm 0,0 UV-I 12 W/m² 5,4 °C 6,3 °C 3,2 km/h (1 Bft)
22.03.2017 17:33 6,3 °C 6,4 °C 94 % 1011,5 hPa 0,0 mm 0,5 km/h (0 Bft) NO 52 ° 0 min 0,000 mm 0,0 UV-I 12 W/m² 5,4 °C 6,3 °C 1,6 km/h (1 Bft)
22.03.2017 17:34 6,3 °C 6,3 °C 94 % 1011,5 hPa 0,0 mm 3,0 km/h (1 Bft) NO 52 ° 0 min 0,000 mm 0,0 UV-I 12 W/m² 5,4 °C 6,3 °C 4,8 km/h (1 Bft)
22.03.2017 17:35 6,3 °C 6,3 °C 94 % 1011,5 hPa 0,0 mm 5,2 km/h (1 Bft) O-NO 57 ° 0 min 0,000 mm 0,0 UV-I 12 W/m² 5,4 °C 5,5 °C 6,4 km/h (2 Bft)
22.03.2017 17:36 6,3 °C 6,3 °C 94 % 1011,4 hPa 0,0 mm 4,2 km/h (1 Bft) O-NO 57 ° 0 min 0,000 mm 0,0 UV-I 14 W/m² 5,4 °C 6,3 °C 4,8 km/h (1 Bft)
22.03.2017 17:37 6,3 °C 6,3 °C 94 % 1011,5 hPa 0,0 mm 3,2 km/h (1 Bft) O-NO 57 ° 0 min 0,000 mm 0,0 UV-I 14 W/m² 5,4 °C 6,3 °C 4,8 km/h (1 Bft)
22.03.2017 17:38 6,3 °C 6,3 °C 94 % 1011,5 hPa 0,0 mm 2,7 km/h (1 Bft) O-NO 57 ° 0 min 0,000 mm 0,0 UV-I 14 W/m² 5,4 °C 6,3 °C 3,2 km/h (1 Bft)
22.03.2017 17:39 6,3 °C 6,3 °C 94 % 1011,5 hPa 0,0 mm 3,8 km/h (1 Bft) O-NO 57 ° 0 min 0,000 mm 0,0 UV-I 14 W/m² 5,4 °C 6,3 °C 6,4 km/h (2 Bft)
22.03.2017 17:40 6,3 °C 6,4 °C 94 % 1011,5 hPa 0,0 mm 5,2 km/h (1 Bft) O-NO 57 ° 0 min 0,000 mm 0,0 UV-I 12 W/m² 5,4 °C 5,5 °C 6,4 km/h (2 Bft)
22.03.2017 17:41 6,3 °C 6,3 °C 94 % 1011,5 hPa 0,0 mm 3,7 km/h (1 Bft) O-NO 69 ° 0 min 0,000 mm 0,0 UV-I 12 W/m² 5,4 °C 6,3 °C 6,4 km/h (2 Bft)
22.03.2017 17:42 6,3 °C 6,3 °C 94 % 1011,5 hPa 0,0 mm 5,2 km/h (1 Bft) O-NO 76 ° 0 min 0,000 mm 0,0 UV-I 11 W/m² 5,4 °C 5,5 °C 6,4 km/h (2 Bft)
22.03.2017 17:43 6,3 °C 6,3 °C 94 % 1011,5 hPa 0,0 mm 4,8 km/h (1 Bft) O-NO 66 ° 0 min 0,000 mm 0,0 UV-I 11 W/m² 5,4 °C 5,6 °C 6,4 km/h (2 Bft)
22.03.2017 17:44 6,3 °C 6,3 °C 94 % 1011,6 hPa 0,0 mm 3,5 km/h (1 Bft) O-NO 65 ° 0 min 0,000 mm 0,0 UV-I 11 W/m² 5,4 °C 6,3 °C 4,8 km/h (1 Bft)
22.03.2017 17:45 6,3 °C 6,3 °C 94 % 1011,6 hPa 0,0 mm 1,8 km/h (1 Bft) O-NO 65 ° 0 min 0,000 mm 0,0 UV-I 11 W/m² 5,4 °C 6,3 °C 3,2 km/h (1 Bft)
22.03.2017 17:46 6,3 °C 6,3 °C 94 % 1011,6 hPa 0,0 mm 3,6 km/h (1 Bft) O-NO 65 ° 0 min 0,000 mm 0,0 UV-I 9 W/m² 5,4 °C 6,3 °C 6,4 km/h (2 Bft)
22.03.2017 17:47 6,3 °C 6,3 °C 94 % 1011,6 hPa 0,0 mm 4,3 km/h (1 Bft) O-NO 66 ° 0 min 0,000 mm 0,0 UV-I 9 W/m² 5,4 °C 6,3 °C 6,4 km/h (2 Bft)
22.03.2017 17:48 6,3 °C 6,3 °C 94 % 1011,6 hPa 0,0 mm 3,5 km/h (1 Bft) O-NO 66 ° 0 min 0,000 mm 0,0 UV-I 7 W/m² 5,4 °C 6,3 °C 4,8 km/h (1 Bft)
22.03.2017 17:49 6,3 °C 6,3 °C 94 % 1011,5 hPa 0,0 mm 2,5 km/h (1 Bft) O-NO 66 ° 0 min 0,000 mm 0,0 UV-I 7 W/m² 5,4 °C 6,3 °C 4,8 km/h (1 Bft)
22.03.2017 17:50 6,3 °C 6,3 °C 94 % 1011,5 hPa 0,0 mm 4,0 km/h (1 Bft) O-NO 66 ° 0 min 0,000 mm 0,0 UV-I 7 W/m² 5,4 °C 6,3 °C 4,8 km/h (1 Bft)
22.03.2017 17:51 6,3 °C 6,3 °C 94 % 1011,5 hPa 0,0 mm 3,7 km/h (1 Bft) O-NO 66 ° 0 min 0,000 mm 0,0 UV-I 7 W/m² 5,4 °C 6,3 °C 4,8 km/h (1 Bft)
22.03.2017 17:52 6,3 °C 6,3 °C 94 % 1011,5 hPa 0,0 mm 2,5 km/h (1 Bft) O-NO 66 ° 0 min 0,000 mm 0,0 UV-I 7 W/m² 5,4 °C 6,3 °C 4,8 km/h (1 Bft)
22.03.2017 17:53 6,3 °C 6,3 °C 94 % 1011,5 hPa 0,0 mm 2,3 km/h (1 Bft) O-NO 66 ° 0 min 0,000 mm 0,0 UV-I 5 W/m² 5,4 °C 6,3 °C 3,2 km/h (1 Bft)
22.03.2017 17:54 6,3 °C 6,3 °C 94 % 1011,5 hPa 0,0 mm 2,3 km/h (1 Bft) O-NO 66 ° 0 min 0,000 mm 0,0 UV-I 5 W/m² 5,4 °C 6,3 °C 3,2 km/h (1 Bft)
22.03.2017 17:55 6,3 °C 6,3 °C 94 % 1011,5 hPa 0,0 mm 3,3 km/h (1 Bft) O-NO 66 ° 0 min 0,000 mm 0,0 UV-I 5 W/m² 5,4 °C 6,3 °C 4,8 km/h (1 Bft)
22.03.2017 17:56 6,3 °C 6,3 °C 94 % 1011,5 hPa 0,0 mm 4,0 km/h (1 Bft) O-NO 66 ° 0 min 0,000 mm 0,0 UV-I 5 W/m² 5,4 °C 6,3 °C 6,4 km/h (2 Bft)
22.03.2017 17:57 6,3 °C 6,3 °C 94 % 1011,5 hPa 0,0 mm 2,5 km/h (1 Bft) O-NO 66 ° 0 min 0,000 mm 0,0 UV-I 0 W/m² 5,4 °C 6,3 °C 4,8 km/h (1 Bft)
22.03.2017 17:58 6,3 °C 6,3 °C 94 % 1011,5 hPa 0,0 mm 2,6 km/h (1 Bft) O-NO 66 ° 0 min 0,000 mm 0,0 UV-I 0 W/m² 5,4 °C 6,3 °C 4,8 km/h (1 Bft)
22.03.2017 17:59 6,3 °C 6,3 °C 94 % 1011,6 hPa 0,0 mm 2,7 km/h (1 Bft) O-NO 66 ° 0 min 0,000 mm 0,0 UV-I 0 W/m² 5,4 °C 6,3 °C 4,8 km/h (1 Bft)
22.03.2017 18:00 6,3 °C 6,3 °C 94 % 1011,5 hPa 0,0 mm 1,4 km/h (1 Bft) O-NO 66 ° 0 min 0,000 mm 0,0 UV-I 0 W/m² 5,4 °C 6,3 °C 3,2 km/h (1 Bft)
22.03.2017 18:01 6,3 °C 6,3 °C 94 % 1011,5 hPa 0,0 mm 2,1 km/h (1 Bft) O-NO 66 ° 0 min 0,000 mm 0,0 UV-I 0 W/m² 5,4 °C 6,3 °C 3,2 km/h (1 Bft)
22.03.2017 18:02 6,3 °C 6,3 °C 94 % 1011,6 hPa 0,0 mm 2,4 km/h (1 Bft) O-NO 66 ° 0 min 0,000 mm 0,0 UV-I 0 W/m² 5,4 °C 6,3 °C 3,2 km/h (1 Bft)
22.03.2017 18:03 6,3 °C 6,3 °C 94 % 1011,6 hPa 0,0 mm 3,1 km/h (1 Bft) O-NO 66 ° 0 min 0,000 mm 0,0 UV-I 0 W/m² 5,4 °C 6,3 °C 4,8 km/h (1 Bft)
22.03.2017 18:04 6,3 °C 6,3 °C 94 % 1011,5 hPa 0,0 mm 2,2 km/h (1 Bft) O-NO 66 ° 0 min 0,000 mm 0,0 UV-I 0 W/m² 5,4 °C 6,3 °C 3,2 km/h (1 Bft)
22.03.2017 18:05 6,2 °C 6,3 °C 94 % 1011,6 hPa 0,0 mm 0,7 km/h (0 Bft) O-NO 66 ° 0 min 0,000 mm 0,0 UV-I 0 W/m² 5,3 °C 6,2 °C 1,6 km/h (1 Bft)
22.03.2017 18:06 6,2 °C 6,3 °C 94 % 1011,6 hPa 0,0 mm 0,7 km/h (0 Bft) O-NO 66 ° 0 min 0,000 mm 0,0 UV-I 0 W/m² 5,3 °C 6,2 °C 1,6 km/h (1 Bft)
22.03.2017 18:07 6,3 °C 6,3 °C 94 % 1011,7 hPa 0,0 mm 1,6 km/h (1 Bft) O-NO 66 ° 0 min 0,000 mm 0,0 UV-I 0 W/m² 5,4 °C 6,3 °C 1,6 km/h (1 Bft)
22.03.2017 18:08 6,2 °C 6,3 °C 94 % 1011,6 hPa 0,0 mm 0,1 km/h (0 Bft) O-NO 66 ° 0 min 0,000 mm 0,0 UV-I 0 W/m² 5,3 °C 6,2 °C 1,6 km/h (1 Bft)
22.03.2017 18:09 6,2 °C 6,2 °C 94 % 1011,6 hPa 0,0 mm 1,1 km/h (1 Bft) O-NO 66 ° 0 min 0,000 mm 0,0 UV-I 0 W/m² 5,3 °C 6,2 °C 3,2 km/h (1 Bft)
22.03.2017 18:10 6,2 °C 6,2 °C 94 % 1011,7 hPa 0,0 mm 2,0 km/h (1 Bft) O-NO 66 ° 0 min 0,000 mm 0,0 UV-I 0 W/m² 5,3 °C 6,2 °C 4,8 km/h (1 Bft)
22.03.2017 18:11 6,2 °C 6,3 °C 94 % 1011,6 hPa 0,0 mm 0,3 km/h (0 Bft) O-NO 66 ° 0 min 0,000 mm 0,0 UV-I 0 W/m² 5,3 °C 6,2 °C 1,6 km/h (1 Bft)
22.03.2017 18:12 6,2 °C 6,2 °C 94 % 1011,7 hPa 0,0 mm 0,6 km/h (0 Bft) O-NO 66 ° 0 min 0,000 mm 0,0 UV-I 0 W/m² 5,3 °C 6,2 °C 1,6 km/h (1 Bft)
22.03.2017 18:13 6,2 °C 6,2 °C 94 % 1011,7 hPa 0,0 mm 2,1 km/h (1 Bft) O-NO 66 ° 0 min 0,000 mm 0,0 UV-I 0 W/m² 5,3 °C 6,2 °C 3,2 km/h (1 Bft)
22.03.2017 18:14 6,2 °C 6,2 °C 94 % 1011,7 hPa 0,0 mm 2,4 km/h (1 Bft) O-NO 66 ° 0 min 0,000 mm 0,0 UV-I 0 W/m² 5,3 °C 6,2 °C 4,8 km/h (1 Bft)
22.03.2017 18:15 6,2 °C 6,2 °C 94 % 1011,7 hPa 0,0 mm 1,7 km/h (1 Bft) O-NO 66 ° 0 min 0,000 mm 0,0 UV-I 0 W/m² 5,3 °C 6,2 °C 3,2 km/h (1 Bft)
22.03.2017 18:16 6,2 °C 6,2 °C 94 % 1011,7 hPa 0,0 mm 2,2 km/h (1 Bft) O-NO 66 ° 0 min 0,000 mm 0,0 UV-I 0 W/m² 5,3 °C 6,2 °C 3,2 km/h (1 Bft)
22.03.2017 18:17 6,2 °C 6,2 °C 94 % 1011,7 hPa 0,0 mm 1,8 km/h (1 Bft) O-NO 66 ° 0 min 0,000 mm 0,0 UV-I 0 W/m² 5,3 °C 6,2 °C 3,2 km/h (1 Bft)
22.03.2017 18:18 6,2 °C 6,2 °C 94 % 1011,7 hPa 0,0 mm 2,2 km/h (1 Bft) O-NO 66 ° 0 min 0,000 mm 0,0 UV-I 0 W/m² 5,3 °C 6,2 °C 3,2 km/h (1 Bft)
22.03.2017 18:19 6,2 °C 6,2 °C 95 % 1011,6 hPa 0,0 mm 0,9 km/h (0 Bft) O-NO 66 ° 0 min 0,000 mm 0,0 UV-I 0 W/m² 5,5 °C 6,2 °C 1,6 km/h (1 Bft)
22.03.2017 18:20 6,2 °C 6,2 °C 95 % 1011,7 hPa 0,0 mm 1,5 km/h (1 Bft) O-NO 66 ° 0 min 0,000 mm 0,0 UV-I 0 W/m² 5,5 °C 6,2 °C 3,2 km/h (1 Bft)
22.03.2017 18:21 6,2 °C 6,2 °C 95 % 1011,6 hPa 0,0 mm 1,7 km/h (1 Bft) O-NO 66 ° 0 min 0,000 mm 0,0 UV-I 0 W/m² 5,5 °C 6,2 °C 3,2 km/h (1 Bft)
22.03.2017 18:22 6,1 °C 6,2 °C 94 % 1011,7 hPa 0,0 mm 2,2 km/h (1 Bft) O-NO 66 ° 0 min 0,000 mm 0,0 UV-I 0 W/m² 5,2 °C 6,1 °C 3,2 km/h (1 Bft)
22.03.2017 18:23 6,2 °C 6,2 °C 94 % 1011,6 hPa 0,0 mm 2,6 km/h (1 Bft) O-NO 66 ° 0 min 0,000 mm 0,0 UV-I 0 W/m² 5,3 °C 6,2 °C 3,2 km/h (1 Bft)
22.03.2017 18:24 6,1 °C 6,2 °C 94 % 1011,6 hPa 0,0 mm 2,0 km/h (1 Bft) O-NO 66 ° 0 min 0,000 mm 0,0 UV-I 0 W/m² 5,2 °C 6,1 °C 3,2 km/h (1 Bft)
22.03.2017 18:25 6,1 °C 6,2 °C 95 % 1011,7 hPa 0,0 mm 2,1 km/h (1 Bft) O-NO 66 ° 0 min 0,000 mm 0,0 UV-I 0 W/m² 5,4 °C 6,1 °C 3,2 km/h (1 Bft)
22.03.2017 18:26 6,1 °C 6,2 °C 95 % 1011,6 hPa 0,0 mm 2,2 km/h (1 Bft) O-NO 66 ° 0 min 0,000 mm 0,0 UV-I 0 W/m² 5,4 °C 6,1 °C 3,2 km/h (1 Bft)
22.03.2017 18:27 6,2 °C 6,2 °C 95 % 1011,6 hPa 0,0 mm 3,2 km/h (1 Bft) O-NO 66 ° 0 min 0,000 mm 0,0 UV-I 0 W/m² 5,5 °C 6,2 °C 4,8 km/h (1 Bft)
22.03.2017 18:28 6,1 °C 6,2 °C 95 % 1011,5 hPa 0,0 mm 4,2 km/h (1 Bft) O-NO 66 ° 0 min 0,000 mm 0,0 UV-I 0 W/m² 5,4 °C 6,1 °C 6,4 km/h (2 Bft)
22.03.2017 18:29 6,1 °C 6,2 °C 95 % 1011,5 hPa 0,0 mm 3,6 km/h (1 Bft) O-NO 66 ° 0 min 0,000 mm 0,0 UV-I 0 W/m² 5,4 °C 6,1 °C 4,8 km/h (1 Bft)
22.03.2017 18:30 6,1 °C 6,1 °C 95 % 1011,5 hPa 0,0 mm 5,2 km/h (1 Bft) NO 42 ° 0 min 0,000 mm 0,0 UV-I 0 W/m² 5,4 °C 5,3 °C 6,4 km/h (2 Bft)
22.03.2017 18:31 6,2 °C 6,2 °C 95 % 1011,5 hPa 0,0 mm 4,1 km/h (1 Bft) NO 42 ° 0 min 0,000 mm 0,0 UV-I 0 W/m² 5,5 °C 6,2 °C 6,4 km/h (2 Bft)
22.03.2017 18:32 6,1 °C 6,2 °C 95 % 1011,5 hPa 0,0 mm 2,5 km/h (1 Bft) NO 42 ° 0 min 0,000 mm 0,0 UV-I 0 W/m² 5,4 °C 6,1 °C 4,8 km/h (1 Bft)
22.03.2017 18:33 6,1 °C 6,2 °C 95 % 1011,5 hPa 0,0 mm 4,7 km/h (1 Bft) O 79 ° 0 min 0,000 mm 0,0 UV-I 0 W/m² 5,4 °C 5,4 °C 6,4 km/h (2 Bft)
22.03.2017 18:34 6,1 °C 6,1 °C 95 % 1011,5 hPa 0,0 mm 4,8 km/h (1 Bft) O-NO 61 ° 0 min 0,000 mm 0,0 UV-I 0 W/m² 5,4 °C 5,4 °C 6,4 km/h (2 Bft)
22.03.2017 18:35 6,1 °C 6,1 °C 95 % 1011,5 hPa 0,0 mm 3,5 km/h (1 Bft) O-NO 61 ° 0 min 0,000 mm 0,0 UV-I 0 W/m² 5,4 °C 6,1 °C 4,8 km/h (1 Bft)
22.03.2017 18:36 6,1 °C 6,1 °C 95 % 1011,5 hPa 0,0 mm 2,0 km/h (1 Bft) O-NO 61 ° 0 min 0,000 mm 0,0 UV-I 0 W/m² 5,4 °C 6,1 °C 3,2 km/h (1 Bft)
22.03.2017 18:37 6,1 °C 6,1 °C 95 % 1011,4 hPa 0,0 mm 3,9 km/h (1 Bft) O-NO 66 ° 0 min 0,000 mm 0,0 UV-I 0 W/m² 5,4 °C 6,1 °C 4,8 km/h (1 Bft)
22.03.2017 18:38 6,1 °C 6,1 °C 95 % 1011,4 hPa 0,0 mm 4,4 km/h (1 Bft) O-NO 66 ° 0 min 0,000 mm 0,0 UV-I 0 W/m² 5,4 °C 6,1 °C 4,8 km/h (1 Bft)
22.03.2017 18:39 6,1 °C 6,1 °C 95 % 1011,5 hPa 0,0 mm 3,4 km/h (1 Bft) O-NO 66 ° 0 min 0,000 mm 0,0 UV-I 0 W/m² 5,4 °C 6,1 °C 4,8 km/h (1 Bft)
22.03.2017 18:40 6,1 °C 6,1 °C 95 % 1011,5 hPa 0,0 mm 2,1 km/h (1 Bft) O-NO 66 ° 0 min 0,000 mm 0,0 UV-I 0 W/m² 5,4 °C 6,1 °C 4,8 km/h (1 Bft)
22.03.2017 18:41 6,1 °C 6,1 °C 95 % 1011,4 hPa 0,0 mm 2,7 km/h (1 Bft) O-NO 66 ° 0 min 0,000 mm 0,0 UV-I 0 W/m² 5,4 °C 6,1 °C 4,8 km/h (1 Bft)
22.03.2017 18:42 6,1 °C 6,1 °C 95 % 1011,4 hPa 0,0 mm 2,0 km/h (1 Bft) O-NO 66 ° 0 min 0,000 mm 0,0 UV-I 0 W/m² 5,4 °C 6,1 °C 4,8 km/h (1 Bft)
22.03.2017 18:43 6,1 °C 6,1 °C 95 % 1011,4 hPa 0,0 mm 2,7 km/h (1 Bft) O-NO 66 ° 0 min 0,000 mm 0,0 UV-I 0 W/m² 5,4 °C 6,1 °C 3,2 km/h (1 Bft)
22.03.2017 18:44 6,1 °C 6,1 °C 95 % 1011,4 hPa 0,0 mm 2,3 km/h (1 Bft) O-NO 66 ° 0 min 0,000 mm 0,0 UV-I 0 W/m² 5,4 °C 6,1 °C 4,8 km/h (1 Bft)
22.03.2017 18:45 6,1 °C 6,1 °C 95 % 1011,4 hPa 0,0 mm 3,4 km/h (1 Bft) O-NO 66 ° 0 min 0,000 mm 0,0 UV-I 0 W/m² 5,4 °C 6,1 °C 4,8 km/h (1 Bft)
22.03.2017 18:46 6,1 °C 6,1 °C 95 % 1011,4 hPa 0,0 mm 2,2 km/h (1 Bft) O-NO 66 ° 0 min 0,000 mm 0,0 UV-I 0 W/m² 5,4 °C 6,1 °C 3,2 km/h (1 Bft)
22.03.2017 18:47 6,1 °C 6,1 °C 95 % 1011,5 hPa 0,0 mm 3,0 km/h (1 Bft) O-NO 66 ° 0 min 0,000 mm 0,0 UV-I 0 W/m² 5,4 °C 6,1 °C 4,8 km/h (1 Bft)
22.03.2017 18:48 6,1 °C 6,1 °C 95 % 1011,4 hPa 0,0 mm 3,3 km/h (1 Bft) O-NO 66 ° 0 min 0,000 mm 0,0 UV-I 0 W/m² 5,4 °C 6,1 °C 4,8 km/h (1 Bft)
22.03.2017 18:49 6,1 °C 6,1 °C 95 % 1011,4 hPa 0,0 mm 3,8 km/h (1 Bft) O-NO 74 ° 0 min 0,000 mm 0,0 UV-I 0 W/m² 5,4 °C 6,1 °C 8,0 km/h (2 Bft)
22.03.2017 18:50 6,1 °C 6,1 °C 95 % 1011,4 hPa 0,0 mm 3,0 km/h (1 Bft) O-NO 74 ° 0 min 0,000 mm 0,0 UV-I 0 W/m² 5,4 °C 6,1 °C 4,8 km/h (1 Bft)
22.03.2017 18:51 6,1 °C 6,1 °C 95 % 1011,4 hPa 0,0 mm 4,1 km/h (1 Bft) O-NO 69 ° 0 min 0,000 mm 0,0 UV-I 0 W/m² 5,4 °C 6,1 °C 6,4 km/h (2 Bft)
22.03.2017 18:52 6,1 °C 6,1 °C 95 % 1011,4 hPa 0,0 mm 3,9 km/h (1 Bft) O-NO 69 ° 0 min 0,000 mm 0,0 UV-I 0 W/m² 5,4 °C 6,1 °C 6,4 km/h (2 Bft)
22.03.2017 18:53 6,1 °C 6,1 °C 95 % 1011,4 hPa 0,0 mm 2,1 km/h (1 Bft) O-NO 69 ° 0 min 0,000 mm 0,0 UV-I 0 W/m² 5,4 °C 6,1 °C 4,8 km/h (1 Bft)
22.03.2017 18:54 6,1 °C 6,1 °C 95 % 1011,4 hPa 0,0 mm 0,1 km/h (0 Bft) O-NO 69 ° 0 min 0,000 mm 0,0 UV-I 0 W/m² 5,4 °C 6,1 °C 1,6 km/h (1 Bft)
22.03.2017 18:55 6,1 °C 6,1 °C 95 % 1011,5 hPa 0,0 mm 0,2 km/h (0 Bft) O-NO 69 ° 0 min 0,000 mm 0,0 UV-I 0 W/m² 5,4 °C 6,1 °C 1,6 km/h (1 Bft)
22.03.2017 18:56 6,1 °C 6,1 °C 95 % 1011,5 hPa 0,0 mm 1,1 km/h (1 Bft) O-NO 69 ° 0 min 0,000 mm 0,0 UV-I 0 W/m² 5,4 °C 6,1 °C 3,2 km/h (1 Bft)
22.03.2017 18:57 6,1 °C 6,1 °C 95 % 1011,4 hPa 0,0 mm 2,3 km/h (1 Bft) O-NO 69 ° 0 min 0,000 mm 0,0 UV-I 0 W/m² 5,4 °C 6,1 °C 3,2 km/h (1 Bft)
22.03.2017 18:58 6,1 °C 6,1 °C 95 % 1011,5 hPa 0,0 mm 2,0 km/h (1 Bft) O-NO 69 ° 0 min 0,000 mm 0,0 UV-I 0 W/m² 5,4 °C 6,1 °C 3,2 km/h (1 Bft)
22.03.2017 18:59 6,1 °C 6,1 °C 95 % 1011,5 hPa 0,0 mm 3,0 km/h (1 Bft) O-NO 69 ° 0 min 0,000 mm 0,0 UV-I 0 W/m² 5,4 °C 6,1 °C 4,8 km/h (1 Bft)
22.03.2017 19:00 6,1 °C 6,1 °C 95 % 1011,4 hPa 0,0 mm 2,5 km/h (1 Bft) O-NO 69 ° 0 min 0,000 mm 0,0 UV-I 0 W/m² 5,4 °C 6,1 °C 4,8 km/h (1 Bft)
22.03.2017 19:01 6,1 °C 6,1 °C 95 % 1011,5 hPa 0,0 mm 2,2 km/h (1 Bft) O-NO 69 ° 0 min 0,000 mm 0,0 UV-I 0 W/m² 5,4 °C 6,1 °C 3,2 km/h (1 Bft)
22.03.2017 19:02 6,1 °C 6,1 °C 95 % 1011,5 hPa 0,0 mm 2,2 km/h (1 Bft) O-NO 69 ° 0 min 0,000 mm 0,0 UV-I 0 W/m² 5,4 °C 6,1 °C 3,2 km/h (1 Bft)
22.03.2017 19:03 6,1 °C 6,1 °C 95 % 1011,5 hPa 0,0 mm 1,7 km/h (1 Bft) O-NO 69 ° 0 min 0,000 mm 0,0 UV-I 0 W/m² 5,4 °C 6,1 °C 3,2 km/h (1 Bft)
22.03.2017 19:05 6,1 °C 6,1 °C 95 % 1011,4 hPa 0,0 mm 3,8 km/h (1 Bft) O 80 ° 0 min 0,000 mm 0,0 UV-I 0 W/m² 5,4 °C 6,1 °C 6,4 km/h (2 Bft)
22.03.2017 19:06 6,1 °C 6,1 °C 95 % 1011,4 hPa 0,0 mm 3,0 km/h (1 Bft) O 80 ° 0 min 0,000 mm 0,0 UV-I 0 W/m² 5,4 °C 6,1 °C 3,2 km/h (1 Bft)
22.03.2017 19:07 6,1 °C 6,1 °C 95 % 1011,5 hPa 0,0 mm 3,0 km/h (1 Bft) O 80 ° 0 min 0,000 mm 0,0 UV-I 0 W/m² 5,4 °C 6,1 °C 4,8 km/h (1 Bft)
22.03.2017 19:08 6,1 °C 6,1 °C 95 % 1011,5 hPa 0,0 mm 3,4 km/h (1 Bft) O 79 ° 0 min 0,000 mm 0,0 UV-I 0 W/m² 5,4 °C 6,1 °C 4,8 km/h (1 Bft)
22.03.2017 19:09 6,1 °C 6,1 °C 95 % 1011,4 hPa 0,0 mm 3,6 km/h (1 Bft) O-NO 61 ° 0 min 0,000 mm 0,0 UV-I 0 W/m² 5,4 °C 6,1 °C 6,4 km/h (2 Bft)
22.03.2017 19:10 6,1 °C 6,1 °C 95 % 1011,4 hPa 0,0 mm 3,7 km/h (1 Bft) O-NO 61 ° 0 min 0,000 mm 0,0 UV-I 0 W/m² 5,4 °C 6,1 °C 6,4 km/h (2 Bft)
22.03.2017 19:11 6,1 °C 6,1 °C 95 % 1011,5 hPa 0,0 mm 3,3 km/h (1 Bft) O-NO 61 ° 0 min 0,000 mm 0,0 UV-I 0 W/m² 5,4 °C 6,1 °C 4,8 km/h (1 Bft)
22.03.2017 19:12 6,1 °C 6,1 °C 95 % 1011,4 hPa 0,0 mm 5,6 km/h (1 Bft) O-NO 61 ° 0 min 0,000 mm 0,0 UV-I 0 W/m² 5,4 °C 5,1 °C 8,0 km/h (2 Bft)
22.03.2017 19:13 6,1 °C 6,1 °C 95 % 1011,4 hPa 0,0 mm 3,7 km/h (1 Bft) O-NO 61 ° 0 min 0,000 mm 0,0 UV-I 0 W/m² 5,4 °C 6,1 °C 6,4 km/h (2 Bft)
22.03.2017 19:14 6,1 °C 6,1 °C 95 % 1011,4 hPa 0,0 mm 2,2 km/h (1 Bft) O-NO 61 ° 0 min 0,000 mm 0,0 UV-I 0 W/m² 5,4 °C 6,1 °C 3,2 km/h (1 Bft)
22.03.2017 19:15 6,1 °C 6,1 °C 95 % 1011,4 hPa 0,0 mm 2,1 km/h (1 Bft) O-NO 61 ° 0 min 0,000 mm 0,0 UV-I 0 W/m² 5,4 °C 6,1 °C 3,2 km/h (1 Bft)
22.03.2017 19:16 6,1 °C 6,1 °C 95 % 1011,4 hPa 0,0 mm 2,4 km/h (1 Bft) O-NO 61 ° 0 min 0,000 mm 0,0 UV-I 0 W/m² 5,4 °C 6,1 °C 3,2 km/h (1 Bft)
22.03.2017 19:17 6,0 °C 6,1 °C 95 % 1011,4 hPa 0,0 mm 4,2 km/h (1 Bft) O-NO 61 ° 0 min 0,000 mm 0,0 UV-I 0 W/m² 5,3 °C 6,0 °C 6,4 km/h (2 Bft)
22.03.2017 19:18 6,1 °C 6,1 °C 95 % 1011,4 hPa 0,0 mm 2,9 km/h (1 Bft) O-NO 61 ° 0 min 0,000 mm 0,0 UV-I 0 W/m² 5,4 °C 6,1 °C 4,8 km/h (1 Bft)
22.03.2017 19:19 6,0 °C 6,1 °C 95 % 1011,4 hPa 0,0 mm 1,7 km/h (1 Bft) O-NO 61 ° 0 min 0,000 mm 0,0 UV-I 0 W/m² 5,3 °C 6,0 °C 4,8 km/h (1 Bft)
22.03.2017 19:20 6,0 °C 6,1 °C 95 % 1011,4 hPa 0,0 mm 3,6 km/h (1 Bft) O-NO 61 ° 0 min 0,000 mm 0,0 UV-I 0 W/m² 5,3 °C 6,0 °C 4,8 km/h (1 Bft)
22.03.2017 19:21 6,0 °C 6,1 °C 95 % 1011,3 hPa 0,0 mm 1,5 km/h (1 Bft) O-NO 61 ° 0 min 0,000 mm 0,0 UV-I 0 W/m² 5,3 °C 6,0 °C 3,2 km/h (1 Bft)
22.03.2017 19:22 6,0 °C 6,1 °C 95 % 1011,4 hPa 0,0 mm 2,5 km/h (1 Bft) O-NO 61 ° 0 min 0,000 mm 0,0 UV-I 0 W/m² 5,3 °C 6,0 °C 4,8 km/h (1 Bft)
22.03.2017 19:23 6,0 °C 6,0 °C 95 % 1011,3 hPa 0,0 mm 4,0 km/h (1 Bft) O-NO 61 ° 0 min 0,000 mm 0,0 UV-I 0 W/m² 5,3 °C 6,0 °C 6,4 km/h (2 Bft)
22.03.2017 19:24 6,0 °C 6,1 °C 95 % 1011,3 hPa 0,0 mm 3,4 km/h (1 Bft) O-NO 61 ° 0 min 0,000 mm 0,0 UV-I 0 W/m² 5,3 °C 6,0 °C 6,4 km/h (2 Bft)
22.03.2017 19:25 6,0 °C 6,1 °C 95 % 1011,3 hPa 0,0 mm 3,1 km/h (1 Bft) O-NO 61 ° 0 min 0,000 mm 0,0 UV-I 0 W/m² 5,3 °C 6,0 °C 4,8 km/h (1 Bft)
22.03.2017 19:26 6,1 °C 6,1 °C 95 % 1011,4 hPa 0,0 mm 2,9 km/h (1 Bft) O-NO 61 ° 0 min 0,000 mm 0,0 UV-I 0 W/m² 5,4 °C 6,1 °C 3,2 km/h (1 Bft)
22.03.2017 19:27 6,1 °C 6,1 °C 96 % 1011,3 hPa 0,0 mm 2,5 km/h (1 Bft) O-NO 61 ° 0 min 0,000 mm 0,0 UV-I 0 W/m² 5,5 °C 6,1 °C 3,2 km/h (1 Bft)
22.03.2017 19:28 6,1 °C 6,1 °C 96 % 1011,4 hPa 0,0 mm 3,3 km/h (1 Bft) O-NO 61 ° 0 min 0,000 mm 0,0 UV-I 0 W/m² 5,5 °C 6,1 °C 6,4 km/h (2 Bft)
22.03.2017 19:29 6,1 °C 6,1 °C 96 % 1011,4 hPa 0,0 mm 4,0 km/h (1 Bft) O-NO 61 ° 0 min 0,000 mm 0,0 UV-I 0 W/m² 5,5 °C 6,1 °C 4,8 km/h (1 Bft)
22.03.2017 19:30 6,1 °C 6,1 °C 96 % 1011,3 hPa 0,0 mm 2,9 km/h (1 Bft) O-NO 61 ° 0 min 0,000 mm 0,0 UV-I 0 W/m² 5,5 °C 6,1 °C 4,8 km/h (1 Bft)
22.03.2017 19:31 6,1 °C 6,1 °C 96 % 1011,4 hPa 0,0 mm 1,0 km/h (0 Bft) O-NO 61 ° 0 min 0,000 mm 0,0 UV-I 0 W/m² 5,5 °C 6,1 °C 3,2 km/h (1 Bft)
22.03.2017 19:32 6,1 °C 6,1 °C 96 % 1011,3 hPa 0,0 mm 2,3 km/h (1 Bft) O-NO 61 ° 0 min 0,000 mm 0,0 UV-I 0 W/m² 5,5 °C 6,1 °C 3,2 km/h (1 Bft)
22.03.2017 19:33 6,1 °C 6,1 °C 96 % 1011,4 hPa 0,0 mm 3,6 km/h (1 Bft) O-NO 62 ° 0 min 0,000 mm 0,0 UV-I 0 W/m² 5,5 °C 6,1 °C 4,8 km/h (1 Bft)
22.03.2017 19:34 6,0 °C 6,1 °C 96 % 1011,4 hPa 0,0 mm 3,8 km/h (1 Bft) O 79 ° 0 min 0,000 mm 0,0 UV-I 0 W/m² 5,4 °C 6,0 °C 4,8 km/h (1 Bft)
22.03.2017 19:35 6,0 °C 6,0 °C 96 % 1011,4 hPa 0,0 mm 4,2 km/h (1 Bft) O-NO 65 ° 0 min 0,000 mm 0,0 UV-I 0 W/m² 5,4 °C 6,0 °C 6,4 km/h (2 Bft)
22.03.2017 19:36 6,0 °C 6,0 °C 96 % 1011,3 hPa 0,0 mm 5,7 km/h (1 Bft) O 96 ° 0 min 0,000 mm 0,0 UV-I 0 W/m² 5,4 °C 5,0 °C 11,3 km/h (2 Bft)
22.03.2017 19:37 6,0 °C 6,0 °C 96 % 1011,3 hPa 0,0 mm 4,5 km/h (1 Bft) O-NO 78 ° 0 min 0,000 mm 0,0 UV-I 0 W/m² 5,4 °C 6,0 °C 4,8 km/h (1 Bft)
22.03.2017 19:38 5,9 °C 6,0 °C 96 % 1011,3 hPa 0,0 mm 4,0 km/h (1 Bft) O-NO 66 ° 0 min 0,000 mm 0,0 UV-I 0 W/m² 5,3 °C 5,9 °C 6,4 km/h (2 Bft)
22.03.2017 19:39 6,0 °C 6,0 °C 96 % 1011,3 hPa 0,0 mm 5,1 km/h (1 Bft) O-NO 74 ° 0 min 0,000 mm 0,0 UV-I 0 W/m² 5,4 °C 5,2 °C 8,0 km/h (2 Bft)
22.03.2017 19:40 5,9 °C 6,0 °C 96 % 1011,3 hPa 0,0 mm 1,9 km/h (1 Bft) O-NO 74 ° 0 min 0,000 mm 0,0 UV-I 0 W/m² 5,3 °C 5,9 °C 3,2 km/h (1 Bft)
22.03.2017 19:41 6,0 °C 6,0 °C 96 % 1011,3 hPa 0,0 mm 4,1 km/h (1 Bft) O-NO 67 ° 0 min 0,000 mm 0,0 UV-I 0 W/m² 5,4 °C 6,0 °C 6,4 km/h (2 Bft)
22.03.2017 19:42 6,0 °C 6,0 °C 96 % 1011,3 hPa 0,0 mm 4,6 km/h (1 Bft) O-NO 67 ° 0 min 0,000 mm 0,0 UV-I 0 W/m² 5,4 °C 5,4 °C 6,4 km/h (2 Bft)
22.03.2017 19:43 6,0 °C 6,0 °C 96 % 1011,3 hPa 0,0 mm 3,1 km/h (1 Bft) O 79 ° 0 min 0,000 mm 0,0 UV-I 0 W/m² 5,4 °C 6,0 °C 8,0 km/h (2 Bft)
22.03.2017 19:44 5,9 °C 6,0 °C 96 % 1011,3 hPa 0,0 mm 5,4 km/h (1 Bft) O-NO 67 ° 0 min 0,000 mm 0,0 UV-I 0 W/m² 5,3 °C 5,0 °C 12,9 km/h (3 Bft)
22.03.2017 19:45 5,9 °C 6,0 °C 96 % 1011,3 hPa 0,0 mm 4,8 km/h (1 Bft) NO 44 ° 0 min 0,000 mm 0,0 UV-I 0 W/m² 5,3 °C 5,2 °C 6,4 km/h (2 Bft)
22.03.2017 19:46 5,9 °C 6,0 °C 96 % 1011,3 hPa 0,0 mm 6,5 km/h (2 Bft) O-NO 71 ° 0 min 0,000 mm 0,0 UV-I 0 W/m² 5,3 °C 4,6 °C 8,0 km/h (2 Bft)
22.03.2017 19:47 5,9 °C 5,9 °C 96 % 1011,3 hPa 0,0 mm 4,2 km/h (1 Bft) O 87 ° 0 min 0,000 mm 0,0 UV-I 0 W/m² 5,3 °C 5,9 °C 8,0 km/h (2 Bft)
22.03.2017 19:48 5,9 °C 5,9 °C 96 % 1011,3 hPa 0,0 mm 4,1 km/h (1 Bft) O-NO 69 ° 0 min 0,000 mm 0,0 UV-I 0 W/m² 5,3 °C 5,9 °C 4,8 km/h (1 Bft)
22.03.2017 19:49 5,9 °C 5,9 °C 96 % 1011,3 hPa 0,0 mm 5,9 km/h (2 Bft) O-NO 78 ° 0 min 0,000 mm 0,0 UV-I 0 W/m² 5,3 °C 4,8 °C 9,7 km/h (2 Bft)
22.03.2017 19:50 5,9 °C 5,9 °C 96 % 1011,3 hPa 0,0 mm 5,4 km/h (1 Bft) O-NO 71 ° 0 min 0,000 mm 0,0 UV-I 0 W/m² 5,3 °C 5,0 °C 8,0 km/h (2 Bft)
22.03.2017 19:51 5,9 °C 5,9 °C 96 % 1011,2 hPa 0,0 mm 5,6 km/h (1 Bft) O-NO 64 ° 0 min 0,000 mm 0,0 UV-I 0 W/m² 5,3 °C 4,9 °C 8,0 km/h (2 Bft)
22.03.2017 19:52 5,9 °C 5,9 °C 96 % 1011,2 hPa 0,0 mm 4,0 km/h (1 Bft) O-NO 64 ° 0 min 0,000 mm 0,0 UV-I 0 W/m² 5,3 °C 5,9 °C 6,4 km/h (2 Bft)
22.03.2017 19:53 5,9 °C 5,9 °C 96 % 1011,2 hPa 0,0 mm 3,5 km/h (1 Bft) O-NO 64 ° 0 min 0,000 mm 0,0 UV-I 0 W/m² 5,3 °C 5,9 °C 4,8 km/h (1 Bft)
22.03.2017 19:54 5,9 °C 5,9 °C 96 % 1011,2 hPa 0,0 mm 4,5 km/h (1 Bft) O-NO 64 ° 0 min 0,000 mm 0,0 UV-I 0 W/m² 5,3 °C 5,9 °C 6,4 km/h (2 Bft)
22.03.2017 19:55 5,9 °C 5,9 °C 96 % 1011,2 hPa 0,0 mm 2,5 km/h (1 Bft) O-NO 64 ° 0 min 0,000 mm 0,0 UV-I 0 W/m² 5,3 °C 5,9 °C 4,8 km/h (1 Bft)
22.03.2017 19:56 5,9 °C 5,9 °C 96 % 1011,2 hPa 0,0 mm 2,3 km/h (1 Bft) O-NO 64 ° 0 min 0,000 mm 0,0 UV-I 0 W/m² 5,3 °C 5,9 °C 4,8 km/h (1 Bft)
22.03.2017 19:57 5,9 °C 5,9 °C 96 % 1011,2 hPa 0,0 mm 2,7 km/h (1 Bft) O-NO 64 ° 0 min 0,000 mm 0,0 UV-I 0 W/m² 5,3 °C 5,9 °C 4,8 km/h (1 Bft)
22.03.2017 19:58 5,9 °C 5,9 °C 96 % 1011,3 hPa 0,0 mm 4,0 km/h (1 Bft) O-NO 64 ° 0 min 0,000 mm 0,0 UV-I 0 W/m² 5,3 °C 5,9 °C 6,4 km/h (2 Bft)
22.03.2017 19:59 5,9 °C 5,9 °C 96 % 1011,2 hPa 0,0 mm 3,2 km/h (1 Bft) O-NO 64 ° 0 min 0,000 mm 0,0 UV-I 0 W/m² 5,3 °C 5,9 °C 4,8 km/h (1 Bft)
22.03.2017 20:00 5,9 °C 5,9 °C 96 % 1011,2 hPa 0,0 mm 3,7 km/h (1 Bft) O-NO 64 ° 0 min 0,000 mm 0,0 UV-I 0 W/m² 5,3 °C 5,9 °C 4,8 km/h (1 Bft)
22.03.2017 20:01 5,9 °C 5,9 °C 96 % 1011,2 hPa 0,0 mm 2,6 km/h (1 Bft) NO 40 ° 0 min 0,000 mm 0,0 UV-I 0 W/m² 5,3 °C 5,9 °C 4,8 km/h (1 Bft)
22.03.2017 20:02 5,9 °C 5,9 °C 96 % 1011,2 hPa 0,0 mm 2,5 km/h (1 Bft) NO 40 ° 0 min 0,000 mm 0,0 UV-I 0 W/m² 5,3 °C 5,9 °C 4,8 km/h (1 Bft)
22.03.2017 20:03 5,9 °C 5,9 °C 96 % 1011,2 hPa 0,0 mm 2,6 km/h (1 Bft) NO 40 ° 0 min 0,000 mm 0,0 UV-I 0 W/m² 5,3 °C 5,9 °C 4,8 km/h (1 Bft)
22.03.2017 20:04 5,9 °C 5,9 °C 96 % 1011,2 hPa 0,0 mm 4,0 km/h (1 Bft) O-NO 61 ° 0 min 0,000 mm 0,0 UV-I 0 W/m² 5,3 °C 5,9 °C 4,8 km/h (1 Bft)
22.03.2017 20:05 5,9 °C 5,9 °C 96 % 1011,2 hPa 0,0 mm 6,0 km/h (2 Bft) O-NO 65 ° 0 min 0,000 mm 0,0 UV-I 0 W/m² 5,3 °C 4,8 °C 8,0 km/h (2 Bft)
22.03.2017 20:06 5,9 °C 5,9 °C 96 % 1011,2 hPa 0,0 mm 3,4 km/h (1 Bft) O-NO 65 ° 0 min 0,000 mm 0,0 UV-I 0 W/m² 5,3 °C 5,9 °C 4,8 km/h (1 Bft)
22.03.2017 20:07 5,9 °C 5,9 °C 96 % 1011,3 hPa 0,0 mm 2,3 km/h (1 Bft) O-NO 65 ° 0 min 0,000 mm 0,0 UV-I 0 W/m² 5,3 °C 5,9 °C 3,2 km/h (1 Bft)
22.03.2017 20:08 5,9 °C 5,9 °C 96 % 1011,3 hPa 0,0 mm 2,2 km/h (1 Bft) O-NO 64 ° 0 min 0,000 mm 0,0 UV-I 0 W/m² 5,3 °C 5,9 °C 3,2 km/h (1 Bft)
22.03.2017 20:09 5,9 °C 5,9 °C 96 % 1011,2 hPa 0,0 mm 2,2 km/h (1 Bft) O-NO 64 ° 0 min 0,000 mm 0,0 UV-I 0 W/m² 5,3 °C 5,9 °C 3,2 km/h (1 Bft)
22.03.2017 20:10 5,9 °C 5,9 °C 96 % 1011,2 hPa 0,0 mm 4,8 km/h (1 Bft) O-NO 65 ° 0 min 0,000 mm 0,0 UV-I 0 W/m² 5,3 °C 5,2 °C 8,0 km/h (2 Bft)
22.03.2017 20:11 6,0 °C 6,0 °C 96 % 1011,2 hPa 0,0 mm 3,4 km/h (1 Bft) O-NO 65 ° 0 min 0,000 mm 0,0 UV-I 0 W/m² 5,4 °C 6,0 °C 4,8 km/h (1 Bft)
22.03.2017 20:12 5,9 °C 6,0 °C 96 % 1011,2 hPa 0,0 mm 1,6 km/h (1 Bft) O-NO 65 ° 0 min 0,000 mm 0,0 UV-I 0 W/m² 5,3 °C 5,9 °C 3,2 km/h (1 Bft)
22.03.2017 20:13 5,9 °C 5,9 °C 96 % 1011,2 hPa 0,0 mm 4,2 km/h (1 Bft) NO 48 ° 0 min 0,000 mm 0,0 UV-I 0 W/m² 5,3 °C 5,9 °C 6,4 km/h (2 Bft)
22.03.2017 20:14 5,9 °C 5,9 °C 96 % 1011,3 hPa 0,0 mm 5,5 km/h (1 Bft) NO 52 ° 0 min 0,000 mm 0,0 UV-I 0 W/m² 5,3 °C 4,9 °C 8,0 km/h (2 Bft)
22.03.2017 20:15 5,9 °C 5,9 °C 96 % 1011,2 hPa 0,0 mm 4,7 km/h (1 Bft) O-NO 68 ° 0 min 0,000 mm 0,0 UV-I 0 W/m² 5,3 °C 5,2 °C 6,4 km/h (2 Bft)
22.03.2017 20:16 5,9 °C 5,9 °C 96 % 1011,2 hPa 0,0 mm 5,3 km/h (1 Bft) O-NO 67 ° 0 min 0,000 mm 0,0 UV-I 0 W/m² 5,3 °C 5,0 °C 6,4 km/h (2 Bft)
22.03.2017 20:17 5,9 °C 5,9 °C 96 % 1011,2 hPa 0,0 mm 4,2 km/h (1 Bft) O-NO 67 ° 0 min 0,000 mm 0,0 UV-I 0 W/m² 5,3 °C 5,9 °C 6,4 km/h (2 Bft)
22.03.2017 20:18 5,9 °C 5,9 °C 96 % 1011,3 hPa 0,0 mm 2,1 km/h (1 Bft) O-NO 67 ° 0 min 0,000 mm 0,0 UV-I 0 W/m² 5,3 °C 5,9 °C 3,2 km/h (1 Bft)
22.03.2017 20:19 5,9 °C 5,9 °C 96 % 1011,2 hPa 0,0 mm 3,9 km/h (1 Bft) O-NO 65 ° 0 min 0,000 mm 0,0 UV-I 0 W/m² 5,3 °C 5,9 °C 4,8 km/h (1 Bft)
22.03.2017 20:20 5,9 °C 5,9 °C 96 % 1011,2 hPa 0,0 mm 2,6 km/h (1 Bft) O-NO 65 ° 0 min 0,000 mm 0,0 UV-I 0 W/m² 5,3 °C 5,9 °C 3,2 km/h (1 Bft)
22.03.2017 20:21 5,9 °C 5,9 °C 96 % 1011,2 hPa 0,0 mm 3,0 km/h (1 Bft) NO 47 ° 0 min 0,000 mm 0,0 UV-I 0 W/m² 5,3 °C 5,9 °C 4,8 km/h (1 Bft)
22.03.2017 20:22 5,9 °C 5,9 °C 96 % 1011,3 hPa 0,0 mm 5,4 km/h (1 Bft) O-NO 65 ° 0 min 0,000 mm 0,0 UV-I 0 W/m² 5,3 °C 5,0 °C 8,0 km/h (2 Bft)
22.03.2017 20:23 5,9 °C 5,9 °C 96 % 1011,3 hPa 0,0 mm 3,2 km/h (1 Bft) O-NO 57 ° 0 min 0,000 mm 0,0 UV-I 0 W/m² 5,3 °C 5,9 °C 4,8 km/h (1 Bft)
22.03.2017 20:24 5,9 °C 5,9 °C 96 % 1011,2 hPa 0,0 mm 3,2 km/h (1 Bft) O-NO 57 ° 0 min 0,000 mm 0,0 UV-I 0 W/m² 5,3 °C 5,9 °C 6,4 km/h (2 Bft)
22.03.2017 20:25 5,9 °C 5,9 °C 96 % 1011,3 hPa 0,0 mm 3,8 km/h (1 Bft) O-NO 61 ° 0 min 0,000 mm 0,0 UV-I 0 W/m² 5,3 °C 5,9 °C 6,4 km/h (2 Bft)
22.03.2017 20:26 5,8 °C 5,9 °C 96 % 1011,2 hPa 0,0 mm 3,7 km/h (1 Bft) O-NO 61 ° 0 min 0,000 mm 0,0 UV-I 0 W/m² 5,2 °C 5,8 °C 4,8 km/h (1 Bft)
22.03.2017 20:27 5,8 °C 5,9 °C 96 % 1011,3 hPa 0,0 mm 2,6 km/h (1 Bft) O-NO 61 ° 0 min 0,000 mm 0,0 UV-I 0 W/m² 5,2 °C 5,8 °C 4,8 km/h (1 Bft)
22.03.2017 20:28 5,8 °C 5,8 °C 96 % 1011,3 hPa 0,0 mm 2,3 km/h (1 Bft) O-NO 78 ° 0 min 0,000 mm 0,0 UV-I 0 W/m² 5,2 °C 5,8 °C 4,8 km/h (1 Bft)
22.03.2017 20:29 5,8 °C 5,9 °C 96 % 1011,3 hPa 0,0 mm 3,4 km/h (1 Bft) O-NO 78 ° 0 min 0,000 mm 0,0 UV-I 0 W/m² 5,2 °C 5,8 °C 4,8 km/h (1 Bft)
22.03.2017 20:30 5,8 °C 5,8 °C 96 % 1011,3 hPa 0,0 mm 4,4 km/h (1 Bft) O-NO 78 ° 0 min 0,000 mm 0,0 UV-I 0 W/m² 5,2 °C 5,8 °C 6,4 km/h (2 Bft)
22.03.2017 20:31 5,8 °C 5,8 °C 96 % 1011,2 hPa 0,0 mm 4,6 km/h (1 Bft) O-NO 65 ° 0 min 0,000 mm 0,0 UV-I 0 W/m² 5,2 °C 5,1 °C 6,4 km/h (2 Bft)
22.03.2017 20:32 5,8 °C 5,8 °C 96 % 1011,3 hPa 0,0 mm 4,6 km/h (1 Bft) O-NO 74 ° 0 min 0,000 mm 0,0 UV-I 0 W/m² 5,2 °C 5,1 °C 6,4 km/h (2 Bft)
22.03.2017 20:33 5,8 °C 5,8 °C 96 % 1011,2 hPa 0,0 mm 2,5 km/h (1 Bft) O-NO 59 ° 0 min 0,000 mm 0,0 UV-I 0 W/m² 5,2 °C 5,8 °C 4,8 km/h (1 Bft)
22.03.2017 20:34 5,8 °C 5,8 °C 96 % 1011,2 hPa 0,0 mm 4,7 km/h (1 Bft) NO 49 ° 0 min 0,000 mm 0,0 UV-I 0 W/m² 5,2 °C 5,1 °C 6,4 km/h (2 Bft)
22.03.2017 20:35 5,8 °C 5,8 °C 96 % 1011,2 hPa 0,0 mm 4,2 km/h (1 Bft) NO 50 ° 0 min 0,000 mm 0,0 UV-I 0 W/m² 5,2 °C 5,8 °C 6,4 km/h (2 Bft)
22.03.2017 20:36 5,8 °C 5,8 °C 96 % 1011,2 hPa 0,0 mm 4,1 km/h (1 Bft) O 82 ° 0 min 0,000 mm 0,0 UV-I 0 W/m² 5,2 °C 5,8 °C 6,4 km/h (2 Bft)
22.03.2017 20:37 5,8 °C 5,8 °C 96 % 1011,2 hPa 0,0 mm 3,3 km/h (1 Bft) O 82 ° 0 min 0,000 mm 0,0 UV-I 0 W/m² 5,2 °C 5,8 °C 4,8 km/h (1 Bft)
22.03.2017 20:38 5,8 °C 5,8 °C 96 % 1011,2 hPa 0,0 mm 1,5 km/h (1 Bft) O 82 ° 0 min 0,000 mm 0,0 UV-I 0 W/m² 5,2 °C 5,8 °C 3,2 km/h (1 Bft)
22.03.2017 20:39 5,8 °C 5,8 °C 96 % 1011,2 hPa 0,0 mm 2,5 km/h (1 Bft) NO 53 ° 0 min 0,000 mm 0,0 UV-I 0 W/m² 5,2 °C 5,8 °C 3,2 km/h (1 Bft)
22.03.2017 20:40 5,8 °C 5,8 °C 96 % 1011,2 hPa 0,0 mm 4,8 km/h (1 Bft) O-NO 76 ° 0 min 0,000 mm 0,0 UV-I 0 W/m² 5,2 °C 5,1 °C 6,4 km/h (2 Bft)
22.03.2017 20:41 5,8 °C 5,8 °C 96 % 1011,2 hPa 0,0 mm 4,6 km/h (1 Bft) NO 39 ° 0 min 0,000 mm 0,0 UV-I 0 W/m² 5,2 °C 5,1 °C 6,4 km/h (2 Bft)
22.03.2017 20:42 5,8 °C 5,8 °C 96 % 1011,2 hPa 0,0 mm 4,8 km/h (1 Bft) O-NO 61 ° 0 min 0,000 mm 0,0 UV-I 0 W/m² 5,2 °C 5,1 °C 6,4 km/h (2 Bft)
22.03.2017 20:43 5,8 °C 5,8 °C 96 % 1011,2 hPa 0,0 mm 4,6 km/h (1 Bft) O-NO 69 ° 0 min 0,000 mm 0,0 UV-I 0 W/m² 5,2 °C 5,1 °C 6,4 km/h (2 Bft)
22.03.2017 20:44 5,8 °C 5,8 °C 96 % 1011,2 hPa 0,0 mm 6,2 km/h (2 Bft) O 79 ° 0 min 0,000 mm 0,0 UV-I 0 W/m² 5,2 °C 4,6 °C 11,3 km/h (2 Bft)
22.03.2017 20:45 5,8 °C 5,8 °C 96 % 1011,2 hPa 0,0 mm 3,5 km/h (1 Bft) NO 47 ° 0 min 0,000 mm 0,0 UV-I 0 W/m² 5,2 °C 5,8 °C 4,8 km/h (1 Bft)
22.03.2017 20:46 5,8 °C 5,8 °C 96 % 1011,2 hPa 0,0 mm 2,7 km/h (1 Bft) NO 47 ° 0 min 0,000 mm 0,0 UV-I 0 W/m² 5,2 °C 5,8 °C 3,2 km/h (1 Bft)
22.03.2017 20:47 5,8 °C 5,8 °C 96 % 1011,2 hPa 0,0 mm 1,9 km/h (1 Bft) NO 47 ° 0 min 0,000 mm 0,0 UV-I 0 W/m² 5,2 °C 5,8 °C 3,2 km/h (1 Bft)
22.03.2017 20:48 5,8 °C 5,8 °C 96 % 1011,2 hPa 0,0 mm 2,5 km/h (1 Bft) NO 47 ° 0 min 0,000 mm 0,0 UV-I 0 W/m² 5,2 °C 5,8 °C 4,8 km/h (1 Bft)
22.03.2017 20:49 5,8 °C 5,8 °C 96 % 1011,2 hPa 0,0 mm 4,0 km/h (1 Bft) O-NO 59 ° 0 min 0,000 mm 0,0 UV-I 0 W/m² 5,2 °C 5,8 °C 4,8 km/h (1 Bft)
22.03.2017 20:50 5,8 °C 5,8 °C 96 % 1011,2 hPa 0,0 mm 2,9 km/h (1 Bft) O-NO 59 ° 0 min 0,000 mm 0,0 UV-I 0 W/m² 5,2 °C 5,8 °C 4,8 km/h (1 Bft)
22.03.2017 20:51 5,8 °C 5,8 °C 96 % 1011,2 hPa 0,0 mm 3,4 km/h (1 Bft) O-NO 59 ° 0 min 0,000 mm 0,0 UV-I 0 W/m² 5,2 °C 5,8 °C 4,8 km/h (1 Bft)
22.03.2017 20:52 5,8 °C 5,8 °C 96 % 1011,2 hPa 0,0 mm 5,0 km/h (1 Bft) O-NO 63 ° 0 min 0,000 mm 0,0 UV-I 0 W/m² 5,2 °C 5,0 °C 6,4 km/h (2 Bft)
22.03.2017 20:53 5,8 °C 5,8 °C 96 % 1011,2 hPa 0,0 mm 2,0 km/h (1 Bft) O-NO 63 ° 0 min 0,000 mm 0,0 UV-I 0 W/m² 5,2 °C 5,8 °C 3,2 km/h (1 Bft)
22.03.2017 20:54 5,8 °C 5,8 °C 96 % 1011,2 hPa 0,0 mm 3,5 km/h (1 Bft) N-NO 28 ° 0 min 0,000 mm 0,0 UV-I 0 W/m² 5,2 °C 5,8 °C 6,4 km/h (2 Bft)
22.03.2017 20:55 5,8 °C 5,8 °C 96 % 1011,3 hPa 0,0 mm 5,6 km/h (1 Bft) O-NO 59 ° 0 min 0,000 mm 0,0 UV-I 0 W/m² 5,2 °C 4,8 °C 8,0 km/h (2 Bft)
22.03.2017 20:56 5,8 °C 5,8 °C 96 % 1011,3 hPa 0,0 mm 4,2 km/h (1 Bft) O-NO 59 ° 0 min 0,000 mm 0,0 UV-I 0 W/m² 5,2 °C 5,8 °C 6,4 km/h (2 Bft)
22.03.2017 20:57 5,8 °C 5,8 °C 96 % 1011,3 hPa 0,0 mm 2,1 km/h (1 Bft) O-NO 59 ° 0 min 0,000 mm 0,0 UV-I 0 W/m² 5,2 °C 5,8 °C 3,2 km/h (1 Bft)
22.03.2017 20:58 5,8 °C 5,8 °C 96 % 1011,2 hPa 0,0 mm 2,7 km/h (1 Bft) O-NO 59 ° 0 min 0,000 mm 0,0 UV-I 0 W/m² 5,2 °C 5,8 °C 4,8 km/h (1 Bft)
22.03.2017 20:59 5,8 °C 5,8 °C 96 % 1011,2 hPa 0,0 mm 1,4 km/h (1 Bft) O-NO 59 ° 0 min 0,000 mm 0,0 UV-I 0 W/m² 5,2 °C 5,8 °C 3,2 km/h (1 Bft)
22.03.2017 21:00 5,8 °C 5,8 °C 96 % 1011,2 hPa 0,0 mm 2,3 km/h (1 Bft) O-NO 59 ° 0 min 0,000 mm 0,0 UV-I 0 W/m² 5,2 °C 5,8 °C 6,4 km/h (2 Bft)
22.03.2017 21:01 5,8 °C 5,8 °C 96 % 1011,2 hPa 0,0 mm 3,5 km/h (1 Bft) O-NO 60 ° 0 min 0,000 mm 0,0 UV-I 0 W/m² 5,2 °C 5,8 °C 4,8 km/h (1 Bft)
22.03.2017 21:02 5,8 °C 5,8 °C 96 % 1011,2 hPa 0,0 mm 2,9 km/h (1 Bft) O-NO 59 ° 0 min 0,000 mm 0,0 UV-I 0 W/m² 5,2 °C 5,8 °C 4,8 km/h (1 Bft)
22.03.2017 21:03 5,7 °C 5,8 °C 96 % 1011,2 hPa 0,0 mm 3,5 km/h (1 Bft) O-NO 59 ° 0 min 0,000 mm 0,0 UV-I 0 W/m² 5,1 °C 5,7 °C 4,8 km/h (1 Bft)
22.03.2017 21:04 5,8 °C 5,8 °C 96 % 1011,2 hPa 0,0 mm 3,0 km/h (1 Bft) O-NO 59 ° 0 min 0,000 mm 0,0 UV-I 0 W/m² 5,2 °C 5,8 °C 4,8 km/h (1 Bft)
22.03.2017 21:05 5,8 °C 5,8 °C 96 % 1011,2 hPa 0,0 mm 1,3 km/h (1 Bft) O-NO 59 ° 0 min 0,000 mm 0,0 UV-I 0 W/m² 5,2 °C 5,8 °C 3,2 km/h (1 Bft)
22.03.2017 21:06 5,7 °C 5,8 °C 96 % 1011,2 hPa 0,0 mm 3,7 km/h (1 Bft) NO 49 ° 0 min 0,000 mm 0,0 UV-I 0 W/m² 5,1 °C 5,7 °C 4,8 km/h (1 Bft)
22.03.2017 21:07 5,7 °C 5,8 °C 96 % 1011,2 hPa 0,0 mm 4,2 km/h (1 Bft) O-NO 69 ° 0 min 0,000 mm 0,0 UV-I 0 W/m² 5,1 °C 5,7 °C 4,8 km/h (1 Bft)
22.03.2017 21:08 5,7 °C 5,8 °C 96 % 1011,2 hPa 0,0 mm 4,6 km/h (1 Bft) O-NO 62 ° 0 min 0,000 mm 0,0 UV-I 0 W/m² 5,1 °C 5,0 °C 6,4 km/h (2 Bft)
22.03.2017 21:09 5,8 °C 5,8 °C 96 % 1011,2 hPa 0,0 mm 3,4 km/h (1 Bft) O-NO 62 ° 0 min 0,000 mm 0,0 UV-I 0 W/m² 5,2 °C 5,8 °C 4,8 km/h (1 Bft)
22.03.2017 21:10 5,7 °C 5,8 °C 96 % 1011,2 hPa 0,0 mm 3,3 km/h (1 Bft) O-NO 62 ° 0 min 0,000 mm 0,0 UV-I 0 W/m² 5,1 °C 5,7 °C 4,8 km/h (1 Bft)
22.03.2017 21:11 5,7 °C 5,7 °C 96 % 1011,2 hPa 0,0 mm 3,0 km/h (1 Bft) O-NO 62 ° 0 min 0,000 mm 0,0 UV-I 0 W/m² 5,1 °C 5,7 °C 4,8 km/h (1 Bft)
22.03.2017 21:12 5,7 °C 5,7 °C 96 % 1011,2 hPa 0,0 mm 3,3 km/h (1 Bft) O-NO 62 ° 0 min 0,000 mm 0,0 UV-I 0 W/m² 5,1 °C 5,7 °C 4,8 km/h (1 Bft)
22.03.2017 21:13 5,7 °C 5,7 °C 96 % 1011,2 hPa 0,0 mm 1,4 km/h (1 Bft) O-NO 62 ° 0 min 0,000 mm 0,0 UV-I 0 W/m² 5,1 °C 5,7 °C 3,2 km/h (1 Bft)
22.03.2017 21:14 5,7 °C 5,7 °C 96 % 1011,2 hPa 0,0 mm 1,3 km/h (1 Bft) O-NO 62 ° 0 min 0,000 mm 0,0 UV-I 0 W/m² 5,1 °C 5,7 °C 3,2 km/h (1 Bft)
22.03.2017 21:15 5,7 °C 5,7 °C 96 % 1011,2 hPa 0,0 mm 2,3 km/h (1 Bft) O-NO 62 ° 0 min 0,000 mm 0,0 UV-I 0 W/m² 5,1 °C 5,7 °C 3,2 km/h (1 Bft)
22.03.2017 21:16 5,7 °C 5,7 °C 96 % 1011,3 hPa 0,0 mm 1,8 km/h (1 Bft) O-NO 62 ° 0 min 0,000 mm 0,0 UV-I 0 W/m² 5,1 °C 5,7 °C 3,2 km/h (1 Bft)
22.03.2017 21:17 5,7 °C 5,7 °C 96 % 1011,3 hPa 0,0 mm 1,9 km/h (1 Bft) O-NO 62 ° 0 min 0,000 mm 0,0 UV-I 0 W/m² 5,1 °C 5,7 °C 3,2 km/h (1 Bft)
22.03.2017 21:18 5,7 °C 5,7 °C 96 % 1011,3 hPa 0,0 mm 1,7 km/h (1 Bft) O-NO 62 ° 0 min 0,000 mm 0,0 UV-I 0 W/m² 5,1 °C 5,7 °C 3,2 km/h (1 Bft)
22.03.2017 21:19 5,7 °C 5,7 °C 96 % 1011,3 hPa 0,0 mm 2,6 km/h (1 Bft) O-NO 62 ° 0 min 0,000 mm 0,0 UV-I 0 W/m² 5,1 °C 5,7 °C 4,8 km/h (1 Bft)
22.03.2017 21:20 5,7 °C 5,7 °C 96 % 1011,3 hPa 0,0 mm 2,8 km/h (1 Bft) O-NO 62 ° 0 min 0,000 mm 0,0 UV-I 0 W/m² 5,1 °C 5,7 °C 3,2 km/h (1 Bft)
22.03.2017 21:21 5,7 °C 5,7 °C 96 % 1011,3 hPa 0,0 mm 1,7 km/h (1 Bft) O-NO 62 ° 0 min 0,000 mm 0,0 UV-I 0 W/m² 5,1 °C 5,7 °C 3,2 km/h (1 Bft)
22.03.2017 21:22 5,7 °C 5,7 °C 96 % 1011,3 hPa 0,0 mm 4,2 km/h (1 Bft) O-NO 62 ° 0 min 0,000 mm 0,0 UV-I 0 W/m² 5,1 °C 5,7 °C 4,8 km/h (1 Bft)
22.03.2017 21:23 5,7 °C 5,7 °C 96 % 1011,3 hPa 0,0 mm 3,8 km/h (1 Bft) O-NO 64 ° 0 min 0,000 mm 0,0 UV-I 0 W/m² 5,1 °C 5,7 °C 6,4 km/h (2 Bft)
22.03.2017 21:24 5,7 °C 5,7 °C 96 % 1011,3 hPa 0,0 mm 4,4 km/h (1 Bft) O-NO 72 ° 0 min 0,000 mm 0,0 UV-I 0 W/m² 5,1 °C 5,7 °C 8,0 km/h (2 Bft)
22.03.2017 21:25 5,7 °C 5,7 °C 96 % 1011,2 hPa 0,0 mm 3,7 km/h (1 Bft) O-NO 72 ° 0 min 0,000 mm 0,0 UV-I 0 W/m² 5,1 °C 5,7 °C 4,8 km/h (1 Bft)
22.03.2017 21:26 5,7 °C 5,7 °C 96 % 1011,2 hPa 0,0 mm 4,0 km/h (1 Bft) O-NO 73 ° 0 min 0,000 mm 0,0 UV-I 0 W/m² 5,1 °C 5,7 °C 6,4 km/h (2 Bft)
22.03.2017 21:27 5,7 °C 5,7 °C 96 % 1011,3 hPa 0,0 mm 2,8 km/h (1 Bft) O-NO 73 ° 0 min 0,000 mm 0,0 UV-I 0 W/m² 5,1 °C 5,7 °C 3,2 km/h (1 Bft)
22.03.2017 21:28 5,6 °C 5,7 °C 96 % 1011,2 hPa 0,0 mm 4,2 km/h (1 Bft) O-NO 66 ° 0 min 0,000 mm 0,0 UV-I 0 W/m² 5,0 °C 5,6 °C 6,4 km/h (2 Bft)
22.03.2017 21:29 5,7 °C 5,7 °C 96 % 1011,2 hPa 0,0 mm 4,5 km/h (1 Bft) O-NO 65 ° 0 min 0,000 mm 0,0 UV-I 0 W/m² 5,1 °C 5,7 °C 6,4 km/h (2 Bft)
22.03.2017 21:30 5,6 °C 5,7 °C 96 % 1011,2 hPa 0,0 mm 4,3 km/h (1 Bft) O-NO 65 ° 0 min 0,000 mm 0,0 UV-I 0 W/m² 5,0 °C 5,6 °C 6,4 km/h (2 Bft)
22.03.2017 21:31 5,7 °C 5,7 °C 96 % 1011,3 hPa 0,0 mm 3,4 km/h (1 Bft) O-NO 65 ° 0 min 0,000 mm 0,0 UV-I 0 W/m² 5,1 °C 5,7 °C 4,8 km/h (1 Bft)
22.03.2017 21:32 5,7 °C 5,7 °C 96 % 1011,3 hPa 0,0 mm 3,4 km/h (1 Bft) O-NO 65 ° 0 min 0,000 mm 0,0 UV-I 0 W/m² 5,1 °C 5,7 °C 4,8 km/h (1 Bft)
22.03.2017 21:33 5,7 °C 5,7 °C 96 % 1011,3 hPa 0,0 mm 4,0 km/h (1 Bft) O-NO 65 ° 0 min 0,000 mm 0,0 UV-I 0 W/m² 5,1 °C 5,7 °C 4,8 km/h (1 Bft)
22.03.2017 21:34 5,7 °C 5,7 °C 96 % 1011,3 hPa 0,0 mm 4,3 km/h (1 Bft) O-NO 65 ° 0 min 0,000 mm 0,0 UV-I 0 W/m² 5,1 °C 5,7 °C 4,8 km/h (1 Bft)
22.03.2017 21:35 5,7 °C 5,7 °C 96 % 1011,2 hPa 0,0 mm 4,6 km/h (1 Bft) O-NO 65 ° 0 min 0,000 mm 0,0 UV-I 0 W/m² 5,1 °C 5,0 °C 6,4 km/h (2 Bft)
22.03.2017 21:36 5,7 °C 5,7 °C 96 % 1011,2 hPa 0,0 mm 3,4 km/h (1 Bft) O-NO 65 ° 0 min 0,000 mm 0,0 UV-I 0 W/m² 5,1 °C 5,7 °C 4,8 km/h (1 Bft)
22.03.2017 21:37 5,7 °C 5,7 °C 96 % 1011,2 hPa 0,0 mm 2,9 km/h (1 Bft) O-NO 65 ° 0 min 0,000 mm 0,0 UV-I 0 W/m² 5,1 °C 5,7 °C 4,8 km/h (1 Bft)
22.03.2017 21:38 5,7 °C 5,7 °C 96 % 1011,2 hPa 0,0 mm 2,2 km/h (1 Bft) O-NO 65 ° 0 min 0,000 mm 0,0 UV-I 0 W/m² 5,1 °C 5,7 °C 3,2 km/h (1 Bft)
22.03.2017 21:39 5,7 °C 5,7 °C 96 % 1011,2 hPa 0,0 mm 2,2 km/h (1 Bft) O-NO 65 ° 0 min 0,000 mm 0,0 UV-I 0 W/m² 5,1 °C 5,7 °C 3,2 km/h (1 Bft)
22.03.2017 21:40 5,7 °C 5,7 °C 96 % 1011,2 hPa 0,0 mm 3,5 km/h (1 Bft) O-NO 65 ° 0 min 0,000 mm 0,0 UV-I 0 W/m² 5,1 °C 5,7 °C 6,4 km/h (2 Bft)
22.03.2017 21:41 5,7 °C 5,7 °C 96 % 1011,2 hPa 0,0 mm 4,0 km/h (1 Bft) O-NO 59 ° 0 min 0,000 mm 0,0 UV-I 0 W/m² 5,1 °C 5,7 °C 6,4 km/h (2 Bft)
22.03.2017 21:42 5,7 °C 5,7 °C 96 % 1011,2 hPa 0,0 mm 2,3 km/h (1 Bft) O-NO 59 ° 0 min 0,000 mm 0,0 UV-I 0 W/m² 5,1 °C 5,7 °C 4,8 km/h (1 Bft)
22.03.2017 21:43 5,7 °C 5,7 °C 96 % 1011,2 hPa 0,0 mm 3,7 km/h (1 Bft) O 88 ° 0 min 0,000 mm 0,0 UV-I 0 W/m² 5,1 °C 5,7 °C 4,8 km/h (1 Bft)
22.03.2017 21:44 5,7 °C 5,7 °C 96 % 1011,2 hPa 0,0 mm 3,2 km/h (1 Bft) O 88 ° 0 min 0,000 mm 0,0 UV-I 0 W/m² 5,1 °C 5,7 °C 4,8 km/h (1 Bft)
22.03.2017 21:45 5,6 °C 5,7 °C 96 % 1011,2 hPa 0,0 mm 4,4 km/h (1 Bft) O-NO 72 ° 0 min 0,000 mm 0,0 UV-I 0 W/m² 5,0 °C 5,6 °C 6,4 km/h (2 Bft)
22.03.2017 21:46 5,6 °C 5,6 °C 96 % 1011,2 hPa 0,0 mm 4,6 km/h (1 Bft) O-NO 72 ° 0 min 0,000 mm 0,0 UV-I 0 W/m² 5,0 °C 4,9 °C 4,8 km/h (1 Bft)
22.03.2017 21:47 5,6 °C 5,7 °C 96 % 1011,2 hPa 0,0 mm 2,6 km/h (1 Bft) O-NO 72 ° 0 min 0,000 mm 0,0 UV-I 0 W/m² 5,0 °C 5,6 °C 4,8 km/h (1 Bft)
22.03.2017 21:48 5,6 °C 5,6 °C 96 % 1011,2 hPa 0,0 mm 2,2 km/h (1 Bft) O-NO 72 ° 0 min 0,000 mm 0,0 UV-I 0 W/m² 5,0 °C 5,6 °C 4,8 km/h (1 Bft)
22.03.2017 21:49 5,6 °C 5,6 °C 96 % 1011,2 hPa 0,0 mm 2,2 km/h (1 Bft) O-NO 72 ° 0 min 0,000 mm 0,0 UV-I 0 W/m² 5,0 °C 5,6 °C 3,2 km/h (1 Bft)
22.03.2017 21:50 5,6 °C 5,6 °C 96 % 1011,3 hPa 0,0 mm 2,3 km/h (1 Bft) O-NO 72 ° 0 min 0,000 mm 0,0 UV-I 0 W/m² 5,0 °C 5,6 °C 3,2 km/h (1 Bft)
22.03.2017 21:51 5,6 °C 5,6 °C 96 % 1011,3 hPa 0,0 mm 2,4 km/h (1 Bft) O-NO 72 ° 0 min 0,000 mm 0,0 UV-I 0 W/m² 5,0 °C 5,6 °C 3,2 km/h (1 Bft)
22.03.2017 21:52 5,6 °C 5,6 °C 96 % 1011,3 hPa 0,0 mm 2,3 km/h (1 Bft) O-NO 72 ° 0 min 0,000 mm 0,0 UV-I 0 W/m² 5,0 °C 5,6 °C 3,2 km/h (1 Bft)
22.03.2017 21:53 5,6 °C 5,6 °C 96 % 1011,3 hPa 0,0 mm 0,7 km/h (0 Bft) O-NO 72 ° 0 min 0,000 mm 0,0 UV-I 0 W/m² 5,0 °C 5,6 °C 1,6 km/h (1 Bft)
22.03.2017 21:54 5,6 °C 5,6 °C 96 % 1011,3 hPa 0,0 mm 1,8 km/h (1 Bft) O-NO 72 ° 0 min 0,000 mm 0,0 UV-I 0 W/m² 5,0 °C 5,6 °C 3,2 km/h (1 Bft)
22.03.2017 21:55 5,6 °C 5,6 °C 96 % 1011,2 hPa 0,0 mm 1,4 km/h (1 Bft) O-NO 72 ° 0 min 0,000 mm 0,0 UV-I 0 W/m² 5,0 °C 5,6 °C 3,2 km/h (1 Bft)
22.03.2017 21:56 5,7 °C 5,7 °C 96 % 1011,3 hPa 0,0 mm 2,3 km/h (1 Bft) O-NO 72 ° 0 min 0,000 mm 0,0 UV-I 0 W/m² 5,1 °C 5,7 °C 3,2 km/h (1 Bft)
22.03.2017 21:57 5,7 °C 5,7 °C 96 % 1011,3 hPa 0,0 mm 3,0 km/h (1 Bft) O-NO 72 ° 0 min 0,000 mm 0,0 UV-I 0 W/m² 5,1 °C 5,7 °C 4,8 km/h (1 Bft)
22.03.2017 21:58 5,7 °C 5,7 °C 96 % 1011,2 hPa 0,0 mm 1,4 km/h (1 Bft) O-NO 72 ° 0 min 0,000 mm 0,0 UV-I 0 W/m² 5,1 °C 5,7 °C 3,2 km/h (1 Bft)
22.03.2017 21:59 5,7 °C 5,7 °C 96 % 1011,3 hPa 0,0 mm 3,4 km/h (1 Bft) O-NO 72 ° 0 min 0,000 mm 0,0 UV-I 0 W/m² 5,1 °C 5,7 °C 4,8 km/h (1 Bft)
22.03.2017 22:00 5,7 °C 5,7 °C 96 % 1011,2 hPa 0,0 mm 3,6 km/h (1 Bft) O-NO 72 ° 0 min 0,000 mm 0,0 UV-I 0 W/m² 5,1 °C 5,7 °C 4,8 km/h (1 Bft)
22.03.2017 22:01 5,7 °C 5,7 °C 96 % 1011,2 hPa 0,0 mm 4,6 km/h (1 Bft) O-NO 61 ° 0 min 0,000 mm 0,0 UV-I 0 W/m² 5,1 °C 5,0 °C 4,8 km/h (1 Bft)
22.03.2017 22:02 5,6 °C 5,7 °C 96 % 1011,2 hPa 0,0 mm 3,4 km/h (1 Bft) O-NO 61 ° 0 min 0,000 mm 0,0 UV-I 0 W/m² 5,0 °C 5,6 °C 4,8 km/h (1 Bft)
22.03.2017 22:03 5,6 °C 5,6 °C 96 % 1011,2 hPa 0,0 mm 4,5 km/h (1 Bft) O-NO 61 ° 0 min 0,000 mm 0,0 UV-I 0 W/m² 5,0 °C 5,6 °C 6,4 km/h (2 Bft)
22.03.2017 22:04 5,6 °C 5,6 °C 96 % 1011,2 hPa 0,0 mm 4,3 km/h (1 Bft) O-SO 105 ° 0 min 0,000 mm 0,0 UV-I 0 W/m² 5,0 °C 5,6 °C 6,4 km/h (2 Bft)
22.03.2017 22:05 5,6 °C 5,6 °C 96 % 1011,2 hPa 0,0 mm 2,5 km/h (1 Bft) O-SO 105 ° 0 min 0,000 mm 0,0 UV-I 0 W/m² 5,0 °C 5,6 °C 3,2 km/h (1 Bft)
22.03.2017 22:06 5,6 °C 5,6 °C 96 % 1011,2 hPa 0,0 mm 2,2 km/h (1 Bft) O-SO 105 ° 0 min 0,000 mm 0,0 UV-I 0 W/m² 5,0 °C 5,6 °C 4,8 km/h (1 Bft)
22.03.2017 22:07 5,6 °C 5,6 °C 96 % 1011,2 hPa 0,0 mm 4,4 km/h (1 Bft) O-SO 122 ° 0 min 0,000 mm 0,0 UV-I 0 W/m² 5,0 °C 5,6 °C 6,4 km/h (2 Bft)
22.03.2017 22:08 5,6 °C 5,6 °C 96 % 1011,3 hPa 0,0 mm 1,7 km/h (1 Bft) O-SO 122 ° 0 min 0,000 mm 0,0 UV-I 0 W/m² 5,0 °C 5,6 °C 3,2 km/h (1 Bft)
22.03.2017 22:09 5,6 °C 5,6 °C 96 % 1011,2 hPa 0,0 mm 0,2 km/h (0 Bft) O-SO 122 ° 0 min 0,000 mm 0,0 UV-I 0 W/m² 5,0 °C 5,6 °C 1,6 km/h (1 Bft)
22.03.2017 22:10 5,6 °C 5,6 °C 96 % 1011,1 hPa 0,0 mm 2,1 km/h (1 Bft) O-SO 122 ° 0 min 0,000 mm 0,0 UV-I 0 W/m² 5,0 °C 5,6 °C 3,2 km/h (1 Bft)
22.03.2017 22:11 5,6 °C 5,6 °C 96 % 1011,1 hPa 0,0 mm 2,1 km/h (1 Bft) O-SO 122 ° 0 min 0,000 mm 0,0 UV-I 0 W/m² 5,0 °C 5,6 °C 3,2 km/h (1 Bft)
22.03.2017 22:12 5,6 °C 5,6 °C 96 % 1011,1 hPa 0,0 mm 2,4 km/h (1 Bft) O-SO 122 ° 0 min 0,000 mm 0,0 UV-I 0 W/m² 5,0 °C 5,6 °C 4,8 km/h (1 Bft)
22.03.2017 22:13 5,6 °C 5,6 °C 96 % 1011,0 hPa 0,0 mm 3,0 km/h (1 Bft) O-SO 122 ° 0 min 0,000 mm 0,0 UV-I 0 W/m² 5,0 °C 5,6 °C 4,8 km/h (1 Bft)
22.03.2017 22:14 5,6 °C 5,6 °C 96 % 1011,0 hPa 0,0 mm 2,3 km/h (1 Bft) O-NO 58 ° 0 min 0,000 mm 0,0 UV-I 0 W/m² 5,0 °C 5,6 °C 4,8 km/h (1 Bft)
22.03.2017 22:15 5,6 °C 5,6 °C 96 % 1011,0 hPa 0,0 mm 5,3 km/h (1 Bft) O 83 ° 0 min 0,000 mm 0,0 UV-I 0 W/m² 5,0 °C 4,7 °C 6,4 km/h (2 Bft)
22.03.2017 22:16 5,6 °C 5,6 °C 96 % 1011,0 hPa 0,0 mm 4,6 km/h (1 Bft) O-NO 75 ° 0 min 0,000 mm 0,0 UV-I 0 W/m² 5,0 °C 4,9 °C 6,4 km/h (2 Bft)
22.03.2017 22:17 5,6 °C 5,6 °C 96 % 1011,0 hPa 0,0 mm 3,3 km/h (1 Bft) O-NO 75 ° 0 min 0,000 mm 0,0 UV-I 0 W/m² 5,0 °C 5,6 °C 4,8 km/h (1 Bft)
22.03.2017 22:18 5,6 °C 5,6 °C 96 % 1010,9 hPa 0,0 mm 3,8 km/h (1 Bft) NO 42 ° 0 min 0,000 mm 0,0 UV-I 0 W/m² 5,0 °C 5,6 °C 6,4 km/h (2 Bft)
22.03.2017 22:19 5,6 °C 5,6 °C 96 % 1010,9 hPa 0,0 mm 5,8 km/h (2 Bft) O-NO 76 ° 0 min 0,000 mm 0,0 UV-I 0 W/m² 5,0 °C 4,5 °C 8,0 km/h (2 Bft)
22.03.2017 22:20 5,6 °C 5,6 °C 96 % 1011,0 hPa 0,0 mm 4,6 km/h (1 Bft) O-NO 59 ° 0 min 0,000 mm 0,0 UV-I 0 W/m² 5,0 °C 4,9 °C 8,0 km/h (2 Bft)
22.03.2017 22:21 5,6 °C 5,6 °C 96 % 1011,0 hPa 0,0 mm 2,8 km/h (1 Bft) O-NO 59 ° 0 min 0,000 mm 0,0 UV-I 0 W/m² 5,0 °C 5,6 °C 4,8 km/h (1 Bft)
22.03.2017 22:22 5,6 °C 5,6 °C 96 % 1011,0 hPa 0,0 mm 2,4 km/h (1 Bft) O 85 ° 0 min 0,000 mm 0,0 UV-I 0 W/m² 5,0 °C 5,6 °C 4,8 km/h (1 Bft)
22.03.2017 22:23 5,6 °C 5,6 °C 96 % 1011,0 hPa 0,0 mm 4,8 km/h (1 Bft) NO 49 ° 0 min 0,000 mm 0,0 UV-I 0 W/m² 5,0 °C 4,8 °C 6,4 km/h (2 Bft)
22.03.2017 22:24 5,6 °C 5,6 °C 96 % 1011,0 hPa 0,0 mm 3,7 km/h (1 Bft) NO 49 ° 0 min 0,000 mm 0,0 UV-I 0 W/m² 5,0 °C 5,6 °C 4,8 km/h (1 Bft)
22.03.2017 22:25 5,6 °C 5,6 °C 96 % 1011,0 hPa 0,0 mm 3,2 km/h (1 Bft) NO 49 ° 0 min 0,000 mm 0,0 UV-I 0 W/m² 5,0 °C 5,6 °C 4,8 km/h (1 Bft)
22.03.2017 22:26 5,6 °C 5,6 °C 96 % 1011,0 hPa 0,0 mm 2,8 km/h (1 Bft) NO 49 ° 0 min 0,000 mm 0,0 UV-I 0 W/m² 5,0 °C 5,6 °C 4,8 km/h (1 Bft)
22.03.2017 22:27 5,6 °C 5,6 °C 96 % 1011,0 hPa 0,0 mm 2,6 km/h (1 Bft) NO 49 ° 0 min 0,000 mm 0,0 UV-I 0 W/m² 5,0 °C 5,6 °C 3,2 km/h (1 Bft)
22.03.2017 22:28 5,6 °C 5,6 °C 96 % 1011,0 hPa 0,0 mm 1,8 km/h (1 Bft) NO 49 ° 0 min 0,000 mm 0,0 UV-I 0 W/m² 5,0 °C 5,6 °C 3,2 km/h (1 Bft)
22.03.2017 22:29 5,6 °C 5,6 °C 96 % 1011,0 hPa 0,0 mm 0,3 km/h (0 Bft) NO 49 ° 0 min 0,000 mm 0,0 UV-I 0 W/m² 5,0 °C 5,6 °C 1,6 km/h (1 Bft)
22.03.2017 22:30 5,6 °C 5,6 °C 96 % 1011,1 hPa 0,0 mm 1,9 km/h (1 Bft) NO 49 ° 0 min 0,000 mm 0,0 UV-I 0 W/m² 5,0 °C 5,6 °C 4,8 km/h (1 Bft)
22.03.2017 22:31 5,6 °C 5,6 °C 96 % 1011,0 hPa 0,0 mm 2,2 km/h (1 Bft) NO 49 ° 0 min 0,000 mm 0,0 UV-I 0 W/m² 5,0 °C 5,6 °C 3,2 km/h (1 Bft)
22.03.2017 22:32 5,6 °C 5,6 °C 96 % 1011,1 hPa 0,0 mm 2,6 km/h (1 Bft) O-NO 65 ° 0 min 0,000 mm 0,0 UV-I 0 W/m² 5,0 °C 5,6 °C 4,8 km/h (1 Bft)
22.03.2017 22:33 5,6 °C 5,6 °C 96 % 1011,0 hPa 0,0 mm 3,2 km/h (1 Bft) O-NO 65 ° 0 min 0,000 mm 0,0 UV-I 0 W/m² 5,0 °C 5,6 °C 4,8 km/h (1 Bft)
22.03.2017 22:34 5,6 °C 5,6 °C 96 % 1011,0 hPa 0,0 mm 2,5 km/h (1 Bft) O-NO 65 ° 0 min 0,000 mm 0,0 UV-I 0 W/m² 5,0 °C 5,6 °C 3,2 km/h (1 Bft)
22.03.2017 22:35 5,6 °C 5,6 °C 96 % 1011,0 hPa 0,0 mm 2,0 km/h (1 Bft) O-NO 65 ° 0 min 0,000 mm 0,0 UV-I 0 W/m² 5,0 °C 5,6 °C 3,2 km/h (1 Bft)
22.03.2017 22:36 5,6 °C 5,6 °C 96 % 1011,0 hPa 0,0 mm 2,2 km/h (1 Bft) O-NO 65 ° 0 min 0,000 mm 0,0 UV-I 0 W/m² 5,0 °C 5,6 °C 3,2 km/h (1 Bft)
22.03.2017 22:37 5,6 °C 5,6 °C 96 % 1011,0 hPa 0,0 mm 2,5 km/h (1 Bft) O-NO 65 ° 0 min 0,000 mm 0,0 UV-I 0 W/m² 5,0 °C 5,6 °C 3,2 km/h (1 Bft)
22.03.2017 22:38 5,6 °C 5,6 °C 96 % 1011,1 hPa 0,0 mm 2,4 km/h (1 Bft) O-NO 65 ° 0 min 0,000 mm 0,0 UV-I 0 W/m² 5,0 °C 5,6 °C 3,2 km/h (1 Bft)
22.03.2017 22:39 5,6 °C 5,6 °C 96 % 1011,0 hPa 0,0 mm 0,9 km/h (0 Bft) O-NO 65 ° 0 min 0,000 mm 0,0 UV-I 0 W/m² 5,0 °C 5,6 °C 1,6 km/h (1 Bft)
22.03.2017 22:40 5,6 °C 5,6 °C 96 % 1011,1 hPa 0,0 mm 3,6 km/h (1 Bft) NO 56 ° 0 min 0,000 mm 0,0 UV-I 0 W/m² 5,0 °C 5,6 °C 6,4 km/h (2 Bft)
22.03.2017 22:41 5,6 °C 5,6 °C 96 % 1011,1 hPa 0,0 mm 3,2 km/h (1 Bft) NO 56 ° 0 min 0,000 mm 0,0 UV-I 0 W/m² 5,0 °C 5,6 °C 4,8 km/h (1 Bft)
22.03.2017 22:42 5,6 °C 5,6 °C 96 % 1011,1 hPa 0,0 mm 3,3 km/h (1 Bft) NO 56 ° 0 min 0,000 mm 0,0 UV-I 0 W/m² 5,0 °C 5,6 °C 4,8 km/h (1 Bft)
22.03.2017 22:43 5,6 °C 5,6 °C 96 % 1011,1 hPa 0,0 mm 1,8 km/h (1 Bft) NO 56 ° 0 min 0,000 mm 0,0 UV-I 0 W/m² 5,0 °C 5,6 °C 3,2 km/h (1 Bft)
22.03.2017 22:44 5,6 °C 5,6 °C 96 % 1011,0 hPa 0,0 mm 1,0 km/h (0 Bft) NO 56 ° 0 min 0,000 mm 0,0 UV-I 0 W/m² 5,0 °C 5,6 °C 1,6 km/h (1 Bft)
22.03.2017 22:45 5,6 °C 5,6 °C 96 % 1011,0 hPa 0,0 mm 1,2 km/h (1 Bft) NO 56 ° 0 min 0,000 mm 0,0 UV-I 0 W/m² 5,0 °C 5,6 °C 1,6 km/h (1 Bft)
22.03.2017 22:46 5,6 °C 5,6 °C 96 % 1011,0 hPa 0,0 mm 1,9 km/h (1 Bft) NO 56 ° 0 min 0,000 mm 0,0 UV-I 0 W/m² 5,0 °C 5,6 °C 3,2 km/h (1 Bft)
22.03.2017 22:47 5,6 °C 5,6 °C 96 % 1011,0 hPa 0,0 mm 3,1 km/h (1 Bft) NO 56 ° 0 min 0,000 mm 0,0 UV-I 0 W/m² 5,0 °C 5,6 °C 4,8 km/h (1 Bft)
22.03.2017 22:48 5,6 °C 5,6 °C 96 % 1011,0 hPa 0,0 mm 2,2 km/h (1 Bft) NO 56 ° 0 min 0,000 mm 0,0 UV-I 0 W/m² 5,0 °C 5,6 °C 3,2 km/h (1 Bft)
22.03.2017 22:49 5,6 °C 5,6 °C 96 % 1011,0 hPa 0,0 mm 2,5 km/h (1 Bft) NO 56 ° 0 min 0,000 mm 0,0 UV-I 0 W/m² 5,0 °C 5,6 °C 3,2 km/h (1 Bft)
22.03.2017 22:50 5,6 °C 5,6 °C 96 % 1011,0 hPa 0,0 mm 1,5 km/h (1 Bft) NO 56 ° 0 min 0,000 mm 0,0 UV-I 0 W/m² 5,0 °C 5,6 °C 3,2 km/h (1 Bft)
22.03.2017 22:51 5,6 °C 5,6 °C 96 % 1011,0 hPa 0,0 mm 0,8 km/h (0 Bft) NO 56 ° 0 min 0,000 mm 0,0 UV-I 0 W/m² 5,0 °C 5,6 °C 1,6 km/h (1 Bft)
22.03.2017 22:52 5,6 °C 5,6 °C 96 % 1011,0 hPa 0,0 mm 0,0 km/h (0 Bft) NO 56 ° 0 min 0,000 mm 0,0 UV-I 0 W/m² 5,0 °C 5,6 °C 0,0 km/h (0 Bft)
22.03.2017 22:53 5,6 °C 5,6 °C 96 % 1011,0 hPa 0,0 mm 1,8 km/h (1 Bft) O-SO 119 ° 0 min 0,000 mm 0,0 UV-I 0 W/m² 5,0 °C 5,6 °C 4,8 km/h (1 Bft)
22.03.2017 22:54 5,6 °C 5,6 °C 96 % 1011,0 hPa 0,0 mm 3,4 km/h (1 Bft) O-SO 104 ° 0 min 0,000 mm 0,0 UV-I 0 W/m² 5,0 °C 5,6 °C 4,8 km/h (1 Bft)
22.03.2017 22:55 5,6 °C 5,6 °C 96 % 1011,0 hPa 0,0 mm 3,0 km/h (1 Bft) O-SO 104 ° 0 min 0,000 mm 0,0 UV-I 0 W/m² 5,0 °C 5,6 °C 4,8 km/h (1 Bft)
22.03.2017 22:56 5,6 °C 5,6 °C 96 % 1011,0 hPa 0,0 mm 1,9 km/h (1 Bft) O-SO 104 ° 0 min 0,000 mm 0,0 UV-I 0 W/m² 5,0 °C 5,6 °C 3,2 km/h (1 Bft)
22.03.2017 22:57 5,6 °C 5,6 °C 96 % 1011,0 hPa 0,0 mm 0,0 km/h (0 Bft) O-SO 104 ° 0 min 0,000 mm 0,0 UV-I 0 W/m² 5,0 °C 5,6 °C 0,0 km/h (0 Bft)
22.03.2017 22:58 5,6 °C 5,6 °C 96 % 1011,0 hPa 0,0 mm 0,0 km/h (0 Bft) O-SO 104 ° 0 min 0,000 mm 0,0 UV-I 0 W/m² 5,0 °C 5,6 °C 0,0 km/h (0 Bft)
22.03.2017 22:59 5,6 °C 5,6 °C 96 % 1011,1 hPa 0,0 mm 0,0 km/h (0 Bft) O-SO 104 ° 0 min 0,000 mm 0,0 UV-I 0 W/m² 5,0 °C 5,6 °C 0,0 km/h (0 Bft)
22.03.2017 23:00 5,6 °C 5,6 °C 95 % 1011,0 hPa 0,0 mm 0,0 km/h (0 Bft) O-SO 104 ° 0 min 0,000 mm 0,0 UV-I 0 W/m² 4,9 °C 5,6 °C 0,0 km/h (0 Bft)
22.03.2017 23:01 5,6 °C 5,6 °C 95 % 1011,1 hPa 0,0 mm 0,0 km/h (0 Bft) O-SO 104 ° 0 min 0,000 mm 0,0 UV-I 0 W/m² 4,9 °C 5,6 °C 0,0 km/h (0 Bft)
22.03.2017 23:02 5,6 °C 5,6 °C 95 % 1011,0 hPa 0,0 mm 0,0 km/h (0 Bft) O-SO 104 ° 0 min 0,000 mm 0,0 UV-I 0 W/m² 4,9 °C 5,6 °C 0,0 km/h (0 Bft)
22.03.2017 23:03 5,6 °C 5,6 °C 95 % 1011,0 hPa 0,0 mm 0,0 km/h (0 Bft) O-SO 104 ° 0 min 0,000 mm 0,0 UV-I 0 W/m² 4,9 °C 5,6 °C 0,0 km/h (0 Bft)
22.03.2017 23:04 5,6 °C 5,6 °C 95 % 1011,0 hPa 0,0 mm 1,1 km/h (1 Bft) O-SO 104 ° 0 min 0,000 mm 0,0 UV-I 0 W/m² 4,9 °C 5,6 °C 1,6 km/h (1 Bft)
22.03.2017 23:05 5,6 °C 5,6 °C 95 % 1011,0 hPa 0,0 mm 1,3 km/h (1 Bft) O-SO 104 ° 0 min 0,000 mm 0,0 UV-I 0 W/m² 4,9 °C 5,6 °C 1,6 km/h (1 Bft)
22.03.2017 23:06 5,6 °C 5,6 °C 95 % 1011,0 hPa 0,0 mm 1,5 km/h (1 Bft) O-SO 104 ° 0 min 0,000 mm 0,0 UV-I 0 W/m² 4,9 °C 5,6 °C 3,2 km/h (1 Bft)
22.03.2017 23:07 5,6 °C 5,6 °C 95 % 1011,0 hPa 0,0 mm 1,5 km/h (1 Bft) O-SO 104 ° 0 min 0,000 mm 0,0 UV-I 0 W/m² 4,9 °C 5,6 °C 3,2 km/h (1 Bft)
22.03.2017 23:08 5,6 °C 5,6 °C 95 % 1011,0 hPa 0,0 mm 0,2 km/h (0 Bft) O-SO 104 ° 0 min 0,000 mm 0,0 UV-I 0 W/m² 4,9 °C 5,6 °C 1,6 km/h (1 Bft)
22.03.2017 23:09 5,6 °C 5,6 °C 95 % 1011,0 hPa 0,0 mm 0,0 km/h (0 Bft) O-SO 104 ° 0 min 0,000 mm 0,0 UV-I 0 W/m² 4,9 °C 5,6 °C 0,0 km/h (0 Bft)
22.03.2017 23:10 5,6 °C 5,6 °C 95 % 1011,0 hPa 0,0 mm 0,3 km/h (0 Bft) O-SO 104 ° 0 min 0,000 mm 0,0 UV-I 0 W/m² 4,9 °C 5,6 °C 1,6 km/h (1 Bft)
22.03.2017 23:11 5,6 °C 5,6 °C 95 % 1011,0 hPa 0,0 mm 0,9 km/h (0 Bft) O-SO 104 ° 0 min 0,000 mm 0,0 UV-I 0 W/m² 4,9 °C 5,6 °C 1,6 km/h (1 Bft)
22.03.2017 23:12 5,6 °C 5,6 °C 95 % 1011,0 hPa 0,0 mm 1,1 km/h (1 Bft) O-SO 104 ° 0 min 0,000 mm 0,0 UV-I 0 W/m² 4,9 °C 5,6 °C 1,6 km/h (1 Bft)
22.03.2017 23:13 5,6 °C 5,6 °C 95 % 1011,1 hPa 0,0 mm 0,7 km/h (0 Bft) O-SO 104 ° 0 min 0,000 mm 0,0 UV-I 0 W/m² 4,9 °C 5,6 °C 1,6 km/h (1 Bft)
22.03.2017 23:14 5,6 °C 5,6 °C 95 % 1011,0 hPa 0,0 mm 0,5 km/h (0 Bft) O-SO 104 ° 0 min 0,000 mm 0,0 UV-I 0 W/m² 4,9 °C 5,6 °C 3,2 km/h (1 Bft)
22.03.2017 23:15 5,6 °C 5,6 °C 95 % 1011,0 hPa 0,0 mm 2,3 km/h (1 Bft) O-SO 104 ° 0 min 0,000 mm 0,0 UV-I 0 W/m² 4,9 °C 5,6 °C 3,2 km/h (1 Bft)
22.03.2017 23:16 5,6 °C 5,6 °C 95 % 1011,0 hPa 0,0 mm 2,6 km/h (1 Bft) O-SO 104 ° 0 min 0,000 mm 0,0 UV-I 0 W/m² 4,9 °C 5,6 °C 3,2 km/h (1 Bft)
22.03.2017 23:17 5,6 °C 5,6 °C 95 % 1011,0 hPa 0,0 mm 0,7 km/h (0 Bft) O-SO 104 ° 0 min 0,000 mm 0,0 UV-I 0 W/m² 4,9 °C 5,6 °C 1,6 km/h (1 Bft)
22.03.2017 23:18 5,6 °C 5,6 °C 95 % 1011,0 hPa 0,0 mm 2,3 km/h (1 Bft) O-SO 104 ° 0 min 0,000 mm 0,0 UV-I 0 W/m² 4,9 °C 5,6 °C 3,2 km/h (1 Bft)
22.03.2017 23:19 5,6 °C 5,6 °C 95 % 1010,9 hPa 0,0 mm 0,5 km/h (0 Bft) O-SO 104 ° 0 min 0,000 mm 0,0 UV-I 0 W/m² 4,9 °C 5,6 °C 1,6 km/h (1 Bft)
22.03.2017 23:20 5,6 °C 5,6 °C 95 % 1010,9 hPa 0,0 mm 1,1 km/h (1 Bft) O-SO 104 ° 0 min 0,000 mm 0,0 UV-I 0 W/m² 4,9 °C 5,6 °C 1,6 km/h (1 Bft)
22.03.2017 23:21 5,6 °C 5,6 °C 95 % 1011,0 hPa 0,0 mm 0,1 km/h (0 Bft) O-SO 104 ° 0 min 0,000 mm 0,0 UV-I 0 W/m² 4,9 °C 5,6 °C 1,6 km/h (1 Bft)
22.03.2017 23:22 5,6 °C 5,6 °C 95 % 1011,0 hPa 0,0 mm 0,5 km/h (0 Bft) O-SO 104 ° 0 min 0,000 mm 0,0 UV-I 0 W/m² 4,9 °C 5,6 °C 1,6 km/h (1 Bft)
22.03.2017 23:23 5,6 °C 5,6 °C 95 % 1011,1 hPa 0,0 mm 0,4 km/h (0 Bft) O-SO 104 ° 0 min 0,000 mm 0,0 UV-I 0 W/m² 4,9 °C 5,6 °C 1,6 km/h (1 Bft)
22.03.2017 23:24 5,6 °C 5,6 °C 95 % 1011,1 hPa 0,0 mm 0,0 km/h (0 Bft) O-SO 104 ° 0 min 0,000 mm 0,0 UV-I 0 W/m² 4,9 °C 5,6 °C 0,0 km/h (0 Bft)
22.03.2017 23:25 5,6 °C 5,6 °C 95 % 1011,1 hPa 0,0 mm 0,0 km/h (0 Bft) O-SO 104 ° 0 min 0,000 mm 0,0 UV-I 0 W/m² 4,9 °C 5,6 °C 0,0 km/h (0 Bft)
22.03.2017 23:26 5,6 °C 5,6 °C 95 % 1011,2 hPa 0,0 mm 0,0 km/h (0 Bft) O-SO 104 ° 0 min 0,000 mm 0,0 UV-I 0 W/m² 4,9 °C 5,6 °C 0,0 km/h (0 Bft)
22.03.2017 23:27 5,6 °C 5,6 °C 95 % 1011,2 hPa 0,0 mm 0,0 km/h (0 Bft) O-SO 104 ° 0 min 0,000 mm 0,0 UV-I 0 W/m² 4,9 °C 5,6 °C 0,0 km/h (0 Bft)
22.03.2017 23:28 5,6 °C 5,6 °C 95 % 1011,2 hPa 0,0 mm 0,0 km/h (0 Bft) O-SO 104 ° 0 min 0,000 mm 0,0 UV-I 0 W/m² 4,9 °C 5,6 °C 0,0 km/h (0 Bft)
22.03.2017 23:29 5,6 °C 5,6 °C 95 % 1011,2 hPa 0,0 mm 0,0 km/h (0 Bft) O-SO 104 ° 0 min 0,000 mm 0,0 UV-I 0 W/m² 4,9 °C 5,6 °C 0,0 km/h (0 Bft)
22.03.2017 23:30 5,6 °C 5,6 °C 95 % 1011,2 hPa 0,0 mm 0,3 km/h (0 Bft) O-SO 104 ° 0 min 0,000 mm 0,0 UV-I 0 W/m² 4,9 °C 5,6 °C 1,6 km/h (1 Bft)
22.03.2017 23:31 5,6 °C 5,6 °C 95 % 1011,2 hPa 0,0 mm 0,0 km/h (0 Bft) O-SO 104 ° 0 min 0,000 mm 0,0 UV-I 0 W/m² 4,9 °C 5,6 °C 0,0 km/h (0 Bft)
22.03.2017 23:32 5,6 °C 5,6 °C 95 % 1011,2 hPa 0,0 mm 0,0 km/h (0 Bft) O-SO 104 ° 0 min 0,000 mm 0,0 UV-I 0 W/m² 4,9 °C 5,6 °C 0,0 km/h (0 Bft)
22.03.2017 23:33 5,6 °C 5,7 °C 95 % 1011,2 hPa 0,0 mm 0,0 km/h (0 Bft) O-SO 104 ° 0 min 0,000 mm 0,0 UV-I 0 W/m² 4,9 °C 5,6 °C 0,0 km/h (0 Bft)
22.03.2017 23:34 5,7 °C 5,7 °C 95 % 1011,2 hPa 0,0 mm 1,2 km/h (1 Bft) O-SO 104 ° 0 min 0,000 mm 0,0 UV-I 0 W/m² 5,0 °C 5,7 °C 3,2 km/h (1 Bft)
22.03.2017 23:35 5,6 °C 5,7 °C 95 % 1011,2 hPa 0,0 mm 0,7 km/h (0 Bft) O-SO 104 ° 0 min 0,000 mm 0,0 UV-I 0 W/m² 4,9 °C 5,6 °C 1,6 km/h (1 Bft)
22.03.2017 23:36 5,7 °C 5,7 °C 95 % 1011,3 hPa 0,0 mm 0,0 km/h (0 Bft) O-SO 104 ° 0 min 0,000 mm 0,0 UV-I 0 W/m² 5,0 °C 5,7 °C 0,0 km/h (0 Bft)
22.03.2017 23:37 5,6 °C 5,7 °C 95 % 1011,3 hPa 0,0 mm 0,0 km/h (0 Bft) O-SO 104 ° 0 min 0,000 mm 0,0 UV-I 0 W/m² 4,9 °C 5,6 °C 0,0 km/h (0 Bft)
22.03.2017 23:38 5,6 °C 5,7 °C 95 % 1011,3 hPa 0,0 mm 0,1 km/h (0 Bft) O-SO 104 ° 0 min 0,000 mm 0,0 UV-I 0 W/m² 4,9 °C 5,6 °C 1,6 km/h (1 Bft)
22.03.2017 23:39 5,6 °C 5,6 °C 95 % 1011,3 hPa 0,0 mm 0,3 km/h (0 Bft) O-SO 104 ° 0 min 0,000 mm 0,0 UV-I 0 W/m² 4,9 °C 5,6 °C 1,6 km/h (1 Bft)
22.03.2017 23:40 5,6 °C 5,6 °C 95 % 1011,2 hPa 0,0 mm 0,1 km/h (0 Bft) O-SO 104 ° 0 min 0,000 mm 0,0 UV-I 0 W/m² 4,9 °C 5,6 °C 1,6 km/h (1 Bft)
22.03.2017 23:41 5,6 °C 5,6 °C 95 % 1011,3 hPa 0,0 mm 0,0 km/h (0 Bft) O-SO 104 ° 0 min 0,000 mm 0,0 UV-I 0 W/m² 4,9 °C 5,6 °C 0,0 km/h (0 Bft)
22.03.2017 23:42 5,6 °C 5,6 °C 95 % 1011,2 hPa 0,0 mm 0,0 km/h (0 Bft) O-SO 104 ° 0 min 0,000 mm 0,0 UV-I 0 W/m² 4,9 °C 5,6 °C 0,0 km/h (0 Bft)
22.03.2017 23:43 5,6 °C 5,6 °C 95 % 1011,2 hPa 0,0 mm 0,0 km/h (0 Bft) O-SO 104 ° 0 min 0,000 mm 0,0 UV-I 0 W/m² 4,9 °C 5,6 °C 0,0 km/h (0 Bft)
22.03.2017 23:44 5,6 °C 5,6 °C 95 % 1011,2 hPa 0,0 mm 0,0 km/h (0 Bft) O-SO 104 ° 0 min 0,000 mm 0,0 UV-I 0 W/m² 4,9 °C 5,6 °C 0,0 km/h (0 Bft)
22.03.2017 23:45 5,6 °C 5,6 °C 95 % 1011,2 hPa 0,0 mm 0,0 km/h (0 Bft) O-SO 104 ° 0 min 0,000 mm 0,0 UV-I 0 W/m² 4,9 °C 5,6 °C 0,0 km/h (0 Bft)
22.03.2017 23:46 5,6 °C 5,6 °C 95 % 1011,2 hPa 0,0 mm 0,0 km/h (0 Bft) O-SO 104 ° 0 min 0,000 mm 0,0 UV-I 0 W/m² 4,9 °C 5,6 °C 0,0 km/h (0 Bft)
22.03.2017 23:47 5,6 °C 5,6 °C 95 % 1011,2 hPa 0,0 mm 0,0 km/h (0 Bft) O-SO 104 ° 0 min 0,000 mm 0,0 UV-I 0 W/m² 4,9 °C 5,6 °C 0,0 km/h (0 Bft)
22.03.2017 23:48 5,6 °C 5,6 °C 95 % 1011,2 hPa 0,0 mm 0,3 km/h (0 Bft) O-SO 104 ° 0 min 0,000 mm 0,0 UV-I 0 W/m² 4,9 °C 5,6 °C 1,6 km/h (1 Bft)
22.03.2017 23:49 5,6 °C 5,6 °C 95 % 1011,2 hPa 0,0 mm 0,3 km/h (0 Bft) O-SO 104 ° 0 min 0,000 mm 0,0 UV-I 0 W/m² 4,9 °C 5,6 °C 1,6 km/h (1 Bft)
22.03.2017 23:50 5,6 °C 5,6 °C 95 % 1011,1 hPa 0,0 mm 0,0 km/h (0 Bft) O-SO 104 ° 0 min 0,000 mm 0,0 UV-I 0 W/m² 4,9 °C 5,6 °C 0,0 km/h (0 Bft)
22.03.2017 23:51 5,6 °C 5,6 °C 95 % 1011,1 hPa 0,0 mm 2,4 km/h (1 Bft) O-SO 104 ° 0 min 0,000 mm 0,0 UV-I 0 W/m² 4,9 °C 5,6 °C 3,2 km/h (1 Bft)
22.03.2017 23:52 5,6 °C 5,6 °C 95 % 1011,1 hPa 0,0 mm 2,6 km/h (1 Bft) O-SO 104 ° 0 min 0,000 mm 0,0 UV-I 0 W/m² 4,9 °C 5,6 °C 3,2 km/h (1 Bft)
22.03.2017 23:53 5,6 °C 5,6 °C 95 % 1011,1 hPa 0,0 mm 0,8 km/h (0 Bft) O-SO 104 ° 0 min 0,000 mm 0,0 UV-I 0 W/m² 4,9 °C 5,6 °C 1,6 km/h (1 Bft)
22.03.2017 23:54 5,6 °C 5,6 °C 95 % 1011,0 hPa 0,0 mm 0,1 km/h (0 Bft) O-SO 104 ° 0 min 0,000 mm 0,0 UV-I 0 W/m² 4,9 °C 5,6 °C 1,6 km/h (1 Bft)
22.03.2017 23:55 5,6 °C 5,6 °C 95 % 1011,1 hPa 0,0 mm 0,0 km/h (0 Bft) O-SO 104 ° 0 min 0,000 mm 0,0 UV-I 0 W/m² 4,9 °C 5,6 °C 0,0 km/h (0 Bft)
22.03.2017 23:56 5,6 °C 5,6 °C 95 % 1011,1 hPa 0,0 mm 0,1 km/h (0 Bft) O-SO 104 ° 0 min 0,000 mm 0,0 UV-I 0 W/m² 4,9 °C 5,6 °C 1,6 km/h (1 Bft)
22.03.2017 23:57 5,6 °C 5,6 °C 95 % 1011,0 hPa 0,0 mm 0,0 km/h (0 Bft) O-SO 104 ° 0 min 0,000 mm 0,0 UV-I 0 W/m² 4,9 °C 5,6 °C 0,0 km/h (0 Bft)
22.03.2017 23:58 5,5 °C 5,6 °C 95 % 1011,0 hPa 0,0 mm 0,1 km/h (0 Bft) O-SO 104 ° 0 min 0,000 mm 0,0 UV-I 0 W/m² 4,8 °C 5,5 °C 1,6 km/h (1 Bft)
22.03.2017 23:59 5,6 °C 5,6 °C 95 % 1011,0 hPa 0,0 mm 1,7 km/h (1 Bft) O-SO 104 ° 0 min 0,000 mm 0,0 UV-I 0 W/m² 4,9 °C 5,6 °C 3,2 km/h (1 Bft)
_ Min-Zeit 07:44 07:32 00:02 07:11 - 23:57 - - - - - - 07:44 06:55 23:57
Minimum _ 3,9 °C 3,9 °C 89 % 1009,6 hPa - 0,0 km/h (0 Bft) - - - - - - 3,2 °C 1,5 °C 0,0 km/h (0 Bft)
_ Max-Zeit 00:01 15:40 22:59 18:25 09:07 10:31 - - 10:08 11:01 10:10 10:08 15:20 00:01 10:21
Maximum _ 6,8 °C 6,8 °C 96 % 1011,7 hPa 0,2 mm 9,9 km/h
O-NO (2 Bft)
- - 1 min 0,076 mm 1,8 UV-I 292 W/m² 5,6 °C 6,8 °C 14,5 km/h
O-NO (3 Bft)
Durchschnitt _ 5,5 °C 5,5 °C 94 % 1010,8 hPa #5,6 mm 2,9 km/h (1 Bft) O-NO - #1 min. #0,356 mm 0,9 UV-I 35 W/m² 4,6 °C 5,3 °C 4,5 km/h (1 Bft)